<?xml version="1.0" encoding="UTF-8"?>
<gpx version="1.1" creator="https://www.youtrack.es" xsi:schemaLocation="http://www.topografix.com/GPX/1/1 http://www.topografix.com/GPX/1/1/gpx.xsd http://www.garmin.com/xmlschemas/GpxExtensions/v3 http://www.garmin.com/xmlschemas/GpxExtensionsv3.xsd http://www.garmin.com/xmlschemas/TrackPointExtension/v1 http://www.garmin.com/xmlschemas/TrackPointExtensionv1.xsd" xmlns:gpxtpx="http://www.garmin.com/xmlschemas/TrackPointExtension/v1" xmlns:gpxx="http://www.garmin.com/xmlschemas/GpxExtensions/v3" xmlns:xsi="http://www.w3.org/2001/XMLSchema-instance">
  <metadata>
    <link href="https://www.youtrack.es">
      <text>YouTrack.es</text>
    </link>
    <time>2026-05-08T22:47:51Z</time>
  </metadata>
  <trk>
    <src>https://www.youtrack.es</src>
    <link href="https://www.youtrack.es/ruta/19248-jerez-via-serviciomedina-jerez">
      <text>YouTrack.es</text>
    </link>
    <trkseg>
      <trkpt lat="36.678077" lon="-6.109327">
        <ele>38.3</ele>
        <time>2021-02-02T14:54:25Z</time>
      </trkpt>
      <trkpt lat="36.678016" lon="-6.109340">
        <ele>38.3</ele>
        <time>2021-02-02T14:54:26Z</time>
      </trkpt>
      <trkpt lat="36.677892" lon="-6.109368">
        <ele>38.3</ele>
        <time>2021-02-02T14:54:28Z</time>
      </trkpt>
      <trkpt lat="36.677769" lon="-6.109398">
        <ele>38.0</ele>
        <time>2021-02-02T14:54:30Z</time>
      </trkpt>
      <trkpt lat="36.677511" lon="-6.109442">
        <ele>38.0</ele>
        <time>2021-02-02T14:54:34Z</time>
      </trkpt>
      <trkpt lat="36.677198" lon="-6.109462">
        <ele>38.0</ele>
        <time>2021-02-02T14:54:39Z</time>
      </trkpt>
      <trkpt lat="36.676914" lon="-6.109612">
        <ele>38.0</ele>
        <time>2021-02-02T14:54:47Z</time>
      </trkpt>
      <trkpt lat="36.676920" lon="-6.109924">
        <ele>39.5</ele>
        <time>2021-02-02T14:54:52Z</time>
      </trkpt>
      <trkpt lat="36.676930" lon="-6.110080">
        <ele>39.5</ele>
        <time>2021-02-02T14:54:54Z</time>
      </trkpt>
      <trkpt lat="36.676935" lon="-6.110239">
        <ele>39.5</ele>
        <time>2021-02-02T14:54:56Z</time>
      </trkpt>
      <trkpt lat="36.676953" lon="-6.110396">
        <ele>39.4</ele>
        <time>2021-02-02T14:54:58Z</time>
      </trkpt>
      <trkpt lat="36.676967" lon="-6.110561">
        <ele>39.4</ele>
        <time>2021-02-02T14:55:00Z</time>
      </trkpt>
      <trkpt lat="36.676987" lon="-6.110721">
        <ele>39.6</ele>
        <time>2021-02-02T14:55:02Z</time>
      </trkpt>
      <trkpt lat="36.677022" lon="-6.111011">
        <ele>39.0</ele>
        <time>2021-02-02T14:55:05Z</time>
      </trkpt>
      <trkpt lat="36.677081" lon="-6.111328">
        <ele>40.0</ele>
        <time>2021-02-02T14:55:10Z</time>
      </trkpt>
      <trkpt lat="36.677081" lon="-6.111474">
        <ele>40.0</ele>
        <time>2021-02-02T14:55:12Z</time>
      </trkpt>
      <trkpt lat="36.676985" lon="-6.111574">
        <ele>40.0</ele>
        <time>2021-02-02T14:55:14Z</time>
      </trkpt>
      <trkpt lat="36.676860" lon="-6.111619">
        <ele>40.1</ele>
        <time>2021-02-02T14:55:16Z</time>
      </trkpt>
      <trkpt lat="36.676729" lon="-6.111649">
        <ele>40.0</ele>
        <time>2021-02-02T14:55:18Z</time>
      </trkpt>
      <trkpt lat="36.676590" lon="-6.111707">
        <ele>39.9</ele>
        <time>2021-02-02T14:55:20Z</time>
      </trkpt>
      <trkpt lat="36.676454" lon="-6.111763">
        <ele>39.8</ele>
        <time>2021-02-02T14:55:22Z</time>
      </trkpt>
      <trkpt lat="36.676327" lon="-6.111803">
        <ele>39.8</ele>
        <time>2021-02-02T14:55:24Z</time>
      </trkpt>
      <trkpt lat="36.676196" lon="-6.111835">
        <ele>39.7</ele>
        <time>2021-02-02T14:55:26Z</time>
      </trkpt>
      <trkpt lat="36.676073" lon="-6.111832">
        <ele>39.4</ele>
        <time>2021-02-02T14:55:28Z</time>
      </trkpt>
      <trkpt lat="36.675959" lon="-6.111802">
        <ele>39.3</ele>
        <time>2021-02-02T14:55:30Z</time>
      </trkpt>
      <trkpt lat="36.675837" lon="-6.111726">
        <ele>39.2</ele>
        <time>2021-02-02T14:55:32Z</time>
      </trkpt>
      <trkpt lat="36.675721" lon="-6.111652">
        <ele>39.1</ele>
        <time>2021-02-02T14:55:34Z</time>
      </trkpt>
      <trkpt lat="36.675609" lon="-6.111578">
        <ele>38.8</ele>
        <time>2021-02-02T14:55:36Z</time>
      </trkpt>
      <trkpt lat="36.675496" lon="-6.111501">
        <ele>38.7</ele>
        <time>2021-02-02T14:55:38Z</time>
      </trkpt>
      <trkpt lat="36.675384" lon="-6.111419">
        <ele>38.5</ele>
        <time>2021-02-02T14:55:40Z</time>
      </trkpt>
      <trkpt lat="36.675286" lon="-6.111347">
        <ele>38.3</ele>
        <time>2021-02-02T14:55:42Z</time>
      </trkpt>
      <trkpt lat="36.675176" lon="-6.111292">
        <ele>38.2</ele>
        <time>2021-02-02T14:55:44Z</time>
      </trkpt>
      <trkpt lat="36.675052" lon="-6.111242">
        <ele>38.1</ele>
        <time>2021-02-02T14:55:46Z</time>
      </trkpt>
      <trkpt lat="36.674921" lon="-6.111189">
        <ele>38.1</ele>
        <time>2021-02-02T14:55:48Z</time>
      </trkpt>
      <trkpt lat="36.674791" lon="-6.111137">
        <ele>38.1</ele>
        <time>2021-02-02T14:55:50Z</time>
      </trkpt>
      <trkpt lat="36.674659" lon="-6.111092">
        <ele>38.0</ele>
        <time>2021-02-02T14:55:52Z</time>
      </trkpt>
      <trkpt lat="36.674551" lon="-6.111042">
        <ele>38.0</ele>
        <time>2021-02-02T14:55:54Z</time>
      </trkpt>
      <trkpt lat="36.674455" lon="-6.111010">
        <ele>37.9</ele>
        <time>2021-02-02T14:55:56Z</time>
      </trkpt>
      <trkpt lat="36.674355" lon="-6.111002">
        <ele>37.9</ele>
        <time>2021-02-02T14:55:58Z</time>
      </trkpt>
      <trkpt lat="36.674250" lon="-6.111045">
        <ele>37.7</ele>
        <time>2021-02-02T14:56:00Z</time>
      </trkpt>
      <trkpt lat="36.674130" lon="-6.111092">
        <ele>37.7</ele>
        <time>2021-02-02T14:56:02Z</time>
      </trkpt>
      <trkpt lat="36.674015" lon="-6.111044">
        <ele>37.7</ele>
        <time>2021-02-02T14:56:04Z</time>
      </trkpt>
      <trkpt lat="36.673928" lon="-6.110936">
        <ele>37.7</ele>
        <time>2021-02-02T14:56:06Z</time>
      </trkpt>
      <trkpt lat="36.673875" lon="-6.110831">
        <ele>37.7</ele>
        <time>2021-02-02T14:56:08Z</time>
      </trkpt>
      <trkpt lat="36.673915" lon="-6.110730">
        <ele>37.9</ele>
        <time>2021-02-02T14:56:12Z</time>
      </trkpt>
      <trkpt lat="36.673941" lon="-6.110724">
        <ele>37.5</ele>
        <time>2021-02-02T14:56:47Z</time>
      </trkpt>
      <trkpt lat="36.674026" lon="-6.110659">
        <ele>38.0</ele>
        <time>2021-02-02T15:00:55Z</time>
      </trkpt>
      <trkpt lat="36.674163" lon="-6.110646">
        <ele>37.8</ele>
        <time>2021-02-02T15:00:58Z</time>
      </trkpt>
      <trkpt lat="36.674262" lon="-6.110745">
        <ele>38.0</ele>
        <time>2021-02-02T15:01:00Z</time>
      </trkpt>
      <trkpt lat="36.674295" lon="-6.110909">
        <ele>38.2</ele>
        <time>2021-02-02T15:01:02Z</time>
      </trkpt>
      <trkpt lat="36.674243" lon="-6.111053">
        <ele>38.2</ele>
        <time>2021-02-02T15:01:04Z</time>
      </trkpt>
      <trkpt lat="36.674154" lon="-6.111163">
        <ele>38.2</ele>
        <time>2021-02-02T15:01:06Z</time>
      </trkpt>
      <trkpt lat="36.674104" lon="-6.111295">
        <ele>38.5</ele>
        <time>2021-02-02T15:01:08Z</time>
      </trkpt>
      <trkpt lat="36.674096" lon="-6.111449">
        <ele>38.5</ele>
        <time>2021-02-02T15:01:10Z</time>
      </trkpt>
      <trkpt lat="36.674092" lon="-6.111605">
        <ele>38.5</ele>
        <time>2021-02-02T15:01:12Z</time>
      </trkpt>
      <trkpt lat="36.674087" lon="-6.111744">
        <ele>38.5</ele>
        <time>2021-02-02T15:01:14Z</time>
      </trkpt>
      <trkpt lat="36.674083" lon="-6.111868">
        <ele>38.5</ele>
        <time>2021-02-02T15:01:16Z</time>
      </trkpt>
      <trkpt lat="36.674076" lon="-6.111995">
        <ele>38.5</ele>
        <time>2021-02-02T15:01:18Z</time>
      </trkpt>
      <trkpt lat="36.674066" lon="-6.112133">
        <ele>38.5</ele>
        <time>2021-02-02T15:01:20Z</time>
      </trkpt>
      <trkpt lat="36.674054" lon="-6.112289">
        <ele>38.6</ele>
        <time>2021-02-02T15:01:22Z</time>
      </trkpt>
      <trkpt lat="36.674041" lon="-6.112444">
        <ele>38.7</ele>
        <time>2021-02-02T15:01:24Z</time>
      </trkpt>
      <trkpt lat="36.674027" lon="-6.112607">
        <ele>38.8</ele>
        <time>2021-02-02T15:01:26Z</time>
      </trkpt>
      <trkpt lat="36.674017" lon="-6.112762">
        <ele>38.8</ele>
        <time>2021-02-02T15:01:28Z</time>
      </trkpt>
      <trkpt lat="36.674002" lon="-6.112928">
        <ele>39.0</ele>
        <time>2021-02-02T15:01:30Z</time>
      </trkpt>
      <trkpt lat="36.673992" lon="-6.113088">
        <ele>39.1</ele>
        <time>2021-02-02T15:01:32Z</time>
      </trkpt>
      <trkpt lat="36.673978" lon="-6.113252">
        <ele>39.3</ele>
        <time>2021-02-02T15:01:34Z</time>
      </trkpt>
      <trkpt lat="36.673966" lon="-6.113417">
        <ele>39.4</ele>
        <time>2021-02-02T15:01:36Z</time>
      </trkpt>
      <trkpt lat="36.673952" lon="-6.113584">
        <ele>39.3</ele>
        <time>2021-02-02T15:01:38Z</time>
      </trkpt>
      <trkpt lat="36.673937" lon="-6.113752">
        <ele>39.3</ele>
        <time>2021-02-02T15:01:40Z</time>
      </trkpt>
      <trkpt lat="36.673922" lon="-6.113920">
        <ele>39.4</ele>
        <time>2021-02-02T15:01:42Z</time>
      </trkpt>
      <trkpt lat="36.673905" lon="-6.114087">
        <ele>39.5</ele>
        <time>2021-02-02T15:01:44Z</time>
      </trkpt>
      <trkpt lat="36.673895" lon="-6.114245">
        <ele>39.5</ele>
        <time>2021-02-02T15:01:46Z</time>
      </trkpt>
      <trkpt lat="36.673883" lon="-6.114398">
        <ele>39.6</ele>
        <time>2021-02-02T15:01:48Z</time>
      </trkpt>
      <trkpt lat="36.673874" lon="-6.114543">
        <ele>39.8</ele>
        <time>2021-02-02T15:01:50Z</time>
      </trkpt>
      <trkpt lat="36.673862" lon="-6.114685">
        <ele>40.1</ele>
        <time>2021-02-02T15:01:52Z</time>
      </trkpt>
      <trkpt lat="36.673846" lon="-6.114835">
        <ele>40.3</ele>
        <time>2021-02-02T15:01:54Z</time>
      </trkpt>
      <trkpt lat="36.673829" lon="-6.114994">
        <ele>40.6</ele>
        <time>2021-02-02T15:01:56Z</time>
      </trkpt>
      <trkpt lat="36.673820" lon="-6.115142">
        <ele>40.8</ele>
        <time>2021-02-02T15:01:58Z</time>
      </trkpt>
      <trkpt lat="36.673805" lon="-6.115286">
        <ele>41.0</ele>
        <time>2021-02-02T15:02:00Z</time>
      </trkpt>
      <trkpt lat="36.673781" lon="-6.115426">
        <ele>41.1</ele>
        <time>2021-02-02T15:02:02Z</time>
      </trkpt>
      <trkpt lat="36.673759" lon="-6.115574">
        <ele>41.3</ele>
        <time>2021-02-02T15:02:04Z</time>
      </trkpt>
      <trkpt lat="36.673740" lon="-6.115731">
        <ele>41.5</ele>
        <time>2021-02-02T15:02:06Z</time>
      </trkpt>
      <trkpt lat="36.673729" lon="-6.115892">
        <ele>41.8</ele>
        <time>2021-02-02T15:02:08Z</time>
      </trkpt>
      <trkpt lat="36.673731" lon="-6.116046">
        <ele>42.0</ele>
        <time>2021-02-02T15:02:10Z</time>
      </trkpt>
      <trkpt lat="36.673721" lon="-6.116201">
        <ele>42.2</ele>
        <time>2021-02-02T15:02:12Z</time>
      </trkpt>
      <trkpt lat="36.673710" lon="-6.116358">
        <ele>42.3</ele>
        <time>2021-02-02T15:02:14Z</time>
      </trkpt>
      <trkpt lat="36.673700" lon="-6.116509">
        <ele>42.6</ele>
        <time>2021-02-02T15:02:16Z</time>
      </trkpt>
      <trkpt lat="36.673687" lon="-6.116661">
        <ele>42.6</ele>
        <time>2021-02-02T15:02:18Z</time>
      </trkpt>
      <trkpt lat="36.673677" lon="-6.116813">
        <ele>42.5</ele>
        <time>2021-02-02T15:02:20Z</time>
      </trkpt>
      <trkpt lat="36.673665" lon="-6.116970">
        <ele>42.5</ele>
        <time>2021-02-02T15:02:22Z</time>
      </trkpt>
      <trkpt lat="36.673656" lon="-6.117122">
        <ele>42.6</ele>
        <time>2021-02-02T15:02:24Z</time>
      </trkpt>
      <trkpt lat="36.673646" lon="-6.117273">
        <ele>42.7</ele>
        <time>2021-02-02T15:02:26Z</time>
      </trkpt>
      <trkpt lat="36.673638" lon="-6.117428">
        <ele>42.9</ele>
        <time>2021-02-02T15:02:28Z</time>
      </trkpt>
      <trkpt lat="36.673629" lon="-6.117578">
        <ele>42.8</ele>
        <time>2021-02-02T15:02:30Z</time>
      </trkpt>
      <trkpt lat="36.673617" lon="-6.117734">
        <ele>42.9</ele>
        <time>2021-02-02T15:02:32Z</time>
      </trkpt>
      <trkpt lat="36.673607" lon="-6.117883">
        <ele>43.0</ele>
        <time>2021-02-02T15:02:34Z</time>
      </trkpt>
      <trkpt lat="36.673592" lon="-6.118034">
        <ele>43.3</ele>
        <time>2021-02-02T15:02:36Z</time>
      </trkpt>
      <trkpt lat="36.673582" lon="-6.118173">
        <ele>43.5</ele>
        <time>2021-02-02T15:02:38Z</time>
      </trkpt>
      <trkpt lat="36.673580" lon="-6.118292">
        <ele>43.9</ele>
        <time>2021-02-02T15:02:40Z</time>
      </trkpt>
      <trkpt lat="36.673636" lon="-6.118437">
        <ele>44.4</ele>
        <time>2021-02-02T15:02:43Z</time>
      </trkpt>
      <trkpt lat="36.673703" lon="-6.118544">
        <ele>44.7</ele>
        <time>2021-02-02T15:02:46Z</time>
      </trkpt>
      <trkpt lat="36.673727" lon="-6.118682">
        <ele>44.9</ele>
        <time>2021-02-02T15:02:49Z</time>
      </trkpt>
      <trkpt lat="36.673670" lon="-6.118829">
        <ele>45.3</ele>
        <time>2021-02-02T15:02:52Z</time>
      </trkpt>
      <trkpt lat="36.673566" lon="-6.118899">
        <ele>45.6</ele>
        <time>2021-02-02T15:02:54Z</time>
      </trkpt>
      <trkpt lat="36.673446" lon="-6.118884">
        <ele>45.7</ele>
        <time>2021-02-02T15:02:56Z</time>
      </trkpt>
      <trkpt lat="36.673358" lon="-6.118793">
        <ele>45.9</ele>
        <time>2021-02-02T15:02:58Z</time>
      </trkpt>
      <trkpt lat="36.673303" lon="-6.118664">
        <ele>46.0</ele>
        <time>2021-02-02T15:03:00Z</time>
      </trkpt>
      <trkpt lat="36.673234" lon="-6.118548">
        <ele>45.9</ele>
        <time>2021-02-02T15:03:02Z</time>
      </trkpt>
      <trkpt lat="36.673134" lon="-6.118476">
        <ele>45.7</ele>
        <time>2021-02-02T15:03:04Z</time>
      </trkpt>
      <trkpt lat="36.673028" lon="-6.118415">
        <ele>45.7</ele>
        <time>2021-02-02T15:03:06Z</time>
      </trkpt>
      <trkpt lat="36.672924" lon="-6.118341">
        <ele>45.5</ele>
        <time>2021-02-02T15:03:08Z</time>
      </trkpt>
      <trkpt lat="36.672834" lon="-6.118252">
        <ele>45.5</ele>
        <time>2021-02-02T15:03:10Z</time>
      </trkpt>
      <trkpt lat="36.672750" lon="-6.118152">
        <ele>45.5</ele>
        <time>2021-02-02T15:03:12Z</time>
      </trkpt>
      <trkpt lat="36.672664" lon="-6.118046">
        <ele>45.6</ele>
        <time>2021-02-02T15:03:14Z</time>
      </trkpt>
      <trkpt lat="36.672574" lon="-6.117938">
        <ele>45.6</ele>
        <time>2021-02-02T15:03:16Z</time>
      </trkpt>
      <trkpt lat="36.672484" lon="-6.117827">
        <ele>45.5</ele>
        <time>2021-02-02T15:03:18Z</time>
      </trkpt>
      <trkpt lat="36.672396" lon="-6.117715">
        <ele>45.4</ele>
        <time>2021-02-02T15:03:20Z</time>
      </trkpt>
      <trkpt lat="36.672307" lon="-6.117614">
        <ele>45.4</ele>
        <time>2021-02-02T15:03:22Z</time>
      </trkpt>
      <trkpt lat="36.672220" lon="-6.117513">
        <ele>45.2</ele>
        <time>2021-02-02T15:03:24Z</time>
      </trkpt>
      <trkpt lat="36.672133" lon="-6.117411">
        <ele>45.1</ele>
        <time>2021-02-02T15:03:26Z</time>
      </trkpt>
      <trkpt lat="36.672048" lon="-6.117307">
        <ele>45.0</ele>
        <time>2021-02-02T15:03:28Z</time>
      </trkpt>
      <trkpt lat="36.671961" lon="-6.117198">
        <ele>44.9</ele>
        <time>2021-02-02T15:03:30Z</time>
      </trkpt>
      <trkpt lat="36.671879" lon="-6.117088">
        <ele>45.1</ele>
        <time>2021-02-02T15:03:32Z</time>
      </trkpt>
      <trkpt lat="36.671804" lon="-6.116981">
        <ele>45.0</ele>
        <time>2021-02-02T15:03:34Z</time>
      </trkpt>
      <trkpt lat="36.671733" lon="-6.116881">
        <ele>45.0</ele>
        <time>2021-02-02T15:03:36Z</time>
      </trkpt>
      <trkpt lat="36.671660" lon="-6.116777">
        <ele>44.8</ele>
        <time>2021-02-02T15:03:38Z</time>
      </trkpt>
      <trkpt lat="36.671582" lon="-6.116668">
        <ele>44.8</ele>
        <time>2021-02-02T15:03:40Z</time>
      </trkpt>
      <trkpt lat="36.671496" lon="-6.116558">
        <ele>44.8</ele>
        <time>2021-02-02T15:03:42Z</time>
      </trkpt>
      <trkpt lat="36.671411" lon="-6.116443">
        <ele>44.7</ele>
        <time>2021-02-02T15:03:44Z</time>
      </trkpt>
      <trkpt lat="36.671327" lon="-6.116328">
        <ele>45.0</ele>
        <time>2021-02-02T15:03:46Z</time>
      </trkpt>
      <trkpt lat="36.671248" lon="-6.116214">
        <ele>45.1</ele>
        <time>2021-02-02T15:03:48Z</time>
      </trkpt>
      <trkpt lat="36.671172" lon="-6.116101">
        <ele>45.3</ele>
        <time>2021-02-02T15:03:50Z</time>
      </trkpt>
      <trkpt lat="36.671099" lon="-6.115989">
        <ele>45.5</ele>
        <time>2021-02-02T15:03:52Z</time>
      </trkpt>
      <trkpt lat="36.671027" lon="-6.115877">
        <ele>45.7</ele>
        <time>2021-02-02T15:03:54Z</time>
      </trkpt>
      <trkpt lat="36.670957" lon="-6.115770">
        <ele>46.0</ele>
        <time>2021-02-02T15:03:56Z</time>
      </trkpt>
      <trkpt lat="36.670886" lon="-6.115663">
        <ele>46.2</ele>
        <time>2021-02-02T15:03:58Z</time>
      </trkpt>
      <trkpt lat="36.670814" lon="-6.115554">
        <ele>46.4</ele>
        <time>2021-02-02T15:04:00Z</time>
      </trkpt>
      <trkpt lat="36.670743" lon="-6.115456">
        <ele>46.7</ele>
        <time>2021-02-02T15:04:02Z</time>
      </trkpt>
      <trkpt lat="36.670672" lon="-6.115355">
        <ele>47.0</ele>
        <time>2021-02-02T15:04:04Z</time>
      </trkpt>
      <trkpt lat="36.670601" lon="-6.115247">
        <ele>47.3</ele>
        <time>2021-02-02T15:04:06Z</time>
      </trkpt>
      <trkpt lat="36.670533" lon="-6.115143">
        <ele>47.3</ele>
        <time>2021-02-02T15:04:08Z</time>
      </trkpt>
      <trkpt lat="36.670462" lon="-6.115034">
        <ele>47.4</ele>
        <time>2021-02-02T15:04:10Z</time>
      </trkpt>
      <trkpt lat="36.670395" lon="-6.114925">
        <ele>47.4</ele>
        <time>2021-02-02T15:04:12Z</time>
      </trkpt>
      <trkpt lat="36.670326" lon="-6.114812">
        <ele>47.3</ele>
        <time>2021-02-02T15:04:14Z</time>
      </trkpt>
      <trkpt lat="36.670257" lon="-6.114699">
        <ele>47.2</ele>
        <time>2021-02-02T15:04:16Z</time>
      </trkpt>
      <trkpt lat="36.670191" lon="-6.114586">
        <ele>47.8</ele>
        <time>2021-02-02T15:04:18Z</time>
      </trkpt>
      <trkpt lat="36.670126" lon="-6.114476">
        <ele>47.8</ele>
        <time>2021-02-02T15:04:20Z</time>
      </trkpt>
      <trkpt lat="36.670062" lon="-6.114363">
        <ele>47.8</ele>
        <time>2021-02-02T15:04:22Z</time>
      </trkpt>
      <trkpt lat="36.670002" lon="-6.114250">
        <ele>47.9</ele>
        <time>2021-02-02T15:04:24Z</time>
      </trkpt>
      <trkpt lat="36.669947" lon="-6.114130">
        <ele>47.9</ele>
        <time>2021-02-02T15:04:26Z</time>
      </trkpt>
      <trkpt lat="36.669892" lon="-6.114005">
        <ele>47.9</ele>
        <time>2021-02-02T15:04:28Z</time>
      </trkpt>
      <trkpt lat="36.669838" lon="-6.113880">
        <ele>48.2</ele>
        <time>2021-02-02T15:04:30Z</time>
      </trkpt>
      <trkpt lat="36.669784" lon="-6.113762">
        <ele>48.4</ele>
        <time>2021-02-02T15:04:32Z</time>
      </trkpt>
      <trkpt lat="36.669731" lon="-6.113644">
        <ele>48.6</ele>
        <time>2021-02-02T15:04:34Z</time>
      </trkpt>
      <trkpt lat="36.669679" lon="-6.113530">
        <ele>48.6</ele>
        <time>2021-02-02T15:04:36Z</time>
      </trkpt>
      <trkpt lat="36.669629" lon="-6.113411">
        <ele>48.9</ele>
        <time>2021-02-02T15:04:38Z</time>
      </trkpt>
      <trkpt lat="36.669580" lon="-6.113288">
        <ele>48.9</ele>
        <time>2021-02-02T15:04:40Z</time>
      </trkpt>
      <trkpt lat="36.669531" lon="-6.113176">
        <ele>49.2</ele>
        <time>2021-02-02T15:04:42Z</time>
      </trkpt>
      <trkpt lat="36.669478" lon="-6.113065">
        <ele>49.4</ele>
        <time>2021-02-02T15:04:44Z</time>
      </trkpt>
      <trkpt lat="36.669424" lon="-6.112946">
        <ele>49.5</ele>
        <time>2021-02-02T15:04:46Z</time>
      </trkpt>
      <trkpt lat="36.669370" lon="-6.112832">
        <ele>49.7</ele>
        <time>2021-02-02T15:04:48Z</time>
      </trkpt>
      <trkpt lat="36.669310" lon="-6.112723">
        <ele>50.0</ele>
        <time>2021-02-02T15:04:50Z</time>
      </trkpt>
      <trkpt lat="36.669249" lon="-6.112607">
        <ele>50.0</ele>
        <time>2021-02-02T15:04:52Z</time>
      </trkpt>
      <trkpt lat="36.669194" lon="-6.112479">
        <ele>49.9</ele>
        <time>2021-02-02T15:04:54Z</time>
      </trkpt>
      <trkpt lat="36.669126" lon="-6.112364">
        <ele>50.0</ele>
        <time>2021-02-02T15:04:56Z</time>
      </trkpt>
      <trkpt lat="36.669057" lon="-6.112251">
        <ele>49.8</ele>
        <time>2021-02-02T15:04:58Z</time>
      </trkpt>
      <trkpt lat="36.668996" lon="-6.112124">
        <ele>49.5</ele>
        <time>2021-02-02T15:05:00Z</time>
      </trkpt>
      <trkpt lat="36.668928" lon="-6.112001">
        <ele>49.5</ele>
        <time>2021-02-02T15:05:02Z</time>
      </trkpt>
      <trkpt lat="36.668864" lon="-6.111873">
        <ele>50.1</ele>
        <time>2021-02-02T15:05:04Z</time>
      </trkpt>
      <trkpt lat="36.668813" lon="-6.111729">
        <ele>50.2</ele>
        <time>2021-02-02T15:05:06Z</time>
      </trkpt>
      <trkpt lat="36.668754" lon="-6.111593">
        <ele>50.6</ele>
        <time>2021-02-02T15:05:08Z</time>
      </trkpt>
      <trkpt lat="36.668701" lon="-6.111454">
        <ele>50.5</ele>
        <time>2021-02-02T15:05:10Z</time>
      </trkpt>
      <trkpt lat="36.668633" lon="-6.111322">
        <ele>50.5</ele>
        <time>2021-02-02T15:05:12Z</time>
      </trkpt>
      <trkpt lat="36.668580" lon="-6.111181">
        <ele>49.9</ele>
        <time>2021-02-02T15:05:14Z</time>
      </trkpt>
      <trkpt lat="36.668528" lon="-6.111039">
        <ele>49.7</ele>
        <time>2021-02-02T15:05:16Z</time>
      </trkpt>
      <trkpt lat="36.668480" lon="-6.110892">
        <ele>50.0</ele>
        <time>2021-02-02T15:05:18Z</time>
      </trkpt>
      <trkpt lat="36.668427" lon="-6.110746">
        <ele>49.8</ele>
        <time>2021-02-02T15:05:20Z</time>
      </trkpt>
      <trkpt lat="36.668374" lon="-6.110600">
        <ele>49.6</ele>
        <time>2021-02-02T15:05:22Z</time>
      </trkpt>
      <trkpt lat="36.668320" lon="-6.110453">
        <ele>49.6</ele>
        <time>2021-02-02T15:05:24Z</time>
      </trkpt>
      <trkpt lat="36.668256" lon="-6.110312">
        <ele>49.5</ele>
        <time>2021-02-02T15:05:26Z</time>
      </trkpt>
      <trkpt lat="36.668192" lon="-6.110169">
        <ele>49.6</ele>
        <time>2021-02-02T15:05:28Z</time>
      </trkpt>
      <trkpt lat="36.668133" lon="-6.110024">
        <ele>49.5</ele>
        <time>2021-02-02T15:05:30Z</time>
      </trkpt>
      <trkpt lat="36.668073" lon="-6.109877">
        <ele>49.3</ele>
        <time>2021-02-02T15:05:32Z</time>
      </trkpt>
      <trkpt lat="36.668014" lon="-6.109728">
        <ele>49.7</ele>
        <time>2021-02-02T15:05:34Z</time>
      </trkpt>
      <trkpt lat="36.667953" lon="-6.109582">
        <ele>49.6</ele>
        <time>2021-02-02T15:05:36Z</time>
      </trkpt>
      <trkpt lat="36.667891" lon="-6.109433">
        <ele>49.5</ele>
        <time>2021-02-02T15:05:38Z</time>
      </trkpt>
      <trkpt lat="36.667835" lon="-6.109285">
        <ele>49.7</ele>
        <time>2021-02-02T15:05:40Z</time>
      </trkpt>
      <trkpt lat="36.667767" lon="-6.109145">
        <ele>49.4</ele>
        <time>2021-02-02T15:05:42Z</time>
      </trkpt>
      <trkpt lat="36.667695" lon="-6.109011">
        <ele>49.2</ele>
        <time>2021-02-02T15:05:44Z</time>
      </trkpt>
      <trkpt lat="36.667627" lon="-6.108878">
        <ele>49.3</ele>
        <time>2021-02-02T15:05:46Z</time>
      </trkpt>
      <trkpt lat="36.667557" lon="-6.108746">
        <ele>49.3</ele>
        <time>2021-02-02T15:05:48Z</time>
      </trkpt>
      <trkpt lat="36.667495" lon="-6.108608">
        <ele>49.5</ele>
        <time>2021-02-02T15:05:50Z</time>
      </trkpt>
      <trkpt lat="36.667431" lon="-6.108469">
        <ele>49.4</ele>
        <time>2021-02-02T15:05:52Z</time>
      </trkpt>
      <trkpt lat="36.667364" lon="-6.108331">
        <ele>49.3</ele>
        <time>2021-02-02T15:05:54Z</time>
      </trkpt>
      <trkpt lat="36.667292" lon="-6.108194">
        <ele>49.1</ele>
        <time>2021-02-02T15:05:56Z</time>
      </trkpt>
      <trkpt lat="36.667203" lon="-6.108072">
        <ele>48.8</ele>
        <time>2021-02-02T15:05:58Z</time>
      </trkpt>
      <trkpt lat="36.667102" lon="-6.107969">
        <ele>48.9</ele>
        <time>2021-02-02T15:06:00Z</time>
      </trkpt>
      <trkpt lat="36.667005" lon="-6.107862">
        <ele>48.9</ele>
        <time>2021-02-02T15:06:02Z</time>
      </trkpt>
      <trkpt lat="36.666924" lon="-6.107737">
        <ele>49.1</ele>
        <time>2021-02-02T15:06:04Z</time>
      </trkpt>
      <trkpt lat="36.666856" lon="-6.107597">
        <ele>49.1</ele>
        <time>2021-02-02T15:06:06Z</time>
      </trkpt>
      <trkpt lat="36.666799" lon="-6.107449">
        <ele>49.1</ele>
        <time>2021-02-02T15:06:08Z</time>
      </trkpt>
      <trkpt lat="36.666741" lon="-6.107304">
        <ele>49.0</ele>
        <time>2021-02-02T15:06:10Z</time>
      </trkpt>
      <trkpt lat="36.666685" lon="-6.107158">
        <ele>49.0</ele>
        <time>2021-02-02T15:06:12Z</time>
      </trkpt>
      <trkpt lat="36.666627" lon="-6.107014">
        <ele>48.8</ele>
        <time>2021-02-02T15:06:14Z</time>
      </trkpt>
      <trkpt lat="36.666570" lon="-6.106874">
        <ele>48.9</ele>
        <time>2021-02-02T15:06:16Z</time>
      </trkpt>
      <trkpt lat="36.666511" lon="-6.106736">
        <ele>49.2</ele>
        <time>2021-02-02T15:06:18Z</time>
      </trkpt>
      <trkpt lat="36.666458" lon="-6.106596">
        <ele>49.2</ele>
        <time>2021-02-02T15:06:20Z</time>
      </trkpt>
      <trkpt lat="36.666406" lon="-6.106456">
        <ele>49.1</ele>
        <time>2021-02-02T15:06:22Z</time>
      </trkpt>
      <trkpt lat="36.666348" lon="-6.106316">
        <ele>49.3</ele>
        <time>2021-02-02T15:06:24Z</time>
      </trkpt>
      <trkpt lat="36.666294" lon="-6.106174">
        <ele>49.2</ele>
        <time>2021-02-02T15:06:26Z</time>
      </trkpt>
      <trkpt lat="36.666241" lon="-6.106033">
        <ele>49.0</ele>
        <time>2021-02-02T15:06:28Z</time>
      </trkpt>
      <trkpt lat="36.666180" lon="-6.105894">
        <ele>48.8</ele>
        <time>2021-02-02T15:06:30Z</time>
      </trkpt>
      <trkpt lat="36.666116" lon="-6.105757">
        <ele>49.4</ele>
        <time>2021-02-02T15:06:32Z</time>
      </trkpt>
      <trkpt lat="36.666051" lon="-6.105619">
        <ele>49.2</ele>
        <time>2021-02-02T15:06:34Z</time>
      </trkpt>
      <trkpt lat="36.665985" lon="-6.105484">
        <ele>49.0</ele>
        <time>2021-02-02T15:06:36Z</time>
      </trkpt>
      <trkpt lat="36.665916" lon="-6.105351">
        <ele>49.0</ele>
        <time>2021-02-02T15:06:38Z</time>
      </trkpt>
      <trkpt lat="36.665845" lon="-6.105217">
        <ele>48.8</ele>
        <time>2021-02-02T15:06:40Z</time>
      </trkpt>
      <trkpt lat="36.665776" lon="-6.105081">
        <ele>48.4</ele>
        <time>2021-02-02T15:06:42Z</time>
      </trkpt>
      <trkpt lat="36.665706" lon="-6.104944">
        <ele>48.2</ele>
        <time>2021-02-02T15:06:44Z</time>
      </trkpt>
      <trkpt lat="36.665640" lon="-6.104808">
        <ele>48.1</ele>
        <time>2021-02-02T15:06:46Z</time>
      </trkpt>
      <trkpt lat="36.665581" lon="-6.104665">
        <ele>47.7</ele>
        <time>2021-02-02T15:06:48Z</time>
      </trkpt>
      <trkpt lat="36.665528" lon="-6.104519">
        <ele>47.4</ele>
        <time>2021-02-02T15:06:50Z</time>
      </trkpt>
      <trkpt lat="36.665480" lon="-6.104371">
        <ele>47.0</ele>
        <time>2021-02-02T15:06:52Z</time>
      </trkpt>
      <trkpt lat="36.665427" lon="-6.104227">
        <ele>46.9</ele>
        <time>2021-02-02T15:06:54Z</time>
      </trkpt>
      <trkpt lat="36.665378" lon="-6.104081">
        <ele>47.1</ele>
        <time>2021-02-02T15:06:56Z</time>
      </trkpt>
      <trkpt lat="36.665333" lon="-6.103934">
        <ele>47.6</ele>
        <time>2021-02-02T15:06:58Z</time>
      </trkpt>
      <trkpt lat="36.665293" lon="-6.103786">
        <ele>47.3</ele>
        <time>2021-02-02T15:07:00Z</time>
      </trkpt>
      <trkpt lat="36.665257" lon="-6.103637">
        <ele>47.2</ele>
        <time>2021-02-02T15:07:02Z</time>
      </trkpt>
      <trkpt lat="36.665221" lon="-6.103488">
        <ele>46.8</ele>
        <time>2021-02-02T15:07:04Z</time>
      </trkpt>
      <trkpt lat="36.665188" lon="-6.103340">
        <ele>46.8</ele>
        <time>2021-02-02T15:07:06Z</time>
      </trkpt>
      <trkpt lat="36.665155" lon="-6.103192">
        <ele>46.9</ele>
        <time>2021-02-02T15:07:08Z</time>
      </trkpt>
      <trkpt lat="36.665117" lon="-6.103048">
        <ele>46.9</ele>
        <time>2021-02-02T15:07:10Z</time>
      </trkpt>
      <trkpt lat="36.665080" lon="-6.102903">
        <ele>46.7</ele>
        <time>2021-02-02T15:07:12Z</time>
      </trkpt>
      <trkpt lat="36.665047" lon="-6.102757">
        <ele>46.6</ele>
        <time>2021-02-02T15:07:14Z</time>
      </trkpt>
      <trkpt lat="36.665018" lon="-6.102611">
        <ele>46.6</ele>
        <time>2021-02-02T15:07:16Z</time>
      </trkpt>
      <trkpt lat="36.664987" lon="-6.102468">
        <ele>46.7</ele>
        <time>2021-02-02T15:07:18Z</time>
      </trkpt>
      <trkpt lat="36.664954" lon="-6.102328">
        <ele>46.8</ele>
        <time>2021-02-02T15:07:20Z</time>
      </trkpt>
      <trkpt lat="36.664923" lon="-6.102190">
        <ele>46.9</ele>
        <time>2021-02-02T15:07:22Z</time>
      </trkpt>
      <trkpt lat="36.664892" lon="-6.102049">
        <ele>47.1</ele>
        <time>2021-02-02T15:07:24Z</time>
      </trkpt>
      <trkpt lat="36.664861" lon="-6.101908">
        <ele>47.5</ele>
        <time>2021-02-02T15:07:26Z</time>
      </trkpt>
      <trkpt lat="36.664829" lon="-6.101766">
        <ele>47.6</ele>
        <time>2021-02-02T15:07:28Z</time>
      </trkpt>
      <trkpt lat="36.664801" lon="-6.101623">
        <ele>47.5</ele>
        <time>2021-02-02T15:07:30Z</time>
      </trkpt>
      <trkpt lat="36.664774" lon="-6.101476">
        <ele>47.4</ele>
        <time>2021-02-02T15:07:32Z</time>
      </trkpt>
      <trkpt lat="36.664745" lon="-6.101333">
        <ele>47.4</ele>
        <time>2021-02-02T15:07:34Z</time>
      </trkpt>
      <trkpt lat="36.664710" lon="-6.101195">
        <ele>47.3</ele>
        <time>2021-02-02T15:07:36Z</time>
      </trkpt>
      <trkpt lat="36.664680" lon="-6.101054">
        <ele>47.6</ele>
        <time>2021-02-02T15:07:38Z</time>
      </trkpt>
      <trkpt lat="36.664646" lon="-6.100912">
        <ele>47.6</ele>
        <time>2021-02-02T15:07:40Z</time>
      </trkpt>
      <trkpt lat="36.664615" lon="-6.100773">
        <ele>47.5</ele>
        <time>2021-02-02T15:07:42Z</time>
      </trkpt>
      <trkpt lat="36.664584" lon="-6.100634">
        <ele>46.9</ele>
        <time>2021-02-02T15:07:44Z</time>
      </trkpt>
      <trkpt lat="36.664554" lon="-6.100497">
        <ele>46.5</ele>
        <time>2021-02-02T15:07:46Z</time>
      </trkpt>
      <trkpt lat="36.664524" lon="-6.100369">
        <ele>46.9</ele>
        <time>2021-02-02T15:07:48Z</time>
      </trkpt>
      <trkpt lat="36.664498" lon="-6.100241">
        <ele>47.1</ele>
        <time>2021-02-02T15:07:50Z</time>
      </trkpt>
      <trkpt lat="36.664471" lon="-6.100113">
        <ele>47.4</ele>
        <time>2021-02-02T15:07:52Z</time>
      </trkpt>
      <trkpt lat="36.664434" lon="-6.099986">
        <ele>47.4</ele>
        <time>2021-02-02T15:07:54Z</time>
      </trkpt>
      <trkpt lat="36.664391" lon="-6.099856">
        <ele>47.8</ele>
        <time>2021-02-02T15:07:56Z</time>
      </trkpt>
      <trkpt lat="36.664347" lon="-6.099727">
        <ele>47.7</ele>
        <time>2021-02-02T15:07:58Z</time>
      </trkpt>
      <trkpt lat="36.664297" lon="-6.099605">
        <ele>48.0</ele>
        <time>2021-02-02T15:08:00Z</time>
      </trkpt>
      <trkpt lat="36.664238" lon="-6.099477">
        <ele>47.9</ele>
        <time>2021-02-02T15:08:02Z</time>
      </trkpt>
      <trkpt lat="36.664183" lon="-6.099349">
        <ele>47.6</ele>
        <time>2021-02-02T15:08:04Z</time>
      </trkpt>
      <trkpt lat="36.664134" lon="-6.099217">
        <ele>47.9</ele>
        <time>2021-02-02T15:08:06Z</time>
      </trkpt>
      <trkpt lat="36.664089" lon="-6.099088">
        <ele>48.2</ele>
        <time>2021-02-02T15:08:08Z</time>
      </trkpt>
      <trkpt lat="36.664049" lon="-6.098957">
        <ele>48.3</ele>
        <time>2021-02-02T15:08:10Z</time>
      </trkpt>
      <trkpt lat="36.664001" lon="-6.098830">
        <ele>48.4</ele>
        <time>2021-02-02T15:08:12Z</time>
      </trkpt>
      <trkpt lat="36.663950" lon="-6.098708">
        <ele>48.7</ele>
        <time>2021-02-02T15:08:14Z</time>
      </trkpt>
      <trkpt lat="36.663891" lon="-6.098586">
        <ele>48.9</ele>
        <time>2021-02-02T15:08:16Z</time>
      </trkpt>
      <trkpt lat="36.663838" lon="-6.098472">
        <ele>49.2</ele>
        <time>2021-02-02T15:08:18Z</time>
      </trkpt>
      <trkpt lat="36.663785" lon="-6.098351">
        <ele>49.5</ele>
        <time>2021-02-02T15:08:20Z</time>
      </trkpt>
      <trkpt lat="36.663735" lon="-6.098228">
        <ele>49.6</ele>
        <time>2021-02-02T15:08:22Z</time>
      </trkpt>
      <trkpt lat="36.663690" lon="-6.098102">
        <ele>49.9</ele>
        <time>2021-02-02T15:08:24Z</time>
      </trkpt>
      <trkpt lat="36.663639" lon="-6.097978">
        <ele>50.1</ele>
        <time>2021-02-02T15:08:26Z</time>
      </trkpt>
      <trkpt lat="36.663593" lon="-6.097854">
        <ele>50.2</ele>
        <time>2021-02-02T15:08:28Z</time>
      </trkpt>
      <trkpt lat="36.663545" lon="-6.097731">
        <ele>50.6</ele>
        <time>2021-02-02T15:08:30Z</time>
      </trkpt>
      <trkpt lat="36.663501" lon="-6.097610">
        <ele>50.9</ele>
        <time>2021-02-02T15:08:32Z</time>
      </trkpt>
      <trkpt lat="36.663458" lon="-6.097494">
        <ele>51.1</ele>
        <time>2021-02-02T15:08:34Z</time>
      </trkpt>
      <trkpt lat="36.663417" lon="-6.097371">
        <ele>51.3</ele>
        <time>2021-02-02T15:08:36Z</time>
      </trkpt>
      <trkpt lat="36.663375" lon="-6.097249">
        <ele>51.6</ele>
        <time>2021-02-02T15:08:38Z</time>
      </trkpt>
      <trkpt lat="36.663330" lon="-6.097129">
        <ele>52.2</ele>
        <time>2021-02-02T15:08:40Z</time>
      </trkpt>
      <trkpt lat="36.663283" lon="-6.097010">
        <ele>52.2</ele>
        <time>2021-02-02T15:08:42Z</time>
      </trkpt>
      <trkpt lat="36.663241" lon="-6.096897">
        <ele>52.5</ele>
        <time>2021-02-02T15:08:44Z</time>
      </trkpt>
      <trkpt lat="36.663202" lon="-6.096779">
        <ele>52.8</ele>
        <time>2021-02-02T15:08:46Z</time>
      </trkpt>
      <trkpt lat="36.663151" lon="-6.096654">
        <ele>52.6</ele>
        <time>2021-02-02T15:08:48Z</time>
      </trkpt>
      <trkpt lat="36.663108" lon="-6.096527">
        <ele>52.8</ele>
        <time>2021-02-02T15:08:50Z</time>
      </trkpt>
      <trkpt lat="36.663073" lon="-6.096406">
        <ele>52.9</ele>
        <time>2021-02-02T15:08:52Z</time>
      </trkpt>
      <trkpt lat="36.663041" lon="-6.096279">
        <ele>53.4</ele>
        <time>2021-02-02T15:08:54Z</time>
      </trkpt>
      <trkpt lat="36.663013" lon="-6.096150">
        <ele>53.0</ele>
        <time>2021-02-02T15:08:56Z</time>
      </trkpt>
      <trkpt lat="36.662980" lon="-6.096024">
        <ele>53.2</ele>
        <time>2021-02-02T15:08:58Z</time>
      </trkpt>
      <trkpt lat="36.662941" lon="-6.095900">
        <ele>53.8</ele>
        <time>2021-02-02T15:09:00Z</time>
      </trkpt>
      <trkpt lat="36.662897" lon="-6.095780">
        <ele>54.1</ele>
        <time>2021-02-02T15:09:02Z</time>
      </trkpt>
      <trkpt lat="36.662850" lon="-6.095661">
        <ele>53.7</ele>
        <time>2021-02-02T15:09:04Z</time>
      </trkpt>
      <trkpt lat="36.662799" lon="-6.095541">
        <ele>54.2</ele>
        <time>2021-02-02T15:09:06Z</time>
      </trkpt>
      <trkpt lat="36.662746" lon="-6.095425">
        <ele>54.6</ele>
        <time>2021-02-02T15:09:08Z</time>
      </trkpt>
      <trkpt lat="36.662693" lon="-6.095309">
        <ele>55.0</ele>
        <time>2021-02-02T15:09:10Z</time>
      </trkpt>
      <trkpt lat="36.662639" lon="-6.095191">
        <ele>55.2</ele>
        <time>2021-02-02T15:09:12Z</time>
      </trkpt>
      <trkpt lat="36.662586" lon="-6.095072">
        <ele>55.8</ele>
        <time>2021-02-02T15:09:14Z</time>
      </trkpt>
      <trkpt lat="36.662535" lon="-6.094955">
        <ele>56.0</ele>
        <time>2021-02-02T15:09:16Z</time>
      </trkpt>
      <trkpt lat="36.662485" lon="-6.094833">
        <ele>56.2</ele>
        <time>2021-02-02T15:09:18Z</time>
      </trkpt>
      <trkpt lat="36.662434" lon="-6.094717">
        <ele>56.6</ele>
        <time>2021-02-02T15:09:20Z</time>
      </trkpt>
      <trkpt lat="36.662388" lon="-6.094601">
        <ele>57.0</ele>
        <time>2021-02-02T15:09:22Z</time>
      </trkpt>
      <trkpt lat="36.662330" lon="-6.094494">
        <ele>57.2</ele>
        <time>2021-02-02T15:09:24Z</time>
      </trkpt>
      <trkpt lat="36.662267" lon="-6.094391">
        <ele>57.5</ele>
        <time>2021-02-02T15:09:26Z</time>
      </trkpt>
      <trkpt lat="36.662196" lon="-6.094289">
        <ele>57.7</ele>
        <time>2021-02-02T15:09:28Z</time>
      </trkpt>
      <trkpt lat="36.662126" lon="-6.094181">
        <ele>57.8</ele>
        <time>2021-02-02T15:09:30Z</time>
      </trkpt>
      <trkpt lat="36.662058" lon="-6.094067">
        <ele>58.3</ele>
        <time>2021-02-02T15:09:32Z</time>
      </trkpt>
      <trkpt lat="36.662000" lon="-6.093945">
        <ele>58.1</ele>
        <time>2021-02-02T15:09:34Z</time>
      </trkpt>
      <trkpt lat="36.661953" lon="-6.093813">
        <ele>58.2</ele>
        <time>2021-02-02T15:09:36Z</time>
      </trkpt>
      <trkpt lat="36.661917" lon="-6.093673">
        <ele>58.0</ele>
        <time>2021-02-02T15:09:38Z</time>
      </trkpt>
      <trkpt lat="36.661885" lon="-6.093528">
        <ele>57.7</ele>
        <time>2021-02-02T15:09:40Z</time>
      </trkpt>
      <trkpt lat="36.661861" lon="-6.093373">
        <ele>57.0</ele>
        <time>2021-02-02T15:09:42Z</time>
      </trkpt>
      <trkpt lat="36.661836" lon="-6.093208">
        <ele>56.7</ele>
        <time>2021-02-02T15:09:44Z</time>
      </trkpt>
      <trkpt lat="36.661807" lon="-6.093032">
        <ele>56.0</ele>
        <time>2021-02-02T15:09:46Z</time>
      </trkpt>
      <trkpt lat="36.661779" lon="-6.092844">
        <ele>55.5</ele>
        <time>2021-02-02T15:09:48Z</time>
      </trkpt>
      <trkpt lat="36.661747" lon="-6.092644">
        <ele>54.3</ele>
        <time>2021-02-02T15:09:50Z</time>
      </trkpt>
      <trkpt lat="36.661705" lon="-6.092437">
        <ele>53.8</ele>
        <time>2021-02-02T15:09:52Z</time>
      </trkpt>
      <trkpt lat="36.661667" lon="-6.092252">
        <ele>53.2</ele>
        <time>2021-02-02T15:09:54Z</time>
      </trkpt>
      <trkpt lat="36.661620" lon="-6.092105">
        <ele>52.4</ele>
        <time>2021-02-02T15:09:56Z</time>
      </trkpt>
      <trkpt lat="36.661521" lon="-6.092037">
        <ele>51.5</ele>
        <time>2021-02-02T15:09:58Z</time>
      </trkpt>
      <trkpt lat="36.661408" lon="-6.092054">
        <ele>51.0</ele>
        <time>2021-02-02T15:10:00Z</time>
      </trkpt>
      <trkpt lat="36.661298" lon="-6.092078">
        <ele>50.3</ele>
        <time>2021-02-02T15:10:02Z</time>
      </trkpt>
      <trkpt lat="36.661185" lon="-6.092112">
        <ele>50.2</ele>
        <time>2021-02-02T15:10:04Z</time>
      </trkpt>
      <trkpt lat="36.661054" lon="-6.092123">
        <ele>50.1</ele>
        <time>2021-02-02T15:10:06Z</time>
      </trkpt>
      <trkpt lat="36.660925" lon="-6.092144">
        <ele>49.9</ele>
        <time>2021-02-02T15:10:08Z</time>
      </trkpt>
      <trkpt lat="36.660797" lon="-6.092176">
        <ele>50.0</ele>
        <time>2021-02-02T15:10:10Z</time>
      </trkpt>
      <trkpt lat="36.660668" lon="-6.092202">
        <ele>49.9</ele>
        <time>2021-02-02T15:10:12Z</time>
      </trkpt>
      <trkpt lat="36.660541" lon="-6.092227">
        <ele>50.3</ele>
        <time>2021-02-02T15:10:14Z</time>
      </trkpt>
      <trkpt lat="36.660415" lon="-6.092250">
        <ele>50.4</ele>
        <time>2021-02-02T15:10:16Z</time>
      </trkpt>
      <trkpt lat="36.660303" lon="-6.092279">
        <ele>50.5</ele>
        <time>2021-02-02T15:10:18Z</time>
      </trkpt>
      <trkpt lat="36.660192" lon="-6.092307">
        <ele>50.7</ele>
        <time>2021-02-02T15:10:20Z</time>
      </trkpt>
      <trkpt lat="36.660091" lon="-6.092328">
        <ele>51.2</ele>
        <time>2021-02-02T15:10:22Z</time>
      </trkpt>
      <trkpt lat="36.659987" lon="-6.092354">
        <ele>51.9</ele>
        <time>2021-02-02T15:10:24Z</time>
      </trkpt>
      <trkpt lat="36.659875" lon="-6.092379">
        <ele>52.5</ele>
        <time>2021-02-02T15:10:26Z</time>
      </trkpt>
      <trkpt lat="36.659765" lon="-6.092390">
        <ele>52.9</ele>
        <time>2021-02-02T15:10:28Z</time>
      </trkpt>
      <trkpt lat="36.659655" lon="-6.092408">
        <ele>53.2</ele>
        <time>2021-02-02T15:10:30Z</time>
      </trkpt>
      <trkpt lat="36.659547" lon="-6.092430">
        <ele>53.6</ele>
        <time>2021-02-02T15:10:32Z</time>
      </trkpt>
      <trkpt lat="36.659436" lon="-6.092449">
        <ele>53.9</ele>
        <time>2021-02-02T15:10:34Z</time>
      </trkpt>
      <trkpt lat="36.659328" lon="-6.092463">
        <ele>54.2</ele>
        <time>2021-02-02T15:10:36Z</time>
      </trkpt>
      <trkpt lat="36.659223" lon="-6.092484">
        <ele>54.5</ele>
        <time>2021-02-02T15:10:38Z</time>
      </trkpt>
      <trkpt lat="36.659114" lon="-6.092507">
        <ele>55.1</ele>
        <time>2021-02-02T15:10:40Z</time>
      </trkpt>
      <trkpt lat="36.659007" lon="-6.092526">
        <ele>55.5</ele>
        <time>2021-02-02T15:10:42Z</time>
      </trkpt>
      <trkpt lat="36.658901" lon="-6.092549">
        <ele>55.9</ele>
        <time>2021-02-02T15:10:44Z</time>
      </trkpt>
      <trkpt lat="36.658790" lon="-6.092560">
        <ele>56.1</ele>
        <time>2021-02-02T15:10:46Z</time>
      </trkpt>
      <trkpt lat="36.658664" lon="-6.092564">
        <ele>56.0</ele>
        <time>2021-02-02T15:10:48Z</time>
      </trkpt>
      <trkpt lat="36.658517" lon="-6.092570">
        <ele>55.2</ele>
        <time>2021-02-02T15:10:50Z</time>
      </trkpt>
      <trkpt lat="36.658358" lon="-6.092583">
        <ele>54.6</ele>
        <time>2021-02-02T15:10:52Z</time>
      </trkpt>
      <trkpt lat="36.658181" lon="-6.092603">
        <ele>53.8</ele>
        <time>2021-02-02T15:10:54Z</time>
      </trkpt>
      <trkpt lat="36.658084" lon="-6.092622">
        <ele>53.5</ele>
        <time>2021-02-02T15:10:55Z</time>
      </trkpt>
      <trkpt lat="36.657988" lon="-6.092620">
        <ele>52.3</ele>
        <time>2021-02-02T15:10:56Z</time>
      </trkpt>
      <trkpt lat="36.657891" lon="-6.092608">
        <ele>51.9</ele>
        <time>2021-02-02T15:10:57Z</time>
      </trkpt>
      <trkpt lat="36.657789" lon="-6.092630">
        <ele>50.6</ele>
        <time>2021-02-02T15:10:58Z</time>
      </trkpt>
      <trkpt lat="36.657689" lon="-6.092640">
        <ele>49.6</ele>
        <time>2021-02-02T15:10:59Z</time>
      </trkpt>
      <trkpt lat="36.657559" lon="-6.092698">
        <ele>48.5</ele>
        <time>2021-02-02T15:11:00Z</time>
      </trkpt>
      <trkpt lat="36.657444" lon="-6.092743">
        <ele>47.6</ele>
        <time>2021-02-02T15:11:01Z</time>
      </trkpt>
      <trkpt lat="36.657327" lon="-6.092794">
        <ele>46.3</ele>
        <time>2021-02-02T15:11:02Z</time>
      </trkpt>
      <trkpt lat="36.657211" lon="-6.092852">
        <ele>45.6</ele>
        <time>2021-02-02T15:11:03Z</time>
      </trkpt>
      <trkpt lat="36.657089" lon="-6.092904">
        <ele>44.6</ele>
        <time>2021-02-02T15:11:04Z</time>
      </trkpt>
      <trkpt lat="36.656965" lon="-6.092950">
        <ele>43.8</ele>
        <time>2021-02-02T15:11:05Z</time>
      </trkpt>
      <trkpt lat="36.656842" lon="-6.092992">
        <ele>42.5</ele>
        <time>2021-02-02T15:11:06Z</time>
      </trkpt>
      <trkpt lat="36.656714" lon="-6.093046">
        <ele>41.8</ele>
        <time>2021-02-02T15:11:07Z</time>
      </trkpt>
      <trkpt lat="36.656588" lon="-6.093092">
        <ele>41.0</ele>
        <time>2021-02-02T15:11:08Z</time>
      </trkpt>
      <trkpt lat="36.656459" lon="-6.093130">
        <ele>40.3</ele>
        <time>2021-02-02T15:11:09Z</time>
      </trkpt>
      <trkpt lat="36.656330" lon="-6.093170">
        <ele>39.5</ele>
        <time>2021-02-02T15:11:10Z</time>
      </trkpt>
      <trkpt lat="36.656204" lon="-6.093202">
        <ele>39.2</ele>
        <time>2021-02-02T15:11:11Z</time>
      </trkpt>
      <trkpt lat="36.656090" lon="-6.093235">
        <ele>38.2</ele>
        <time>2021-02-02T15:11:12Z</time>
      </trkpt>
      <trkpt lat="36.655986" lon="-6.093267">
        <ele>37.1</ele>
        <time>2021-02-02T15:11:13Z</time>
      </trkpt>
      <trkpt lat="36.655887" lon="-6.093299">
        <ele>36.2</ele>
        <time>2021-02-02T15:11:14Z</time>
      </trkpt>
      <trkpt lat="36.655799" lon="-6.093330">
        <ele>35.4</ele>
        <time>2021-02-02T15:11:15Z</time>
      </trkpt>
      <trkpt lat="36.655653" lon="-6.093391">
        <ele>33.5</ele>
        <time>2021-02-02T15:11:17Z</time>
      </trkpt>
      <trkpt lat="36.655540" lon="-6.093431">
        <ele>32.0</ele>
        <time>2021-02-02T15:11:19Z</time>
      </trkpt>
      <trkpt lat="36.655454" lon="-6.093487">
        <ele>28.7</ele>
        <time>2021-02-02T15:11:24Z</time>
      </trkpt>
      <trkpt lat="36.655356" lon="-6.093543">
        <ele>27.2</ele>
        <time>2021-02-02T15:11:30Z</time>
      </trkpt>
      <trkpt lat="36.655279" lon="-6.093453">
        <ele>27.0</ele>
        <time>2021-02-02T15:11:33Z</time>
      </trkpt>
      <trkpt lat="36.655202" lon="-6.093332">
        <ele>27.1</ele>
        <time>2021-02-02T15:11:36Z</time>
      </trkpt>
      <trkpt lat="36.655132" lon="-6.093208">
        <ele>27.2</ele>
        <time>2021-02-02T15:11:38Z</time>
      </trkpt>
      <trkpt lat="36.655052" lon="-6.093068">
        <ele>27.4</ele>
        <time>2021-02-02T15:11:40Z</time>
      </trkpt>
      <trkpt lat="36.654974" lon="-6.092930">
        <ele>27.6</ele>
        <time>2021-02-02T15:11:42Z</time>
      </trkpt>
      <trkpt lat="36.654904" lon="-6.092793">
        <ele>27.7</ele>
        <time>2021-02-02T15:11:44Z</time>
      </trkpt>
      <trkpt lat="36.654838" lon="-6.092662">
        <ele>27.7</ele>
        <time>2021-02-02T15:11:46Z</time>
      </trkpt>
      <trkpt lat="36.654772" lon="-6.092529">
        <ele>27.8</ele>
        <time>2021-02-02T15:11:48Z</time>
      </trkpt>
      <trkpt lat="36.654691" lon="-6.092379">
        <ele>27.8</ele>
        <time>2021-02-02T15:11:50Z</time>
      </trkpt>
      <trkpt lat="36.654607" lon="-6.092208">
        <ele>27.9</ele>
        <time>2021-02-02T15:11:52Z</time>
      </trkpt>
      <trkpt lat="36.654519" lon="-6.092031">
        <ele>27.6</ele>
        <time>2021-02-02T15:11:54Z</time>
      </trkpt>
      <trkpt lat="36.654431" lon="-6.091852">
        <ele>27.0</ele>
        <time>2021-02-02T15:11:56Z</time>
      </trkpt>
      <trkpt lat="36.654344" lon="-6.091674">
        <ele>26.5</ele>
        <time>2021-02-02T15:11:58Z</time>
      </trkpt>
      <trkpt lat="36.654254" lon="-6.091491">
        <ele>25.6</ele>
        <time>2021-02-02T15:12:00Z</time>
      </trkpt>
      <trkpt lat="36.654162" lon="-6.091301">
        <ele>25.1</ele>
        <time>2021-02-02T15:12:02Z</time>
      </trkpt>
      <trkpt lat="36.654070" lon="-6.091110">
        <ele>24.5</ele>
        <time>2021-02-02T15:12:04Z</time>
      </trkpt>
      <trkpt lat="36.654022" lon="-6.091014">
        <ele>24.2</ele>
        <time>2021-02-02T15:12:05Z</time>
      </trkpt>
      <trkpt lat="36.653977" lon="-6.090916">
        <ele>23.8</ele>
        <time>2021-02-02T15:12:06Z</time>
      </trkpt>
      <trkpt lat="36.653931" lon="-6.090818">
        <ele>23.5</ele>
        <time>2021-02-02T15:12:07Z</time>
      </trkpt>
      <trkpt lat="36.653844" lon="-6.090627">
        <ele>22.8</ele>
        <time>2021-02-02T15:12:09Z</time>
      </trkpt>
      <trkpt lat="36.653774" lon="-6.090426">
        <ele>22.4</ele>
        <time>2021-02-02T15:12:11Z</time>
      </trkpt>
      <trkpt lat="36.653708" lon="-6.090219">
        <ele>21.8</ele>
        <time>2021-02-02T15:12:13Z</time>
      </trkpt>
      <trkpt lat="36.653643" lon="-6.090019">
        <ele>21.2</ele>
        <time>2021-02-02T15:12:15Z</time>
      </trkpt>
      <trkpt lat="36.653574" lon="-6.089830">
        <ele>20.6</ele>
        <time>2021-02-02T15:12:17Z</time>
      </trkpt>
      <trkpt lat="36.653509" lon="-6.089641">
        <ele>20.2</ele>
        <time>2021-02-02T15:12:19Z</time>
      </trkpt>
      <trkpt lat="36.653486" lon="-6.089439">
        <ele>19.8</ele>
        <time>2021-02-02T15:12:21Z</time>
      </trkpt>
      <trkpt lat="36.653522" lon="-6.089230">
        <ele>19.6</ele>
        <time>2021-02-02T15:12:23Z</time>
      </trkpt>
      <trkpt lat="36.653562" lon="-6.089017">
        <ele>19.1</ele>
        <time>2021-02-02T15:12:25Z</time>
      </trkpt>
      <trkpt lat="36.653595" lon="-6.088803">
        <ele>18.7</ele>
        <time>2021-02-02T15:12:27Z</time>
      </trkpt>
      <trkpt lat="36.653632" lon="-6.088588">
        <ele>18.4</ele>
        <time>2021-02-02T15:12:29Z</time>
      </trkpt>
      <trkpt lat="36.653655" lon="-6.088480">
        <ele>18.2</ele>
        <time>2021-02-02T15:12:30Z</time>
      </trkpt>
      <trkpt lat="36.653682" lon="-6.088370">
        <ele>18.1</ele>
        <time>2021-02-02T15:12:31Z</time>
      </trkpt>
      <trkpt lat="36.653713" lon="-6.088259">
        <ele>17.9</ele>
        <time>2021-02-02T15:12:32Z</time>
      </trkpt>
      <trkpt lat="36.653746" lon="-6.088149">
        <ele>17.7</ele>
        <time>2021-02-02T15:12:33Z</time>
      </trkpt>
      <trkpt lat="36.653780" lon="-6.088039">
        <ele>17.5</ele>
        <time>2021-02-02T15:12:34Z</time>
      </trkpt>
      <trkpt lat="36.653819" lon="-6.087932">
        <ele>17.1</ele>
        <time>2021-02-02T15:12:35Z</time>
      </trkpt>
      <trkpt lat="36.653855" lon="-6.087826">
        <ele>16.9</ele>
        <time>2021-02-02T15:12:36Z</time>
      </trkpt>
      <trkpt lat="36.653892" lon="-6.087720">
        <ele>16.7</ele>
        <time>2021-02-02T15:12:37Z</time>
      </trkpt>
      <trkpt lat="36.653927" lon="-6.087612">
        <ele>16.5</ele>
        <time>2021-02-02T15:12:38Z</time>
      </trkpt>
      <trkpt lat="36.653963" lon="-6.087504">
        <ele>16.1</ele>
        <time>2021-02-02T15:12:39Z</time>
      </trkpt>
      <trkpt lat="36.654002" lon="-6.087396">
        <ele>15.8</ele>
        <time>2021-02-02T15:12:40Z</time>
      </trkpt>
      <trkpt lat="36.654037" lon="-6.087290">
        <ele>15.5</ele>
        <time>2021-02-02T15:12:41Z</time>
      </trkpt>
      <trkpt lat="36.654069" lon="-6.087182">
        <ele>15.1</ele>
        <time>2021-02-02T15:12:42Z</time>
      </trkpt>
      <trkpt lat="36.654097" lon="-6.087075">
        <ele>14.8</ele>
        <time>2021-02-02T15:12:43Z</time>
      </trkpt>
      <trkpt lat="36.654143" lon="-6.086866">
        <ele>14.4</ele>
        <time>2021-02-02T15:12:45Z</time>
      </trkpt>
      <trkpt lat="36.654171" lon="-6.086657">
        <ele>14.3</ele>
        <time>2021-02-02T15:12:47Z</time>
      </trkpt>
      <trkpt lat="36.654191" lon="-6.086444">
        <ele>14.2</ele>
        <time>2021-02-02T15:12:49Z</time>
      </trkpt>
      <trkpt lat="36.654198" lon="-6.086237">
        <ele>14.1</ele>
        <time>2021-02-02T15:12:51Z</time>
      </trkpt>
      <trkpt lat="36.654189" lon="-6.086036">
        <ele>13.9</ele>
        <time>2021-02-02T15:12:53Z</time>
      </trkpt>
      <trkpt lat="36.654163" lon="-6.085846">
        <ele>14.2</ele>
        <time>2021-02-02T15:12:55Z</time>
      </trkpt>
      <trkpt lat="36.654129" lon="-6.085662">
        <ele>14.6</ele>
        <time>2021-02-02T15:12:57Z</time>
      </trkpt>
      <trkpt lat="36.654089" lon="-6.085478">
        <ele>14.6</ele>
        <time>2021-02-02T15:12:59Z</time>
      </trkpt>
      <trkpt lat="36.654042" lon="-6.085297">
        <ele>14.8</ele>
        <time>2021-02-02T15:13:01Z</time>
      </trkpt>
      <trkpt lat="36.653981" lon="-6.085124">
        <ele>15.1</ele>
        <time>2021-02-02T15:13:03Z</time>
      </trkpt>
      <trkpt lat="36.653917" lon="-6.084965">
        <ele>15.3</ele>
        <time>2021-02-02T15:13:05Z</time>
      </trkpt>
      <trkpt lat="36.653845" lon="-6.084811">
        <ele>15.6</ele>
        <time>2021-02-02T15:13:07Z</time>
      </trkpt>
      <trkpt lat="36.653767" lon="-6.084669">
        <ele>16.1</ele>
        <time>2021-02-02T15:13:09Z</time>
      </trkpt>
      <trkpt lat="36.653683" lon="-6.084535">
        <ele>16.2</ele>
        <time>2021-02-02T15:13:11Z</time>
      </trkpt>
      <trkpt lat="36.653595" lon="-6.084407">
        <ele>16.5</ele>
        <time>2021-02-02T15:13:13Z</time>
      </trkpt>
      <trkpt lat="36.653503" lon="-6.084276">
        <ele>16.9</ele>
        <time>2021-02-02T15:13:15Z</time>
      </trkpt>
      <trkpt lat="36.653405" lon="-6.084144">
        <ele>17.2</ele>
        <time>2021-02-02T15:13:17Z</time>
      </trkpt>
      <trkpt lat="36.653306" lon="-6.084008">
        <ele>17.2</ele>
        <time>2021-02-02T15:13:19Z</time>
      </trkpt>
      <trkpt lat="36.653205" lon="-6.083877">
        <ele>17.5</ele>
        <time>2021-02-02T15:13:21Z</time>
      </trkpt>
      <trkpt lat="36.653098" lon="-6.083753">
        <ele>17.8</ele>
        <time>2021-02-02T15:13:23Z</time>
      </trkpt>
      <trkpt lat="36.652985" lon="-6.083633">
        <ele>18.0</ele>
        <time>2021-02-02T15:13:25Z</time>
      </trkpt>
      <trkpt lat="36.652874" lon="-6.083516">
        <ele>18.0</ele>
        <time>2021-02-02T15:13:27Z</time>
      </trkpt>
      <trkpt lat="36.652763" lon="-6.083401">
        <ele>17.9</ele>
        <time>2021-02-02T15:13:29Z</time>
      </trkpt>
      <trkpt lat="36.652650" lon="-6.083293">
        <ele>17.7</ele>
        <time>2021-02-02T15:13:31Z</time>
      </trkpt>
      <trkpt lat="36.652528" lon="-6.083194">
        <ele>17.6</ele>
        <time>2021-02-02T15:13:33Z</time>
      </trkpt>
      <trkpt lat="36.652402" lon="-6.083105">
        <ele>17.4</ele>
        <time>2021-02-02T15:13:35Z</time>
      </trkpt>
      <trkpt lat="36.652271" lon="-6.083026">
        <ele>17.3</ele>
        <time>2021-02-02T15:13:37Z</time>
      </trkpt>
      <trkpt lat="36.652133" lon="-6.082953">
        <ele>17.1</ele>
        <time>2021-02-02T15:13:39Z</time>
      </trkpt>
      <trkpt lat="36.651994" lon="-6.082883">
        <ele>16.8</ele>
        <time>2021-02-02T15:13:41Z</time>
      </trkpt>
      <trkpt lat="36.651857" lon="-6.082819">
        <ele>16.7</ele>
        <time>2021-02-02T15:13:43Z</time>
      </trkpt>
      <trkpt lat="36.651723" lon="-6.082758">
        <ele>16.6</ele>
        <time>2021-02-02T15:13:45Z</time>
      </trkpt>
      <trkpt lat="36.651589" lon="-6.082698">
        <ele>16.6</ele>
        <time>2021-02-02T15:13:47Z</time>
      </trkpt>
      <trkpt lat="36.651455" lon="-6.082633">
        <ele>16.4</ele>
        <time>2021-02-02T15:13:49Z</time>
      </trkpt>
      <trkpt lat="36.651323" lon="-6.082565">
        <ele>16.3</ele>
        <time>2021-02-02T15:13:51Z</time>
      </trkpt>
      <trkpt lat="36.651190" lon="-6.082493">
        <ele>16.4</ele>
        <time>2021-02-02T15:13:53Z</time>
      </trkpt>
      <trkpt lat="36.651060" lon="-6.082421">
        <ele>16.0</ele>
        <time>2021-02-02T15:13:55Z</time>
      </trkpt>
      <trkpt lat="36.650928" lon="-6.082351">
        <ele>16.0</ele>
        <time>2021-02-02T15:13:57Z</time>
      </trkpt>
      <trkpt lat="36.650794" lon="-6.082285">
        <ele>16.0</ele>
        <time>2021-02-02T15:13:59Z</time>
      </trkpt>
      <trkpt lat="36.650659" lon="-6.082222">
        <ele>16.0</ele>
        <time>2021-02-02T15:14:01Z</time>
      </trkpt>
      <trkpt lat="36.650522" lon="-6.082166">
        <ele>15.8</ele>
        <time>2021-02-02T15:14:03Z</time>
      </trkpt>
      <trkpt lat="36.650385" lon="-6.082115">
        <ele>15.6</ele>
        <time>2021-02-02T15:14:05Z</time>
      </trkpt>
      <trkpt lat="36.650246" lon="-6.082065">
        <ele>15.4</ele>
        <time>2021-02-02T15:14:07Z</time>
      </trkpt>
      <trkpt lat="36.650112" lon="-6.082018">
        <ele>15.2</ele>
        <time>2021-02-02T15:14:09Z</time>
      </trkpt>
      <trkpt lat="36.649978" lon="-6.081975">
        <ele>15.3</ele>
        <time>2021-02-02T15:14:11Z</time>
      </trkpt>
      <trkpt lat="36.649844" lon="-6.081937">
        <ele>15.3</ele>
        <time>2021-02-02T15:14:13Z</time>
      </trkpt>
      <trkpt lat="36.649708" lon="-6.081902">
        <ele>15.2</ele>
        <time>2021-02-02T15:14:15Z</time>
      </trkpt>
      <trkpt lat="36.649568" lon="-6.081871">
        <ele>15.1</ele>
        <time>2021-02-02T15:14:17Z</time>
      </trkpt>
      <trkpt lat="36.649427" lon="-6.081843">
        <ele>15.0</ele>
        <time>2021-02-02T15:14:19Z</time>
      </trkpt>
      <trkpt lat="36.649284" lon="-6.081816">
        <ele>14.9</ele>
        <time>2021-02-02T15:14:21Z</time>
      </trkpt>
      <trkpt lat="36.649136" lon="-6.081795">
        <ele>14.7</ele>
        <time>2021-02-02T15:14:23Z</time>
      </trkpt>
      <trkpt lat="36.648988" lon="-6.081778">
        <ele>14.6</ele>
        <time>2021-02-02T15:14:25Z</time>
      </trkpt>
      <trkpt lat="36.648841" lon="-6.081764">
        <ele>14.4</ele>
        <time>2021-02-02T15:14:27Z</time>
      </trkpt>
      <trkpt lat="36.648691" lon="-6.081751">
        <ele>14.3</ele>
        <time>2021-02-02T15:14:29Z</time>
      </trkpt>
      <trkpt lat="36.648538" lon="-6.081736">
        <ele>14.2</ele>
        <time>2021-02-02T15:14:31Z</time>
      </trkpt>
      <trkpt lat="36.648383" lon="-6.081726">
        <ele>13.9</ele>
        <time>2021-02-02T15:14:33Z</time>
      </trkpt>
      <trkpt lat="36.648228" lon="-6.081743">
        <ele>13.6</ele>
        <time>2021-02-02T15:14:35Z</time>
      </trkpt>
      <trkpt lat="36.648077" lon="-6.081813">
        <ele>13.4</ele>
        <time>2021-02-02T15:14:37Z</time>
      </trkpt>
      <trkpt lat="36.647958" lon="-6.081961">
        <ele>13.0</ele>
        <time>2021-02-02T15:14:39Z</time>
      </trkpt>
      <trkpt lat="36.647890" lon="-6.082149">
        <ele>12.6</ele>
        <time>2021-02-02T15:14:41Z</time>
      </trkpt>
      <trkpt lat="36.647888" lon="-6.082360">
        <ele>12.2</ele>
        <time>2021-02-02T15:14:43Z</time>
      </trkpt>
      <trkpt lat="36.647940" lon="-6.082562">
        <ele>11.4</ele>
        <time>2021-02-02T15:14:45Z</time>
      </trkpt>
      <trkpt lat="36.648038" lon="-6.082733">
        <ele>10.7</ele>
        <time>2021-02-02T15:14:47Z</time>
      </trkpt>
      <trkpt lat="36.648105" lon="-6.082810">
        <ele>10.5</ele>
        <time>2021-02-02T15:14:48Z</time>
      </trkpt>
      <trkpt lat="36.648238" lon="-6.082925">
        <ele>10.2</ele>
        <time>2021-02-02T15:14:50Z</time>
      </trkpt>
      <trkpt lat="36.648380" lon="-6.083006">
        <ele>9.7</ele>
        <time>2021-02-02T15:14:52Z</time>
      </trkpt>
      <trkpt lat="36.648527" lon="-6.083060">
        <ele>9.5</ele>
        <time>2021-02-02T15:14:54Z</time>
      </trkpt>
      <trkpt lat="36.648668" lon="-6.083093">
        <ele>9.5</ele>
        <time>2021-02-02T15:14:56Z</time>
      </trkpt>
      <trkpt lat="36.648804" lon="-6.083101">
        <ele>9.7</ele>
        <time>2021-02-02T15:14:58Z</time>
      </trkpt>
      <trkpt lat="36.648939" lon="-6.083096">
        <ele>9.8</ele>
        <time>2021-02-02T15:15:00Z</time>
      </trkpt>
      <trkpt lat="36.649065" lon="-6.083146">
        <ele>10.0</ele>
        <time>2021-02-02T15:15:02Z</time>
      </trkpt>
      <trkpt lat="36.649139" lon="-6.083271">
        <ele>10.3</ele>
        <time>2021-02-02T15:15:04Z</time>
      </trkpt>
      <trkpt lat="36.649137" lon="-6.083422">
        <ele>10.2</ele>
        <time>2021-02-02T15:15:06Z</time>
      </trkpt>
      <trkpt lat="36.649059" lon="-6.083537">
        <ele>10.1</ele>
        <time>2021-02-02T15:15:08Z</time>
      </trkpt>
      <trkpt lat="36.648943" lon="-6.083574">
        <ele>10.1</ele>
        <time>2021-02-02T15:15:10Z</time>
      </trkpt>
      <trkpt lat="36.648820" lon="-6.083583">
        <ele>10.1</ele>
        <time>2021-02-02T15:15:12Z</time>
      </trkpt>
      <trkpt lat="36.648692" lon="-6.083611">
        <ele>10.2</ele>
        <time>2021-02-02T15:15:14Z</time>
      </trkpt>
      <trkpt lat="36.648564" lon="-6.083588">
        <ele>10.2</ele>
        <time>2021-02-02T15:15:16Z</time>
      </trkpt>
      <trkpt lat="36.648450" lon="-6.083498">
        <ele>10.1</ele>
        <time>2021-02-02T15:15:18Z</time>
      </trkpt>
      <trkpt lat="36.648348" lon="-6.083392">
        <ele>10.0</ele>
        <time>2021-02-02T15:15:20Z</time>
      </trkpt>
      <trkpt lat="36.648243" lon="-6.083288">
        <ele>9.9</ele>
        <time>2021-02-02T15:15:22Z</time>
      </trkpt>
      <trkpt lat="36.648133" lon="-6.083191">
        <ele>10.0</ele>
        <time>2021-02-02T15:15:24Z</time>
      </trkpt>
      <trkpt lat="36.648019" lon="-6.083097">
        <ele>10.0</ele>
        <time>2021-02-02T15:15:26Z</time>
      </trkpt>
      <trkpt lat="36.647904" lon="-6.083002">
        <ele>10.0</ele>
        <time>2021-02-02T15:15:28Z</time>
      </trkpt>
      <trkpt lat="36.647786" lon="-6.082916">
        <ele>10.0</ele>
        <time>2021-02-02T15:15:30Z</time>
      </trkpt>
      <trkpt lat="36.647665" lon="-6.082836">
        <ele>9.9</ele>
        <time>2021-02-02T15:15:32Z</time>
      </trkpt>
      <trkpt lat="36.647545" lon="-6.082758">
        <ele>9.9</ele>
        <time>2021-02-02T15:15:34Z</time>
      </trkpt>
      <trkpt lat="36.647425" lon="-6.082688">
        <ele>9.8</ele>
        <time>2021-02-02T15:15:36Z</time>
      </trkpt>
      <trkpt lat="36.647304" lon="-6.082618">
        <ele>9.8</ele>
        <time>2021-02-02T15:15:38Z</time>
      </trkpt>
      <trkpt lat="36.647184" lon="-6.082545">
        <ele>9.7</ele>
        <time>2021-02-02T15:15:40Z</time>
      </trkpt>
      <trkpt lat="36.647065" lon="-6.082474">
        <ele>9.6</ele>
        <time>2021-02-02T15:15:42Z</time>
      </trkpt>
      <trkpt lat="36.646947" lon="-6.082403">
        <ele>9.7</ele>
        <time>2021-02-02T15:15:44Z</time>
      </trkpt>
      <trkpt lat="36.646832" lon="-6.082335">
        <ele>9.6</ele>
        <time>2021-02-02T15:15:46Z</time>
      </trkpt>
      <trkpt lat="36.646719" lon="-6.082269">
        <ele>9.5</ele>
        <time>2021-02-02T15:15:48Z</time>
      </trkpt>
      <trkpt lat="36.646604" lon="-6.082202">
        <ele>9.5</ele>
        <time>2021-02-02T15:15:50Z</time>
      </trkpt>
      <trkpt lat="36.646486" lon="-6.082131">
        <ele>9.6</ele>
        <time>2021-02-02T15:15:52Z</time>
      </trkpt>
      <trkpt lat="36.646369" lon="-6.082057">
        <ele>9.6</ele>
        <time>2021-02-02T15:15:54Z</time>
      </trkpt>
      <trkpt lat="36.646249" lon="-6.081978">
        <ele>9.8</ele>
        <time>2021-02-02T15:15:56Z</time>
      </trkpt>
      <trkpt lat="36.646132" lon="-6.081907">
        <ele>9.9</ele>
        <time>2021-02-02T15:15:58Z</time>
      </trkpt>
      <trkpt lat="36.646014" lon="-6.081837">
        <ele>9.8</ele>
        <time>2021-02-02T15:16:00Z</time>
      </trkpt>
      <trkpt lat="36.645900" lon="-6.081767">
        <ele>9.8</ele>
        <time>2021-02-02T15:16:02Z</time>
      </trkpt>
      <trkpt lat="36.645782" lon="-6.081697">
        <ele>9.7</ele>
        <time>2021-02-02T15:16:04Z</time>
      </trkpt>
      <trkpt lat="36.645663" lon="-6.081629">
        <ele>9.8</ele>
        <time>2021-02-02T15:16:06Z</time>
      </trkpt>
      <trkpt lat="36.645545" lon="-6.081558">
        <ele>9.8</ele>
        <time>2021-02-02T15:16:08Z</time>
      </trkpt>
      <trkpt lat="36.645425" lon="-6.081498">
        <ele>9.9</ele>
        <time>2021-02-02T15:16:10Z</time>
      </trkpt>
      <trkpt lat="36.645301" lon="-6.081445">
        <ele>9.9</ele>
        <time>2021-02-02T15:16:12Z</time>
      </trkpt>
      <trkpt lat="36.645172" lon="-6.081394">
        <ele>10.0</ele>
        <time>2021-02-02T15:16:14Z</time>
      </trkpt>
      <trkpt lat="36.645047" lon="-6.081348">
        <ele>9.9</ele>
        <time>2021-02-02T15:16:16Z</time>
      </trkpt>
      <trkpt lat="36.644914" lon="-6.081291">
        <ele>9.7</ele>
        <time>2021-02-02T15:16:18Z</time>
      </trkpt>
      <trkpt lat="36.644777" lon="-6.081229">
        <ele>9.3</ele>
        <time>2021-02-02T15:16:20Z</time>
      </trkpt>
      <trkpt lat="36.644644" lon="-6.081175">
        <ele>9.0</ele>
        <time>2021-02-02T15:16:22Z</time>
      </trkpt>
      <trkpt lat="36.644512" lon="-6.081120">
        <ele>8.9</ele>
        <time>2021-02-02T15:16:24Z</time>
      </trkpt>
      <trkpt lat="36.644382" lon="-6.081064">
        <ele>8.9</ele>
        <time>2021-02-02T15:16:26Z</time>
      </trkpt>
      <trkpt lat="36.644254" lon="-6.081005">
        <ele>8.8</ele>
        <time>2021-02-02T15:16:28Z</time>
      </trkpt>
      <trkpt lat="36.644125" lon="-6.080943">
        <ele>8.8</ele>
        <time>2021-02-02T15:16:30Z</time>
      </trkpt>
      <trkpt lat="36.643998" lon="-6.080878">
        <ele>8.7</ele>
        <time>2021-02-02T15:16:32Z</time>
      </trkpt>
      <trkpt lat="36.643871" lon="-6.080817">
        <ele>8.7</ele>
        <time>2021-02-02T15:16:34Z</time>
      </trkpt>
      <trkpt lat="36.643746" lon="-6.080751">
        <ele>8.7</ele>
        <time>2021-02-02T15:16:36Z</time>
      </trkpt>
      <trkpt lat="36.643623" lon="-6.080686">
        <ele>8.6</ele>
        <time>2021-02-02T15:16:38Z</time>
      </trkpt>
      <trkpt lat="36.643500" lon="-6.080619">
        <ele>8.5</ele>
        <time>2021-02-02T15:16:40Z</time>
      </trkpt>
      <trkpt lat="36.643377" lon="-6.080553">
        <ele>8.5</ele>
        <time>2021-02-02T15:16:42Z</time>
      </trkpt>
      <trkpt lat="36.643255" lon="-6.080486">
        <ele>8.3</ele>
        <time>2021-02-02T15:16:44Z</time>
      </trkpt>
      <trkpt lat="36.643133" lon="-6.080416">
        <ele>8.4</ele>
        <time>2021-02-02T15:16:46Z</time>
      </trkpt>
      <trkpt lat="36.643010" lon="-6.080347">
        <ele>8.4</ele>
        <time>2021-02-02T15:16:48Z</time>
      </trkpt>
      <trkpt lat="36.642889" lon="-6.080274">
        <ele>8.4</ele>
        <time>2021-02-02T15:16:50Z</time>
      </trkpt>
      <trkpt lat="36.642768" lon="-6.080206">
        <ele>8.4</ele>
        <time>2021-02-02T15:16:52Z</time>
      </trkpt>
      <trkpt lat="36.642649" lon="-6.080135">
        <ele>8.5</ele>
        <time>2021-02-02T15:16:54Z</time>
      </trkpt>
      <trkpt lat="36.642529" lon="-6.080065">
        <ele>8.3</ele>
        <time>2021-02-02T15:16:56Z</time>
      </trkpt>
      <trkpt lat="36.642408" lon="-6.079999">
        <ele>8.2</ele>
        <time>2021-02-02T15:16:58Z</time>
      </trkpt>
      <trkpt lat="36.642288" lon="-6.079927">
        <ele>8.2</ele>
        <time>2021-02-02T15:17:00Z</time>
      </trkpt>
      <trkpt lat="36.642170" lon="-6.079854">
        <ele>8.4</ele>
        <time>2021-02-02T15:17:02Z</time>
      </trkpt>
      <trkpt lat="36.642055" lon="-6.079781">
        <ele>8.3</ele>
        <time>2021-02-02T15:17:04Z</time>
      </trkpt>
      <trkpt lat="36.641940" lon="-6.079706">
        <ele>8.2</ele>
        <time>2021-02-02T15:17:06Z</time>
      </trkpt>
      <trkpt lat="36.641824" lon="-6.079635">
        <ele>8.1</ele>
        <time>2021-02-02T15:17:08Z</time>
      </trkpt>
      <trkpt lat="36.641710" lon="-6.079563">
        <ele>8.1</ele>
        <time>2021-02-02T15:17:10Z</time>
      </trkpt>
      <trkpt lat="36.641597" lon="-6.079495">
        <ele>8.2</ele>
        <time>2021-02-02T15:17:12Z</time>
      </trkpt>
      <trkpt lat="36.641484" lon="-6.079430">
        <ele>8.3</ele>
        <time>2021-02-02T15:17:14Z</time>
      </trkpt>
      <trkpt lat="36.641373" lon="-6.079369">
        <ele>8.5</ele>
        <time>2021-02-02T15:17:16Z</time>
      </trkpt>
      <trkpt lat="36.641265" lon="-6.079311">
        <ele>8.7</ele>
        <time>2021-02-02T15:17:18Z</time>
      </trkpt>
      <trkpt lat="36.641154" lon="-6.079254">
        <ele>8.9</ele>
        <time>2021-02-02T15:17:20Z</time>
      </trkpt>
      <trkpt lat="36.641044" lon="-6.079178">
        <ele>9.0</ele>
        <time>2021-02-02T15:17:22Z</time>
      </trkpt>
      <trkpt lat="36.640936" lon="-6.079094">
        <ele>9.0</ele>
        <time>2021-02-02T15:17:24Z</time>
      </trkpt>
      <trkpt lat="36.640826" lon="-6.079010">
        <ele>9.0</ele>
        <time>2021-02-02T15:17:26Z</time>
      </trkpt>
      <trkpt lat="36.640715" lon="-6.078928">
        <ele>9.1</ele>
        <time>2021-02-02T15:17:28Z</time>
      </trkpt>
      <trkpt lat="36.640602" lon="-6.078848">
        <ele>9.1</ele>
        <time>2021-02-02T15:17:30Z</time>
      </trkpt>
      <trkpt lat="36.640484" lon="-6.078774">
        <ele>9.1</ele>
        <time>2021-02-02T15:17:32Z</time>
      </trkpt>
      <trkpt lat="36.640364" lon="-6.078705">
        <ele>9.2</ele>
        <time>2021-02-02T15:17:34Z</time>
      </trkpt>
      <trkpt lat="36.640247" lon="-6.078638">
        <ele>9.4</ele>
        <time>2021-02-02T15:17:36Z</time>
      </trkpt>
      <trkpt lat="36.640131" lon="-6.078570">
        <ele>9.3</ele>
        <time>2021-02-02T15:17:38Z</time>
      </trkpt>
      <trkpt lat="36.640015" lon="-6.078502">
        <ele>9.2</ele>
        <time>2021-02-02T15:17:40Z</time>
      </trkpt>
      <trkpt lat="36.639898" lon="-6.078435">
        <ele>9.1</ele>
        <time>2021-02-02T15:17:42Z</time>
      </trkpt>
      <trkpt lat="36.639778" lon="-6.078363">
        <ele>9.0</ele>
        <time>2021-02-02T15:17:44Z</time>
      </trkpt>
      <trkpt lat="36.639658" lon="-6.078292">
        <ele>9.0</ele>
        <time>2021-02-02T15:17:46Z</time>
      </trkpt>
      <trkpt lat="36.639539" lon="-6.078219">
        <ele>8.8</ele>
        <time>2021-02-02T15:17:48Z</time>
      </trkpt>
      <trkpt lat="36.639420" lon="-6.078142">
        <ele>8.7</ele>
        <time>2021-02-02T15:17:50Z</time>
      </trkpt>
      <trkpt lat="36.639300" lon="-6.078065">
        <ele>8.7</ele>
        <time>2021-02-02T15:17:52Z</time>
      </trkpt>
      <trkpt lat="36.639178" lon="-6.078000">
        <ele>8.7</ele>
        <time>2021-02-02T15:17:54Z</time>
      </trkpt>
      <trkpt lat="36.639056" lon="-6.077929">
        <ele>8.6</ele>
        <time>2021-02-02T15:17:56Z</time>
      </trkpt>
      <trkpt lat="36.638934" lon="-6.077860">
        <ele>8.6</ele>
        <time>2021-02-02T15:17:58Z</time>
      </trkpt>
      <trkpt lat="36.638809" lon="-6.077788">
        <ele>8.5</ele>
        <time>2021-02-02T15:18:00Z</time>
      </trkpt>
      <trkpt lat="36.638683" lon="-6.077714">
        <ele>8.5</ele>
        <time>2021-02-02T15:18:02Z</time>
      </trkpt>
      <trkpt lat="36.638556" lon="-6.077639">
        <ele>8.1</ele>
        <time>2021-02-02T15:18:04Z</time>
      </trkpt>
      <trkpt lat="36.638429" lon="-6.077565">
        <ele>8.1</ele>
        <time>2021-02-02T15:18:06Z</time>
      </trkpt>
      <trkpt lat="36.638305" lon="-6.077489">
        <ele>8.1</ele>
        <time>2021-02-02T15:18:08Z</time>
      </trkpt>
      <trkpt lat="36.638181" lon="-6.077414">
        <ele>8.0</ele>
        <time>2021-02-02T15:18:10Z</time>
      </trkpt>
      <trkpt lat="36.638055" lon="-6.077339">
        <ele>8.0</ele>
        <time>2021-02-02T15:18:12Z</time>
      </trkpt>
      <trkpt lat="36.637932" lon="-6.077267">
        <ele>8.0</ele>
        <time>2021-02-02T15:18:14Z</time>
      </trkpt>
      <trkpt lat="36.637811" lon="-6.077199">
        <ele>8.0</ele>
        <time>2021-02-02T15:18:16Z</time>
      </trkpt>
      <trkpt lat="36.637688" lon="-6.077126">
        <ele>8.0</ele>
        <time>2021-02-02T15:18:18Z</time>
      </trkpt>
      <trkpt lat="36.637565" lon="-6.077053">
        <ele>7.9</ele>
        <time>2021-02-02T15:18:20Z</time>
      </trkpt>
      <trkpt lat="36.637444" lon="-6.076980">
        <ele>8.0</ele>
        <time>2021-02-02T15:18:22Z</time>
      </trkpt>
      <trkpt lat="36.637323" lon="-6.076906">
        <ele>8.0</ele>
        <time>2021-02-02T15:18:24Z</time>
      </trkpt>
      <trkpt lat="36.637200" lon="-6.076833">
        <ele>8.0</ele>
        <time>2021-02-02T15:18:26Z</time>
      </trkpt>
      <trkpt lat="36.637076" lon="-6.076758">
        <ele>7.9</ele>
        <time>2021-02-02T15:18:28Z</time>
      </trkpt>
      <trkpt lat="36.636953" lon="-6.076686">
        <ele>8.2</ele>
        <time>2021-02-02T15:18:30Z</time>
      </trkpt>
      <trkpt lat="36.636828" lon="-6.076615">
        <ele>8.1</ele>
        <time>2021-02-02T15:18:32Z</time>
      </trkpt>
      <trkpt lat="36.636707" lon="-6.076538">
        <ele>8.0</ele>
        <time>2021-02-02T15:18:34Z</time>
      </trkpt>
      <trkpt lat="36.636587" lon="-6.076455">
        <ele>7.9</ele>
        <time>2021-02-02T15:18:36Z</time>
      </trkpt>
      <trkpt lat="36.636471" lon="-6.076380">
        <ele>7.9</ele>
        <time>2021-02-02T15:18:38Z</time>
      </trkpt>
      <trkpt lat="36.636347" lon="-6.076309">
        <ele>7.9</ele>
        <time>2021-02-02T15:18:40Z</time>
      </trkpt>
      <trkpt lat="36.636220" lon="-6.076240">
        <ele>8.1</ele>
        <time>2021-02-02T15:18:42Z</time>
      </trkpt>
      <trkpt lat="36.636097" lon="-6.076165">
        <ele>7.8</ele>
        <time>2021-02-02T15:18:44Z</time>
      </trkpt>
      <trkpt lat="36.635977" lon="-6.076094">
        <ele>7.9</ele>
        <time>2021-02-02T15:18:46Z</time>
      </trkpt>
      <trkpt lat="36.635855" lon="-6.076020">
        <ele>8.0</ele>
        <time>2021-02-02T15:18:48Z</time>
      </trkpt>
      <trkpt lat="36.635735" lon="-6.075942">
        <ele>8.2</ele>
        <time>2021-02-02T15:18:50Z</time>
      </trkpt>
      <trkpt lat="36.635615" lon="-6.075861">
        <ele>8.3</ele>
        <time>2021-02-02T15:18:52Z</time>
      </trkpt>
      <trkpt lat="36.635500" lon="-6.075773">
        <ele>8.3</ele>
        <time>2021-02-02T15:18:54Z</time>
      </trkpt>
      <trkpt lat="36.635383" lon="-6.075688">
        <ele>8.5</ele>
        <time>2021-02-02T15:18:56Z</time>
      </trkpt>
      <trkpt lat="36.635271" lon="-6.075602">
        <ele>8.7</ele>
        <time>2021-02-02T15:18:58Z</time>
      </trkpt>
      <trkpt lat="36.635162" lon="-6.075515">
        <ele>8.7</ele>
        <time>2021-02-02T15:19:00Z</time>
      </trkpt>
      <trkpt lat="36.635056" lon="-6.075421">
        <ele>8.7</ele>
        <time>2021-02-02T15:19:02Z</time>
      </trkpt>
      <trkpt lat="36.634949" lon="-6.075321">
        <ele>8.6</ele>
        <time>2021-02-02T15:19:04Z</time>
      </trkpt>
      <trkpt lat="36.634831" lon="-6.075234">
        <ele>8.5</ele>
        <time>2021-02-02T15:19:06Z</time>
      </trkpt>
      <trkpt lat="36.634713" lon="-6.075150">
        <ele>8.6</ele>
        <time>2021-02-02T15:19:08Z</time>
      </trkpt>
      <trkpt lat="36.634599" lon="-6.075052">
        <ele>8.7</ele>
        <time>2021-02-02T15:19:10Z</time>
      </trkpt>
      <trkpt lat="36.634487" lon="-6.074953">
        <ele>8.8</ele>
        <time>2021-02-02T15:19:12Z</time>
      </trkpt>
      <trkpt lat="36.634378" lon="-6.074856">
        <ele>8.7</ele>
        <time>2021-02-02T15:19:14Z</time>
      </trkpt>
      <trkpt lat="36.634276" lon="-6.074752">
        <ele>9.1</ele>
        <time>2021-02-02T15:19:16Z</time>
      </trkpt>
      <trkpt lat="36.634175" lon="-6.074648">
        <ele>9.1</ele>
        <time>2021-02-02T15:19:18Z</time>
      </trkpt>
      <trkpt lat="36.634073" lon="-6.074548">
        <ele>9.0</ele>
        <time>2021-02-02T15:19:20Z</time>
      </trkpt>
      <trkpt lat="36.633973" lon="-6.074443">
        <ele>9.0</ele>
        <time>2021-02-02T15:19:22Z</time>
      </trkpt>
      <trkpt lat="36.633871" lon="-6.074322">
        <ele>9.0</ele>
        <time>2021-02-02T15:19:24Z</time>
      </trkpt>
      <trkpt lat="36.633768" lon="-6.074202">
        <ele>8.8</ele>
        <time>2021-02-02T15:19:26Z</time>
      </trkpt>
      <trkpt lat="36.633667" lon="-6.074086">
        <ele>8.6</ele>
        <time>2021-02-02T15:19:28Z</time>
      </trkpt>
      <trkpt lat="36.633568" lon="-6.073972">
        <ele>8.6</ele>
        <time>2021-02-02T15:19:30Z</time>
      </trkpt>
      <trkpt lat="36.633468" lon="-6.073856">
        <ele>8.8</ele>
        <time>2021-02-02T15:19:32Z</time>
      </trkpt>
      <trkpt lat="36.633370" lon="-6.073738">
        <ele>8.8</ele>
        <time>2021-02-02T15:19:34Z</time>
      </trkpt>
      <trkpt lat="36.633272" lon="-6.073624">
        <ele>8.8</ele>
        <time>2021-02-02T15:19:36Z</time>
      </trkpt>
      <trkpt lat="36.633175" lon="-6.073521">
        <ele>8.8</ele>
        <time>2021-02-02T15:19:38Z</time>
      </trkpt>
      <trkpt lat="36.633079" lon="-6.073418">
        <ele>8.7</ele>
        <time>2021-02-02T15:19:40Z</time>
      </trkpt>
      <trkpt lat="36.632982" lon="-6.073313">
        <ele>8.7</ele>
        <time>2021-02-02T15:19:42Z</time>
      </trkpt>
      <trkpt lat="36.632886" lon="-6.073212">
        <ele>8.7</ele>
        <time>2021-02-02T15:19:44Z</time>
      </trkpt>
      <trkpt lat="36.632790" lon="-6.073108">
        <ele>8.7</ele>
        <time>2021-02-02T15:19:46Z</time>
      </trkpt>
      <trkpt lat="36.632694" lon="-6.073007">
        <ele>8.8</ele>
        <time>2021-02-02T15:19:48Z</time>
      </trkpt>
      <trkpt lat="36.632601" lon="-6.072909">
        <ele>8.9</ele>
        <time>2021-02-02T15:19:50Z</time>
      </trkpt>
      <trkpt lat="36.632503" lon="-6.072815">
        <ele>9.0</ele>
        <time>2021-02-02T15:19:52Z</time>
      </trkpt>
      <trkpt lat="36.632408" lon="-6.072721">
        <ele>9.1</ele>
        <time>2021-02-02T15:19:54Z</time>
      </trkpt>
      <trkpt lat="36.632312" lon="-6.072629">
        <ele>9.2</ele>
        <time>2021-02-02T15:19:56Z</time>
      </trkpt>
      <trkpt lat="36.632215" lon="-6.072540">
        <ele>9.3</ele>
        <time>2021-02-02T15:19:58Z</time>
      </trkpt>
      <trkpt lat="36.632114" lon="-6.072454">
        <ele>9.5</ele>
        <time>2021-02-02T15:20:00Z</time>
      </trkpt>
      <trkpt lat="36.632012" lon="-6.072372">
        <ele>9.8</ele>
        <time>2021-02-02T15:20:02Z</time>
      </trkpt>
      <trkpt lat="36.631911" lon="-6.072290">
        <ele>9.9</ele>
        <time>2021-02-02T15:20:04Z</time>
      </trkpt>
      <trkpt lat="36.631808" lon="-6.072210">
        <ele>10.0</ele>
        <time>2021-02-02T15:20:06Z</time>
      </trkpt>
      <trkpt lat="36.631703" lon="-6.072135">
        <ele>10.1</ele>
        <time>2021-02-02T15:20:08Z</time>
      </trkpt>
      <trkpt lat="36.631599" lon="-6.072061">
        <ele>10.4</ele>
        <time>2021-02-02T15:20:10Z</time>
      </trkpt>
      <trkpt lat="36.631495" lon="-6.071989">
        <ele>10.8</ele>
        <time>2021-02-02T15:20:12Z</time>
      </trkpt>
      <trkpt lat="36.631389" lon="-6.071916">
        <ele>11.2</ele>
        <time>2021-02-02T15:20:14Z</time>
      </trkpt>
      <trkpt lat="36.631284" lon="-6.071847">
        <ele>11.4</ele>
        <time>2021-02-02T15:20:16Z</time>
      </trkpt>
      <trkpt lat="36.631179" lon="-6.071776">
        <ele>11.7</ele>
        <time>2021-02-02T15:20:18Z</time>
      </trkpt>
      <trkpt lat="36.631075" lon="-6.071702">
        <ele>11.9</ele>
        <time>2021-02-02T15:20:20Z</time>
      </trkpt>
      <trkpt lat="36.630973" lon="-6.071628">
        <ele>12.3</ele>
        <time>2021-02-02T15:20:22Z</time>
      </trkpt>
      <trkpt lat="36.630879" lon="-6.071549">
        <ele>12.8</ele>
        <time>2021-02-02T15:20:24Z</time>
      </trkpt>
      <trkpt lat="36.630781" lon="-6.071486">
        <ele>13.3</ele>
        <time>2021-02-02T15:20:26Z</time>
      </trkpt>
      <trkpt lat="36.630675" lon="-6.071434">
        <ele>13.7</ele>
        <time>2021-02-02T15:20:28Z</time>
      </trkpt>
      <trkpt lat="36.630565" lon="-6.071382">
        <ele>14.0</ele>
        <time>2021-02-02T15:20:30Z</time>
      </trkpt>
      <trkpt lat="36.630454" lon="-6.071328">
        <ele>14.2</ele>
        <time>2021-02-02T15:20:32Z</time>
      </trkpt>
      <trkpt lat="36.630341" lon="-6.071281">
        <ele>14.5</ele>
        <time>2021-02-02T15:20:34Z</time>
      </trkpt>
      <trkpt lat="36.630229" lon="-6.071235">
        <ele>14.8</ele>
        <time>2021-02-02T15:20:36Z</time>
      </trkpt>
      <trkpt lat="36.630118" lon="-6.071187">
        <ele>14.9</ele>
        <time>2021-02-02T15:20:38Z</time>
      </trkpt>
      <trkpt lat="36.630003" lon="-6.071142">
        <ele>14.8</ele>
        <time>2021-02-02T15:20:40Z</time>
      </trkpt>
      <trkpt lat="36.629888" lon="-6.071099">
        <ele>15.0</ele>
        <time>2021-02-02T15:20:42Z</time>
      </trkpt>
      <trkpt lat="36.629774" lon="-6.071055">
        <ele>15.1</ele>
        <time>2021-02-02T15:20:44Z</time>
      </trkpt>
      <trkpt lat="36.629659" lon="-6.071014">
        <ele>15.3</ele>
        <time>2021-02-02T15:20:46Z</time>
      </trkpt>
      <trkpt lat="36.629543" lon="-6.070976">
        <ele>15.5</ele>
        <time>2021-02-02T15:20:48Z</time>
      </trkpt>
      <trkpt lat="36.629425" lon="-6.070936">
        <ele>15.6</ele>
        <time>2021-02-02T15:20:50Z</time>
      </trkpt>
      <trkpt lat="36.629305" lon="-6.070900">
        <ele>15.7</ele>
        <time>2021-02-02T15:20:52Z</time>
      </trkpt>
      <trkpt lat="36.629186" lon="-6.070868">
        <ele>15.7</ele>
        <time>2021-02-02T15:20:54Z</time>
      </trkpt>
      <trkpt lat="36.629066" lon="-6.070841">
        <ele>15.9</ele>
        <time>2021-02-02T15:20:56Z</time>
      </trkpt>
      <trkpt lat="36.628944" lon="-6.070825">
        <ele>16.0</ele>
        <time>2021-02-02T15:20:58Z</time>
      </trkpt>
      <trkpt lat="36.628821" lon="-6.070806">
        <ele>16.1</ele>
        <time>2021-02-02T15:21:00Z</time>
      </trkpt>
      <trkpt lat="36.628700" lon="-6.070769">
        <ele>16.1</ele>
        <time>2021-02-02T15:21:02Z</time>
      </trkpt>
      <trkpt lat="36.628581" lon="-6.070734">
        <ele>16.1</ele>
        <time>2021-02-02T15:21:04Z</time>
      </trkpt>
      <trkpt lat="36.628460" lon="-6.070704">
        <ele>16.1</ele>
        <time>2021-02-02T15:21:06Z</time>
      </trkpt>
      <trkpt lat="36.628337" lon="-6.070680">
        <ele>16.0</ele>
        <time>2021-02-02T15:21:08Z</time>
      </trkpt>
      <trkpt lat="36.628212" lon="-6.070662">
        <ele>15.9</ele>
        <time>2021-02-02T15:21:10Z</time>
      </trkpt>
      <trkpt lat="36.628084" lon="-6.070651">
        <ele>15.8</ele>
        <time>2021-02-02T15:21:12Z</time>
      </trkpt>
      <trkpt lat="36.627958" lon="-6.070641">
        <ele>15.6</ele>
        <time>2021-02-02T15:21:14Z</time>
      </trkpt>
      <trkpt lat="36.627831" lon="-6.070639">
        <ele>15.5</ele>
        <time>2021-02-02T15:21:16Z</time>
      </trkpt>
      <trkpt lat="36.627702" lon="-6.070636">
        <ele>15.3</ele>
        <time>2021-02-02T15:21:18Z</time>
      </trkpt>
      <trkpt lat="36.627572" lon="-6.070632">
        <ele>15.3</ele>
        <time>2021-02-02T15:21:20Z</time>
      </trkpt>
      <trkpt lat="36.627443" lon="-6.070626">
        <ele>15.1</ele>
        <time>2021-02-02T15:21:22Z</time>
      </trkpt>
      <trkpt lat="36.627311" lon="-6.070626">
        <ele>14.9</ele>
        <time>2021-02-02T15:21:24Z</time>
      </trkpt>
      <trkpt lat="36.627176" lon="-6.070633">
        <ele>14.8</ele>
        <time>2021-02-02T15:21:26Z</time>
      </trkpt>
      <trkpt lat="36.627037" lon="-6.070639">
        <ele>14.6</ele>
        <time>2021-02-02T15:21:28Z</time>
      </trkpt>
      <trkpt lat="36.626896" lon="-6.070650">
        <ele>14.4</ele>
        <time>2021-02-02T15:21:30Z</time>
      </trkpt>
      <trkpt lat="36.626753" lon="-6.070661">
        <ele>14.0</ele>
        <time>2021-02-02T15:21:32Z</time>
      </trkpt>
      <trkpt lat="36.626612" lon="-6.070676">
        <ele>13.8</ele>
        <time>2021-02-02T15:21:34Z</time>
      </trkpt>
      <trkpt lat="36.626473" lon="-6.070700">
        <ele>13.7</ele>
        <time>2021-02-02T15:21:36Z</time>
      </trkpt>
      <trkpt lat="36.626343" lon="-6.070723">
        <ele>13.9</ele>
        <time>2021-02-02T15:21:38Z</time>
      </trkpt>
      <trkpt lat="36.626214" lon="-6.070748">
        <ele>14.0</ele>
        <time>2021-02-02T15:21:40Z</time>
      </trkpt>
      <trkpt lat="36.626079" lon="-6.070800">
        <ele>13.6</ele>
        <time>2021-02-02T15:21:42Z</time>
      </trkpt>
      <trkpt lat="36.625945" lon="-6.070863">
        <ele>13.3</ele>
        <time>2021-02-02T15:21:44Z</time>
      </trkpt>
      <trkpt lat="36.625810" lon="-6.070930">
        <ele>13.2</ele>
        <time>2021-02-02T15:21:46Z</time>
      </trkpt>
      <trkpt lat="36.625676" lon="-6.070997">
        <ele>13.0</ele>
        <time>2021-02-02T15:21:48Z</time>
      </trkpt>
      <trkpt lat="36.625547" lon="-6.071064">
        <ele>13.0</ele>
        <time>2021-02-02T15:21:50Z</time>
      </trkpt>
      <trkpt lat="36.625423" lon="-6.071129">
        <ele>12.9</ele>
        <time>2021-02-02T15:21:52Z</time>
      </trkpt>
      <trkpt lat="36.625300" lon="-6.071188">
        <ele>12.8</ele>
        <time>2021-02-02T15:21:54Z</time>
      </trkpt>
      <trkpt lat="36.625180" lon="-6.071250">
        <ele>12.8</ele>
        <time>2021-02-02T15:21:56Z</time>
      </trkpt>
      <trkpt lat="36.625060" lon="-6.071309">
        <ele>12.6</ele>
        <time>2021-02-02T15:21:58Z</time>
      </trkpt>
      <trkpt lat="36.624944" lon="-6.071371">
        <ele>12.4</ele>
        <time>2021-02-02T15:22:00Z</time>
      </trkpt>
      <trkpt lat="36.624829" lon="-6.071433">
        <ele>12.3</ele>
        <time>2021-02-02T15:22:02Z</time>
      </trkpt>
      <trkpt lat="36.624717" lon="-6.071497">
        <ele>12.3</ele>
        <time>2021-02-02T15:22:04Z</time>
      </trkpt>
      <trkpt lat="36.624604" lon="-6.071559">
        <ele>12.3</ele>
        <time>2021-02-02T15:22:06Z</time>
      </trkpt>
      <trkpt lat="36.624493" lon="-6.071616">
        <ele>12.4</ele>
        <time>2021-02-02T15:22:08Z</time>
      </trkpt>
      <trkpt lat="36.624385" lon="-6.071669">
        <ele>12.6</ele>
        <time>2021-02-02T15:22:10Z</time>
      </trkpt>
      <trkpt lat="36.624279" lon="-6.071724">
        <ele>12.9</ele>
        <time>2021-02-02T15:22:12Z</time>
      </trkpt>
      <trkpt lat="36.624176" lon="-6.071774">
        <ele>13.3</ele>
        <time>2021-02-02T15:22:14Z</time>
      </trkpt>
      <trkpt lat="36.624079" lon="-6.071817">
        <ele>13.6</ele>
        <time>2021-02-02T15:22:16Z</time>
      </trkpt>
      <trkpt lat="36.623980" lon="-6.071856">
        <ele>14.1</ele>
        <time>2021-02-02T15:22:18Z</time>
      </trkpt>
      <trkpt lat="36.623881" lon="-6.071889">
        <ele>14.6</ele>
        <time>2021-02-02T15:22:20Z</time>
      </trkpt>
      <trkpt lat="36.623778" lon="-6.071913">
        <ele>15.1</ele>
        <time>2021-02-02T15:22:22Z</time>
      </trkpt>
      <trkpt lat="36.623669" lon="-6.071926">
        <ele>15.6</ele>
        <time>2021-02-02T15:22:24Z</time>
      </trkpt>
      <trkpt lat="36.623562" lon="-6.071925">
        <ele>16.1</ele>
        <time>2021-02-02T15:22:26Z</time>
      </trkpt>
      <trkpt lat="36.623457" lon="-6.071910">
        <ele>16.5</ele>
        <time>2021-02-02T15:22:28Z</time>
      </trkpt>
      <trkpt lat="36.623352" lon="-6.071883">
        <ele>16.9</ele>
        <time>2021-02-02T15:22:30Z</time>
      </trkpt>
      <trkpt lat="36.623243" lon="-6.071838">
        <ele>17.4</ele>
        <time>2021-02-02T15:22:32Z</time>
      </trkpt>
      <trkpt lat="36.623137" lon="-6.071789">
        <ele>17.8</ele>
        <time>2021-02-02T15:22:34Z</time>
      </trkpt>
      <trkpt lat="36.623033" lon="-6.071726">
        <ele>18.1</ele>
        <time>2021-02-02T15:22:36Z</time>
      </trkpt>
      <trkpt lat="36.622931" lon="-6.071661">
        <ele>18.2</ele>
        <time>2021-02-02T15:22:38Z</time>
      </trkpt>
      <trkpt lat="36.622832" lon="-6.071591">
        <ele>18.4</ele>
        <time>2021-02-02T15:22:40Z</time>
      </trkpt>
      <trkpt lat="36.622734" lon="-6.071516">
        <ele>18.6</ele>
        <time>2021-02-02T15:22:42Z</time>
      </trkpt>
      <trkpt lat="36.622637" lon="-6.071437">
        <ele>19.0</ele>
        <time>2021-02-02T15:22:44Z</time>
      </trkpt>
      <trkpt lat="36.622540" lon="-6.071358">
        <ele>19.3</ele>
        <time>2021-02-02T15:22:46Z</time>
      </trkpt>
      <trkpt lat="36.622440" lon="-6.071282">
        <ele>19.6</ele>
        <time>2021-02-02T15:22:48Z</time>
      </trkpt>
      <trkpt lat="36.622342" lon="-6.071205">
        <ele>19.9</ele>
        <time>2021-02-02T15:22:50Z</time>
      </trkpt>
      <trkpt lat="36.622243" lon="-6.071127">
        <ele>20.1</ele>
        <time>2021-02-02T15:22:52Z</time>
      </trkpt>
      <trkpt lat="36.622146" lon="-6.071051">
        <ele>20.3</ele>
        <time>2021-02-02T15:22:54Z</time>
      </trkpt>
      <trkpt lat="36.622050" lon="-6.070970">
        <ele>20.6</ele>
        <time>2021-02-02T15:22:56Z</time>
      </trkpt>
      <trkpt lat="36.621951" lon="-6.070890">
        <ele>20.9</ele>
        <time>2021-02-02T15:22:58Z</time>
      </trkpt>
      <trkpt lat="36.621853" lon="-6.070807">
        <ele>21.1</ele>
        <time>2021-02-02T15:23:00Z</time>
      </trkpt>
      <trkpt lat="36.621756" lon="-6.070729">
        <ele>21.2</ele>
        <time>2021-02-02T15:23:02Z</time>
      </trkpt>
      <trkpt lat="36.621657" lon="-6.070650">
        <ele>21.4</ele>
        <time>2021-02-02T15:23:04Z</time>
      </trkpt>
      <trkpt lat="36.621557" lon="-6.070570">
        <ele>21.7</ele>
        <time>2021-02-02T15:23:06Z</time>
      </trkpt>
      <trkpt lat="36.621459" lon="-6.070493">
        <ele>21.9</ele>
        <time>2021-02-02T15:23:08Z</time>
      </trkpt>
      <trkpt lat="36.621359" lon="-6.070411">
        <ele>22.0</ele>
        <time>2021-02-02T15:23:10Z</time>
      </trkpt>
      <trkpt lat="36.621259" lon="-6.070331">
        <ele>22.3</ele>
        <time>2021-02-02T15:23:12Z</time>
      </trkpt>
      <trkpt lat="36.621157" lon="-6.070254">
        <ele>22.6</ele>
        <time>2021-02-02T15:23:14Z</time>
      </trkpt>
      <trkpt lat="36.621054" lon="-6.070171">
        <ele>22.7</ele>
        <time>2021-02-02T15:23:16Z</time>
      </trkpt>
      <trkpt lat="36.620948" lon="-6.070086">
        <ele>23.0</ele>
        <time>2021-02-02T15:23:18Z</time>
      </trkpt>
      <trkpt lat="36.620845" lon="-6.070002">
        <ele>23.2</ele>
        <time>2021-02-02T15:23:20Z</time>
      </trkpt>
      <trkpt lat="36.620742" lon="-6.069922">
        <ele>23.5</ele>
        <time>2021-02-02T15:23:22Z</time>
      </trkpt>
      <trkpt lat="36.620640" lon="-6.069841">
        <ele>23.7</ele>
        <time>2021-02-02T15:23:24Z</time>
      </trkpt>
      <trkpt lat="36.620539" lon="-6.069751">
        <ele>23.9</ele>
        <time>2021-02-02T15:23:26Z</time>
      </trkpt>
      <trkpt lat="36.620435" lon="-6.069667">
        <ele>24.2</ele>
        <time>2021-02-02T15:23:28Z</time>
      </trkpt>
      <trkpt lat="36.620330" lon="-6.069586">
        <ele>24.4</ele>
        <time>2021-02-02T15:23:30Z</time>
      </trkpt>
      <trkpt lat="36.620227" lon="-6.069501">
        <ele>24.5</ele>
        <time>2021-02-02T15:23:32Z</time>
      </trkpt>
      <trkpt lat="36.620121" lon="-6.069414">
        <ele>24.9</ele>
        <time>2021-02-02T15:23:34Z</time>
      </trkpt>
      <trkpt lat="36.620019" lon="-6.069323">
        <ele>25.2</ele>
        <time>2021-02-02T15:23:36Z</time>
      </trkpt>
      <trkpt lat="36.619925" lon="-6.069222">
        <ele>25.4</ele>
        <time>2021-02-02T15:23:38Z</time>
      </trkpt>
      <trkpt lat="36.619835" lon="-6.069111">
        <ele>25.7</ele>
        <time>2021-02-02T15:23:40Z</time>
      </trkpt>
      <trkpt lat="36.619746" lon="-6.068996">
        <ele>26.2</ele>
        <time>2021-02-02T15:23:42Z</time>
      </trkpt>
      <trkpt lat="36.619662" lon="-6.068882">
        <ele>26.5</ele>
        <time>2021-02-02T15:23:44Z</time>
      </trkpt>
      <trkpt lat="36.619581" lon="-6.068757">
        <ele>26.7</ele>
        <time>2021-02-02T15:23:46Z</time>
      </trkpt>
      <trkpt lat="36.619501" lon="-6.068629">
        <ele>26.8</ele>
        <time>2021-02-02T15:23:48Z</time>
      </trkpt>
      <trkpt lat="36.619421" lon="-6.068504">
        <ele>27.1</ele>
        <time>2021-02-02T15:23:50Z</time>
      </trkpt>
      <trkpt lat="36.619342" lon="-6.068377">
        <ele>27.4</ele>
        <time>2021-02-02T15:23:52Z</time>
      </trkpt>
      <trkpt lat="36.619260" lon="-6.068258">
        <ele>27.8</ele>
        <time>2021-02-02T15:23:54Z</time>
      </trkpt>
      <trkpt lat="36.619167" lon="-6.068157">
        <ele>28.2</ele>
        <time>2021-02-02T15:23:56Z</time>
      </trkpt>
      <trkpt lat="36.619065" lon="-6.068066">
        <ele>28.4</ele>
        <time>2021-02-02T15:23:58Z</time>
      </trkpt>
      <trkpt lat="36.618955" lon="-6.067980">
        <ele>28.8</ele>
        <time>2021-02-02T15:24:00Z</time>
      </trkpt>
      <trkpt lat="36.618841" lon="-6.067896">
        <ele>28.9</ele>
        <time>2021-02-02T15:24:02Z</time>
      </trkpt>
      <trkpt lat="36.618723" lon="-6.067819">
        <ele>29.2</ele>
        <time>2021-02-02T15:24:04Z</time>
      </trkpt>
      <trkpt lat="36.618604" lon="-6.067775">
        <ele>29.4</ele>
        <time>2021-02-02T15:24:06Z</time>
      </trkpt>
      <trkpt lat="36.618485" lon="-6.067756">
        <ele>29.6</ele>
        <time>2021-02-02T15:24:08Z</time>
      </trkpt>
      <trkpt lat="36.618366" lon="-6.067754">
        <ele>29.9</ele>
        <time>2021-02-02T15:24:10Z</time>
      </trkpt>
      <trkpt lat="36.618250" lon="-6.067779">
        <ele>30.2</ele>
        <time>2021-02-02T15:24:12Z</time>
      </trkpt>
      <trkpt lat="36.618144" lon="-6.067818">
        <ele>30.6</ele>
        <time>2021-02-02T15:24:14Z</time>
      </trkpt>
      <trkpt lat="36.618041" lon="-6.067826">
        <ele>31.0</ele>
        <time>2021-02-02T15:24:16Z</time>
      </trkpt>
      <trkpt lat="36.617948" lon="-6.067789">
        <ele>31.3</ele>
        <time>2021-02-02T15:24:18Z</time>
      </trkpt>
      <trkpt lat="36.617830" lon="-6.067700">
        <ele>31.9</ele>
        <time>2021-02-02T15:24:21Z</time>
      </trkpt>
      <trkpt lat="36.617732" lon="-6.067633">
        <ele>32.2</ele>
        <time>2021-02-02T15:24:23Z</time>
      </trkpt>
      <trkpt lat="36.617644" lon="-6.067537">
        <ele>32.4</ele>
        <time>2021-02-02T15:24:25Z</time>
      </trkpt>
      <trkpt lat="36.617568" lon="-6.067425">
        <ele>32.4</ele>
        <time>2021-02-02T15:24:27Z</time>
      </trkpt>
      <trkpt lat="36.617496" lon="-6.067318">
        <ele>32.5</ele>
        <time>2021-02-02T15:24:29Z</time>
      </trkpt>
      <trkpt lat="36.617456" lon="-6.067184">
        <ele>32.5</ele>
        <time>2021-02-02T15:24:31Z</time>
      </trkpt>
      <trkpt lat="36.617469" lon="-6.067023">
        <ele>32.4</ele>
        <time>2021-02-02T15:24:33Z</time>
      </trkpt>
      <trkpt lat="36.617507" lon="-6.066857">
        <ele>32.1</ele>
        <time>2021-02-02T15:24:35Z</time>
      </trkpt>
      <trkpt lat="36.617540" lon="-6.066676">
        <ele>31.7</ele>
        <time>2021-02-02T15:24:37Z</time>
      </trkpt>
      <trkpt lat="36.617546" lon="-6.066485">
        <ele>31.2</ele>
        <time>2021-02-02T15:24:39Z</time>
      </trkpt>
      <trkpt lat="36.617523" lon="-6.066284">
        <ele>30.6</ele>
        <time>2021-02-02T15:24:41Z</time>
      </trkpt>
      <trkpt lat="36.617466" lon="-6.066092">
        <ele>30.1</ele>
        <time>2021-02-02T15:24:43Z</time>
      </trkpt>
      <trkpt lat="36.617388" lon="-6.065917">
        <ele>29.7</ele>
        <time>2021-02-02T15:24:45Z</time>
      </trkpt>
      <trkpt lat="36.617304" lon="-6.065748">
        <ele>29.4</ele>
        <time>2021-02-02T15:24:47Z</time>
      </trkpt>
      <trkpt lat="36.617221" lon="-6.065577">
        <ele>29.2</ele>
        <time>2021-02-02T15:24:49Z</time>
      </trkpt>
      <trkpt lat="36.617145" lon="-6.065414">
        <ele>29.2</ele>
        <time>2021-02-02T15:24:51Z</time>
      </trkpt>
      <trkpt lat="36.617075" lon="-6.065261">
        <ele>29.2</ele>
        <time>2021-02-02T15:24:53Z</time>
      </trkpt>
      <trkpt lat="36.617008" lon="-6.065116">
        <ele>29.6</ele>
        <time>2021-02-02T15:24:55Z</time>
      </trkpt>
      <trkpt lat="36.616946" lon="-6.064982">
        <ele>30.0</ele>
        <time>2021-02-02T15:24:57Z</time>
      </trkpt>
      <trkpt lat="36.616886" lon="-6.064851">
        <ele>30.6</ele>
        <time>2021-02-02T15:24:59Z</time>
      </trkpt>
      <trkpt lat="36.616825" lon="-6.064722">
        <ele>31.0</ele>
        <time>2021-02-02T15:25:01Z</time>
      </trkpt>
      <trkpt lat="36.616763" lon="-6.064593">
        <ele>31.4</ele>
        <time>2021-02-02T15:25:03Z</time>
      </trkpt>
      <trkpt lat="36.616703" lon="-6.064465">
        <ele>31.6</ele>
        <time>2021-02-02T15:25:05Z</time>
      </trkpt>
      <trkpt lat="36.616645" lon="-6.064334">
        <ele>32.0</ele>
        <time>2021-02-02T15:25:07Z</time>
      </trkpt>
      <trkpt lat="36.616587" lon="-6.064203">
        <ele>32.2</ele>
        <time>2021-02-02T15:25:09Z</time>
      </trkpt>
      <trkpt lat="36.616529" lon="-6.064070">
        <ele>32.6</ele>
        <time>2021-02-02T15:25:11Z</time>
      </trkpt>
      <trkpt lat="36.616470" lon="-6.063936">
        <ele>32.9</ele>
        <time>2021-02-02T15:25:13Z</time>
      </trkpt>
      <trkpt lat="36.616409" lon="-6.063798">
        <ele>33.1</ele>
        <time>2021-02-02T15:25:15Z</time>
      </trkpt>
      <trkpt lat="36.616346" lon="-6.063663">
        <ele>33.3</ele>
        <time>2021-02-02T15:25:17Z</time>
      </trkpt>
      <trkpt lat="36.616283" lon="-6.063527">
        <ele>33.4</ele>
        <time>2021-02-02T15:25:19Z</time>
      </trkpt>
      <trkpt lat="36.616224" lon="-6.063391">
        <ele>33.5</ele>
        <time>2021-02-02T15:25:21Z</time>
      </trkpt>
      <trkpt lat="36.616164" lon="-6.063258">
        <ele>33.7</ele>
        <time>2021-02-02T15:25:23Z</time>
      </trkpt>
      <trkpt lat="36.616103" lon="-6.063123">
        <ele>33.9</ele>
        <time>2021-02-02T15:25:25Z</time>
      </trkpt>
      <trkpt lat="36.616037" lon="-6.062985">
        <ele>33.9</ele>
        <time>2021-02-02T15:25:27Z</time>
      </trkpt>
      <trkpt lat="36.615963" lon="-6.062850">
        <ele>34.1</ele>
        <time>2021-02-02T15:25:29Z</time>
      </trkpt>
      <trkpt lat="36.615883" lon="-6.062715">
        <ele>34.0</ele>
        <time>2021-02-02T15:25:31Z</time>
      </trkpt>
      <trkpt lat="36.615804" lon="-6.062577">
        <ele>34.0</ele>
        <time>2021-02-02T15:25:33Z</time>
      </trkpt>
      <trkpt lat="36.615724" lon="-6.062439">
        <ele>34.0</ele>
        <time>2021-02-02T15:25:35Z</time>
      </trkpt>
      <trkpt lat="36.615642" lon="-6.062311">
        <ele>34.0</ele>
        <time>2021-02-02T15:25:37Z</time>
      </trkpt>
      <trkpt lat="36.615556" lon="-6.062181">
        <ele>34.1</ele>
        <time>2021-02-02T15:25:39Z</time>
      </trkpt>
      <trkpt lat="36.615469" lon="-6.062051">
        <ele>34.1</ele>
        <time>2021-02-02T15:25:41Z</time>
      </trkpt>
      <trkpt lat="36.615378" lon="-6.061925">
        <ele>33.9</ele>
        <time>2021-02-02T15:25:43Z</time>
      </trkpt>
      <trkpt lat="36.615279" lon="-6.061803">
        <ele>34.0</ele>
        <time>2021-02-02T15:25:45Z</time>
      </trkpt>
      <trkpt lat="36.615179" lon="-6.061683">
        <ele>34.3</ele>
        <time>2021-02-02T15:25:47Z</time>
      </trkpt>
      <trkpt lat="36.615081" lon="-6.061556">
        <ele>34.2</ele>
        <time>2021-02-02T15:25:49Z</time>
      </trkpt>
      <trkpt lat="36.614988" lon="-6.061420">
        <ele>34.0</ele>
        <time>2021-02-02T15:25:51Z</time>
      </trkpt>
      <trkpt lat="36.614890" lon="-6.061290">
        <ele>34.0</ele>
        <time>2021-02-02T15:25:53Z</time>
      </trkpt>
      <trkpt lat="36.614794" lon="-6.061169">
        <ele>33.9</ele>
        <time>2021-02-02T15:25:55Z</time>
      </trkpt>
      <trkpt lat="36.614697" lon="-6.061053">
        <ele>34.5</ele>
        <time>2021-02-02T15:25:57Z</time>
      </trkpt>
      <trkpt lat="36.614598" lon="-6.060934">
        <ele>34.9</ele>
        <time>2021-02-02T15:25:59Z</time>
      </trkpt>
      <trkpt lat="36.614497" lon="-6.060820">
        <ele>34.9</ele>
        <time>2021-02-02T15:26:01Z</time>
      </trkpt>
      <trkpt lat="36.614399" lon="-6.060713">
        <ele>35.2</ele>
        <time>2021-02-02T15:26:03Z</time>
      </trkpt>
      <trkpt lat="36.614303" lon="-6.060618">
        <ele>35.2</ele>
        <time>2021-02-02T15:26:05Z</time>
      </trkpt>
      <trkpt lat="36.614205" lon="-6.060525">
        <ele>35.2</ele>
        <time>2021-02-02T15:26:07Z</time>
      </trkpt>
      <trkpt lat="36.614105" lon="-6.060436">
        <ele>35.5</ele>
        <time>2021-02-02T15:26:09Z</time>
      </trkpt>
      <trkpt lat="36.614003" lon="-6.060350">
        <ele>36.2</ele>
        <time>2021-02-02T15:26:11Z</time>
      </trkpt>
      <trkpt lat="36.613901" lon="-6.060258">
        <ele>36.7</ele>
        <time>2021-02-02T15:26:13Z</time>
      </trkpt>
      <trkpt lat="36.613804" lon="-6.060159">
        <ele>37.1</ele>
        <time>2021-02-02T15:26:15Z</time>
      </trkpt>
      <trkpt lat="36.613710" lon="-6.060057">
        <ele>37.4</ele>
        <time>2021-02-02T15:26:17Z</time>
      </trkpt>
      <trkpt lat="36.613615" lon="-6.059958">
        <ele>37.6</ele>
        <time>2021-02-02T15:26:19Z</time>
      </trkpt>
      <trkpt lat="36.613513" lon="-6.059865">
        <ele>38.0</ele>
        <time>2021-02-02T15:26:21Z</time>
      </trkpt>
      <trkpt lat="36.613402" lon="-6.059779">
        <ele>38.3</ele>
        <time>2021-02-02T15:26:23Z</time>
      </trkpt>
      <trkpt lat="36.613290" lon="-6.059697">
        <ele>38.4</ele>
        <time>2021-02-02T15:26:25Z</time>
      </trkpt>
      <trkpt lat="36.613175" lon="-6.059611">
        <ele>38.7</ele>
        <time>2021-02-02T15:26:27Z</time>
      </trkpt>
      <trkpt lat="36.613059" lon="-6.059530">
        <ele>39.0</ele>
        <time>2021-02-02T15:26:29Z</time>
      </trkpt>
      <trkpt lat="36.612941" lon="-6.059451">
        <ele>39.1</ele>
        <time>2021-02-02T15:26:31Z</time>
      </trkpt>
      <trkpt lat="36.612823" lon="-6.059373">
        <ele>39.2</ele>
        <time>2021-02-02T15:26:33Z</time>
      </trkpt>
      <trkpt lat="36.612703" lon="-6.059294">
        <ele>39.2</ele>
        <time>2021-02-02T15:26:35Z</time>
      </trkpt>
      <trkpt lat="36.612582" lon="-6.059214">
        <ele>39.1</ele>
        <time>2021-02-02T15:26:37Z</time>
      </trkpt>
      <trkpt lat="36.612453" lon="-6.059137">
        <ele>39.3</ele>
        <time>2021-02-02T15:26:39Z</time>
      </trkpt>
      <trkpt lat="36.612317" lon="-6.059061">
        <ele>39.5</ele>
        <time>2021-02-02T15:26:41Z</time>
      </trkpt>
      <trkpt lat="36.612182" lon="-6.058987">
        <ele>39.2</ele>
        <time>2021-02-02T15:26:43Z</time>
      </trkpt>
      <trkpt lat="36.612049" lon="-6.058911">
        <ele>39.0</ele>
        <time>2021-02-02T15:26:45Z</time>
      </trkpt>
      <trkpt lat="36.611917" lon="-6.058845">
        <ele>38.6</ele>
        <time>2021-02-02T15:26:47Z</time>
      </trkpt>
      <trkpt lat="36.611785" lon="-6.058777">
        <ele>38.4</ele>
        <time>2021-02-02T15:26:49Z</time>
      </trkpt>
      <trkpt lat="36.611648" lon="-6.058708">
        <ele>38.1</ele>
        <time>2021-02-02T15:26:51Z</time>
      </trkpt>
      <trkpt lat="36.611507" lon="-6.058642">
        <ele>37.9</ele>
        <time>2021-02-02T15:26:53Z</time>
      </trkpt>
      <trkpt lat="36.611356" lon="-6.058583">
        <ele>37.6</ele>
        <time>2021-02-02T15:26:55Z</time>
      </trkpt>
      <trkpt lat="36.611180" lon="-6.058527">
        <ele>36.5</ele>
        <time>2021-02-02T15:26:57Z</time>
      </trkpt>
      <trkpt lat="36.611083" lon="-6.058497">
        <ele>36.0</ele>
        <time>2021-02-02T15:26:58Z</time>
      </trkpt>
      <trkpt lat="36.610981" lon="-6.058463">
        <ele>35.1</ele>
        <time>2021-02-02T15:26:59Z</time>
      </trkpt>
      <trkpt lat="36.610874" lon="-6.058430">
        <ele>34.4</ele>
        <time>2021-02-02T15:27:00Z</time>
      </trkpt>
      <trkpt lat="36.610762" lon="-6.058394">
        <ele>33.8</ele>
        <time>2021-02-02T15:27:01Z</time>
      </trkpt>
      <trkpt lat="36.610648" lon="-6.058354">
        <ele>33.1</ele>
        <time>2021-02-02T15:27:02Z</time>
      </trkpt>
      <trkpt lat="36.610537" lon="-6.058304">
        <ele>32.4</ele>
        <time>2021-02-02T15:27:03Z</time>
      </trkpt>
      <trkpt lat="36.610434" lon="-6.058248">
        <ele>31.8</ele>
        <time>2021-02-02T15:27:04Z</time>
      </trkpt>
      <trkpt lat="36.610336" lon="-6.058188">
        <ele>31.0</ele>
        <time>2021-02-02T15:27:05Z</time>
      </trkpt>
      <trkpt lat="36.610242" lon="-6.058119">
        <ele>30.6</ele>
        <time>2021-02-02T15:27:06Z</time>
      </trkpt>
      <trkpt lat="36.610154" lon="-6.058048">
        <ele>30.3</ele>
        <time>2021-02-02T15:27:07Z</time>
      </trkpt>
      <trkpt lat="36.610074" lon="-6.057978">
        <ele>30.0</ele>
        <time>2021-02-02T15:27:08Z</time>
      </trkpt>
      <trkpt lat="36.609999" lon="-6.057911">
        <ele>30.0</ele>
        <time>2021-02-02T15:27:09Z</time>
      </trkpt>
      <trkpt lat="36.609856" lon="-6.057784">
        <ele>30.4</ele>
        <time>2021-02-02T15:27:11Z</time>
      </trkpt>
      <trkpt lat="36.609723" lon="-6.057665">
        <ele>30.9</ele>
        <time>2021-02-02T15:27:13Z</time>
      </trkpt>
      <trkpt lat="36.609596" lon="-6.057551">
        <ele>31.3</ele>
        <time>2021-02-02T15:27:15Z</time>
      </trkpt>
      <trkpt lat="36.609481" lon="-6.057435">
        <ele>32.2</ele>
        <time>2021-02-02T15:27:17Z</time>
      </trkpt>
      <trkpt lat="36.609368" lon="-6.057323">
        <ele>32.9</ele>
        <time>2021-02-02T15:27:19Z</time>
      </trkpt>
      <trkpt lat="36.609254" lon="-6.057215">
        <ele>33.6</ele>
        <time>2021-02-02T15:27:21Z</time>
      </trkpt>
      <trkpt lat="36.609143" lon="-6.057110">
        <ele>34.2</ele>
        <time>2021-02-02T15:27:23Z</time>
      </trkpt>
      <trkpt lat="36.609029" lon="-6.057008">
        <ele>34.9</ele>
        <time>2021-02-02T15:27:25Z</time>
      </trkpt>
      <trkpt lat="36.608919" lon="-6.056901">
        <ele>35.7</ele>
        <time>2021-02-02T15:27:27Z</time>
      </trkpt>
      <trkpt lat="36.608803" lon="-6.056807">
        <ele>36.5</ele>
        <time>2021-02-02T15:27:29Z</time>
      </trkpt>
      <trkpt lat="36.608691" lon="-6.056711">
        <ele>37.1</ele>
        <time>2021-02-02T15:27:31Z</time>
      </trkpt>
      <trkpt lat="36.608589" lon="-6.056614">
        <ele>37.5</ele>
        <time>2021-02-02T15:27:33Z</time>
      </trkpt>
      <trkpt lat="36.608489" lon="-6.056519">
        <ele>37.9</ele>
        <time>2021-02-02T15:27:35Z</time>
      </trkpt>
      <trkpt lat="36.608389" lon="-6.056424">
        <ele>38.2</ele>
        <time>2021-02-02T15:27:37Z</time>
      </trkpt>
      <trkpt lat="36.608291" lon="-6.056328">
        <ele>38.0</ele>
        <time>2021-02-02T15:27:39Z</time>
      </trkpt>
      <trkpt lat="36.608192" lon="-6.056231">
        <ele>38.3</ele>
        <time>2021-02-02T15:27:41Z</time>
      </trkpt>
      <trkpt lat="36.608093" lon="-6.056133">
        <ele>38.4</ele>
        <time>2021-02-02T15:27:43Z</time>
      </trkpt>
      <trkpt lat="36.607988" lon="-6.056036">
        <ele>38.4</ele>
        <time>2021-02-02T15:27:45Z</time>
      </trkpt>
      <trkpt lat="36.607880" lon="-6.055925">
        <ele>38.3</ele>
        <time>2021-02-02T15:27:47Z</time>
      </trkpt>
      <trkpt lat="36.607770" lon="-6.055814">
        <ele>38.4</ele>
        <time>2021-02-02T15:27:49Z</time>
      </trkpt>
      <trkpt lat="36.607656" lon="-6.055696">
        <ele>38.0</ele>
        <time>2021-02-02T15:27:51Z</time>
      </trkpt>
      <trkpt lat="36.607540" lon="-6.055577">
        <ele>37.8</ele>
        <time>2021-02-02T15:27:53Z</time>
      </trkpt>
      <trkpt lat="36.607424" lon="-6.055454">
        <ele>37.6</ele>
        <time>2021-02-02T15:27:55Z</time>
      </trkpt>
      <trkpt lat="36.607310" lon="-6.055333">
        <ele>37.3</ele>
        <time>2021-02-02T15:27:57Z</time>
      </trkpt>
      <trkpt lat="36.607198" lon="-6.055210">
        <ele>37.1</ele>
        <time>2021-02-02T15:27:59Z</time>
      </trkpt>
      <trkpt lat="36.607087" lon="-6.055087">
        <ele>36.9</ele>
        <time>2021-02-02T15:28:01Z</time>
      </trkpt>
      <trkpt lat="36.606967" lon="-6.054966">
        <ele>36.8</ele>
        <time>2021-02-02T15:28:03Z</time>
      </trkpt>
      <trkpt lat="36.606847" lon="-6.054840">
        <ele>36.8</ele>
        <time>2021-02-02T15:28:05Z</time>
      </trkpt>
      <trkpt lat="36.606729" lon="-6.054711">
        <ele>36.7</ele>
        <time>2021-02-02T15:28:07Z</time>
      </trkpt>
      <trkpt lat="36.606610" lon="-6.054584">
        <ele>36.4</ele>
        <time>2021-02-02T15:28:09Z</time>
      </trkpt>
      <trkpt lat="36.606489" lon="-6.054454">
        <ele>36.2</ele>
        <time>2021-02-02T15:28:11Z</time>
      </trkpt>
      <trkpt lat="36.606366" lon="-6.054326">
        <ele>36.0</ele>
        <time>2021-02-02T15:28:13Z</time>
      </trkpt>
      <trkpt lat="36.606241" lon="-6.054194">
        <ele>35.6</ele>
        <time>2021-02-02T15:28:15Z</time>
      </trkpt>
      <trkpt lat="36.606116" lon="-6.054061">
        <ele>35.2</ele>
        <time>2021-02-02T15:28:17Z</time>
      </trkpt>
      <trkpt lat="36.605989" lon="-6.053930">
        <ele>34.8</ele>
        <time>2021-02-02T15:28:19Z</time>
      </trkpt>
      <trkpt lat="36.605856" lon="-6.053801">
        <ele>34.4</ele>
        <time>2021-02-02T15:28:21Z</time>
      </trkpt>
      <trkpt lat="36.605722" lon="-6.053665">
        <ele>34.2</ele>
        <time>2021-02-02T15:28:23Z</time>
      </trkpt>
      <trkpt lat="36.605590" lon="-6.053530">
        <ele>34.0</ele>
        <time>2021-02-02T15:28:25Z</time>
      </trkpt>
      <trkpt lat="36.605464" lon="-6.053395">
        <ele>33.9</ele>
        <time>2021-02-02T15:28:27Z</time>
      </trkpt>
      <trkpt lat="36.605344" lon="-6.053265">
        <ele>33.9</ele>
        <time>2021-02-02T15:28:29Z</time>
      </trkpt>
      <trkpt lat="36.605227" lon="-6.053141">
        <ele>34.0</ele>
        <time>2021-02-02T15:28:31Z</time>
      </trkpt>
      <trkpt lat="36.605112" lon="-6.053012">
        <ele>34.2</ele>
        <time>2021-02-02T15:28:33Z</time>
      </trkpt>
      <trkpt lat="36.604995" lon="-6.052886">
        <ele>34.3</ele>
        <time>2021-02-02T15:28:35Z</time>
      </trkpt>
      <trkpt lat="36.604880" lon="-6.052761">
        <ele>34.3</ele>
        <time>2021-02-02T15:28:37Z</time>
      </trkpt>
      <trkpt lat="36.604767" lon="-6.052639">
        <ele>34.3</ele>
        <time>2021-02-02T15:28:39Z</time>
      </trkpt>
      <trkpt lat="36.604653" lon="-6.052519">
        <ele>34.3</ele>
        <time>2021-02-02T15:28:41Z</time>
      </trkpt>
      <trkpt lat="36.604538" lon="-6.052398">
        <ele>34.3</ele>
        <time>2021-02-02T15:28:43Z</time>
      </trkpt>
      <trkpt lat="36.604426" lon="-6.052275">
        <ele>34.2</ele>
        <time>2021-02-02T15:28:45Z</time>
      </trkpt>
      <trkpt lat="36.604316" lon="-6.052158">
        <ele>34.2</ele>
        <time>2021-02-02T15:28:47Z</time>
      </trkpt>
      <trkpt lat="36.604207" lon="-6.052045">
        <ele>34.2</ele>
        <time>2021-02-02T15:28:49Z</time>
      </trkpt>
      <trkpt lat="36.604099" lon="-6.051931">
        <ele>34.2</ele>
        <time>2021-02-02T15:28:51Z</time>
      </trkpt>
      <trkpt lat="36.603991" lon="-6.051812">
        <ele>34.2</ele>
        <time>2021-02-02T15:28:53Z</time>
      </trkpt>
      <trkpt lat="36.603882" lon="-6.051696">
        <ele>34.2</ele>
        <time>2021-02-02T15:28:55Z</time>
      </trkpt>
      <trkpt lat="36.603774" lon="-6.051581">
        <ele>34.6</ele>
        <time>2021-02-02T15:28:57Z</time>
      </trkpt>
      <trkpt lat="36.603669" lon="-6.051468">
        <ele>34.9</ele>
        <time>2021-02-02T15:28:59Z</time>
      </trkpt>
      <trkpt lat="36.603566" lon="-6.051351">
        <ele>35.1</ele>
        <time>2021-02-02T15:29:01Z</time>
      </trkpt>
      <trkpt lat="36.603463" lon="-6.051229">
        <ele>35.2</ele>
        <time>2021-02-02T15:29:03Z</time>
      </trkpt>
      <trkpt lat="36.603354" lon="-6.051112">
        <ele>35.3</ele>
        <time>2021-02-02T15:29:05Z</time>
      </trkpt>
      <trkpt lat="36.603238" lon="-6.050993">
        <ele>35.2</ele>
        <time>2021-02-02T15:29:07Z</time>
      </trkpt>
      <trkpt lat="36.603122" lon="-6.050868">
        <ele>35.1</ele>
        <time>2021-02-02T15:29:09Z</time>
      </trkpt>
      <trkpt lat="36.603005" lon="-6.050748">
        <ele>34.7</ele>
        <time>2021-02-02T15:29:11Z</time>
      </trkpt>
      <trkpt lat="36.602888" lon="-6.050633">
        <ele>34.4</ele>
        <time>2021-02-02T15:29:13Z</time>
      </trkpt>
      <trkpt lat="36.602774" lon="-6.050517">
        <ele>34.4</ele>
        <time>2021-02-02T15:29:15Z</time>
      </trkpt>
      <trkpt lat="36.602662" lon="-6.050398">
        <ele>34.3</ele>
        <time>2021-02-02T15:29:17Z</time>
      </trkpt>
      <trkpt lat="36.602555" lon="-6.050284">
        <ele>34.2</ele>
        <time>2021-02-02T15:29:19Z</time>
      </trkpt>
      <trkpt lat="36.602446" lon="-6.050173">
        <ele>34.6</ele>
        <time>2021-02-02T15:29:21Z</time>
      </trkpt>
      <trkpt lat="36.602338" lon="-6.050062">
        <ele>34.5</ele>
        <time>2021-02-02T15:29:23Z</time>
      </trkpt>
      <trkpt lat="36.602232" lon="-6.049952">
        <ele>34.4</ele>
        <time>2021-02-02T15:29:25Z</time>
      </trkpt>
      <trkpt lat="36.602123" lon="-6.049844">
        <ele>34.4</ele>
        <time>2021-02-02T15:29:27Z</time>
      </trkpt>
      <trkpt lat="36.602018" lon="-6.049738">
        <ele>34.5</ele>
        <time>2021-02-02T15:29:29Z</time>
      </trkpt>
      <trkpt lat="36.601912" lon="-6.049633">
        <ele>34.8</ele>
        <time>2021-02-02T15:29:31Z</time>
      </trkpt>
      <trkpt lat="36.601809" lon="-6.049524">
        <ele>34.7</ele>
        <time>2021-02-02T15:29:33Z</time>
      </trkpt>
      <trkpt lat="36.601703" lon="-6.049413">
        <ele>34.8</ele>
        <time>2021-02-02T15:29:35Z</time>
      </trkpt>
      <trkpt lat="36.601598" lon="-6.049307">
        <ele>34.9</ele>
        <time>2021-02-02T15:29:37Z</time>
      </trkpt>
      <trkpt lat="36.601497" lon="-6.049203">
        <ele>35.0</ele>
        <time>2021-02-02T15:29:39Z</time>
      </trkpt>
      <trkpt lat="36.601400" lon="-6.049100">
        <ele>35.2</ele>
        <time>2021-02-02T15:29:41Z</time>
      </trkpt>
      <trkpt lat="36.601309" lon="-6.049003">
        <ele>35.4</ele>
        <time>2021-02-02T15:29:43Z</time>
      </trkpt>
      <trkpt lat="36.601221" lon="-6.048908">
        <ele>35.9</ele>
        <time>2021-02-02T15:29:45Z</time>
      </trkpt>
      <trkpt lat="36.601134" lon="-6.048823">
        <ele>36.2</ele>
        <time>2021-02-02T15:29:47Z</time>
      </trkpt>
      <trkpt lat="36.601051" lon="-6.048738">
        <ele>36.4</ele>
        <time>2021-02-02T15:29:49Z</time>
      </trkpt>
      <trkpt lat="36.600968" lon="-6.048653">
        <ele>36.8</ele>
        <time>2021-02-02T15:29:51Z</time>
      </trkpt>
      <trkpt lat="36.600886" lon="-6.048568">
        <ele>37.2</ele>
        <time>2021-02-02T15:29:53Z</time>
      </trkpt>
      <trkpt lat="36.600806" lon="-6.048482">
        <ele>37.4</ele>
        <time>2021-02-02T15:29:55Z</time>
      </trkpt>
      <trkpt lat="36.600725" lon="-6.048392">
        <ele>37.7</ele>
        <time>2021-02-02T15:29:57Z</time>
      </trkpt>
      <trkpt lat="36.600643" lon="-6.048303">
        <ele>38.0</ele>
        <time>2021-02-02T15:29:59Z</time>
      </trkpt>
      <trkpt lat="36.600565" lon="-6.048220">
        <ele>38.4</ele>
        <time>2021-02-02T15:30:01Z</time>
      </trkpt>
      <trkpt lat="36.600486" lon="-6.048137">
        <ele>38.6</ele>
        <time>2021-02-02T15:30:03Z</time>
      </trkpt>
      <trkpt lat="36.600410" lon="-6.048056">
        <ele>38.9</ele>
        <time>2021-02-02T15:30:05Z</time>
      </trkpt>
      <trkpt lat="36.600334" lon="-6.047976">
        <ele>39.2</ele>
        <time>2021-02-02T15:30:07Z</time>
      </trkpt>
      <trkpt lat="36.600255" lon="-6.047897">
        <ele>39.8</ele>
        <time>2021-02-02T15:30:09Z</time>
      </trkpt>
      <trkpt lat="36.600175" lon="-6.047817">
        <ele>40.4</ele>
        <time>2021-02-02T15:30:11Z</time>
      </trkpt>
      <trkpt lat="36.600094" lon="-6.047736">
        <ele>40.6</ele>
        <time>2021-02-02T15:30:13Z</time>
      </trkpt>
      <trkpt lat="36.600015" lon="-6.047657">
        <ele>40.8</ele>
        <time>2021-02-02T15:30:15Z</time>
      </trkpt>
      <trkpt lat="36.599936" lon="-6.047571">
        <ele>41.0</ele>
        <time>2021-02-02T15:30:17Z</time>
      </trkpt>
      <trkpt lat="36.599859" lon="-6.047492">
        <ele>41.2</ele>
        <time>2021-02-02T15:30:19Z</time>
      </trkpt>
      <trkpt lat="36.599780" lon="-6.047412">
        <ele>41.4</ele>
        <time>2021-02-02T15:30:21Z</time>
      </trkpt>
      <trkpt lat="36.599700" lon="-6.047327">
        <ele>41.7</ele>
        <time>2021-02-02T15:30:23Z</time>
      </trkpt>
      <trkpt lat="36.599619" lon="-6.047245">
        <ele>42.0</ele>
        <time>2021-02-02T15:30:25Z</time>
      </trkpt>
      <trkpt lat="36.599539" lon="-6.047166">
        <ele>42.2</ele>
        <time>2021-02-02T15:30:27Z</time>
      </trkpt>
      <trkpt lat="36.599458" lon="-6.047086">
        <ele>42.2</ele>
        <time>2021-02-02T15:30:29Z</time>
      </trkpt>
      <trkpt lat="36.599377" lon="-6.047006">
        <ele>42.3</ele>
        <time>2021-02-02T15:30:31Z</time>
      </trkpt>
      <trkpt lat="36.599297" lon="-6.046928">
        <ele>42.5</ele>
        <time>2021-02-02T15:30:33Z</time>
      </trkpt>
      <trkpt lat="36.599216" lon="-6.046847">
        <ele>42.7</ele>
        <time>2021-02-02T15:30:35Z</time>
      </trkpt>
      <trkpt lat="36.599135" lon="-6.046763">
        <ele>42.8</ele>
        <time>2021-02-02T15:30:37Z</time>
      </trkpt>
      <trkpt lat="36.599054" lon="-6.046680">
        <ele>42.9</ele>
        <time>2021-02-02T15:30:39Z</time>
      </trkpt>
      <trkpt lat="36.598973" lon="-6.046596">
        <ele>42.9</ele>
        <time>2021-02-02T15:30:41Z</time>
      </trkpt>
      <trkpt lat="36.598889" lon="-6.046511">
        <ele>43.1</ele>
        <time>2021-02-02T15:30:43Z</time>
      </trkpt>
      <trkpt lat="36.598806" lon="-6.046424">
        <ele>43.2</ele>
        <time>2021-02-02T15:30:45Z</time>
      </trkpt>
      <trkpt lat="36.598725" lon="-6.046342">
        <ele>43.2</ele>
        <time>2021-02-02T15:30:47Z</time>
      </trkpt>
      <trkpt lat="36.598644" lon="-6.046256">
        <ele>43.4</ele>
        <time>2021-02-02T15:30:49Z</time>
      </trkpt>
      <trkpt lat="36.598564" lon="-6.046176">
        <ele>43.7</ele>
        <time>2021-02-02T15:30:51Z</time>
      </trkpt>
      <trkpt lat="36.598487" lon="-6.046090">
        <ele>43.9</ele>
        <time>2021-02-02T15:30:53Z</time>
      </trkpt>
      <trkpt lat="36.598405" lon="-6.045997">
        <ele>44.4</ele>
        <time>2021-02-02T15:30:55Z</time>
      </trkpt>
      <trkpt lat="36.598323" lon="-6.045908">
        <ele>44.7</ele>
        <time>2021-02-02T15:30:57Z</time>
      </trkpt>
      <trkpt lat="36.598239" lon="-6.045818">
        <ele>45.0</ele>
        <time>2021-02-02T15:30:59Z</time>
      </trkpt>
      <trkpt lat="36.598157" lon="-6.045726">
        <ele>45.4</ele>
        <time>2021-02-02T15:31:01Z</time>
      </trkpt>
      <trkpt lat="36.598077" lon="-6.045636">
        <ele>45.7</ele>
        <time>2021-02-02T15:31:03Z</time>
      </trkpt>
      <trkpt lat="36.597998" lon="-6.045550">
        <ele>46.1</ele>
        <time>2021-02-02T15:31:05Z</time>
      </trkpt>
      <trkpt lat="36.597920" lon="-6.045461">
        <ele>46.5</ele>
        <time>2021-02-02T15:31:07Z</time>
      </trkpt>
      <trkpt lat="36.597846" lon="-6.045368">
        <ele>47.2</ele>
        <time>2021-02-02T15:31:09Z</time>
      </trkpt>
      <trkpt lat="36.597775" lon="-6.045278">
        <ele>48.0</ele>
        <time>2021-02-02T15:31:11Z</time>
      </trkpt>
      <trkpt lat="36.597707" lon="-6.045193">
        <ele>48.7</ele>
        <time>2021-02-02T15:31:13Z</time>
      </trkpt>
      <trkpt lat="36.597638" lon="-6.045110">
        <ele>49.3</ele>
        <time>2021-02-02T15:31:15Z</time>
      </trkpt>
      <trkpt lat="36.597565" lon="-6.045032">
        <ele>50.0</ele>
        <time>2021-02-02T15:31:17Z</time>
      </trkpt>
      <trkpt lat="36.597488" lon="-6.044951">
        <ele>50.7</ele>
        <time>2021-02-02T15:31:19Z</time>
      </trkpt>
      <trkpt lat="36.597411" lon="-6.044861">
        <ele>51.1</ele>
        <time>2021-02-02T15:31:21Z</time>
      </trkpt>
      <trkpt lat="36.597332" lon="-6.044777">
        <ele>51.3</ele>
        <time>2021-02-02T15:31:23Z</time>
      </trkpt>
      <trkpt lat="36.597254" lon="-6.044693">
        <ele>51.6</ele>
        <time>2021-02-02T15:31:25Z</time>
      </trkpt>
      <trkpt lat="36.597175" lon="-6.044610">
        <ele>51.8</ele>
        <time>2021-02-02T15:31:27Z</time>
      </trkpt>
      <trkpt lat="36.597099" lon="-6.044534">
        <ele>52.1</ele>
        <time>2021-02-02T15:31:29Z</time>
      </trkpt>
      <trkpt lat="36.597024" lon="-6.044458">
        <ele>52.4</ele>
        <time>2021-02-02T15:31:31Z</time>
      </trkpt>
      <trkpt lat="36.596948" lon="-6.044381">
        <ele>52.6</ele>
        <time>2021-02-02T15:31:33Z</time>
      </trkpt>
      <trkpt lat="36.596869" lon="-6.044301">
        <ele>53.0</ele>
        <time>2021-02-02T15:31:35Z</time>
      </trkpt>
      <trkpt lat="36.596789" lon="-6.044222">
        <ele>53.3</ele>
        <time>2021-02-02T15:31:37Z</time>
      </trkpt>
      <trkpt lat="36.596708" lon="-6.044135">
        <ele>53.6</ele>
        <time>2021-02-02T15:31:39Z</time>
      </trkpt>
      <trkpt lat="36.596626" lon="-6.044045">
        <ele>53.7</ele>
        <time>2021-02-02T15:31:41Z</time>
      </trkpt>
      <trkpt lat="36.596541" lon="-6.043954">
        <ele>53.7</ele>
        <time>2021-02-02T15:31:43Z</time>
      </trkpt>
      <trkpt lat="36.596450" lon="-6.043870">
        <ele>53.8</ele>
        <time>2021-02-02T15:31:45Z</time>
      </trkpt>
      <trkpt lat="36.596352" lon="-6.043781">
        <ele>53.7</ele>
        <time>2021-02-02T15:31:47Z</time>
      </trkpt>
      <trkpt lat="36.596242" lon="-6.043683">
        <ele>53.6</ele>
        <time>2021-02-02T15:31:49Z</time>
      </trkpt>
      <trkpt lat="36.596127" lon="-6.043577">
        <ele>53.1</ele>
        <time>2021-02-02T15:31:51Z</time>
      </trkpt>
      <trkpt lat="36.596004" lon="-6.043465">
        <ele>52.6</ele>
        <time>2021-02-02T15:31:53Z</time>
      </trkpt>
      <trkpt lat="36.595870" lon="-6.043344">
        <ele>52.2</ele>
        <time>2021-02-02T15:31:55Z</time>
      </trkpt>
      <trkpt lat="36.595733" lon="-6.043220">
        <ele>51.5</ele>
        <time>2021-02-02T15:31:57Z</time>
      </trkpt>
      <trkpt lat="36.595600" lon="-6.043100">
        <ele>51.0</ele>
        <time>2021-02-02T15:31:59Z</time>
      </trkpt>
      <trkpt lat="36.595468" lon="-6.042972">
        <ele>50.5</ele>
        <time>2021-02-02T15:32:01Z</time>
      </trkpt>
      <trkpt lat="36.595339" lon="-6.042839">
        <ele>50.1</ele>
        <time>2021-02-02T15:32:03Z</time>
      </trkpt>
      <trkpt lat="36.595219" lon="-6.042701">
        <ele>49.8</ele>
        <time>2021-02-02T15:32:05Z</time>
      </trkpt>
      <trkpt lat="36.595111" lon="-6.042567">
        <ele>49.9</ele>
        <time>2021-02-02T15:32:07Z</time>
      </trkpt>
      <trkpt lat="36.595015" lon="-6.042452">
        <ele>50.4</ele>
        <time>2021-02-02T15:32:09Z</time>
      </trkpt>
      <trkpt lat="36.594932" lon="-6.042356">
        <ele>50.8</ele>
        <time>2021-02-02T15:32:11Z</time>
      </trkpt>
      <trkpt lat="36.594854" lon="-6.042267">
        <ele>51.1</ele>
        <time>2021-02-02T15:32:13Z</time>
      </trkpt>
      <trkpt lat="36.594775" lon="-6.042178">
        <ele>51.4</ele>
        <time>2021-02-02T15:32:15Z</time>
      </trkpt>
      <trkpt lat="36.594698" lon="-6.042088">
        <ele>51.6</ele>
        <time>2021-02-02T15:32:17Z</time>
      </trkpt>
      <trkpt lat="36.594619" lon="-6.041999">
        <ele>51.9</ele>
        <time>2021-02-02T15:32:19Z</time>
      </trkpt>
      <trkpt lat="36.594542" lon="-6.041912">
        <ele>52.1</ele>
        <time>2021-02-02T15:32:21Z</time>
      </trkpt>
      <trkpt lat="36.594464" lon="-6.041826">
        <ele>52.3</ele>
        <time>2021-02-02T15:32:23Z</time>
      </trkpt>
      <trkpt lat="36.594386" lon="-6.041743">
        <ele>52.6</ele>
        <time>2021-02-02T15:32:25Z</time>
      </trkpt>
      <trkpt lat="36.594310" lon="-6.041654">
        <ele>52.9</ele>
        <time>2021-02-02T15:32:27Z</time>
      </trkpt>
      <trkpt lat="36.594230" lon="-6.041571">
        <ele>53.3</ele>
        <time>2021-02-02T15:32:29Z</time>
      </trkpt>
      <trkpt lat="36.594151" lon="-6.041491">
        <ele>53.6</ele>
        <time>2021-02-02T15:32:31Z</time>
      </trkpt>
      <trkpt lat="36.594074" lon="-6.041408">
        <ele>53.7</ele>
        <time>2021-02-02T15:32:33Z</time>
      </trkpt>
      <trkpt lat="36.593998" lon="-6.041324">
        <ele>54.0</ele>
        <time>2021-02-02T15:32:35Z</time>
      </trkpt>
      <trkpt lat="36.593924" lon="-6.041241">
        <ele>54.3</ele>
        <time>2021-02-02T15:32:37Z</time>
      </trkpt>
      <trkpt lat="36.593853" lon="-6.041153">
        <ele>54.6</ele>
        <time>2021-02-02T15:32:39Z</time>
      </trkpt>
      <trkpt lat="36.593778" lon="-6.041068">
        <ele>54.9</ele>
        <time>2021-02-02T15:32:41Z</time>
      </trkpt>
      <trkpt lat="36.593702" lon="-6.040983">
        <ele>55.1</ele>
        <time>2021-02-02T15:32:43Z</time>
      </trkpt>
      <trkpt lat="36.593625" lon="-6.040901">
        <ele>55.5</ele>
        <time>2021-02-02T15:32:45Z</time>
      </trkpt>
      <trkpt lat="36.593549" lon="-6.040816">
        <ele>55.8</ele>
        <time>2021-02-02T15:32:47Z</time>
      </trkpt>
      <trkpt lat="36.593473" lon="-6.040734">
        <ele>56.3</ele>
        <time>2021-02-02T15:32:49Z</time>
      </trkpt>
      <trkpt lat="36.593394" lon="-6.040655">
        <ele>56.6</ele>
        <time>2021-02-02T15:32:51Z</time>
      </trkpt>
      <trkpt lat="36.593313" lon="-6.040576">
        <ele>57.0</ele>
        <time>2021-02-02T15:32:53Z</time>
      </trkpt>
      <trkpt lat="36.593228" lon="-6.040494">
        <ele>57.4</ele>
        <time>2021-02-02T15:32:55Z</time>
      </trkpt>
      <trkpt lat="36.593143" lon="-6.040410">
        <ele>57.5</ele>
        <time>2021-02-02T15:32:57Z</time>
      </trkpt>
      <trkpt lat="36.593061" lon="-6.040325">
        <ele>57.8</ele>
        <time>2021-02-02T15:32:59Z</time>
      </trkpt>
      <trkpt lat="36.592978" lon="-6.040239">
        <ele>58.2</ele>
        <time>2021-02-02T15:33:01Z</time>
      </trkpt>
      <trkpt lat="36.592900" lon="-6.040153">
        <ele>58.4</ele>
        <time>2021-02-02T15:33:03Z</time>
      </trkpt>
      <trkpt lat="36.592828" lon="-6.040069">
        <ele>58.8</ele>
        <time>2021-02-02T15:33:05Z</time>
      </trkpt>
      <trkpt lat="36.592755" lon="-6.039989">
        <ele>59.2</ele>
        <time>2021-02-02T15:33:07Z</time>
      </trkpt>
      <trkpt lat="36.592686" lon="-6.039910">
        <ele>59.7</ele>
        <time>2021-02-02T15:33:09Z</time>
      </trkpt>
      <trkpt lat="36.592619" lon="-6.039833">
        <ele>60.2</ele>
        <time>2021-02-02T15:33:11Z</time>
      </trkpt>
      <trkpt lat="36.592554" lon="-6.039753">
        <ele>60.6</ele>
        <time>2021-02-02T15:33:13Z</time>
      </trkpt>
      <trkpt lat="36.592489" lon="-6.039673">
        <ele>61.1</ele>
        <time>2021-02-02T15:33:15Z</time>
      </trkpt>
      <trkpt lat="36.592425" lon="-6.039594">
        <ele>61.7</ele>
        <time>2021-02-02T15:33:17Z</time>
      </trkpt>
      <trkpt lat="36.592329" lon="-6.039485">
        <ele>62.5</ele>
        <time>2021-02-02T15:33:20Z</time>
      </trkpt>
      <trkpt lat="36.592231" lon="-6.039391">
        <ele>63.2</ele>
        <time>2021-02-02T15:33:23Z</time>
      </trkpt>
      <trkpt lat="36.592124" lon="-6.039297">
        <ele>63.6</ele>
        <time>2021-02-02T15:33:26Z</time>
      </trkpt>
      <trkpt lat="36.592014" lon="-6.039205">
        <ele>63.8</ele>
        <time>2021-02-02T15:33:29Z</time>
      </trkpt>
      <trkpt lat="36.591907" lon="-6.039107">
        <ele>64.2</ele>
        <time>2021-02-02T15:33:32Z</time>
      </trkpt>
      <trkpt lat="36.591807" lon="-6.039005">
        <ele>64.5</ele>
        <time>2021-02-02T15:33:35Z</time>
      </trkpt>
      <trkpt lat="36.591716" lon="-6.038897">
        <ele>64.9</ele>
        <time>2021-02-02T15:33:38Z</time>
      </trkpt>
      <trkpt lat="36.591636" lon="-6.038797">
        <ele>65.4</ele>
        <time>2021-02-02T15:33:41Z</time>
      </trkpt>
      <trkpt lat="36.591557" lon="-6.038699">
        <ele>66.3</ele>
        <time>2021-02-02T15:33:44Z</time>
      </trkpt>
      <trkpt lat="36.591478" lon="-6.038601">
        <ele>67.1</ele>
        <time>2021-02-02T15:33:47Z</time>
      </trkpt>
      <trkpt lat="36.591397" lon="-6.038512">
        <ele>67.9</ele>
        <time>2021-02-02T15:33:50Z</time>
      </trkpt>
      <trkpt lat="36.591314" lon="-6.038415">
        <ele>68.6</ele>
        <time>2021-02-02T15:33:53Z</time>
      </trkpt>
      <trkpt lat="36.591233" lon="-6.038319">
        <ele>69.2</ele>
        <time>2021-02-02T15:33:56Z</time>
      </trkpt>
      <trkpt lat="36.591154" lon="-6.038223">
        <ele>69.6</ele>
        <time>2021-02-02T15:33:59Z</time>
      </trkpt>
      <trkpt lat="36.591072" lon="-6.038129">
        <ele>70.2</ele>
        <time>2021-02-02T15:34:02Z</time>
      </trkpt>
      <trkpt lat="36.590992" lon="-6.038032">
        <ele>70.7</ele>
        <time>2021-02-02T15:34:05Z</time>
      </trkpt>
      <trkpt lat="36.590911" lon="-6.037939">
        <ele>71.2</ele>
        <time>2021-02-02T15:34:08Z</time>
      </trkpt>
      <trkpt lat="36.590835" lon="-6.037838">
        <ele>71.5</ele>
        <time>2021-02-02T15:34:11Z</time>
      </trkpt>
      <trkpt lat="36.590757" lon="-6.037743">
        <ele>71.9</ele>
        <time>2021-02-02T15:34:14Z</time>
      </trkpt>
      <trkpt lat="36.590679" lon="-6.037643">
        <ele>72.5</ele>
        <time>2021-02-02T15:34:17Z</time>
      </trkpt>
      <trkpt lat="36.590601" lon="-6.037540">
        <ele>73.0</ele>
        <time>2021-02-02T15:34:20Z</time>
      </trkpt>
      <trkpt lat="36.590524" lon="-6.037431">
        <ele>73.4</ele>
        <time>2021-02-02T15:34:23Z</time>
      </trkpt>
      <trkpt lat="36.590445" lon="-6.037323">
        <ele>73.7</ele>
        <time>2021-02-02T15:34:26Z</time>
      </trkpt>
      <trkpt lat="36.590363" lon="-6.037205">
        <ele>73.9</ele>
        <time>2021-02-02T15:34:29Z</time>
      </trkpt>
      <trkpt lat="36.590281" lon="-6.037092">
        <ele>74.5</ele>
        <time>2021-02-02T15:34:32Z</time>
      </trkpt>
      <trkpt lat="36.590201" lon="-6.036975">
        <ele>74.8</ele>
        <time>2021-02-02T15:34:35Z</time>
      </trkpt>
      <trkpt lat="36.590120" lon="-6.036858">
        <ele>75.0</ele>
        <time>2021-02-02T15:34:38Z</time>
      </trkpt>
      <trkpt lat="36.590042" lon="-6.036742">
        <ele>75.4</ele>
        <time>2021-02-02T15:34:41Z</time>
      </trkpt>
      <trkpt lat="36.589963" lon="-6.036615">
        <ele>75.8</ele>
        <time>2021-02-02T15:34:44Z</time>
      </trkpt>
      <trkpt lat="36.589882" lon="-6.036498">
        <ele>76.3</ele>
        <time>2021-02-02T15:34:47Z</time>
      </trkpt>
      <trkpt lat="36.589803" lon="-6.036375">
        <ele>76.4</ele>
        <time>2021-02-02T15:34:50Z</time>
      </trkpt>
      <trkpt lat="36.589723" lon="-6.036256">
        <ele>77.1</ele>
        <time>2021-02-02T15:34:53Z</time>
      </trkpt>
      <trkpt lat="36.589646" lon="-6.036133">
        <ele>77.6</ele>
        <time>2021-02-02T15:34:56Z</time>
      </trkpt>
      <trkpt lat="36.589570" lon="-6.036009">
        <ele>77.9</ele>
        <time>2021-02-02T15:34:59Z</time>
      </trkpt>
      <trkpt lat="36.589492" lon="-6.035874">
        <ele>78.3</ele>
        <time>2021-02-02T15:35:02Z</time>
      </trkpt>
      <trkpt lat="36.589437" lon="-6.035783">
        <ele>78.4</ele>
        <time>2021-02-02T15:35:04Z</time>
      </trkpt>
      <trkpt lat="36.589379" lon="-6.035683">
        <ele>78.5</ele>
        <time>2021-02-02T15:35:06Z</time>
      </trkpt>
      <trkpt lat="36.589313" lon="-6.035585">
        <ele>78.6</ele>
        <time>2021-02-02T15:35:08Z</time>
      </trkpt>
      <trkpt lat="36.589247" lon="-6.035482">
        <ele>78.6</ele>
        <time>2021-02-02T15:35:10Z</time>
      </trkpt>
      <trkpt lat="36.589181" lon="-6.035372">
        <ele>78.6</ele>
        <time>2021-02-02T15:35:12Z</time>
      </trkpt>
      <trkpt lat="36.589112" lon="-6.035258">
        <ele>78.6</ele>
        <time>2021-02-02T15:35:14Z</time>
      </trkpt>
      <trkpt lat="36.589045" lon="-6.035145">
        <ele>78.6</ele>
        <time>2021-02-02T15:35:16Z</time>
      </trkpt>
      <trkpt lat="36.588980" lon="-6.035040">
        <ele>78.7</ele>
        <time>2021-02-02T15:35:18Z</time>
      </trkpt>
      <trkpt lat="36.588915" lon="-6.034929">
        <ele>78.8</ele>
        <time>2021-02-02T15:35:20Z</time>
      </trkpt>
      <trkpt lat="36.588843" lon="-6.034824">
        <ele>79.0</ele>
        <time>2021-02-02T15:35:22Z</time>
      </trkpt>
      <trkpt lat="36.588771" lon="-6.034704">
        <ele>79.1</ele>
        <time>2021-02-02T15:35:24Z</time>
      </trkpt>
      <trkpt lat="36.588701" lon="-6.034565">
        <ele>78.9</ele>
        <time>2021-02-02T15:35:26Z</time>
      </trkpt>
      <trkpt lat="36.588637" lon="-6.034423">
        <ele>79.0</ele>
        <time>2021-02-02T15:35:28Z</time>
      </trkpt>
      <trkpt lat="36.588572" lon="-6.034287">
        <ele>79.0</ele>
        <time>2021-02-02T15:35:30Z</time>
      </trkpt>
      <trkpt lat="36.588509" lon="-6.034161">
        <ele>79.2</ele>
        <time>2021-02-02T15:35:32Z</time>
      </trkpt>
      <trkpt lat="36.588449" lon="-6.034038">
        <ele>79.3</ele>
        <time>2021-02-02T15:35:34Z</time>
      </trkpt>
      <trkpt lat="36.588394" lon="-6.033924">
        <ele>79.8</ele>
        <time>2021-02-02T15:35:36Z</time>
      </trkpt>
      <trkpt lat="36.588340" lon="-6.033815">
        <ele>80.2</ele>
        <time>2021-02-02T15:35:38Z</time>
      </trkpt>
      <trkpt lat="36.588292" lon="-6.033710">
        <ele>80.7</ele>
        <time>2021-02-02T15:35:40Z</time>
      </trkpt>
      <trkpt lat="36.588238" lon="-6.033610">
        <ele>81.4</ele>
        <time>2021-02-02T15:35:42Z</time>
      </trkpt>
      <trkpt lat="36.588188" lon="-6.033502">
        <ele>82.2</ele>
        <time>2021-02-02T15:35:44Z</time>
      </trkpt>
      <trkpt lat="36.588141" lon="-6.033404">
        <ele>82.9</ele>
        <time>2021-02-02T15:35:46Z</time>
      </trkpt>
      <trkpt lat="36.588087" lon="-6.033307">
        <ele>83.7</ele>
        <time>2021-02-02T15:35:48Z</time>
      </trkpt>
      <trkpt lat="36.588031" lon="-6.033207">
        <ele>84.4</ele>
        <time>2021-02-02T15:35:50Z</time>
      </trkpt>
      <trkpt lat="36.587977" lon="-6.033099">
        <ele>85.0</ele>
        <time>2021-02-02T15:35:52Z</time>
      </trkpt>
      <trkpt lat="36.587924" lon="-6.032997">
        <ele>85.6</ele>
        <time>2021-02-02T15:35:54Z</time>
      </trkpt>
      <trkpt lat="36.587871" lon="-6.032903">
        <ele>85.9</ele>
        <time>2021-02-02T15:35:56Z</time>
      </trkpt>
      <trkpt lat="36.587817" lon="-6.032791">
        <ele>86.2</ele>
        <time>2021-02-02T15:35:58Z</time>
      </trkpt>
      <trkpt lat="36.587753" lon="-6.032672">
        <ele>86.2</ele>
        <time>2021-02-02T15:36:00Z</time>
      </trkpt>
      <trkpt lat="36.587685" lon="-6.032546">
        <ele>86.0</ele>
        <time>2021-02-02T15:36:02Z</time>
      </trkpt>
      <trkpt lat="36.587616" lon="-6.032411">
        <ele>85.9</ele>
        <time>2021-02-02T15:36:04Z</time>
      </trkpt>
      <trkpt lat="36.587540" lon="-6.032270">
        <ele>85.8</ele>
        <time>2021-02-02T15:36:06Z</time>
      </trkpt>
      <trkpt lat="36.587459" lon="-6.032126">
        <ele>85.5</ele>
        <time>2021-02-02T15:36:08Z</time>
      </trkpt>
      <trkpt lat="36.587368" lon="-6.031982">
        <ele>85.2</ele>
        <time>2021-02-02T15:36:10Z</time>
      </trkpt>
      <trkpt lat="36.587271" lon="-6.031837">
        <ele>84.8</ele>
        <time>2021-02-02T15:36:12Z</time>
      </trkpt>
      <trkpt lat="36.587169" lon="-6.031685">
        <ele>84.6</ele>
        <time>2021-02-02T15:36:14Z</time>
      </trkpt>
      <trkpt lat="36.587064" lon="-6.031536">
        <ele>83.9</ele>
        <time>2021-02-02T15:36:16Z</time>
      </trkpt>
      <trkpt lat="36.586956" lon="-6.031384">
        <ele>83.1</ele>
        <time>2021-02-02T15:36:18Z</time>
      </trkpt>
      <trkpt lat="36.586849" lon="-6.031235">
        <ele>82.5</ele>
        <time>2021-02-02T15:36:20Z</time>
      </trkpt>
      <trkpt lat="36.586743" lon="-6.031089">
        <ele>82.2</ele>
        <time>2021-02-02T15:36:22Z</time>
      </trkpt>
      <trkpt lat="36.586634" lon="-6.030940">
        <ele>81.8</ele>
        <time>2021-02-02T15:36:24Z</time>
      </trkpt>
      <trkpt lat="36.586525" lon="-6.030793">
        <ele>81.2</ele>
        <time>2021-02-02T15:36:26Z</time>
      </trkpt>
      <trkpt lat="36.586417" lon="-6.030646">
        <ele>81.0</ele>
        <time>2021-02-02T15:36:28Z</time>
      </trkpt>
      <trkpt lat="36.586305" lon="-6.030499">
        <ele>80.8</ele>
        <time>2021-02-02T15:36:30Z</time>
      </trkpt>
      <trkpt lat="36.586191" lon="-6.030356">
        <ele>80.5</ele>
        <time>2021-02-02T15:36:32Z</time>
      </trkpt>
      <trkpt lat="36.586075" lon="-6.030201">
        <ele>80.3</ele>
        <time>2021-02-02T15:36:34Z</time>
      </trkpt>
      <trkpt lat="36.585961" lon="-6.030048">
        <ele>79.9</ele>
        <time>2021-02-02T15:36:36Z</time>
      </trkpt>
      <trkpt lat="36.585856" lon="-6.029907">
        <ele>80.0</ele>
        <time>2021-02-02T15:36:38Z</time>
      </trkpt>
      <trkpt lat="36.585752" lon="-6.029766">
        <ele>80.3</ele>
        <time>2021-02-02T15:36:40Z</time>
      </trkpt>
      <trkpt lat="36.585650" lon="-6.029629">
        <ele>80.6</ele>
        <time>2021-02-02T15:36:42Z</time>
      </trkpt>
      <trkpt lat="36.585550" lon="-6.029498">
        <ele>80.9</ele>
        <time>2021-02-02T15:36:44Z</time>
      </trkpt>
      <trkpt lat="36.585455" lon="-6.029375">
        <ele>81.0</ele>
        <time>2021-02-02T15:36:46Z</time>
      </trkpt>
      <trkpt lat="36.585365" lon="-6.029264">
        <ele>81.2</ele>
        <time>2021-02-02T15:36:48Z</time>
      </trkpt>
      <trkpt lat="36.585275" lon="-6.029153">
        <ele>81.6</ele>
        <time>2021-02-02T15:36:50Z</time>
      </trkpt>
      <trkpt lat="36.585179" lon="-6.029044">
        <ele>81.8</ele>
        <time>2021-02-02T15:36:52Z</time>
      </trkpt>
      <trkpt lat="36.585076" lon="-6.028937">
        <ele>81.9</ele>
        <time>2021-02-02T15:36:54Z</time>
      </trkpt>
      <trkpt lat="36.584970" lon="-6.028828">
        <ele>82.2</ele>
        <time>2021-02-02T15:36:56Z</time>
      </trkpt>
      <trkpt lat="36.584866" lon="-6.028720">
        <ele>82.3</ele>
        <time>2021-02-02T15:36:58Z</time>
      </trkpt>
      <trkpt lat="36.584765" lon="-6.028609">
        <ele>82.6</ele>
        <time>2021-02-02T15:37:00Z</time>
      </trkpt>
      <trkpt lat="36.584668" lon="-6.028507">
        <ele>82.8</ele>
        <time>2021-02-02T15:37:02Z</time>
      </trkpt>
      <trkpt lat="36.584569" lon="-6.028417">
        <ele>82.9</ele>
        <time>2021-02-02T15:37:04Z</time>
      </trkpt>
      <trkpt lat="36.584462" lon="-6.028324">
        <ele>83.0</ele>
        <time>2021-02-02T15:37:06Z</time>
      </trkpt>
      <trkpt lat="36.584356" lon="-6.028229">
        <ele>83.1</ele>
        <time>2021-02-02T15:37:08Z</time>
      </trkpt>
      <trkpt lat="36.584251" lon="-6.028137">
        <ele>83.2</ele>
        <time>2021-02-02T15:37:10Z</time>
      </trkpt>
      <trkpt lat="36.584149" lon="-6.028050">
        <ele>83.5</ele>
        <time>2021-02-02T15:37:12Z</time>
      </trkpt>
      <trkpt lat="36.584046" lon="-6.027960">
        <ele>83.5</ele>
        <time>2021-02-02T15:37:14Z</time>
      </trkpt>
      <trkpt lat="36.583943" lon="-6.027873">
        <ele>83.6</ele>
        <time>2021-02-02T15:37:16Z</time>
      </trkpt>
      <trkpt lat="36.583839" lon="-6.027787">
        <ele>83.7</ele>
        <time>2021-02-02T15:37:18Z</time>
      </trkpt>
      <trkpt lat="36.583734" lon="-6.027701">
        <ele>83.9</ele>
        <time>2021-02-02T15:37:20Z</time>
      </trkpt>
      <trkpt lat="36.583626" lon="-6.027612">
        <ele>84.0</ele>
        <time>2021-02-02T15:37:22Z</time>
      </trkpt>
      <trkpt lat="36.583517" lon="-6.027528">
        <ele>84.3</ele>
        <time>2021-02-02T15:37:24Z</time>
      </trkpt>
      <trkpt lat="36.583408" lon="-6.027443">
        <ele>84.5</ele>
        <time>2021-02-02T15:37:26Z</time>
      </trkpt>
      <trkpt lat="36.583297" lon="-6.027362">
        <ele>84.7</ele>
        <time>2021-02-02T15:37:28Z</time>
      </trkpt>
      <trkpt lat="36.583190" lon="-6.027280">
        <ele>84.9</ele>
        <time>2021-02-02T15:37:30Z</time>
      </trkpt>
      <trkpt lat="36.583082" lon="-6.027205">
        <ele>85.1</ele>
        <time>2021-02-02T15:37:32Z</time>
      </trkpt>
      <trkpt lat="36.582975" lon="-6.027128">
        <ele>85.3</ele>
        <time>2021-02-02T15:37:34Z</time>
      </trkpt>
      <trkpt lat="36.582867" lon="-6.027046">
        <ele>85.4</ele>
        <time>2021-02-02T15:37:36Z</time>
      </trkpt>
      <trkpt lat="36.582759" lon="-6.026964">
        <ele>85.6</ele>
        <time>2021-02-02T15:37:38Z</time>
      </trkpt>
      <trkpt lat="36.582648" lon="-6.026881">
        <ele>85.7</ele>
        <time>2021-02-02T15:37:40Z</time>
      </trkpt>
      <trkpt lat="36.582534" lon="-6.026796">
        <ele>85.8</ele>
        <time>2021-02-02T15:37:42Z</time>
      </trkpt>
      <trkpt lat="36.582416" lon="-6.026714">
        <ele>85.8</ele>
        <time>2021-02-02T15:37:44Z</time>
      </trkpt>
      <trkpt lat="36.582295" lon="-6.026626">
        <ele>85.7</ele>
        <time>2021-02-02T15:37:46Z</time>
      </trkpt>
      <trkpt lat="36.582166" lon="-6.026545">
        <ele>85.6</ele>
        <time>2021-02-02T15:37:48Z</time>
      </trkpt>
      <trkpt lat="36.582039" lon="-6.026466">
        <ele>85.5</ele>
        <time>2021-02-02T15:37:50Z</time>
      </trkpt>
      <trkpt lat="36.581913" lon="-6.026391">
        <ele>85.2</ele>
        <time>2021-02-02T15:37:52Z</time>
      </trkpt>
      <trkpt lat="36.581790" lon="-6.026322">
        <ele>85.1</ele>
        <time>2021-02-02T15:37:54Z</time>
      </trkpt>
      <trkpt lat="36.581669" lon="-6.026255">
        <ele>85.4</ele>
        <time>2021-02-02T15:37:56Z</time>
      </trkpt>
      <trkpt lat="36.581547" lon="-6.026198">
        <ele>85.5</ele>
        <time>2021-02-02T15:37:58Z</time>
      </trkpt>
      <trkpt lat="36.581429" lon="-6.026147">
        <ele>85.6</ele>
        <time>2021-02-02T15:38:00Z</time>
      </trkpt>
      <trkpt lat="36.581311" lon="-6.026093">
        <ele>85.7</ele>
        <time>2021-02-02T15:38:02Z</time>
      </trkpt>
      <trkpt lat="36.581194" lon="-6.026040">
        <ele>85.9</ele>
        <time>2021-02-02T15:38:04Z</time>
      </trkpt>
      <trkpt lat="36.581076" lon="-6.025990">
        <ele>86.1</ele>
        <time>2021-02-02T15:38:06Z</time>
      </trkpt>
      <trkpt lat="36.580962" lon="-6.025938">
        <ele>86.3</ele>
        <time>2021-02-02T15:38:08Z</time>
      </trkpt>
      <trkpt lat="36.580848" lon="-6.025889">
        <ele>86.5</ele>
        <time>2021-02-02T15:38:10Z</time>
      </trkpt>
      <trkpt lat="36.580738" lon="-6.025839">
        <ele>86.6</ele>
        <time>2021-02-02T15:38:12Z</time>
      </trkpt>
      <trkpt lat="36.580624" lon="-6.025793">
        <ele>86.7</ele>
        <time>2021-02-02T15:38:14Z</time>
      </trkpt>
      <trkpt lat="36.580507" lon="-6.025740">
        <ele>86.8</ele>
        <time>2021-02-02T15:38:16Z</time>
      </trkpt>
      <trkpt lat="36.580386" lon="-6.025689">
        <ele>86.8</ele>
        <time>2021-02-02T15:38:18Z</time>
      </trkpt>
      <trkpt lat="36.580264" lon="-6.025633">
        <ele>86.6</ele>
        <time>2021-02-02T15:38:20Z</time>
      </trkpt>
      <trkpt lat="36.580140" lon="-6.025575">
        <ele>86.5</ele>
        <time>2021-02-02T15:38:22Z</time>
      </trkpt>
      <trkpt lat="36.580010" lon="-6.025515">
        <ele>85.9</ele>
        <time>2021-02-02T15:38:24Z</time>
      </trkpt>
      <trkpt lat="36.579874" lon="-6.025452">
        <ele>85.6</ele>
        <time>2021-02-02T15:38:26Z</time>
      </trkpt>
      <trkpt lat="36.579732" lon="-6.025389">
        <ele>85.2</ele>
        <time>2021-02-02T15:38:28Z</time>
      </trkpt>
      <trkpt lat="36.579582" lon="-6.025315">
        <ele>84.7</ele>
        <time>2021-02-02T15:38:30Z</time>
      </trkpt>
      <trkpt lat="36.579441" lon="-6.025249">
        <ele>84.2</ele>
        <time>2021-02-02T15:38:32Z</time>
      </trkpt>
      <trkpt lat="36.579304" lon="-6.025198">
        <ele>83.9</ele>
        <time>2021-02-02T15:38:34Z</time>
      </trkpt>
      <trkpt lat="36.579166" lon="-6.025156">
        <ele>83.7</ele>
        <time>2021-02-02T15:38:36Z</time>
      </trkpt>
      <trkpt lat="36.579025" lon="-6.025121">
        <ele>83.6</ele>
        <time>2021-02-02T15:38:38Z</time>
      </trkpt>
      <trkpt lat="36.578872" lon="-6.025087">
        <ele>83.3</ele>
        <time>2021-02-02T15:38:40Z</time>
      </trkpt>
      <trkpt lat="36.578709" lon="-6.025047">
        <ele>82.8</ele>
        <time>2021-02-02T15:38:42Z</time>
      </trkpt>
      <trkpt lat="36.578537" lon="-6.025010">
        <ele>82.3</ele>
        <time>2021-02-02T15:38:44Z</time>
      </trkpt>
      <trkpt lat="36.578361" lon="-6.024975">
        <ele>81.7</ele>
        <time>2021-02-02T15:38:46Z</time>
      </trkpt>
      <trkpt lat="36.578185" lon="-6.024940">
        <ele>81.2</ele>
        <time>2021-02-02T15:38:48Z</time>
      </trkpt>
      <trkpt lat="36.578008" lon="-6.024897">
        <ele>80.7</ele>
        <time>2021-02-02T15:38:50Z</time>
      </trkpt>
      <trkpt lat="36.577917" lon="-6.024874">
        <ele>80.4</ele>
        <time>2021-02-02T15:38:51Z</time>
      </trkpt>
      <trkpt lat="36.577828" lon="-6.024850">
        <ele>80.2</ele>
        <time>2021-02-02T15:38:52Z</time>
      </trkpt>
      <trkpt lat="36.577739" lon="-6.024822">
        <ele>80.0</ele>
        <time>2021-02-02T15:38:53Z</time>
      </trkpt>
      <trkpt lat="36.577578" lon="-6.024764">
        <ele>80.0</ele>
        <time>2021-02-02T15:38:55Z</time>
      </trkpt>
      <trkpt lat="36.577421" lon="-6.024713">
        <ele>80.3</ele>
        <time>2021-02-02T15:38:57Z</time>
      </trkpt>
      <trkpt lat="36.577269" lon="-6.024662">
        <ele>80.6</ele>
        <time>2021-02-02T15:38:59Z</time>
      </trkpt>
      <trkpt lat="36.577126" lon="-6.024623">
        <ele>81.1</ele>
        <time>2021-02-02T15:39:01Z</time>
      </trkpt>
      <trkpt lat="36.576987" lon="-6.024593">
        <ele>82.2</ele>
        <time>2021-02-02T15:39:03Z</time>
      </trkpt>
      <trkpt lat="36.576844" lon="-6.024567">
        <ele>83.4</ele>
        <time>2021-02-02T15:39:05Z</time>
      </trkpt>
      <trkpt lat="36.576708" lon="-6.024536">
        <ele>84.8</ele>
        <time>2021-02-02T15:39:07Z</time>
      </trkpt>
      <trkpt lat="36.576571" lon="-6.024505">
        <ele>85.7</ele>
        <time>2021-02-02T15:39:09Z</time>
      </trkpt>
      <trkpt lat="36.576428" lon="-6.024478">
        <ele>86.3</ele>
        <time>2021-02-02T15:39:11Z</time>
      </trkpt>
      <trkpt lat="36.576284" lon="-6.024457">
        <ele>86.6</ele>
        <time>2021-02-02T15:39:13Z</time>
      </trkpt>
      <trkpt lat="36.576153" lon="-6.024443">
        <ele>87.1</ele>
        <time>2021-02-02T15:39:15Z</time>
      </trkpt>
      <trkpt lat="36.576032" lon="-6.024433">
        <ele>87.9</ele>
        <time>2021-02-02T15:39:17Z</time>
      </trkpt>
      <trkpt lat="36.575924" lon="-6.024422">
        <ele>88.8</ele>
        <time>2021-02-02T15:39:19Z</time>
      </trkpt>
      <trkpt lat="36.575828" lon="-6.024404">
        <ele>89.7</ele>
        <time>2021-02-02T15:39:21Z</time>
      </trkpt>
      <trkpt lat="36.575730" lon="-6.024372">
        <ele>90.3</ele>
        <time>2021-02-02T15:39:23Z</time>
      </trkpt>
      <trkpt lat="36.575621" lon="-6.024323">
        <ele>90.5</ele>
        <time>2021-02-02T15:39:25Z</time>
      </trkpt>
      <trkpt lat="36.575497" lon="-6.024273">
        <ele>90.3</ele>
        <time>2021-02-02T15:39:27Z</time>
      </trkpt>
      <trkpt lat="36.575359" lon="-6.024218">
        <ele>89.9</ele>
        <time>2021-02-02T15:39:29Z</time>
      </trkpt>
      <trkpt lat="36.575216" lon="-6.024159">
        <ele>89.4</ele>
        <time>2021-02-02T15:39:31Z</time>
      </trkpt>
      <trkpt lat="36.575067" lon="-6.024106">
        <ele>89.0</ele>
        <time>2021-02-02T15:39:33Z</time>
      </trkpt>
      <trkpt lat="36.574912" lon="-6.024045">
        <ele>88.7</ele>
        <time>2021-02-02T15:39:35Z</time>
      </trkpt>
      <trkpt lat="36.574746" lon="-6.023982">
        <ele>88.2</ele>
        <time>2021-02-02T15:39:37Z</time>
      </trkpt>
      <trkpt lat="36.574659" lon="-6.023949">
        <ele>88.0</ele>
        <time>2021-02-02T15:39:38Z</time>
      </trkpt>
      <trkpt lat="36.574571" lon="-6.023915">
        <ele>87.6</ele>
        <time>2021-02-02T15:39:39Z</time>
      </trkpt>
      <trkpt lat="36.574481" lon="-6.023883">
        <ele>87.3</ele>
        <time>2021-02-02T15:39:40Z</time>
      </trkpt>
      <trkpt lat="36.574387" lon="-6.023855">
        <ele>86.8</ele>
        <time>2021-02-02T15:39:41Z</time>
      </trkpt>
      <trkpt lat="36.574289" lon="-6.023830">
        <ele>86.2</ele>
        <time>2021-02-02T15:39:42Z</time>
      </trkpt>
      <trkpt lat="36.574188" lon="-6.023808">
        <ele>85.9</ele>
        <time>2021-02-02T15:39:43Z</time>
      </trkpt>
      <trkpt lat="36.574084" lon="-6.023792">
        <ele>85.5</ele>
        <time>2021-02-02T15:39:44Z</time>
      </trkpt>
      <trkpt lat="36.573982" lon="-6.023776">
        <ele>85.1</ele>
        <time>2021-02-02T15:39:45Z</time>
      </trkpt>
      <trkpt lat="36.573880" lon="-6.023760">
        <ele>84.7</ele>
        <time>2021-02-02T15:39:46Z</time>
      </trkpt>
      <trkpt lat="36.573775" lon="-6.023745">
        <ele>84.4</ele>
        <time>2021-02-02T15:39:47Z</time>
      </trkpt>
      <trkpt lat="36.573672" lon="-6.023729">
        <ele>84.2</ele>
        <time>2021-02-02T15:39:48Z</time>
      </trkpt>
      <trkpt lat="36.573569" lon="-6.023713">
        <ele>83.9</ele>
        <time>2021-02-02T15:39:49Z</time>
      </trkpt>
      <trkpt lat="36.573469" lon="-6.023693">
        <ele>83.7</ele>
        <time>2021-02-02T15:39:50Z</time>
      </trkpt>
      <trkpt lat="36.573371" lon="-6.023672">
        <ele>83.5</ele>
        <time>2021-02-02T15:39:51Z</time>
      </trkpt>
      <trkpt lat="36.573274" lon="-6.023650">
        <ele>83.4</ele>
        <time>2021-02-02T15:39:52Z</time>
      </trkpt>
      <trkpt lat="36.573181" lon="-6.023628">
        <ele>83.1</ele>
        <time>2021-02-02T15:39:53Z</time>
      </trkpt>
      <trkpt lat="36.573088" lon="-6.023603">
        <ele>82.9</ele>
        <time>2021-02-02T15:39:54Z</time>
      </trkpt>
      <trkpt lat="36.572997" lon="-6.023578">
        <ele>82.8</ele>
        <time>2021-02-02T15:39:55Z</time>
      </trkpt>
      <trkpt lat="36.572907" lon="-6.023554">
        <ele>82.7</ele>
        <time>2021-02-02T15:39:56Z</time>
      </trkpt>
      <trkpt lat="36.572819" lon="-6.023530">
        <ele>82.6</ele>
        <time>2021-02-02T15:39:57Z</time>
      </trkpt>
      <trkpt lat="36.572651" lon="-6.023477">
        <ele>82.7</ele>
        <time>2021-02-02T15:39:59Z</time>
      </trkpt>
      <trkpt lat="36.572490" lon="-6.023420">
        <ele>82.7</ele>
        <time>2021-02-02T15:40:01Z</time>
      </trkpt>
      <trkpt lat="36.572337" lon="-6.023376">
        <ele>83.1</ele>
        <time>2021-02-02T15:40:03Z</time>
      </trkpt>
      <trkpt lat="36.572190" lon="-6.023351">
        <ele>83.3</ele>
        <time>2021-02-02T15:40:05Z</time>
      </trkpt>
      <trkpt lat="36.572037" lon="-6.023334">
        <ele>83.4</ele>
        <time>2021-02-02T15:40:07Z</time>
      </trkpt>
      <trkpt lat="36.571877" lon="-6.023328">
        <ele>83.4</ele>
        <time>2021-02-02T15:40:09Z</time>
      </trkpt>
      <trkpt lat="36.571717" lon="-6.023360">
        <ele>83.2</ele>
        <time>2021-02-02T15:40:11Z</time>
      </trkpt>
      <trkpt lat="36.571552" lon="-6.023398">
        <ele>82.8</ele>
        <time>2021-02-02T15:40:13Z</time>
      </trkpt>
      <trkpt lat="36.571377" lon="-6.023401">
        <ele>82.3</ele>
        <time>2021-02-02T15:40:15Z</time>
      </trkpt>
      <trkpt lat="36.571285" lon="-6.023393">
        <ele>82.1</ele>
        <time>2021-02-02T15:40:16Z</time>
      </trkpt>
      <trkpt lat="36.571196" lon="-6.023387">
        <ele>82.0</ele>
        <time>2021-02-02T15:40:17Z</time>
      </trkpt>
      <trkpt lat="36.571033" lon="-6.023420">
        <ele>82.0</ele>
        <time>2021-02-02T15:40:19Z</time>
      </trkpt>
      <trkpt lat="36.570939" lon="-6.023529">
        <ele>82.5</ele>
        <time>2021-02-02T15:40:21Z</time>
      </trkpt>
      <trkpt lat="36.570902" lon="-6.023664">
        <ele>83.4</ele>
        <time>2021-02-02T15:40:23Z</time>
      </trkpt>
      <trkpt lat="36.570877" lon="-6.023799">
        <ele>84.3</ele>
        <time>2021-02-02T15:40:25Z</time>
      </trkpt>
      <trkpt lat="36.570858" lon="-6.023921">
        <ele>85.1</ele>
        <time>2021-02-02T15:40:27Z</time>
      </trkpt>
      <trkpt lat="36.570839" lon="-6.024034">
        <ele>86.0</ele>
        <time>2021-02-02T15:40:29Z</time>
      </trkpt>
      <trkpt lat="36.570810" lon="-6.024191">
        <ele>87.0</ele>
        <time>2021-02-02T15:40:32Z</time>
      </trkpt>
      <trkpt lat="36.570775" lon="-6.024343">
        <ele>88.4</ele>
        <time>2021-02-02T15:40:35Z</time>
      </trkpt>
      <trkpt lat="36.570729" lon="-6.024485">
        <ele>89.4</ele>
        <time>2021-02-02T15:40:38Z</time>
      </trkpt>
      <trkpt lat="36.570670" lon="-6.024609">
        <ele>90.6</ele>
        <time>2021-02-02T15:40:41Z</time>
      </trkpt>
      <trkpt lat="36.570601" lon="-6.024727">
        <ele>91.6</ele>
        <time>2021-02-02T15:40:44Z</time>
      </trkpt>
      <trkpt lat="36.570526" lon="-6.024834">
        <ele>92.8</ele>
        <time>2021-02-02T15:40:47Z</time>
      </trkpt>
      <trkpt lat="36.570444" lon="-6.024932">
        <ele>93.6</ele>
        <time>2021-02-02T15:40:50Z</time>
      </trkpt>
      <trkpt lat="36.570364" lon="-6.025020">
        <ele>94.4</ele>
        <time>2021-02-02T15:40:53Z</time>
      </trkpt>
      <trkpt lat="36.570291" lon="-6.025112">
        <ele>95.2</ele>
        <time>2021-02-02T15:40:56Z</time>
      </trkpt>
      <trkpt lat="36.570216" lon="-6.025202">
        <ele>95.5</ele>
        <time>2021-02-02T15:40:59Z</time>
      </trkpt>
      <trkpt lat="36.570130" lon="-6.025280">
        <ele>95.9</ele>
        <time>2021-02-02T15:41:02Z</time>
      </trkpt>
      <trkpt lat="36.570033" lon="-6.025331">
        <ele>96.5</ele>
        <time>2021-02-02T15:41:05Z</time>
      </trkpt>
      <trkpt lat="36.569925" lon="-6.025333">
        <ele>96.8</ele>
        <time>2021-02-02T15:41:08Z</time>
      </trkpt>
      <trkpt lat="36.569817" lon="-6.025307">
        <ele>97.2</ele>
        <time>2021-02-02T15:41:11Z</time>
      </trkpt>
      <trkpt lat="36.569712" lon="-6.025252">
        <ele>97.3</ele>
        <time>2021-02-02T15:41:14Z</time>
      </trkpt>
      <trkpt lat="36.569622" lon="-6.025169">
        <ele>97.6</ele>
        <time>2021-02-02T15:41:17Z</time>
      </trkpt>
      <trkpt lat="36.569541" lon="-6.025079">
        <ele>97.8</ele>
        <time>2021-02-02T15:41:20Z</time>
      </trkpt>
      <trkpt lat="36.569469" lon="-6.024980">
        <ele>98.0</ele>
        <time>2021-02-02T15:41:23Z</time>
      </trkpt>
      <trkpt lat="36.569400" lon="-6.024875">
        <ele>98.2</ele>
        <time>2021-02-02T15:41:26Z</time>
      </trkpt>
      <trkpt lat="36.569328" lon="-6.024772">
        <ele>98.3</ele>
        <time>2021-02-02T15:41:29Z</time>
      </trkpt>
      <trkpt lat="36.569266" lon="-6.024659">
        <ele>98.4</ele>
        <time>2021-02-02T15:41:32Z</time>
      </trkpt>
      <trkpt lat="36.569213" lon="-6.024536">
        <ele>98.6</ele>
        <time>2021-02-02T15:41:35Z</time>
      </trkpt>
      <trkpt lat="36.569174" lon="-6.024419">
        <ele>98.7</ele>
        <time>2021-02-02T15:41:38Z</time>
      </trkpt>
      <trkpt lat="36.569128" lon="-6.024307">
        <ele>99.0</ele>
        <time>2021-02-02T15:41:42Z</time>
      </trkpt>
      <trkpt lat="36.569094" lon="-6.024191">
        <ele>99.3</ele>
        <time>2021-02-02T15:41:47Z</time>
      </trkpt>
      <trkpt lat="36.569068" lon="-6.024060">
        <ele>99.3</ele>
        <time>2021-02-02T15:41:52Z</time>
      </trkpt>
      <trkpt lat="36.569045" lon="-6.023936">
        <ele>99.4</ele>
        <time>2021-02-02T15:41:56Z</time>
      </trkpt>
      <trkpt lat="36.569000" lon="-6.023838">
        <ele>99.5</ele>
        <time>2021-02-02T15:41:59Z</time>
      </trkpt>
      <trkpt lat="36.568930" lon="-6.023757">
        <ele>99.6</ele>
        <time>2021-02-02T15:42:02Z</time>
      </trkpt>
      <trkpt lat="36.568862" lon="-6.023671">
        <ele>99.8</ele>
        <time>2021-02-02T15:42:05Z</time>
      </trkpt>
      <trkpt lat="36.568830" lon="-6.023544">
        <ele>99.9</ele>
        <time>2021-02-02T15:42:08Z</time>
      </trkpt>
      <trkpt lat="36.568880" lon="-6.023405">
        <ele>99.9</ele>
        <time>2021-02-02T15:42:12Z</time>
      </trkpt>
      <trkpt lat="36.568943" lon="-6.023295">
        <ele>100.0</ele>
        <time>2021-02-02T15:42:15Z</time>
      </trkpt>
      <trkpt lat="36.569000" lon="-6.023170">
        <ele>99.9</ele>
        <time>2021-02-02T15:42:18Z</time>
      </trkpt>
      <trkpt lat="36.569034" lon="-6.023026">
        <ele>99.8</ele>
        <time>2021-02-02T15:42:21Z</time>
      </trkpt>
      <trkpt lat="36.569073" lon="-6.022874">
        <ele>99.8</ele>
        <time>2021-02-02T15:42:24Z</time>
      </trkpt>
      <trkpt lat="36.569108" lon="-6.022719">
        <ele>99.9</ele>
        <time>2021-02-02T15:42:27Z</time>
      </trkpt>
      <trkpt lat="36.569137" lon="-6.022613">
        <ele>100.0</ele>
        <time>2021-02-02T15:42:29Z</time>
      </trkpt>
      <trkpt lat="36.569165" lon="-6.022503">
        <ele>99.9</ele>
        <time>2021-02-02T15:42:31Z</time>
      </trkpt>
      <trkpt lat="36.569193" lon="-6.022392">
        <ele>99.7</ele>
        <time>2021-02-02T15:42:33Z</time>
      </trkpt>
      <trkpt lat="36.569222" lon="-6.022277">
        <ele>99.6</ele>
        <time>2021-02-02T15:42:35Z</time>
      </trkpt>
      <trkpt lat="36.569250" lon="-6.022163">
        <ele>99.5</ele>
        <time>2021-02-02T15:42:37Z</time>
      </trkpt>
      <trkpt lat="36.569280" lon="-6.022044">
        <ele>99.3</ele>
        <time>2021-02-02T15:42:39Z</time>
      </trkpt>
      <trkpt lat="36.569312" lon="-6.021928">
        <ele>99.2</ele>
        <time>2021-02-02T15:42:41Z</time>
      </trkpt>
      <trkpt lat="36.569343" lon="-6.021811">
        <ele>99.1</ele>
        <time>2021-02-02T15:42:43Z</time>
      </trkpt>
      <trkpt lat="36.569373" lon="-6.021696">
        <ele>98.9</ele>
        <time>2021-02-02T15:42:45Z</time>
      </trkpt>
      <trkpt lat="36.569399" lon="-6.021580">
        <ele>98.8</ele>
        <time>2021-02-02T15:42:47Z</time>
      </trkpt>
      <trkpt lat="36.569429" lon="-6.021459">
        <ele>98.8</ele>
        <time>2021-02-02T15:42:49Z</time>
      </trkpt>
      <trkpt lat="36.569461" lon="-6.021332">
        <ele>98.6</ele>
        <time>2021-02-02T15:42:51Z</time>
      </trkpt>
      <trkpt lat="36.569492" lon="-6.021209">
        <ele>98.4</ele>
        <time>2021-02-02T15:42:53Z</time>
      </trkpt>
      <trkpt lat="36.569524" lon="-6.021087">
        <ele>98.4</ele>
        <time>2021-02-02T15:42:55Z</time>
      </trkpt>
      <trkpt lat="36.569543" lon="-6.020960">
        <ele>98.3</ele>
        <time>2021-02-02T15:42:57Z</time>
      </trkpt>
      <trkpt lat="36.569548" lon="-6.020827">
        <ele>98.1</ele>
        <time>2021-02-02T15:42:59Z</time>
      </trkpt>
      <trkpt lat="36.569557" lon="-6.020691">
        <ele>97.9</ele>
        <time>2021-02-02T15:43:01Z</time>
      </trkpt>
      <trkpt lat="36.569590" lon="-6.020565">
        <ele>97.8</ele>
        <time>2021-02-02T15:43:03Z</time>
      </trkpt>
      <trkpt lat="36.569641" lon="-6.020449">
        <ele>97.8</ele>
        <time>2021-02-02T15:43:05Z</time>
      </trkpt>
      <trkpt lat="36.569689" lon="-6.020329">
        <ele>97.8</ele>
        <time>2021-02-02T15:43:07Z</time>
      </trkpt>
      <trkpt lat="36.569712" lon="-6.020190">
        <ele>97.7</ele>
        <time>2021-02-02T15:43:09Z</time>
      </trkpt>
      <trkpt lat="36.569706" lon="-6.020039">
        <ele>97.4</ele>
        <time>2021-02-02T15:43:11Z</time>
      </trkpt>
      <trkpt lat="36.569681" lon="-6.019879">
        <ele>96.9</ele>
        <time>2021-02-02T15:43:13Z</time>
      </trkpt>
      <trkpt lat="36.569633" lon="-6.019718">
        <ele>96.4</ele>
        <time>2021-02-02T15:43:15Z</time>
      </trkpt>
      <trkpt lat="36.569555" lon="-6.019564">
        <ele>95.6</ele>
        <time>2021-02-02T15:43:17Z</time>
      </trkpt>
      <trkpt lat="36.569454" lon="-6.019422">
        <ele>95.1</ele>
        <time>2021-02-02T15:43:19Z</time>
      </trkpt>
      <trkpt lat="36.569332" lon="-6.019287">
        <ele>94.6</ele>
        <time>2021-02-02T15:43:21Z</time>
      </trkpt>
      <trkpt lat="36.569204" lon="-6.019156">
        <ele>93.9</ele>
        <time>2021-02-02T15:43:23Z</time>
      </trkpt>
      <trkpt lat="36.569067" lon="-6.019028">
        <ele>93.2</ele>
        <time>2021-02-02T15:43:25Z</time>
      </trkpt>
      <trkpt lat="36.568922" lon="-6.018899">
        <ele>92.4</ele>
        <time>2021-02-02T15:43:27Z</time>
      </trkpt>
      <trkpt lat="36.568849" lon="-6.018832">
        <ele>91.9</ele>
        <time>2021-02-02T15:43:28Z</time>
      </trkpt>
      <trkpt lat="36.568778" lon="-6.018762">
        <ele>91.5</ele>
        <time>2021-02-02T15:43:29Z</time>
      </trkpt>
      <trkpt lat="36.568706" lon="-6.018695">
        <ele>91.2</ele>
        <time>2021-02-02T15:43:30Z</time>
      </trkpt>
      <trkpt lat="36.568566" lon="-6.018559">
        <ele>90.5</ele>
        <time>2021-02-02T15:43:32Z</time>
      </trkpt>
      <trkpt lat="36.568437" lon="-6.018416">
        <ele>90.1</ele>
        <time>2021-02-02T15:43:34Z</time>
      </trkpt>
      <trkpt lat="36.568339" lon="-6.018249">
        <ele>89.6</ele>
        <time>2021-02-02T15:43:36Z</time>
      </trkpt>
      <trkpt lat="36.568280" lon="-6.018057">
        <ele>89.4</ele>
        <time>2021-02-02T15:43:38Z</time>
      </trkpt>
      <trkpt lat="36.568250" lon="-6.017859">
        <ele>89.1</ele>
        <time>2021-02-02T15:43:40Z</time>
      </trkpt>
      <trkpt lat="36.568244" lon="-6.017695">
        <ele>89.0</ele>
        <time>2021-02-02T15:43:42Z</time>
      </trkpt>
      <trkpt lat="36.568256" lon="-6.017554">
        <ele>88.9</ele>
        <time>2021-02-02T15:43:44Z</time>
      </trkpt>
      <trkpt lat="36.568323" lon="-6.017449">
        <ele>88.4</ele>
        <time>2021-02-02T15:43:46Z</time>
      </trkpt>
      <trkpt lat="36.568446" lon="-6.017428">
        <ele>88.1</ele>
        <time>2021-02-02T15:43:48Z</time>
      </trkpt>
      <trkpt lat="36.568584" lon="-6.017455">
        <ele>87.8</ele>
        <time>2021-02-02T15:43:50Z</time>
      </trkpt>
      <trkpt lat="36.568727" lon="-6.017477">
        <ele>87.4</ele>
        <time>2021-02-02T15:43:52Z</time>
      </trkpt>
      <trkpt lat="36.568867" lon="-6.017481">
        <ele>87.0</ele>
        <time>2021-02-02T15:43:54Z</time>
      </trkpt>
      <trkpt lat="36.568990" lon="-6.017463">
        <ele>86.7</ele>
        <time>2021-02-02T15:43:56Z</time>
      </trkpt>
      <trkpt lat="36.569107" lon="-6.017423">
        <ele>86.4</ele>
        <time>2021-02-02T15:43:58Z</time>
      </trkpt>
      <trkpt lat="36.569215" lon="-6.017360">
        <ele>86.2</ele>
        <time>2021-02-02T15:44:00Z</time>
      </trkpt>
      <trkpt lat="36.569321" lon="-6.017293">
        <ele>86.3</ele>
        <time>2021-02-02T15:44:02Z</time>
      </trkpt>
      <trkpt lat="36.569413" lon="-6.017207">
        <ele>86.5</ele>
        <time>2021-02-02T15:44:04Z</time>
      </trkpt>
      <trkpt lat="36.569492" lon="-6.017116">
        <ele>86.5</ele>
        <time>2021-02-02T15:44:06Z</time>
      </trkpt>
      <trkpt lat="36.569570" lon="-6.017040">
        <ele>86.4</ele>
        <time>2021-02-02T15:44:08Z</time>
      </trkpt>
      <trkpt lat="36.569641" lon="-6.016963">
        <ele>86.5</ele>
        <time>2021-02-02T15:44:10Z</time>
      </trkpt>
      <trkpt lat="36.569702" lon="-6.016865">
        <ele>86.6</ele>
        <time>2021-02-02T15:44:12Z</time>
      </trkpt>
      <trkpt lat="36.569767" lon="-6.016758">
        <ele>86.6</ele>
        <time>2021-02-02T15:44:14Z</time>
      </trkpt>
      <trkpt lat="36.569837" lon="-6.016666">
        <ele>86.8</ele>
        <time>2021-02-02T15:44:16Z</time>
      </trkpt>
      <trkpt lat="36.569911" lon="-6.016567">
        <ele>87.2</ele>
        <time>2021-02-02T15:44:18Z</time>
      </trkpt>
      <trkpt lat="36.569990" lon="-6.016479">
        <ele>87.4</ele>
        <time>2021-02-02T15:44:20Z</time>
      </trkpt>
      <trkpt lat="36.570087" lon="-6.016388">
        <ele>87.6</ele>
        <time>2021-02-02T15:44:22Z</time>
      </trkpt>
      <trkpt lat="36.570173" lon="-6.016309">
        <ele>87.8</ele>
        <time>2021-02-02T15:44:24Z</time>
      </trkpt>
      <trkpt lat="36.570265" lon="-6.016232">
        <ele>88.0</ele>
        <time>2021-02-02T15:44:26Z</time>
      </trkpt>
      <trkpt lat="36.570333" lon="-6.016144">
        <ele>88.1</ele>
        <time>2021-02-02T15:44:28Z</time>
      </trkpt>
      <trkpt lat="36.570414" lon="-6.016071">
        <ele>88.4</ele>
        <time>2021-02-02T15:44:30Z</time>
      </trkpt>
      <trkpt lat="36.570515" lon="-6.016001">
        <ele>88.7</ele>
        <time>2021-02-02T15:44:32Z</time>
      </trkpt>
      <trkpt lat="36.570603" lon="-6.015934">
        <ele>89.2</ele>
        <time>2021-02-02T15:44:34Z</time>
      </trkpt>
      <trkpt lat="36.570686" lon="-6.015869">
        <ele>89.5</ele>
        <time>2021-02-02T15:44:36Z</time>
      </trkpt>
      <trkpt lat="36.570762" lon="-6.015801">
        <ele>89.8</ele>
        <time>2021-02-02T15:44:38Z</time>
      </trkpt>
      <trkpt lat="36.570840" lon="-6.015736">
        <ele>90.1</ele>
        <time>2021-02-02T15:44:40Z</time>
      </trkpt>
      <trkpt lat="36.570919" lon="-6.015674">
        <ele>90.4</ele>
        <time>2021-02-02T15:44:42Z</time>
      </trkpt>
      <trkpt lat="36.570996" lon="-6.015609">
        <ele>90.7</ele>
        <time>2021-02-02T15:44:44Z</time>
      </trkpt>
      <trkpt lat="36.571075" lon="-6.015544">
        <ele>91.0</ele>
        <time>2021-02-02T15:44:46Z</time>
      </trkpt>
      <trkpt lat="36.571152" lon="-6.015478">
        <ele>91.2</ele>
        <time>2021-02-02T15:44:48Z</time>
      </trkpt>
      <trkpt lat="36.571231" lon="-6.015411">
        <ele>91.5</ele>
        <time>2021-02-02T15:44:50Z</time>
      </trkpt>
      <trkpt lat="36.571310" lon="-6.015347">
        <ele>91.7</ele>
        <time>2021-02-02T15:44:52Z</time>
      </trkpt>
      <trkpt lat="36.571390" lon="-6.015283">
        <ele>91.8</ele>
        <time>2021-02-02T15:44:54Z</time>
      </trkpt>
      <trkpt lat="36.571473" lon="-6.015219">
        <ele>91.8</ele>
        <time>2021-02-02T15:44:56Z</time>
      </trkpt>
      <trkpt lat="36.571554" lon="-6.015154">
        <ele>91.8</ele>
        <time>2021-02-02T15:44:58Z</time>
      </trkpt>
      <trkpt lat="36.571633" lon="-6.015087">
        <ele>91.9</ele>
        <time>2021-02-02T15:45:00Z</time>
      </trkpt>
      <trkpt lat="36.571715" lon="-6.015020">
        <ele>91.9</ele>
        <time>2021-02-02T15:45:02Z</time>
      </trkpt>
      <trkpt lat="36.571798" lon="-6.014951">
        <ele>92.1</ele>
        <time>2021-02-02T15:45:04Z</time>
      </trkpt>
      <trkpt lat="36.571883" lon="-6.014881">
        <ele>92.2</ele>
        <time>2021-02-02T15:45:06Z</time>
      </trkpt>
      <trkpt lat="36.571972" lon="-6.014813">
        <ele>92.3</ele>
        <time>2021-02-02T15:45:08Z</time>
      </trkpt>
      <trkpt lat="36.572058" lon="-6.014742">
        <ele>92.2</ele>
        <time>2021-02-02T15:45:10Z</time>
      </trkpt>
      <trkpt lat="36.572144" lon="-6.014669">
        <ele>92.2</ele>
        <time>2021-02-02T15:45:12Z</time>
      </trkpt>
      <trkpt lat="36.572231" lon="-6.014596">
        <ele>92.0</ele>
        <time>2021-02-02T15:45:14Z</time>
      </trkpt>
      <trkpt lat="36.572318" lon="-6.014522">
        <ele>91.9</ele>
        <time>2021-02-02T15:45:16Z</time>
      </trkpt>
      <trkpt lat="36.572406" lon="-6.014449">
        <ele>91.9</ele>
        <time>2021-02-02T15:45:18Z</time>
      </trkpt>
      <trkpt lat="36.572497" lon="-6.014384">
        <ele>91.9</ele>
        <time>2021-02-02T15:45:20Z</time>
      </trkpt>
      <trkpt lat="36.572592" lon="-6.014323">
        <ele>92.0</ele>
        <time>2021-02-02T15:45:22Z</time>
      </trkpt>
      <trkpt lat="36.572685" lon="-6.014266">
        <ele>92.0</ele>
        <time>2021-02-02T15:45:24Z</time>
      </trkpt>
      <trkpt lat="36.572786" lon="-6.014217">
        <ele>92.1</ele>
        <time>2021-02-02T15:45:26Z</time>
      </trkpt>
      <trkpt lat="36.572891" lon="-6.014178">
        <ele>92.1</ele>
        <time>2021-02-02T15:45:28Z</time>
      </trkpt>
      <trkpt lat="36.572997" lon="-6.014147">
        <ele>92.0</ele>
        <time>2021-02-02T15:45:30Z</time>
      </trkpt>
      <trkpt lat="36.573105" lon="-6.014125">
        <ele>91.8</ele>
        <time>2021-02-02T15:45:32Z</time>
      </trkpt>
      <trkpt lat="36.573217" lon="-6.014108">
        <ele>91.5</ele>
        <time>2021-02-02T15:45:34Z</time>
      </trkpt>
      <trkpt lat="36.573328" lon="-6.014095">
        <ele>91.2</ele>
        <time>2021-02-02T15:45:36Z</time>
      </trkpt>
      <trkpt lat="36.573444" lon="-6.014085">
        <ele>91.1</ele>
        <time>2021-02-02T15:45:38Z</time>
      </trkpt>
      <trkpt lat="36.573561" lon="-6.014075">
        <ele>91.0</ele>
        <time>2021-02-02T15:45:40Z</time>
      </trkpt>
      <trkpt lat="36.573679" lon="-6.014066">
        <ele>90.9</ele>
        <time>2021-02-02T15:45:42Z</time>
      </trkpt>
      <trkpt lat="36.573795" lon="-6.014056">
        <ele>90.8</ele>
        <time>2021-02-02T15:45:44Z</time>
      </trkpt>
      <trkpt lat="36.573912" lon="-6.014045">
        <ele>90.8</ele>
        <time>2021-02-02T15:45:46Z</time>
      </trkpt>
      <trkpt lat="36.574031" lon="-6.014040">
        <ele>90.8</ele>
        <time>2021-02-02T15:45:48Z</time>
      </trkpt>
      <trkpt lat="36.574152" lon="-6.014031">
        <ele>90.7</ele>
        <time>2021-02-02T15:45:50Z</time>
      </trkpt>
      <trkpt lat="36.574276" lon="-6.014022">
        <ele>90.3</ele>
        <time>2021-02-02T15:45:52Z</time>
      </trkpt>
      <trkpt lat="36.574400" lon="-6.014011">
        <ele>90.1</ele>
        <time>2021-02-02T15:45:54Z</time>
      </trkpt>
      <trkpt lat="36.574525" lon="-6.014000">
        <ele>89.8</ele>
        <time>2021-02-02T15:45:56Z</time>
      </trkpt>
      <trkpt lat="36.574653" lon="-6.013987">
        <ele>89.5</ele>
        <time>2021-02-02T15:45:58Z</time>
      </trkpt>
      <trkpt lat="36.574785" lon="-6.013977">
        <ele>89.4</ele>
        <time>2021-02-02T15:46:00Z</time>
      </trkpt>
      <trkpt lat="36.574920" lon="-6.013965">
        <ele>89.2</ele>
        <time>2021-02-02T15:46:02Z</time>
      </trkpt>
      <trkpt lat="36.575057" lon="-6.013954">
        <ele>88.9</ele>
        <time>2021-02-02T15:46:04Z</time>
      </trkpt>
      <trkpt lat="36.575192" lon="-6.013941">
        <ele>88.6</ele>
        <time>2021-02-02T15:46:06Z</time>
      </trkpt>
      <trkpt lat="36.575324" lon="-6.013929">
        <ele>88.5</ele>
        <time>2021-02-02T15:46:08Z</time>
      </trkpt>
      <trkpt lat="36.575456" lon="-6.013919">
        <ele>88.4</ele>
        <time>2021-02-02T15:46:10Z</time>
      </trkpt>
      <trkpt lat="36.575588" lon="-6.013907">
        <ele>88.1</ele>
        <time>2021-02-02T15:46:12Z</time>
      </trkpt>
      <trkpt lat="36.575718" lon="-6.013896">
        <ele>87.8</ele>
        <time>2021-02-02T15:46:14Z</time>
      </trkpt>
      <trkpt lat="36.575846" lon="-6.013885">
        <ele>87.7</ele>
        <time>2021-02-02T15:46:16Z</time>
      </trkpt>
      <trkpt lat="36.575973" lon="-6.013875">
        <ele>87.5</ele>
        <time>2021-02-02T15:46:18Z</time>
      </trkpt>
      <trkpt lat="36.576096" lon="-6.013871">
        <ele>87.6</ele>
        <time>2021-02-02T15:46:20Z</time>
      </trkpt>
      <trkpt lat="36.576219" lon="-6.013869">
        <ele>87.6</ele>
        <time>2021-02-02T15:46:22Z</time>
      </trkpt>
      <trkpt lat="36.576342" lon="-6.013872">
        <ele>87.6</ele>
        <time>2021-02-02T15:46:24Z</time>
      </trkpt>
      <trkpt lat="36.576467" lon="-6.013885">
        <ele>87.5</ele>
        <time>2021-02-02T15:46:26Z</time>
      </trkpt>
      <trkpt lat="36.576592" lon="-6.013902">
        <ele>87.4</ele>
        <time>2021-02-02T15:46:28Z</time>
      </trkpt>
      <trkpt lat="36.576715" lon="-6.013925">
        <ele>87.2</ele>
        <time>2021-02-02T15:46:30Z</time>
      </trkpt>
      <trkpt lat="36.576837" lon="-6.013956">
        <ele>87.1</ele>
        <time>2021-02-02T15:46:32Z</time>
      </trkpt>
      <trkpt lat="36.576959" lon="-6.013987">
        <ele>87.1</ele>
        <time>2021-02-02T15:46:34Z</time>
      </trkpt>
      <trkpt lat="36.577081" lon="-6.014023">
        <ele>87.0</ele>
        <time>2021-02-02T15:46:36Z</time>
      </trkpt>
      <trkpt lat="36.577203" lon="-6.014060">
        <ele>86.9</ele>
        <time>2021-02-02T15:46:38Z</time>
      </trkpt>
      <trkpt lat="36.577324" lon="-6.014095">
        <ele>86.8</ele>
        <time>2021-02-02T15:46:40Z</time>
      </trkpt>
      <trkpt lat="36.577445" lon="-6.014128">
        <ele>86.8</ele>
        <time>2021-02-02T15:46:42Z</time>
      </trkpt>
      <trkpt lat="36.577564" lon="-6.014160">
        <ele>86.7</ele>
        <time>2021-02-02T15:46:44Z</time>
      </trkpt>
      <trkpt lat="36.577683" lon="-6.014194">
        <ele>86.6</ele>
        <time>2021-02-02T15:46:46Z</time>
      </trkpt>
      <trkpt lat="36.577803" lon="-6.014230">
        <ele>86.7</ele>
        <time>2021-02-02T15:46:48Z</time>
      </trkpt>
      <trkpt lat="36.577922" lon="-6.014264">
        <ele>86.5</ele>
        <time>2021-02-02T15:46:50Z</time>
      </trkpt>
      <trkpt lat="36.578041" lon="-6.014299">
        <ele>86.5</ele>
        <time>2021-02-02T15:46:52Z</time>
      </trkpt>
      <trkpt lat="36.578155" lon="-6.014331">
        <ele>86.6</ele>
        <time>2021-02-02T15:46:54Z</time>
      </trkpt>
      <trkpt lat="36.578270" lon="-6.014369">
        <ele>86.6</ele>
        <time>2021-02-02T15:46:56Z</time>
      </trkpt>
      <trkpt lat="36.578383" lon="-6.014408">
        <ele>86.7</ele>
        <time>2021-02-02T15:46:58Z</time>
      </trkpt>
      <trkpt lat="36.578492" lon="-6.014448">
        <ele>86.8</ele>
        <time>2021-02-02T15:47:00Z</time>
      </trkpt>
      <trkpt lat="36.578598" lon="-6.014489">
        <ele>86.7</ele>
        <time>2021-02-02T15:47:02Z</time>
      </trkpt>
      <trkpt lat="36.578704" lon="-6.014535">
        <ele>86.7</ele>
        <time>2021-02-02T15:47:04Z</time>
      </trkpt>
      <trkpt lat="36.578805" lon="-6.014583">
        <ele>86.7</ele>
        <time>2021-02-02T15:47:06Z</time>
      </trkpt>
      <trkpt lat="36.578907" lon="-6.014636">
        <ele>86.7</ele>
        <time>2021-02-02T15:47:08Z</time>
      </trkpt>
      <trkpt lat="36.579007" lon="-6.014687">
        <ele>86.8</ele>
        <time>2021-02-02T15:47:10Z</time>
      </trkpt>
      <trkpt lat="36.579108" lon="-6.014744">
        <ele>86.9</ele>
        <time>2021-02-02T15:47:12Z</time>
      </trkpt>
      <trkpt lat="36.579207" lon="-6.014803">
        <ele>87.0</ele>
        <time>2021-02-02T15:47:14Z</time>
      </trkpt>
      <trkpt lat="36.579303" lon="-6.014866">
        <ele>87.1</ele>
        <time>2021-02-02T15:47:16Z</time>
      </trkpt>
      <trkpt lat="36.579399" lon="-6.014932">
        <ele>87.1</ele>
        <time>2021-02-02T15:47:18Z</time>
      </trkpt>
      <trkpt lat="36.579494" lon="-6.015001">
        <ele>87.2</ele>
        <time>2021-02-02T15:47:20Z</time>
      </trkpt>
      <trkpt lat="36.579585" lon="-6.015073">
        <ele>87.4</ele>
        <time>2021-02-02T15:47:22Z</time>
      </trkpt>
      <trkpt lat="36.579672" lon="-6.015145">
        <ele>87.4</ele>
        <time>2021-02-02T15:47:24Z</time>
      </trkpt>
      <trkpt lat="36.579759" lon="-6.015222">
        <ele>87.2</ele>
        <time>2021-02-02T15:47:26Z</time>
      </trkpt>
      <trkpt lat="36.579844" lon="-6.015300">
        <ele>87.4</ele>
        <time>2021-02-02T15:47:28Z</time>
      </trkpt>
      <trkpt lat="36.579927" lon="-6.015380">
        <ele>87.6</ele>
        <time>2021-02-02T15:47:30Z</time>
      </trkpt>
      <trkpt lat="36.580007" lon="-6.015462">
        <ele>87.7</ele>
        <time>2021-02-02T15:47:32Z</time>
      </trkpt>
      <trkpt lat="36.580090" lon="-6.015548">
        <ele>87.8</ele>
        <time>2021-02-02T15:47:34Z</time>
      </trkpt>
      <trkpt lat="36.580169" lon="-6.015638">
        <ele>87.8</ele>
        <time>2021-02-02T15:47:36Z</time>
      </trkpt>
      <trkpt lat="36.580249" lon="-6.015731">
        <ele>87.8</ele>
        <time>2021-02-02T15:47:38Z</time>
      </trkpt>
      <trkpt lat="36.580322" lon="-6.015822">
        <ele>87.8</ele>
        <time>2021-02-02T15:47:40Z</time>
      </trkpt>
      <trkpt lat="36.580394" lon="-6.015918">
        <ele>87.9</ele>
        <time>2021-02-02T15:47:42Z</time>
      </trkpt>
      <trkpt lat="36.580460" lon="-6.016015">
        <ele>88.0</ele>
        <time>2021-02-02T15:47:44Z</time>
      </trkpt>
      <trkpt lat="36.580530" lon="-6.016110">
        <ele>88.0</ele>
        <time>2021-02-02T15:47:46Z</time>
      </trkpt>
      <trkpt lat="36.580594" lon="-6.016207">
        <ele>88.0</ele>
        <time>2021-02-02T15:47:48Z</time>
      </trkpt>
      <trkpt lat="36.580654" lon="-6.016299">
        <ele>87.9</ele>
        <time>2021-02-02T15:47:50Z</time>
      </trkpt>
      <trkpt lat="36.580714" lon="-6.016395">
        <ele>87.9</ele>
        <time>2021-02-02T15:47:52Z</time>
      </trkpt>
      <trkpt lat="36.580772" lon="-6.016493">
        <ele>87.8</ele>
        <time>2021-02-02T15:47:54Z</time>
      </trkpt>
      <trkpt lat="36.580829" lon="-6.016595">
        <ele>87.9</ele>
        <time>2021-02-02T15:47:56Z</time>
      </trkpt>
      <trkpt lat="36.580884" lon="-6.016701">
        <ele>88.0</ele>
        <time>2021-02-02T15:47:58Z</time>
      </trkpt>
      <trkpt lat="36.580935" lon="-6.016810">
        <ele>88.1</ele>
        <time>2021-02-02T15:48:00Z</time>
      </trkpt>
      <trkpt lat="36.580986" lon="-6.016921">
        <ele>88.0</ele>
        <time>2021-02-02T15:48:02Z</time>
      </trkpt>
      <trkpt lat="36.581036" lon="-6.017033">
        <ele>88.0</ele>
        <time>2021-02-02T15:48:04Z</time>
      </trkpt>
      <trkpt lat="36.581087" lon="-6.017152">
        <ele>88.0</ele>
        <time>2021-02-02T15:48:06Z</time>
      </trkpt>
      <trkpt lat="36.581134" lon="-6.017263">
        <ele>88.1</ele>
        <time>2021-02-02T15:48:08Z</time>
      </trkpt>
      <trkpt lat="36.581182" lon="-6.017378">
        <ele>88.2</ele>
        <time>2021-02-02T15:48:10Z</time>
      </trkpt>
      <trkpt lat="36.581231" lon="-6.017497">
        <ele>88.2</ele>
        <time>2021-02-02T15:48:12Z</time>
      </trkpt>
      <trkpt lat="36.581276" lon="-6.017617">
        <ele>88.2</ele>
        <time>2021-02-02T15:48:14Z</time>
      </trkpt>
      <trkpt lat="36.581332" lon="-6.017737">
        <ele>88.2</ele>
        <time>2021-02-02T15:48:16Z</time>
      </trkpt>
      <trkpt lat="36.581376" lon="-6.017857">
        <ele>88.2</ele>
        <time>2021-02-02T15:48:18Z</time>
      </trkpt>
      <trkpt lat="36.581421" lon="-6.017977">
        <ele>88.1</ele>
        <time>2021-02-02T15:48:20Z</time>
      </trkpt>
      <trkpt lat="36.581468" lon="-6.018095">
        <ele>88.0</ele>
        <time>2021-02-02T15:48:22Z</time>
      </trkpt>
      <trkpt lat="36.581518" lon="-6.018217">
        <ele>88.0</ele>
        <time>2021-02-02T15:48:24Z</time>
      </trkpt>
      <trkpt lat="36.581566" lon="-6.018343">
        <ele>87.9</ele>
        <time>2021-02-02T15:48:26Z</time>
      </trkpt>
      <trkpt lat="36.581609" lon="-6.018460">
        <ele>87.8</ele>
        <time>2021-02-02T15:48:28Z</time>
      </trkpt>
      <trkpt lat="36.581659" lon="-6.018587">
        <ele>87.6</ele>
        <time>2021-02-02T15:48:30Z</time>
      </trkpt>
      <trkpt lat="36.581708" lon="-6.018721">
        <ele>87.6</ele>
        <time>2021-02-02T15:48:32Z</time>
      </trkpt>
      <trkpt lat="36.581757" lon="-6.018835">
        <ele>87.4</ele>
        <time>2021-02-02T15:48:34Z</time>
      </trkpt>
      <trkpt lat="36.581812" lon="-6.018966">
        <ele>87.3</ele>
        <time>2021-02-02T15:48:36Z</time>
      </trkpt>
      <trkpt lat="36.581864" lon="-6.019100">
        <ele>87.2</ele>
        <time>2021-02-02T15:48:38Z</time>
      </trkpt>
      <trkpt lat="36.581913" lon="-6.019228">
        <ele>87.1</ele>
        <time>2021-02-02T15:48:40Z</time>
      </trkpt>
      <trkpt lat="36.581948" lon="-6.019354">
        <ele>87.1</ele>
        <time>2021-02-02T15:48:42Z</time>
      </trkpt>
      <trkpt lat="36.581996" lon="-6.019483">
        <ele>87.1</ele>
        <time>2021-02-02T15:48:44Z</time>
      </trkpt>
      <trkpt lat="36.582043" lon="-6.019610">
        <ele>87.1</ele>
        <time>2021-02-02T15:48:46Z</time>
      </trkpt>
      <trkpt lat="36.582093" lon="-6.019737">
        <ele>87.3</ele>
        <time>2021-02-02T15:48:48Z</time>
      </trkpt>
      <trkpt lat="36.582142" lon="-6.019861">
        <ele>87.3</ele>
        <time>2021-02-02T15:48:50Z</time>
      </trkpt>
      <trkpt lat="36.582199" lon="-6.019988">
        <ele>87.4</ele>
        <time>2021-02-02T15:48:52Z</time>
      </trkpt>
      <trkpt lat="36.582248" lon="-6.020107">
        <ele>87.4</ele>
        <time>2021-02-02T15:48:54Z</time>
      </trkpt>
      <trkpt lat="36.582303" lon="-6.020237">
        <ele>87.5</ele>
        <time>2021-02-02T15:48:56Z</time>
      </trkpt>
      <trkpt lat="36.582362" lon="-6.020366">
        <ele>87.5</ele>
        <time>2021-02-02T15:48:58Z</time>
      </trkpt>
      <trkpt lat="36.582416" lon="-6.020491">
        <ele>87.5</ele>
        <time>2021-02-02T15:49:00Z</time>
      </trkpt>
      <trkpt lat="36.582470" lon="-6.020618">
        <ele>87.5</ele>
        <time>2021-02-02T15:49:02Z</time>
      </trkpt>
      <trkpt lat="36.582525" lon="-6.020740">
        <ele>87.5</ele>
        <time>2021-02-02T15:49:04Z</time>
      </trkpt>
      <trkpt lat="36.582580" lon="-6.020867">
        <ele>87.6</ele>
        <time>2021-02-02T15:49:06Z</time>
      </trkpt>
      <trkpt lat="36.582626" lon="-6.020992">
        <ele>87.6</ele>
        <time>2021-02-02T15:49:08Z</time>
      </trkpt>
      <trkpt lat="36.582678" lon="-6.021119">
        <ele>87.7</ele>
        <time>2021-02-02T15:49:10Z</time>
      </trkpt>
      <trkpt lat="36.582722" lon="-6.021242">
        <ele>87.8</ele>
        <time>2021-02-02T15:49:12Z</time>
      </trkpt>
      <trkpt lat="36.582781" lon="-6.021393">
        <ele>87.8</ele>
        <time>2021-02-02T15:49:15Z</time>
      </trkpt>
      <trkpt lat="36.582833" lon="-6.021515">
        <ele>87.8</ele>
        <time>2021-02-02T15:49:17Z</time>
      </trkpt>
      <trkpt lat="36.582895" lon="-6.021635">
        <ele>87.9</ele>
        <time>2021-02-02T15:49:19Z</time>
      </trkpt>
      <trkpt lat="36.582947" lon="-6.021764">
        <ele>88.0</ele>
        <time>2021-02-02T15:49:21Z</time>
      </trkpt>
      <trkpt lat="36.582996" lon="-6.021892">
        <ele>88.0</ele>
        <time>2021-02-02T15:49:23Z</time>
      </trkpt>
      <trkpt lat="36.583050" lon="-6.022030">
        <ele>88.0</ele>
        <time>2021-02-02T15:49:25Z</time>
      </trkpt>
      <trkpt lat="36.583097" lon="-6.022162">
        <ele>88.2</ele>
        <time>2021-02-02T15:49:27Z</time>
      </trkpt>
      <trkpt lat="36.583145" lon="-6.022297">
        <ele>88.1</ele>
        <time>2021-02-02T15:49:29Z</time>
      </trkpt>
      <trkpt lat="36.583192" lon="-6.022426">
        <ele>88.1</ele>
        <time>2021-02-02T15:49:31Z</time>
      </trkpt>
      <trkpt lat="36.583238" lon="-6.022549">
        <ele>88.1</ele>
        <time>2021-02-02T15:49:33Z</time>
      </trkpt>
      <trkpt lat="36.583281" lon="-6.022668">
        <ele>88.2</ele>
        <time>2021-02-02T15:49:35Z</time>
      </trkpt>
      <trkpt lat="36.583326" lon="-6.022785">
        <ele>88.3</ele>
        <time>2021-02-02T15:49:37Z</time>
      </trkpt>
      <trkpt lat="36.583371" lon="-6.022902">
        <ele>88.3</ele>
        <time>2021-02-02T15:49:39Z</time>
      </trkpt>
      <trkpt lat="36.583416" lon="-6.023020">
        <ele>88.4</ele>
        <time>2021-02-02T15:49:41Z</time>
      </trkpt>
      <trkpt lat="36.583464" lon="-6.023140">
        <ele>88.6</ele>
        <time>2021-02-02T15:49:43Z</time>
      </trkpt>
      <trkpt lat="36.583511" lon="-6.023264">
        <ele>89.0</ele>
        <time>2021-02-02T15:49:45Z</time>
      </trkpt>
      <trkpt lat="36.583564" lon="-6.023388">
        <ele>89.2</ele>
        <time>2021-02-02T15:49:47Z</time>
      </trkpt>
      <trkpt lat="36.583613" lon="-6.023510">
        <ele>89.3</ele>
        <time>2021-02-02T15:49:49Z</time>
      </trkpt>
      <trkpt lat="36.583662" lon="-6.023637">
        <ele>89.5</ele>
        <time>2021-02-02T15:49:51Z</time>
      </trkpt>
      <trkpt lat="36.583706" lon="-6.023757">
        <ele>89.9</ele>
        <time>2021-02-02T15:49:53Z</time>
      </trkpt>
      <trkpt lat="36.583751" lon="-6.023872">
        <ele>90.4</ele>
        <time>2021-02-02T15:49:55Z</time>
      </trkpt>
      <trkpt lat="36.583799" lon="-6.023990">
        <ele>90.6</ele>
        <time>2021-02-02T15:49:57Z</time>
      </trkpt>
      <trkpt lat="36.583842" lon="-6.024104">
        <ele>90.5</ele>
        <time>2021-02-02T15:49:59Z</time>
      </trkpt>
      <trkpt lat="36.583885" lon="-6.024224">
        <ele>90.4</ele>
        <time>2021-02-02T15:50:01Z</time>
      </trkpt>
      <trkpt lat="36.583933" lon="-6.024344">
        <ele>90.6</ele>
        <time>2021-02-02T15:50:03Z</time>
      </trkpt>
      <trkpt lat="36.583980" lon="-6.024468">
        <ele>90.6</ele>
        <time>2021-02-02T15:50:05Z</time>
      </trkpt>
      <trkpt lat="36.584026" lon="-6.024586">
        <ele>90.7</ele>
        <time>2021-02-02T15:50:07Z</time>
      </trkpt>
      <trkpt lat="36.584071" lon="-6.024706">
        <ele>90.6</ele>
        <time>2021-02-02T15:50:09Z</time>
      </trkpt>
      <trkpt lat="36.584120" lon="-6.024835">
        <ele>90.5</ele>
        <time>2021-02-02T15:50:11Z</time>
      </trkpt>
      <trkpt lat="36.584171" lon="-6.024970">
        <ele>90.5</ele>
        <time>2021-02-02T15:50:13Z</time>
      </trkpt>
      <trkpt lat="36.584223" lon="-6.025110">
        <ele>90.1</ele>
        <time>2021-02-02T15:50:15Z</time>
      </trkpt>
      <trkpt lat="36.584277" lon="-6.025254">
        <ele>89.7</ele>
        <time>2021-02-02T15:50:17Z</time>
      </trkpt>
      <trkpt lat="36.584341" lon="-6.025401">
        <ele>89.5</ele>
        <time>2021-02-02T15:50:19Z</time>
      </trkpt>
      <trkpt lat="36.584399" lon="-6.025558">
        <ele>89.3</ele>
        <time>2021-02-02T15:50:21Z</time>
      </trkpt>
      <trkpt lat="36.584462" lon="-6.025716">
        <ele>89.2</ele>
        <time>2021-02-02T15:50:23Z</time>
      </trkpt>
      <trkpt lat="36.584525" lon="-6.025877">
        <ele>88.8</ele>
        <time>2021-02-02T15:50:25Z</time>
      </trkpt>
      <trkpt lat="36.584590" lon="-6.026044">
        <ele>88.7</ele>
        <time>2021-02-02T15:50:27Z</time>
      </trkpt>
      <trkpt lat="36.584644" lon="-6.026191">
        <ele>88.3</ele>
        <time>2021-02-02T15:50:29Z</time>
      </trkpt>
      <trkpt lat="36.584712" lon="-6.026357">
        <ele>87.8</ele>
        <time>2021-02-02T15:50:31Z</time>
      </trkpt>
      <trkpt lat="36.584777" lon="-6.026520">
        <ele>87.1</ele>
        <time>2021-02-02T15:50:33Z</time>
      </trkpt>
      <trkpt lat="36.584843" lon="-6.026693">
        <ele>86.6</ele>
        <time>2021-02-02T15:50:35Z</time>
      </trkpt>
      <trkpt lat="36.584905" lon="-6.026863">
        <ele>86.2</ele>
        <time>2021-02-02T15:50:37Z</time>
      </trkpt>
      <trkpt lat="36.584969" lon="-6.027031">
        <ele>85.9</ele>
        <time>2021-02-02T15:50:39Z</time>
      </trkpt>
      <trkpt lat="36.585035" lon="-6.027198">
        <ele>85.4</ele>
        <time>2021-02-02T15:50:41Z</time>
      </trkpt>
      <trkpt lat="36.585096" lon="-6.027355">
        <ele>85.2</ele>
        <time>2021-02-02T15:50:43Z</time>
      </trkpt>
      <trkpt lat="36.585159" lon="-6.027511">
        <ele>85.1</ele>
        <time>2021-02-02T15:50:45Z</time>
      </trkpt>
      <trkpt lat="36.585222" lon="-6.027667">
        <ele>84.9</ele>
        <time>2021-02-02T15:50:47Z</time>
      </trkpt>
      <trkpt lat="36.585287" lon="-6.027822">
        <ele>84.6</ele>
        <time>2021-02-02T15:50:49Z</time>
      </trkpt>
      <trkpt lat="36.585353" lon="-6.027976">
        <ele>84.6</ele>
        <time>2021-02-02T15:50:51Z</time>
      </trkpt>
      <trkpt lat="36.585416" lon="-6.028123">
        <ele>84.3</ele>
        <time>2021-02-02T15:50:53Z</time>
      </trkpt>
      <trkpt lat="36.585483" lon="-6.028271">
        <ele>84.3</ele>
        <time>2021-02-02T15:50:55Z</time>
      </trkpt>
      <trkpt lat="36.585562" lon="-6.028411">
        <ele>84.2</ele>
        <time>2021-02-02T15:50:57Z</time>
      </trkpt>
      <trkpt lat="36.585652" lon="-6.028545">
        <ele>84.1</ele>
        <time>2021-02-02T15:50:59Z</time>
      </trkpt>
      <trkpt lat="36.585751" lon="-6.028675">
        <ele>84.1</ele>
        <time>2021-02-02T15:51:01Z</time>
      </trkpt>
      <trkpt lat="36.585854" lon="-6.028801">
        <ele>84.0</ele>
        <time>2021-02-02T15:51:03Z</time>
      </trkpt>
      <trkpt lat="36.585953" lon="-6.028922">
        <ele>83.8</ele>
        <time>2021-02-02T15:51:05Z</time>
      </trkpt>
      <trkpt lat="36.586055" lon="-6.029037">
        <ele>83.9</ele>
        <time>2021-02-02T15:51:07Z</time>
      </trkpt>
      <trkpt lat="36.586160" lon="-6.029143">
        <ele>83.9</ele>
        <time>2021-02-02T15:51:09Z</time>
      </trkpt>
      <trkpt lat="36.586271" lon="-6.029241">
        <ele>84.0</ele>
        <time>2021-02-02T15:51:11Z</time>
      </trkpt>
      <trkpt lat="36.586378" lon="-6.029341">
        <ele>84.0</ele>
        <time>2021-02-02T15:51:13Z</time>
      </trkpt>
      <trkpt lat="36.586485" lon="-6.029445">
        <ele>83.9</ele>
        <time>2021-02-02T15:51:15Z</time>
      </trkpt>
      <trkpt lat="36.586591" lon="-6.029551">
        <ele>83.8</ele>
        <time>2021-02-02T15:51:17Z</time>
      </trkpt>
      <trkpt lat="36.586694" lon="-6.029660">
        <ele>83.6</ele>
        <time>2021-02-02T15:51:19Z</time>
      </trkpt>
      <trkpt lat="36.586795" lon="-6.029776">
        <ele>83.2</ele>
        <time>2021-02-02T15:51:21Z</time>
      </trkpt>
      <trkpt lat="36.586893" lon="-6.029904">
        <ele>82.8</ele>
        <time>2021-02-02T15:51:23Z</time>
      </trkpt>
      <trkpt lat="36.586984" lon="-6.030031">
        <ele>82.5</ele>
        <time>2021-02-02T15:51:25Z</time>
      </trkpt>
      <trkpt lat="36.587069" lon="-6.030157">
        <ele>82.4</ele>
        <time>2021-02-02T15:51:27Z</time>
      </trkpt>
      <trkpt lat="36.587148" lon="-6.030283">
        <ele>82.3</ele>
        <time>2021-02-02T15:51:29Z</time>
      </trkpt>
      <trkpt lat="36.587223" lon="-6.030406">
        <ele>82.4</ele>
        <time>2021-02-02T15:51:31Z</time>
      </trkpt>
      <trkpt lat="36.587289" lon="-6.030532">
        <ele>82.5</ele>
        <time>2021-02-02T15:51:33Z</time>
      </trkpt>
      <trkpt lat="36.587356" lon="-6.030657">
        <ele>82.8</ele>
        <time>2021-02-02T15:51:35Z</time>
      </trkpt>
      <trkpt lat="36.587420" lon="-6.030784">
        <ele>83.1</ele>
        <time>2021-02-02T15:51:37Z</time>
      </trkpt>
      <trkpt lat="36.587475" lon="-6.030911">
        <ele>83.3</ele>
        <time>2021-02-02T15:51:39Z</time>
      </trkpt>
      <trkpt lat="36.587525" lon="-6.031037">
        <ele>83.4</ele>
        <time>2021-02-02T15:51:41Z</time>
      </trkpt>
      <trkpt lat="36.587580" lon="-6.031159">
        <ele>83.7</ele>
        <time>2021-02-02T15:51:43Z</time>
      </trkpt>
      <trkpt lat="36.587640" lon="-6.031278">
        <ele>84.1</ele>
        <time>2021-02-02T15:51:45Z</time>
      </trkpt>
      <trkpt lat="36.587702" lon="-6.031397">
        <ele>84.2</ele>
        <time>2021-02-02T15:51:47Z</time>
      </trkpt>
      <trkpt lat="36.587767" lon="-6.031512">
        <ele>84.5</ele>
        <time>2021-02-02T15:51:49Z</time>
      </trkpt>
      <trkpt lat="36.587832" lon="-6.031627">
        <ele>84.8</ele>
        <time>2021-02-02T15:51:51Z</time>
      </trkpt>
      <trkpt lat="36.587894" lon="-6.031741">
        <ele>85.0</ele>
        <time>2021-02-02T15:51:53Z</time>
      </trkpt>
      <trkpt lat="36.587959" lon="-6.031859">
        <ele>85.1</ele>
        <time>2021-02-02T15:51:55Z</time>
      </trkpt>
      <trkpt lat="36.588022" lon="-6.031976">
        <ele>85.4</ele>
        <time>2021-02-02T15:51:57Z</time>
      </trkpt>
      <trkpt lat="36.588089" lon="-6.032091">
        <ele>85.5</ele>
        <time>2021-02-02T15:51:59Z</time>
      </trkpt>
      <trkpt lat="36.588149" lon="-6.032214">
        <ele>85.5</ele>
        <time>2021-02-02T15:52:01Z</time>
      </trkpt>
      <trkpt lat="36.588214" lon="-6.032335">
        <ele>85.6</ele>
        <time>2021-02-02T15:52:03Z</time>
      </trkpt>
      <trkpt lat="36.588279" lon="-6.032457">
        <ele>85.6</ele>
        <time>2021-02-02T15:52:05Z</time>
      </trkpt>
      <trkpt lat="36.588344" lon="-6.032579">
        <ele>85.4</ele>
        <time>2021-02-02T15:52:07Z</time>
      </trkpt>
      <trkpt lat="36.588407" lon="-6.032705">
        <ele>85.2</ele>
        <time>2021-02-02T15:52:09Z</time>
      </trkpt>
      <trkpt lat="36.588473" lon="-6.032836">
        <ele>85.2</ele>
        <time>2021-02-02T15:52:11Z</time>
      </trkpt>
      <trkpt lat="36.588537" lon="-6.032966">
        <ele>85.0</ele>
        <time>2021-02-02T15:52:13Z</time>
      </trkpt>
      <trkpt lat="36.588599" lon="-6.033095">
        <ele>84.8</ele>
        <time>2021-02-02T15:52:15Z</time>
      </trkpt>
      <trkpt lat="36.588661" lon="-6.033222">
        <ele>84.6</ele>
        <time>2021-02-02T15:52:17Z</time>
      </trkpt>
      <trkpt lat="36.588723" lon="-6.033350">
        <ele>84.5</ele>
        <time>2021-02-02T15:52:19Z</time>
      </trkpt>
      <trkpt lat="36.588782" lon="-6.033481">
        <ele>84.2</ele>
        <time>2021-02-02T15:52:21Z</time>
      </trkpt>
      <trkpt lat="36.588844" lon="-6.033614">
        <ele>84.0</ele>
        <time>2021-02-02T15:52:23Z</time>
      </trkpt>
      <trkpt lat="36.588907" lon="-6.033749">
        <ele>83.8</ele>
        <time>2021-02-02T15:52:25Z</time>
      </trkpt>
      <trkpt lat="36.588966" lon="-6.033885">
        <ele>83.6</ele>
        <time>2021-02-02T15:52:27Z</time>
      </trkpt>
      <trkpt lat="36.589025" lon="-6.034019">
        <ele>83.2</ele>
        <time>2021-02-02T15:52:29Z</time>
      </trkpt>
      <trkpt lat="36.589087" lon="-6.034149">
        <ele>82.6</ele>
        <time>2021-02-02T15:52:31Z</time>
      </trkpt>
      <trkpt lat="36.589150" lon="-6.034282">
        <ele>82.3</ele>
        <time>2021-02-02T15:52:33Z</time>
      </trkpt>
      <trkpt lat="36.589215" lon="-6.034411">
        <ele>82.0</ele>
        <time>2021-02-02T15:52:35Z</time>
      </trkpt>
      <trkpt lat="36.589285" lon="-6.034542">
        <ele>82.0</ele>
        <time>2021-02-02T15:52:37Z</time>
      </trkpt>
      <trkpt lat="36.589360" lon="-6.034675">
        <ele>81.8</ele>
        <time>2021-02-02T15:52:39Z</time>
      </trkpt>
      <trkpt lat="36.589436" lon="-6.034815">
        <ele>81.4</ele>
        <time>2021-02-02T15:52:41Z</time>
      </trkpt>
      <trkpt lat="36.589503" lon="-6.034961">
        <ele>81.1</ele>
        <time>2021-02-02T15:52:43Z</time>
      </trkpt>
      <trkpt lat="36.589570" lon="-6.035104">
        <ele>80.7</ele>
        <time>2021-02-02T15:52:45Z</time>
      </trkpt>
      <trkpt lat="36.589644" lon="-6.035242">
        <ele>80.3</ele>
        <time>2021-02-02T15:52:47Z</time>
      </trkpt>
      <trkpt lat="36.589720" lon="-6.035373">
        <ele>79.8</ele>
        <time>2021-02-02T15:52:49Z</time>
      </trkpt>
      <trkpt lat="36.589796" lon="-6.035505">
        <ele>79.5</ele>
        <time>2021-02-02T15:52:51Z</time>
      </trkpt>
      <trkpt lat="36.589874" lon="-6.035638">
        <ele>79.1</ele>
        <time>2021-02-02T15:52:53Z</time>
      </trkpt>
      <trkpt lat="36.589951" lon="-6.035769">
        <ele>78.8</ele>
        <time>2021-02-02T15:52:55Z</time>
      </trkpt>
      <trkpt lat="36.590030" lon="-6.035906">
        <ele>78.4</ele>
        <time>2021-02-02T15:52:57Z</time>
      </trkpt>
      <trkpt lat="36.590114" lon="-6.036036">
        <ele>78.0</ele>
        <time>2021-02-02T15:52:59Z</time>
      </trkpt>
      <trkpt lat="36.590198" lon="-6.036166">
        <ele>77.7</ele>
        <time>2021-02-02T15:53:01Z</time>
      </trkpt>
      <trkpt lat="36.590281" lon="-6.036299">
        <ele>77.4</ele>
        <time>2021-02-02T15:53:03Z</time>
      </trkpt>
      <trkpt lat="36.590367" lon="-6.036433">
        <ele>77.0</ele>
        <time>2021-02-02T15:53:05Z</time>
      </trkpt>
      <trkpt lat="36.590459" lon="-6.036568">
        <ele>76.6</ele>
        <time>2021-02-02T15:53:07Z</time>
      </trkpt>
      <trkpt lat="36.590552" lon="-6.036697">
        <ele>76.2</ele>
        <time>2021-02-02T15:53:09Z</time>
      </trkpt>
      <trkpt lat="36.590651" lon="-6.036823">
        <ele>75.8</ele>
        <time>2021-02-02T15:53:11Z</time>
      </trkpt>
      <trkpt lat="36.590752" lon="-6.036946">
        <ele>75.3</ele>
        <time>2021-02-02T15:53:13Z</time>
      </trkpt>
      <trkpt lat="36.590859" lon="-6.037072">
        <ele>74.9</ele>
        <time>2021-02-02T15:53:15Z</time>
      </trkpt>
      <trkpt lat="36.590965" lon="-6.037203">
        <ele>74.5</ele>
        <time>2021-02-02T15:53:17Z</time>
      </trkpt>
      <trkpt lat="36.591073" lon="-6.037338">
        <ele>74.1</ele>
        <time>2021-02-02T15:53:19Z</time>
      </trkpt>
      <trkpt lat="36.591184" lon="-6.037479">
        <ele>73.5</ele>
        <time>2021-02-02T15:53:21Z</time>
      </trkpt>
      <trkpt lat="36.591300" lon="-6.037621">
        <ele>72.8</ele>
        <time>2021-02-02T15:53:23Z</time>
      </trkpt>
      <trkpt lat="36.591425" lon="-6.037759">
        <ele>72.1</ele>
        <time>2021-02-02T15:53:25Z</time>
      </trkpt>
      <trkpt lat="36.591556" lon="-6.037898">
        <ele>71.3</ele>
        <time>2021-02-02T15:53:27Z</time>
      </trkpt>
      <trkpt lat="36.591687" lon="-6.038041">
        <ele>70.3</ele>
        <time>2021-02-02T15:53:29Z</time>
      </trkpt>
      <trkpt lat="36.591819" lon="-6.038185">
        <ele>69.4</ele>
        <time>2021-02-02T15:53:31Z</time>
      </trkpt>
      <trkpt lat="36.591948" lon="-6.038322">
        <ele>68.9</ele>
        <time>2021-02-02T15:53:33Z</time>
      </trkpt>
      <trkpt lat="36.592072" lon="-6.038457">
        <ele>68.4</ele>
        <time>2021-02-02T15:53:35Z</time>
      </trkpt>
      <trkpt lat="36.592194" lon="-6.038596">
        <ele>67.9</ele>
        <time>2021-02-02T15:53:37Z</time>
      </trkpt>
      <trkpt lat="36.592315" lon="-6.038731">
        <ele>67.3</ele>
        <time>2021-02-02T15:53:39Z</time>
      </trkpt>
      <trkpt lat="36.592441" lon="-6.038863">
        <ele>66.8</ele>
        <time>2021-02-02T15:53:41Z</time>
      </trkpt>
      <trkpt lat="36.592564" lon="-6.038995">
        <ele>66.4</ele>
        <time>2021-02-02T15:53:43Z</time>
      </trkpt>
      <trkpt lat="36.592689" lon="-6.039126">
        <ele>65.9</ele>
        <time>2021-02-02T15:53:45Z</time>
      </trkpt>
      <trkpt lat="36.592814" lon="-6.039257">
        <ele>65.3</ele>
        <time>2021-02-02T15:53:47Z</time>
      </trkpt>
      <trkpt lat="36.592942" lon="-6.039396">
        <ele>64.6</ele>
        <time>2021-02-02T15:53:49Z</time>
      </trkpt>
      <trkpt lat="36.593069" lon="-6.039535">
        <ele>63.9</ele>
        <time>2021-02-02T15:53:51Z</time>
      </trkpt>
      <trkpt lat="36.593198" lon="-6.039673">
        <ele>63.4</ele>
        <time>2021-02-02T15:53:53Z</time>
      </trkpt>
      <trkpt lat="36.593326" lon="-6.039818">
        <ele>62.8</ele>
        <time>2021-02-02T15:53:55Z</time>
      </trkpt>
      <trkpt lat="36.593459" lon="-6.039959">
        <ele>62.1</ele>
        <time>2021-02-02T15:53:57Z</time>
      </trkpt>
      <trkpt lat="36.593599" lon="-6.040100">
        <ele>61.6</ele>
        <time>2021-02-02T15:53:59Z</time>
      </trkpt>
      <trkpt lat="36.593736" lon="-6.040243">
        <ele>60.6</ele>
        <time>2021-02-02T15:54:01Z</time>
      </trkpt>
      <trkpt lat="36.593871" lon="-6.040386">
        <ele>59.8</ele>
        <time>2021-02-02T15:54:03Z</time>
      </trkpt>
      <trkpt lat="36.594011" lon="-6.040528">
        <ele>59.1</ele>
        <time>2021-02-02T15:54:05Z</time>
      </trkpt>
      <trkpt lat="36.594083" lon="-6.040603">
        <ele>58.7</ele>
        <time>2021-02-02T15:54:06Z</time>
      </trkpt>
      <trkpt lat="36.594154" lon="-6.040680">
        <ele>58.4</ele>
        <time>2021-02-02T15:54:07Z</time>
      </trkpt>
      <trkpt lat="36.594227" lon="-6.040754">
        <ele>58.1</ele>
        <time>2021-02-02T15:54:08Z</time>
      </trkpt>
      <trkpt lat="36.594300" lon="-6.040828">
        <ele>57.8</ele>
        <time>2021-02-02T15:54:09Z</time>
      </trkpt>
      <trkpt lat="36.594374" lon="-6.040900">
        <ele>57.6</ele>
        <time>2021-02-02T15:54:10Z</time>
      </trkpt>
      <trkpt lat="36.594447" lon="-6.040973">
        <ele>57.2</ele>
        <time>2021-02-02T15:54:11Z</time>
      </trkpt>
      <trkpt lat="36.594520" lon="-6.041046">
        <ele>56.7</ele>
        <time>2021-02-02T15:54:12Z</time>
      </trkpt>
      <trkpt lat="36.594591" lon="-6.041119">
        <ele>56.4</ele>
        <time>2021-02-02T15:54:13Z</time>
      </trkpt>
      <trkpt lat="36.594661" lon="-6.041192">
        <ele>56.0</ele>
        <time>2021-02-02T15:54:14Z</time>
      </trkpt>
      <trkpt lat="36.594732" lon="-6.041264">
        <ele>55.7</ele>
        <time>2021-02-02T15:54:15Z</time>
      </trkpt>
      <trkpt lat="36.594871" lon="-6.041407">
        <ele>55.0</ele>
        <time>2021-02-02T15:54:17Z</time>
      </trkpt>
      <trkpt lat="36.594940" lon="-6.041479">
        <ele>54.8</ele>
        <time>2021-02-02T15:54:18Z</time>
      </trkpt>
      <trkpt lat="36.595075" lon="-6.041622">
        <ele>54.3</ele>
        <time>2021-02-02T15:54:20Z</time>
      </trkpt>
      <trkpt lat="36.595212" lon="-6.041762">
        <ele>53.9</ele>
        <time>2021-02-02T15:54:22Z</time>
      </trkpt>
      <trkpt lat="36.595344" lon="-6.041900">
        <ele>53.5</ele>
        <time>2021-02-02T15:54:24Z</time>
      </trkpt>
      <trkpt lat="36.595477" lon="-6.042031">
        <ele>53.2</ele>
        <time>2021-02-02T15:54:26Z</time>
      </trkpt>
      <trkpt lat="36.595605" lon="-6.042161">
        <ele>52.9</ele>
        <time>2021-02-02T15:54:28Z</time>
      </trkpt>
      <trkpt lat="36.595741" lon="-6.042293">
        <ele>52.6</ele>
        <time>2021-02-02T15:54:30Z</time>
      </trkpt>
      <trkpt lat="36.595877" lon="-6.042422">
        <ele>52.2</ele>
        <time>2021-02-02T15:54:32Z</time>
      </trkpt>
      <trkpt lat="36.595999" lon="-6.042554">
        <ele>51.9</ele>
        <time>2021-02-02T15:54:34Z</time>
      </trkpt>
      <trkpt lat="36.596118" lon="-6.042688">
        <ele>51.8</ele>
        <time>2021-02-02T15:54:36Z</time>
      </trkpt>
      <trkpt lat="36.596231" lon="-6.042823">
        <ele>51.8</ele>
        <time>2021-02-02T15:54:38Z</time>
      </trkpt>
      <trkpt lat="36.596338" lon="-6.042952">
        <ele>51.9</ele>
        <time>2021-02-02T15:54:40Z</time>
      </trkpt>
      <trkpt lat="36.596448" lon="-6.043074">
        <ele>51.8</ele>
        <time>2021-02-02T15:54:42Z</time>
      </trkpt>
      <trkpt lat="36.596555" lon="-6.043193">
        <ele>51.8</ele>
        <time>2021-02-02T15:54:44Z</time>
      </trkpt>
      <trkpt lat="36.596660" lon="-6.043311">
        <ele>51.8</ele>
        <time>2021-02-02T15:54:46Z</time>
      </trkpt>
      <trkpt lat="36.596764" lon="-6.043427">
        <ele>51.9</ele>
        <time>2021-02-02T15:54:48Z</time>
      </trkpt>
      <trkpt lat="36.596870" lon="-6.043546">
        <ele>51.9</ele>
        <time>2021-02-02T15:54:50Z</time>
      </trkpt>
      <trkpt lat="36.596973" lon="-6.043661">
        <ele>51.8</ele>
        <time>2021-02-02T15:54:52Z</time>
      </trkpt>
      <trkpt lat="36.597075" lon="-6.043775">
        <ele>51.7</ele>
        <time>2021-02-02T15:54:54Z</time>
      </trkpt>
      <trkpt lat="36.597176" lon="-6.043889">
        <ele>51.8</ele>
        <time>2021-02-02T15:54:56Z</time>
      </trkpt>
      <trkpt lat="36.597274" lon="-6.043997">
        <ele>51.8</ele>
        <time>2021-02-02T15:54:58Z</time>
      </trkpt>
      <trkpt lat="36.597374" lon="-6.044104">
        <ele>51.7</ele>
        <time>2021-02-02T15:55:00Z</time>
      </trkpt>
      <trkpt lat="36.597475" lon="-6.044212">
        <ele>51.7</ele>
        <time>2021-02-02T15:55:02Z</time>
      </trkpt>
      <trkpt lat="36.597576" lon="-6.044322">
        <ele>51.9</ele>
        <time>2021-02-02T15:55:04Z</time>
      </trkpt>
      <trkpt lat="36.597678" lon="-6.044432">
        <ele>51.9</ele>
        <time>2021-02-02T15:55:06Z</time>
      </trkpt>
      <trkpt lat="36.597782" lon="-6.044547">
        <ele>51.7</ele>
        <time>2021-02-02T15:55:08Z</time>
      </trkpt>
      <trkpt lat="36.597884" lon="-6.044661">
        <ele>51.6</ele>
        <time>2021-02-02T15:55:10Z</time>
      </trkpt>
      <trkpt lat="36.597986" lon="-6.044774">
        <ele>51.4</ele>
        <time>2021-02-02T15:55:12Z</time>
      </trkpt>
      <trkpt lat="36.598089" lon="-6.044888">
        <ele>51.5</ele>
        <time>2021-02-02T15:55:14Z</time>
      </trkpt>
      <trkpt lat="36.598195" lon="-6.045003">
        <ele>51.3</ele>
        <time>2021-02-02T15:55:16Z</time>
      </trkpt>
      <trkpt lat="36.598306" lon="-6.045115">
        <ele>51.1</ele>
        <time>2021-02-02T15:55:18Z</time>
      </trkpt>
      <trkpt lat="36.598420" lon="-6.045233">
        <ele>50.9</ele>
        <time>2021-02-02T15:55:20Z</time>
      </trkpt>
      <trkpt lat="36.598540" lon="-6.045359">
        <ele>50.4</ele>
        <time>2021-02-02T15:55:22Z</time>
      </trkpt>
      <trkpt lat="36.598670" lon="-6.045493">
        <ele>49.8</ele>
        <time>2021-02-02T15:55:24Z</time>
      </trkpt>
      <trkpt lat="36.598802" lon="-6.045629">
        <ele>49.1</ele>
        <time>2021-02-02T15:55:26Z</time>
      </trkpt>
      <trkpt lat="36.598933" lon="-6.045764">
        <ele>48.7</ele>
        <time>2021-02-02T15:55:28Z</time>
      </trkpt>
      <trkpt lat="36.599063" lon="-6.045900">
        <ele>48.0</ele>
        <time>2021-02-02T15:55:30Z</time>
      </trkpt>
      <trkpt lat="36.599190" lon="-6.046037">
        <ele>47.2</ele>
        <time>2021-02-02T15:55:32Z</time>
      </trkpt>
      <trkpt lat="36.599320" lon="-6.046174">
        <ele>46.7</ele>
        <time>2021-02-02T15:55:34Z</time>
      </trkpt>
      <trkpt lat="36.599451" lon="-6.046310">
        <ele>46.4</ele>
        <time>2021-02-02T15:55:36Z</time>
      </trkpt>
      <trkpt lat="36.599581" lon="-6.046449">
        <ele>45.8</ele>
        <time>2021-02-02T15:55:38Z</time>
      </trkpt>
      <trkpt lat="36.599712" lon="-6.046587">
        <ele>45.3</ele>
        <time>2021-02-02T15:55:40Z</time>
      </trkpt>
      <trkpt lat="36.599843" lon="-6.046727">
        <ele>44.2</ele>
        <time>2021-02-02T15:55:42Z</time>
      </trkpt>
      <trkpt lat="36.599972" lon="-6.046864">
        <ele>43.9</ele>
        <time>2021-02-02T15:55:44Z</time>
      </trkpt>
      <trkpt lat="36.600103" lon="-6.047000">
        <ele>43.4</ele>
        <time>2021-02-02T15:55:46Z</time>
      </trkpt>
      <trkpt lat="36.600227" lon="-6.047136">
        <ele>42.6</ele>
        <time>2021-02-02T15:55:48Z</time>
      </trkpt>
      <trkpt lat="36.600351" lon="-6.047270">
        <ele>42.1</ele>
        <time>2021-02-02T15:55:50Z</time>
      </trkpt>
      <trkpt lat="36.600473" lon="-6.047402">
        <ele>41.7</ele>
        <time>2021-02-02T15:55:52Z</time>
      </trkpt>
      <trkpt lat="36.600590" lon="-6.047530">
        <ele>41.3</ele>
        <time>2021-02-02T15:55:54Z</time>
      </trkpt>
      <trkpt lat="36.600707" lon="-6.047656">
        <ele>40.9</ele>
        <time>2021-02-02T15:55:56Z</time>
      </trkpt>
      <trkpt lat="36.600822" lon="-6.047781">
        <ele>40.6</ele>
        <time>2021-02-02T15:55:58Z</time>
      </trkpt>
      <trkpt lat="36.600936" lon="-6.047906">
        <ele>40.1</ele>
        <time>2021-02-02T15:56:00Z</time>
      </trkpt>
      <trkpt lat="36.601049" lon="-6.048026">
        <ele>39.8</ele>
        <time>2021-02-02T15:56:02Z</time>
      </trkpt>
      <trkpt lat="36.601162" lon="-6.048147">
        <ele>39.5</ele>
        <time>2021-02-02T15:56:04Z</time>
      </trkpt>
      <trkpt lat="36.601274" lon="-6.048267">
        <ele>39.1</ele>
        <time>2021-02-02T15:56:06Z</time>
      </trkpt>
      <trkpt lat="36.601384" lon="-6.048381">
        <ele>38.7</ele>
        <time>2021-02-02T15:56:08Z</time>
      </trkpt>
      <trkpt lat="36.601492" lon="-6.048499">
        <ele>38.4</ele>
        <time>2021-02-02T15:56:10Z</time>
      </trkpt>
      <trkpt lat="36.601604" lon="-6.048616">
        <ele>38.0</ele>
        <time>2021-02-02T15:56:12Z</time>
      </trkpt>
      <trkpt lat="36.601721" lon="-6.048739">
        <ele>37.6</ele>
        <time>2021-02-02T15:56:14Z</time>
      </trkpt>
      <trkpt lat="36.601842" lon="-6.048871">
        <ele>37.0</ele>
        <time>2021-02-02T15:56:16Z</time>
      </trkpt>
      <trkpt lat="36.601965" lon="-6.049001">
        <ele>36.4</ele>
        <time>2021-02-02T15:56:18Z</time>
      </trkpt>
      <trkpt lat="36.602085" lon="-6.049133">
        <ele>36.1</ele>
        <time>2021-02-02T15:56:20Z</time>
      </trkpt>
      <trkpt lat="36.602203" lon="-6.049260">
        <ele>35.8</ele>
        <time>2021-02-02T15:56:22Z</time>
      </trkpt>
      <trkpt lat="36.602316" lon="-6.049383">
        <ele>35.6</ele>
        <time>2021-02-02T15:56:24Z</time>
      </trkpt>
      <trkpt lat="36.602432" lon="-6.049501">
        <ele>35.3</ele>
        <time>2021-02-02T15:56:26Z</time>
      </trkpt>
      <trkpt lat="36.602542" lon="-6.049618">
        <ele>35.0</ele>
        <time>2021-02-02T15:56:28Z</time>
      </trkpt>
      <trkpt lat="36.602651" lon="-6.049734">
        <ele>34.7</ele>
        <time>2021-02-02T15:56:30Z</time>
      </trkpt>
      <trkpt lat="36.602757" lon="-6.049846">
        <ele>34.5</ele>
        <time>2021-02-02T15:56:32Z</time>
      </trkpt>
      <trkpt lat="36.602859" lon="-6.049956">
        <ele>34.4</ele>
        <time>2021-02-02T15:56:34Z</time>
      </trkpt>
      <trkpt lat="36.602962" lon="-6.050067">
        <ele>34.1</ele>
        <time>2021-02-02T15:56:36Z</time>
      </trkpt>
      <trkpt lat="36.603067" lon="-6.050176">
        <ele>34.0</ele>
        <time>2021-02-02T15:56:38Z</time>
      </trkpt>
      <trkpt lat="36.603171" lon="-6.050285">
        <ele>33.9</ele>
        <time>2021-02-02T15:56:40Z</time>
      </trkpt>
      <trkpt lat="36.603274" lon="-6.050394">
        <ele>33.9</ele>
        <time>2021-02-02T15:56:42Z</time>
      </trkpt>
      <trkpt lat="36.603378" lon="-6.050502">
        <ele>33.8</ele>
        <time>2021-02-02T15:56:44Z</time>
      </trkpt>
      <trkpt lat="36.603481" lon="-6.050607">
        <ele>33.8</ele>
        <time>2021-02-02T15:56:46Z</time>
      </trkpt>
      <trkpt lat="36.603586" lon="-6.050713">
        <ele>33.8</ele>
        <time>2021-02-02T15:56:48Z</time>
      </trkpt>
      <trkpt lat="36.603687" lon="-6.050823">
        <ele>34.0</ele>
        <time>2021-02-02T15:56:50Z</time>
      </trkpt>
      <trkpt lat="36.603780" lon="-6.050920">
        <ele>34.3</ele>
        <time>2021-02-02T15:56:52Z</time>
      </trkpt>
      <trkpt lat="36.603873" lon="-6.051017">
        <ele>34.8</ele>
        <time>2021-02-02T15:56:54Z</time>
      </trkpt>
      <trkpt lat="36.603963" lon="-6.051111">
        <ele>35.0</ele>
        <time>2021-02-02T15:56:56Z</time>
      </trkpt>
      <trkpt lat="36.604052" lon="-6.051200">
        <ele>35.1</ele>
        <time>2021-02-02T15:56:58Z</time>
      </trkpt>
      <trkpt lat="36.604142" lon="-6.051291">
        <ele>35.2</ele>
        <time>2021-02-02T15:57:00Z</time>
      </trkpt>
      <trkpt lat="36.604233" lon="-6.051385">
        <ele>35.1</ele>
        <time>2021-02-02T15:57:02Z</time>
      </trkpt>
      <trkpt lat="36.604326" lon="-6.051482">
        <ele>35.0</ele>
        <time>2021-02-02T15:57:04Z</time>
      </trkpt>
      <trkpt lat="36.604422" lon="-6.051583">
        <ele>34.9</ele>
        <time>2021-02-02T15:57:06Z</time>
      </trkpt>
      <trkpt lat="36.604521" lon="-6.051687">
        <ele>34.7</ele>
        <time>2021-02-02T15:57:08Z</time>
      </trkpt>
      <trkpt lat="36.604621" lon="-6.051791">
        <ele>34.5</ele>
        <time>2021-02-02T15:57:10Z</time>
      </trkpt>
      <trkpt lat="36.604727" lon="-6.051902">
        <ele>34.1</ele>
        <time>2021-02-02T15:57:12Z</time>
      </trkpt>
      <trkpt lat="36.604839" lon="-6.052017">
        <ele>33.8</ele>
        <time>2021-02-02T15:57:14Z</time>
      </trkpt>
      <trkpt lat="36.604946" lon="-6.052131">
        <ele>33.4</ele>
        <time>2021-02-02T15:57:16Z</time>
      </trkpt>
      <trkpt lat="36.605054" lon="-6.052246">
        <ele>32.9</ele>
        <time>2021-02-02T15:57:18Z</time>
      </trkpt>
      <trkpt lat="36.605165" lon="-6.052361">
        <ele>32.6</ele>
        <time>2021-02-02T15:57:20Z</time>
      </trkpt>
      <trkpt lat="36.605271" lon="-6.052472">
        <ele>32.3</ele>
        <time>2021-02-02T15:57:22Z</time>
      </trkpt>
      <trkpt lat="36.605370" lon="-6.052580">
        <ele>32.5</ele>
        <time>2021-02-02T15:57:24Z</time>
      </trkpt>
      <trkpt lat="36.605466" lon="-6.052683">
        <ele>32.2</ele>
        <time>2021-02-02T15:57:26Z</time>
      </trkpt>
      <trkpt lat="36.605562" lon="-6.052782">
        <ele>32.1</ele>
        <time>2021-02-02T15:57:28Z</time>
      </trkpt>
      <trkpt lat="36.605655" lon="-6.052884">
        <ele>32.2</ele>
        <time>2021-02-02T15:57:30Z</time>
      </trkpt>
      <trkpt lat="36.605748" lon="-6.052983">
        <ele>32.3</ele>
        <time>2021-02-02T15:57:32Z</time>
      </trkpt>
      <trkpt lat="36.605842" lon="-6.053084">
        <ele>32.4</ele>
        <time>2021-02-02T15:57:34Z</time>
      </trkpt>
      <trkpt lat="36.605937" lon="-6.053180">
        <ele>32.6</ele>
        <time>2021-02-02T15:57:36Z</time>
      </trkpt>
      <trkpt lat="36.606028" lon="-6.053280">
        <ele>32.7</ele>
        <time>2021-02-02T15:57:38Z</time>
      </trkpt>
      <trkpt lat="36.606118" lon="-6.053378">
        <ele>32.7</ele>
        <time>2021-02-02T15:57:40Z</time>
      </trkpt>
      <trkpt lat="36.606206" lon="-6.053474">
        <ele>32.8</ele>
        <time>2021-02-02T15:57:42Z</time>
      </trkpt>
      <trkpt lat="36.606294" lon="-6.053564">
        <ele>33.1</ele>
        <time>2021-02-02T15:57:44Z</time>
      </trkpt>
      <trkpt lat="36.606380" lon="-6.053659">
        <ele>33.2</ele>
        <time>2021-02-02T15:57:46Z</time>
      </trkpt>
      <trkpt lat="36.606468" lon="-6.053754">
        <ele>33.4</ele>
        <time>2021-02-02T15:57:48Z</time>
      </trkpt>
      <trkpt lat="36.606561" lon="-6.053848">
        <ele>33.9</ele>
        <time>2021-02-02T15:57:50Z</time>
      </trkpt>
      <trkpt lat="36.606646" lon="-6.053942">
        <ele>34.3</ele>
        <time>2021-02-02T15:57:52Z</time>
      </trkpt>
      <trkpt lat="36.606728" lon="-6.054033">
        <ele>34.6</ele>
        <time>2021-02-02T15:57:54Z</time>
      </trkpt>
      <trkpt lat="36.606810" lon="-6.054120">
        <ele>34.8</ele>
        <time>2021-02-02T15:57:56Z</time>
      </trkpt>
      <trkpt lat="36.606895" lon="-6.054208">
        <ele>35.0</ele>
        <time>2021-02-02T15:57:58Z</time>
      </trkpt>
      <trkpt lat="36.606979" lon="-6.054294">
        <ele>35.1</ele>
        <time>2021-02-02T15:58:00Z</time>
      </trkpt>
      <trkpt lat="36.607065" lon="-6.054382">
        <ele>35.3</ele>
        <time>2021-02-02T15:58:02Z</time>
      </trkpt>
      <trkpt lat="36.607153" lon="-6.054468">
        <ele>35.4</ele>
        <time>2021-02-02T15:58:04Z</time>
      </trkpt>
      <trkpt lat="36.607239" lon="-6.054559">
        <ele>35.4</ele>
        <time>2021-02-02T15:58:06Z</time>
      </trkpt>
      <trkpt lat="36.607327" lon="-6.054646">
        <ele>35.2</ele>
        <time>2021-02-02T15:58:08Z</time>
      </trkpt>
      <trkpt lat="36.607411" lon="-6.054735">
        <ele>35.1</ele>
        <time>2021-02-02T15:58:10Z</time>
      </trkpt>
      <trkpt lat="36.607496" lon="-6.054822">
        <ele>35.1</ele>
        <time>2021-02-02T15:58:12Z</time>
      </trkpt>
      <trkpt lat="36.607581" lon="-6.054909">
        <ele>35.2</ele>
        <time>2021-02-02T15:58:14Z</time>
      </trkpt>
      <trkpt lat="36.607666" lon="-6.054997">
        <ele>35.3</ele>
        <time>2021-02-02T15:58:16Z</time>
      </trkpt>
      <trkpt lat="36.607754" lon="-6.055085">
        <ele>35.4</ele>
        <time>2021-02-02T15:58:18Z</time>
      </trkpt>
      <trkpt lat="36.607840" lon="-6.055171">
        <ele>35.6</ele>
        <time>2021-02-02T15:58:20Z</time>
      </trkpt>
      <trkpt lat="36.607927" lon="-6.055258">
        <ele>35.7</ele>
        <time>2021-02-02T15:58:22Z</time>
      </trkpt>
      <trkpt lat="36.608011" lon="-6.055349">
        <ele>35.9</ele>
        <time>2021-02-02T15:58:24Z</time>
      </trkpt>
      <trkpt lat="36.608094" lon="-6.055441">
        <ele>35.9</ele>
        <time>2021-02-02T15:58:26Z</time>
      </trkpt>
      <trkpt lat="36.608179" lon="-6.055531">
        <ele>35.9</ele>
        <time>2021-02-02T15:58:28Z</time>
      </trkpt>
      <trkpt lat="36.608261" lon="-6.055622">
        <ele>36.1</ele>
        <time>2021-02-02T15:58:30Z</time>
      </trkpt>
      <trkpt lat="36.608342" lon="-6.055710">
        <ele>36.3</ele>
        <time>2021-02-02T15:58:32Z</time>
      </trkpt>
      <trkpt lat="36.608420" lon="-6.055799">
        <ele>36.4</ele>
        <time>2021-02-02T15:58:34Z</time>
      </trkpt>
      <trkpt lat="36.608498" lon="-6.055886">
        <ele>36.7</ele>
        <time>2021-02-02T15:58:36Z</time>
      </trkpt>
      <trkpt lat="36.608578" lon="-6.055969">
        <ele>36.8</ele>
        <time>2021-02-02T15:58:38Z</time>
      </trkpt>
      <trkpt lat="36.608656" lon="-6.056050">
        <ele>36.8</ele>
        <time>2021-02-02T15:58:40Z</time>
      </trkpt>
      <trkpt lat="36.608736" lon="-6.056136">
        <ele>37.3</ele>
        <time>2021-02-02T15:58:42Z</time>
      </trkpt>
      <trkpt lat="36.608818" lon="-6.056220">
        <ele>37.5</ele>
        <time>2021-02-02T15:58:44Z</time>
      </trkpt>
      <trkpt lat="36.608904" lon="-6.056301">
        <ele>37.6</ele>
        <time>2021-02-02T15:58:46Z</time>
      </trkpt>
      <trkpt lat="36.608990" lon="-6.056384">
        <ele>37.5</ele>
        <time>2021-02-02T15:58:48Z</time>
      </trkpt>
      <trkpt lat="36.609079" lon="-6.056469">
        <ele>37.5</ele>
        <time>2021-02-02T15:58:50Z</time>
      </trkpt>
      <trkpt lat="36.609172" lon="-6.056556">
        <ele>37.4</ele>
        <time>2021-02-02T15:58:52Z</time>
      </trkpt>
      <trkpt lat="36.609269" lon="-6.056641">
        <ele>37.2</ele>
        <time>2021-02-02T15:58:54Z</time>
      </trkpt>
      <trkpt lat="36.609372" lon="-6.056726">
        <ele>37.0</ele>
        <time>2021-02-02T15:58:56Z</time>
      </trkpt>
      <trkpt lat="36.609481" lon="-6.056809">
        <ele>36.6</ele>
        <time>2021-02-02T15:58:58Z</time>
      </trkpt>
      <trkpt lat="36.609598" lon="-6.056889">
        <ele>36.4</ele>
        <time>2021-02-02T15:59:00Z</time>
      </trkpt>
      <trkpt lat="36.609723" lon="-6.056964">
        <ele>35.8</ele>
        <time>2021-02-02T15:59:02Z</time>
      </trkpt>
      <trkpt lat="36.609870" lon="-6.056993">
        <ele>35.4</ele>
        <time>2021-02-02T15:59:04Z</time>
      </trkpt>
      <trkpt lat="36.610030" lon="-6.056994">
        <ele>35.1</ele>
        <time>2021-02-02T15:59:06Z</time>
      </trkpt>
      <trkpt lat="36.610194" lon="-6.056988">
        <ele>34.5</ele>
        <time>2021-02-02T15:59:08Z</time>
      </trkpt>
      <trkpt lat="36.610364" lon="-6.056977">
        <ele>34.0</ele>
        <time>2021-02-02T15:59:10Z</time>
      </trkpt>
      <trkpt lat="36.610537" lon="-6.056971">
        <ele>33.4</ele>
        <time>2021-02-02T15:59:12Z</time>
      </trkpt>
      <trkpt lat="36.610705" lon="-6.056969">
        <ele>32.7</ele>
        <time>2021-02-02T15:59:14Z</time>
      </trkpt>
      <trkpt lat="36.610872" lon="-6.056975">
        <ele>32.3</ele>
        <time>2021-02-02T15:59:16Z</time>
      </trkpt>
      <trkpt lat="36.611039" lon="-6.057004">
        <ele>31.9</ele>
        <time>2021-02-02T15:59:18Z</time>
      </trkpt>
      <trkpt lat="36.611205" lon="-6.057060">
        <ele>31.3</ele>
        <time>2021-02-02T15:59:20Z</time>
      </trkpt>
      <trkpt lat="36.611367" lon="-6.057138">
        <ele>30.7</ele>
        <time>2021-02-02T15:59:22Z</time>
      </trkpt>
      <trkpt lat="36.611519" lon="-6.057229">
        <ele>30.1</ele>
        <time>2021-02-02T15:59:24Z</time>
      </trkpt>
      <trkpt lat="36.611664" lon="-6.057325">
        <ele>29.6</ele>
        <time>2021-02-02T15:59:26Z</time>
      </trkpt>
      <trkpt lat="36.611803" lon="-6.057417">
        <ele>29.2</ele>
        <time>2021-02-02T15:59:28Z</time>
      </trkpt>
      <trkpt lat="36.611936" lon="-6.057508">
        <ele>29.0</ele>
        <time>2021-02-02T15:59:30Z</time>
      </trkpt>
      <trkpt lat="36.612064" lon="-6.057597">
        <ele>28.7</ele>
        <time>2021-02-02T15:59:32Z</time>
      </trkpt>
      <trkpt lat="36.612186" lon="-6.057681">
        <ele>28.6</ele>
        <time>2021-02-02T15:59:34Z</time>
      </trkpt>
      <trkpt lat="36.612301" lon="-6.057758">
        <ele>28.5</ele>
        <time>2021-02-02T15:59:36Z</time>
      </trkpt>
      <trkpt lat="36.612409" lon="-6.057833">
        <ele>28.6</ele>
        <time>2021-02-02T15:59:38Z</time>
      </trkpt>
      <trkpt lat="36.612514" lon="-6.057908">
        <ele>28.7</ele>
        <time>2021-02-02T15:59:40Z</time>
      </trkpt>
      <trkpt lat="36.612615" lon="-6.057979">
        <ele>28.8</ele>
        <time>2021-02-02T15:59:42Z</time>
      </trkpt>
      <trkpt lat="36.612716" lon="-6.058050">
        <ele>28.9</ele>
        <time>2021-02-02T15:59:44Z</time>
      </trkpt>
      <trkpt lat="36.612808" lon="-6.058119">
        <ele>29.0</ele>
        <time>2021-02-02T15:59:46Z</time>
      </trkpt>
      <trkpt lat="36.612898" lon="-6.058182">
        <ele>29.2</ele>
        <time>2021-02-02T15:59:48Z</time>
      </trkpt>
      <trkpt lat="36.612985" lon="-6.058243">
        <ele>29.6</ele>
        <time>2021-02-02T15:59:50Z</time>
      </trkpt>
      <trkpt lat="36.613070" lon="-6.058304">
        <ele>29.8</ele>
        <time>2021-02-02T15:59:52Z</time>
      </trkpt>
      <trkpt lat="36.613148" lon="-6.058361">
        <ele>29.9</ele>
        <time>2021-02-02T15:59:54Z</time>
      </trkpt>
      <trkpt lat="36.613264" lon="-6.058446">
        <ele>30.1</ele>
        <time>2021-02-02T15:59:57Z</time>
      </trkpt>
      <trkpt lat="36.613344" lon="-6.058509">
        <ele>30.4</ele>
        <time>2021-02-02T15:59:59Z</time>
      </trkpt>
      <trkpt lat="36.613423" lon="-6.058576">
        <ele>30.7</ele>
        <time>2021-02-02T16:00:01Z</time>
      </trkpt>
      <trkpt lat="36.613501" lon="-6.058642">
        <ele>31.0</ele>
        <time>2021-02-02T16:00:03Z</time>
      </trkpt>
      <trkpt lat="36.613582" lon="-6.058708">
        <ele>31.3</ele>
        <time>2021-02-02T16:00:05Z</time>
      </trkpt>
      <trkpt lat="36.613660" lon="-6.058781">
        <ele>31.3</ele>
        <time>2021-02-02T16:00:07Z</time>
      </trkpt>
      <trkpt lat="36.613741" lon="-6.058861">
        <ele>31.3</ele>
        <time>2021-02-02T16:00:09Z</time>
      </trkpt>
      <trkpt lat="36.613819" lon="-6.058945">
        <ele>31.7</ele>
        <time>2021-02-02T16:00:11Z</time>
      </trkpt>
      <trkpt lat="36.613896" lon="-6.059034">
        <ele>31.9</ele>
        <time>2021-02-02T16:00:13Z</time>
      </trkpt>
      <trkpt lat="36.613968" lon="-6.059127">
        <ele>32.1</ele>
        <time>2021-02-02T16:00:15Z</time>
      </trkpt>
      <trkpt lat="36.614040" lon="-6.059223">
        <ele>32.1</ele>
        <time>2021-02-02T16:00:17Z</time>
      </trkpt>
      <trkpt lat="36.614111" lon="-6.059320">
        <ele>32.4</ele>
        <time>2021-02-02T16:00:19Z</time>
      </trkpt>
      <trkpt lat="36.614184" lon="-6.059421">
        <ele>32.6</ele>
        <time>2021-02-02T16:00:21Z</time>
      </trkpt>
      <trkpt lat="36.614253" lon="-6.059522">
        <ele>32.9</ele>
        <time>2021-02-02T16:00:23Z</time>
      </trkpt>
      <trkpt lat="36.614325" lon="-6.059618">
        <ele>33.1</ele>
        <time>2021-02-02T16:00:25Z</time>
      </trkpt>
      <trkpt lat="36.614399" lon="-6.059714">
        <ele>33.2</ele>
        <time>2021-02-02T16:00:27Z</time>
      </trkpt>
      <trkpt lat="36.614472" lon="-6.059817">
        <ele>33.4</ele>
        <time>2021-02-02T16:00:29Z</time>
      </trkpt>
      <trkpt lat="36.614544" lon="-6.059917">
        <ele>33.7</ele>
        <time>2021-02-02T16:00:31Z</time>
      </trkpt>
      <trkpt lat="36.614615" lon="-6.060018">
        <ele>33.8</ele>
        <time>2021-02-02T16:00:33Z</time>
      </trkpt>
      <trkpt lat="36.614688" lon="-6.060120">
        <ele>34.1</ele>
        <time>2021-02-02T16:00:35Z</time>
      </trkpt>
      <trkpt lat="36.614762" lon="-6.060221">
        <ele>34.1</ele>
        <time>2021-02-02T16:00:37Z</time>
      </trkpt>
      <trkpt lat="36.614834" lon="-6.060319">
        <ele>34.2</ele>
        <time>2021-02-02T16:00:39Z</time>
      </trkpt>
      <trkpt lat="36.614908" lon="-6.060416">
        <ele>34.3</ele>
        <time>2021-02-02T16:00:41Z</time>
      </trkpt>
      <trkpt lat="36.614984" lon="-6.060514">
        <ele>34.4</ele>
        <time>2021-02-02T16:00:43Z</time>
      </trkpt>
      <trkpt lat="36.615059" lon="-6.060624">
        <ele>34.6</ele>
        <time>2021-02-02T16:00:45Z</time>
      </trkpt>
      <trkpt lat="36.615138" lon="-6.060731">
        <ele>34.6</ele>
        <time>2021-02-02T16:00:47Z</time>
      </trkpt>
      <trkpt lat="36.615218" lon="-6.060841">
        <ele>34.7</ele>
        <time>2021-02-02T16:00:49Z</time>
      </trkpt>
      <trkpt lat="36.615299" lon="-6.060956">
        <ele>34.7</ele>
        <time>2021-02-02T16:00:51Z</time>
      </trkpt>
      <trkpt lat="36.615379" lon="-6.061066">
        <ele>34.5</ele>
        <time>2021-02-02T16:00:53Z</time>
      </trkpt>
      <trkpt lat="36.615460" lon="-6.061176">
        <ele>34.5</ele>
        <time>2021-02-02T16:00:55Z</time>
      </trkpt>
      <trkpt lat="36.615545" lon="-6.061290">
        <ele>34.4</ele>
        <time>2021-02-02T16:00:57Z</time>
      </trkpt>
      <trkpt lat="36.615631" lon="-6.061406">
        <ele>34.2</ele>
        <time>2021-02-02T16:00:59Z</time>
      </trkpt>
      <trkpt lat="36.615715" lon="-6.061521">
        <ele>34.0</ele>
        <time>2021-02-02T16:01:01Z</time>
      </trkpt>
      <trkpt lat="36.615800" lon="-6.061635">
        <ele>33.9</ele>
        <time>2021-02-02T16:01:03Z</time>
      </trkpt>
      <trkpt lat="36.615888" lon="-6.061756">
        <ele>33.6</ele>
        <time>2021-02-02T16:01:05Z</time>
      </trkpt>
      <trkpt lat="36.615977" lon="-6.061876">
        <ele>33.6</ele>
        <time>2021-02-02T16:01:07Z</time>
      </trkpt>
      <trkpt lat="36.616068" lon="-6.061994">
        <ele>33.6</ele>
        <time>2021-02-02T16:01:09Z</time>
      </trkpt>
      <trkpt lat="36.616157" lon="-6.062116">
        <ele>33.6</ele>
        <time>2021-02-02T16:01:11Z</time>
      </trkpt>
      <trkpt lat="36.616246" lon="-6.062238">
        <ele>33.5</ele>
        <time>2021-02-02T16:01:13Z</time>
      </trkpt>
      <trkpt lat="36.616336" lon="-6.062359">
        <ele>33.2</ele>
        <time>2021-02-02T16:01:15Z</time>
      </trkpt>
      <trkpt lat="36.616426" lon="-6.062481">
        <ele>33.1</ele>
        <time>2021-02-02T16:01:17Z</time>
      </trkpt>
      <trkpt lat="36.616515" lon="-6.062602">
        <ele>32.8</ele>
        <time>2021-02-02T16:01:19Z</time>
      </trkpt>
      <trkpt lat="36.616601" lon="-6.062722">
        <ele>32.8</ele>
        <time>2021-02-02T16:01:21Z</time>
      </trkpt>
      <trkpt lat="36.616687" lon="-6.062838">
        <ele>32.8</ele>
        <time>2021-02-02T16:01:23Z</time>
      </trkpt>
      <trkpt lat="36.616770" lon="-6.062950">
        <ele>32.9</ele>
        <time>2021-02-02T16:01:25Z</time>
      </trkpt>
      <trkpt lat="36.616850" lon="-6.063059">
        <ele>33.0</ele>
        <time>2021-02-02T16:01:27Z</time>
      </trkpt>
      <trkpt lat="36.616931" lon="-6.063164">
        <ele>33.1</ele>
        <time>2021-02-02T16:01:29Z</time>
      </trkpt>
      <trkpt lat="36.617009" lon="-6.063267">
        <ele>33.2</ele>
        <time>2021-02-02T16:01:31Z</time>
      </trkpt>
      <trkpt lat="36.617089" lon="-6.063370">
        <ele>33.6</ele>
        <time>2021-02-02T16:01:33Z</time>
      </trkpt>
      <trkpt lat="36.617169" lon="-6.063474">
        <ele>33.8</ele>
        <time>2021-02-02T16:01:35Z</time>
      </trkpt>
      <trkpt lat="36.617244" lon="-6.063577">
        <ele>33.9</ele>
        <time>2021-02-02T16:01:37Z</time>
      </trkpt>
      <trkpt lat="36.617321" lon="-6.063677">
        <ele>34.0</ele>
        <time>2021-02-02T16:01:39Z</time>
      </trkpt>
      <trkpt lat="36.617396" lon="-6.063782">
        <ele>34.0</ele>
        <time>2021-02-02T16:01:41Z</time>
      </trkpt>
      <trkpt lat="36.617473" lon="-6.063885">
        <ele>34.3</ele>
        <time>2021-02-02T16:01:43Z</time>
      </trkpt>
      <trkpt lat="36.617548" lon="-6.063989">
        <ele>34.6</ele>
        <time>2021-02-02T16:01:45Z</time>
      </trkpt>
      <trkpt lat="36.617625" lon="-6.064095">
        <ele>34.8</ele>
        <time>2021-02-02T16:01:47Z</time>
      </trkpt>
      <trkpt lat="36.617705" lon="-6.064205">
        <ele>34.8</ele>
        <time>2021-02-02T16:01:49Z</time>
      </trkpt>
      <trkpt lat="36.617787" lon="-6.064314">
        <ele>34.8</ele>
        <time>2021-02-02T16:01:51Z</time>
      </trkpt>
      <trkpt lat="36.617871" lon="-6.064431">
        <ele>34.8</ele>
        <time>2021-02-02T16:01:53Z</time>
      </trkpt>
      <trkpt lat="36.617955" lon="-6.064552">
        <ele>34.4</ele>
        <time>2021-02-02T16:01:55Z</time>
      </trkpt>
      <trkpt lat="36.618039" lon="-6.064671">
        <ele>34.6</ele>
        <time>2021-02-02T16:01:57Z</time>
      </trkpt>
      <trkpt lat="36.618126" lon="-6.064781">
        <ele>34.5</ele>
        <time>2021-02-02T16:01:59Z</time>
      </trkpt>
      <trkpt lat="36.618214" lon="-6.064888">
        <ele>34.3</ele>
        <time>2021-02-02T16:02:01Z</time>
      </trkpt>
      <trkpt lat="36.618306" lon="-6.064986">
        <ele>34.4</ele>
        <time>2021-02-02T16:02:03Z</time>
      </trkpt>
      <trkpt lat="36.618402" lon="-6.065072">
        <ele>34.5</ele>
        <time>2021-02-02T16:02:05Z</time>
      </trkpt>
      <trkpt lat="36.618504" lon="-6.065149">
        <ele>34.7</ele>
        <time>2021-02-02T16:02:07Z</time>
      </trkpt>
      <trkpt lat="36.618609" lon="-6.065215">
        <ele>34.8</ele>
        <time>2021-02-02T16:02:09Z</time>
      </trkpt>
      <trkpt lat="36.618713" lon="-6.065271">
        <ele>34.8</ele>
        <time>2021-02-02T16:02:11Z</time>
      </trkpt>
      <trkpt lat="36.618809" lon="-6.065333">
        <ele>34.8</ele>
        <time>2021-02-02T16:02:13Z</time>
      </trkpt>
      <trkpt lat="36.618903" lon="-6.065414">
        <ele>34.7</ele>
        <time>2021-02-02T16:02:15Z</time>
      </trkpt>
      <trkpt lat="36.618982" lon="-6.065519">
        <ele>35.0</ele>
        <time>2021-02-02T16:02:17Z</time>
      </trkpt>
      <trkpt lat="36.619033" lon="-6.065638">
        <ele>35.1</ele>
        <time>2021-02-02T16:02:19Z</time>
      </trkpt>
      <trkpt lat="36.619061" lon="-6.065752">
        <ele>35.1</ele>
        <time>2021-02-02T16:02:21Z</time>
      </trkpt>
      <trkpt lat="36.619072" lon="-6.065889">
        <ele>35.2</ele>
        <time>2021-02-02T16:02:24Z</time>
      </trkpt>
      <trkpt lat="36.619076" lon="-6.065931">
        <ele>34.8</ele>
        <time>2021-02-02T16:02:55Z</time>
      </trkpt>
      <trkpt lat="36.622639" lon="-6.069527">
        <ele>22.7</ele>
        <time>2021-02-02T16:06:19Z</time>
      </trkpt>
      <trkpt lat="36.622710" lon="-6.069556">
        <ele>22.5</ele>
        <time>2021-02-02T16:06:20Z</time>
      </trkpt>
      <trkpt lat="36.622781" lon="-6.069585">
        <ele>22.5</ele>
        <time>2021-02-02T16:06:21Z</time>
      </trkpt>
      <trkpt lat="36.622926" lon="-6.069643">
        <ele>22.2</ele>
        <time>2021-02-02T16:06:23Z</time>
      </trkpt>
      <trkpt lat="36.623077" lon="-6.069698">
        <ele>21.6</ele>
        <time>2021-02-02T16:06:25Z</time>
      </trkpt>
      <trkpt lat="36.623236" lon="-6.069756">
        <ele>20.7</ele>
        <time>2021-02-02T16:06:27Z</time>
      </trkpt>
      <trkpt lat="36.623400" lon="-6.069809">
        <ele>19.9</ele>
        <time>2021-02-02T16:06:29Z</time>
      </trkpt>
      <trkpt lat="36.623573" lon="-6.069858">
        <ele>19.2</ele>
        <time>2021-02-02T16:06:31Z</time>
      </trkpt>
      <trkpt lat="36.623661" lon="-6.069881">
        <ele>19.0</ele>
        <time>2021-02-02T16:06:32Z</time>
      </trkpt>
      <trkpt lat="36.623750" lon="-6.069904">
        <ele>18.8</ele>
        <time>2021-02-02T16:06:33Z</time>
      </trkpt>
      <trkpt lat="36.623839" lon="-6.069925">
        <ele>18.6</ele>
        <time>2021-02-02T16:06:34Z</time>
      </trkpt>
      <trkpt lat="36.623929" lon="-6.069945">
        <ele>18.2</ele>
        <time>2021-02-02T16:06:35Z</time>
      </trkpt>
      <trkpt lat="36.624020" lon="-6.069967">
        <ele>17.5</ele>
        <time>2021-02-02T16:06:36Z</time>
      </trkpt>
      <trkpt lat="36.624112" lon="-6.069988">
        <ele>17.1</ele>
        <time>2021-02-02T16:06:37Z</time>
      </trkpt>
      <trkpt lat="36.624206" lon="-6.070007">
        <ele>16.8</ele>
        <time>2021-02-02T16:06:38Z</time>
      </trkpt>
      <trkpt lat="36.624300" lon="-6.070022">
        <ele>16.3</ele>
        <time>2021-02-02T16:06:39Z</time>
      </trkpt>
      <trkpt lat="36.624394" lon="-6.070036">
        <ele>15.8</ele>
        <time>2021-02-02T16:06:40Z</time>
      </trkpt>
      <trkpt lat="36.624488" lon="-6.070049">
        <ele>15.4</ele>
        <time>2021-02-02T16:06:41Z</time>
      </trkpt>
      <trkpt lat="36.624582" lon="-6.070061">
        <ele>15.0</ele>
        <time>2021-02-02T16:06:42Z</time>
      </trkpt>
      <trkpt lat="36.624675" lon="-6.070069">
        <ele>14.6</ele>
        <time>2021-02-02T16:06:43Z</time>
      </trkpt>
      <trkpt lat="36.624767" lon="-6.070076">
        <ele>14.3</ele>
        <time>2021-02-02T16:06:44Z</time>
      </trkpt>
      <trkpt lat="36.624861" lon="-6.070083">
        <ele>14.0</ele>
        <time>2021-02-02T16:06:45Z</time>
      </trkpt>
      <trkpt lat="36.624954" lon="-6.070089">
        <ele>13.7</ele>
        <time>2021-02-02T16:06:46Z</time>
      </trkpt>
      <trkpt lat="36.625046" lon="-6.070093">
        <ele>13.5</ele>
        <time>2021-02-02T16:06:47Z</time>
      </trkpt>
      <trkpt lat="36.625136" lon="-6.070098">
        <ele>13.3</ele>
        <time>2021-02-02T16:06:48Z</time>
      </trkpt>
      <trkpt lat="36.625312" lon="-6.070107">
        <ele>12.7</ele>
        <time>2021-02-02T16:06:50Z</time>
      </trkpt>
      <trkpt lat="36.625486" lon="-6.070118">
        <ele>12.4</ele>
        <time>2021-02-02T16:06:52Z</time>
      </trkpt>
      <trkpt lat="36.625653" lon="-6.070135">
        <ele>12.3</ele>
        <time>2021-02-02T16:06:54Z</time>
      </trkpt>
      <trkpt lat="36.625812" lon="-6.070154">
        <ele>12.5</ele>
        <time>2021-02-02T16:06:56Z</time>
      </trkpt>
      <trkpt lat="36.625964" lon="-6.070165">
        <ele>11.6</ele>
        <time>2021-02-02T16:06:58Z</time>
      </trkpt>
      <trkpt lat="36.626111" lon="-6.070170">
        <ele>11.8</ele>
        <time>2021-02-02T16:07:00Z</time>
      </trkpt>
      <trkpt lat="36.626255" lon="-6.070172">
        <ele>12.3</ele>
        <time>2021-02-02T16:07:02Z</time>
      </trkpt>
      <trkpt lat="36.626394" lon="-6.070180">
        <ele>12.8</ele>
        <time>2021-02-02T16:07:04Z</time>
      </trkpt>
      <trkpt lat="36.626528" lon="-6.070181">
        <ele>13.4</ele>
        <time>2021-02-02T16:07:06Z</time>
      </trkpt>
      <trkpt lat="36.626661" lon="-6.070179">
        <ele>13.8</ele>
        <time>2021-02-02T16:07:08Z</time>
      </trkpt>
      <trkpt lat="36.626793" lon="-6.070177">
        <ele>13.9</ele>
        <time>2021-02-02T16:07:10Z</time>
      </trkpt>
      <trkpt lat="36.626920" lon="-6.070175">
        <ele>14.4</ele>
        <time>2021-02-02T16:07:12Z</time>
      </trkpt>
      <trkpt lat="36.627040" lon="-6.070174">
        <ele>14.8</ele>
        <time>2021-02-02T16:07:14Z</time>
      </trkpt>
      <trkpt lat="36.627153" lon="-6.070173">
        <ele>15.2</ele>
        <time>2021-02-02T16:07:16Z</time>
      </trkpt>
      <trkpt lat="36.627257" lon="-6.070169">
        <ele>15.5</ele>
        <time>2021-02-02T16:07:18Z</time>
      </trkpt>
      <trkpt lat="36.627356" lon="-6.070162">
        <ele>16.1</ele>
        <time>2021-02-02T16:07:20Z</time>
      </trkpt>
      <trkpt lat="36.627462" lon="-6.070150">
        <ele>16.6</ele>
        <time>2021-02-02T16:07:22Z</time>
      </trkpt>
      <trkpt lat="36.627565" lon="-6.070132">
        <ele>17.0</ele>
        <time>2021-02-02T16:07:24Z</time>
      </trkpt>
      <trkpt lat="36.627654" lon="-6.070116">
        <ele>17.3</ele>
        <time>2021-02-02T16:07:26Z</time>
      </trkpt>
      <trkpt lat="36.627757" lon="-6.070112">
        <ele>17.7</ele>
        <time>2021-02-02T16:07:29Z</time>
      </trkpt>
      <trkpt lat="36.627855" lon="-6.070105">
        <ele>18.0</ele>
        <time>2021-02-02T16:07:32Z</time>
      </trkpt>
      <trkpt lat="36.627958" lon="-6.070102">
        <ele>18.3</ele>
        <time>2021-02-02T16:07:35Z</time>
      </trkpt>
      <trkpt lat="36.628069" lon="-6.070100">
        <ele>18.7</ele>
        <time>2021-02-02T16:07:38Z</time>
      </trkpt>
      <trkpt lat="36.628188" lon="-6.070100">
        <ele>19.1</ele>
        <time>2021-02-02T16:07:41Z</time>
      </trkpt>
      <trkpt lat="36.628303" lon="-6.070091">
        <ele>19.4</ele>
        <time>2021-02-02T16:07:44Z</time>
      </trkpt>
      <trkpt lat="36.628416" lon="-6.070090">
        <ele>19.6</ele>
        <time>2021-02-02T16:07:47Z</time>
      </trkpt>
      <trkpt lat="36.628520" lon="-6.070089">
        <ele>19.9</ele>
        <time>2021-02-02T16:07:50Z</time>
      </trkpt>
      <trkpt lat="36.628620" lon="-6.070095">
        <ele>20.2</ele>
        <time>2021-02-02T16:07:53Z</time>
      </trkpt>
      <trkpt lat="36.628720" lon="-6.070090">
        <ele>20.4</ele>
        <time>2021-02-02T16:07:56Z</time>
      </trkpt>
      <trkpt lat="36.628831" lon="-6.070085">
        <ele>20.6</ele>
        <time>2021-02-02T16:07:59Z</time>
      </trkpt>
      <trkpt lat="36.628945" lon="-6.070084">
        <ele>20.8</ele>
        <time>2021-02-02T16:08:02Z</time>
      </trkpt>
      <trkpt lat="36.629058" lon="-6.070076">
        <ele>20.8</ele>
        <time>2021-02-02T16:08:05Z</time>
      </trkpt>
      <trkpt lat="36.629179" lon="-6.070077">
        <ele>20.8</ele>
        <time>2021-02-02T16:08:08Z</time>
      </trkpt>
      <trkpt lat="36.629312" lon="-6.070073">
        <ele>20.8</ele>
        <time>2021-02-02T16:08:11Z</time>
      </trkpt>
      <trkpt lat="36.629407" lon="-6.070070">
        <ele>20.6</ele>
        <time>2021-02-02T16:08:13Z</time>
      </trkpt>
      <trkpt lat="36.629501" lon="-6.070070">
        <ele>20.4</ele>
        <time>2021-02-02T16:08:15Z</time>
      </trkpt>
      <trkpt lat="36.629594" lon="-6.070064">
        <ele>20.2</ele>
        <time>2021-02-02T16:08:17Z</time>
      </trkpt>
      <trkpt lat="36.629685" lon="-6.070063">
        <ele>20.1</ele>
        <time>2021-02-02T16:08:19Z</time>
      </trkpt>
      <trkpt lat="36.629779" lon="-6.070064">
        <ele>19.9</ele>
        <time>2021-02-02T16:08:21Z</time>
      </trkpt>
      <trkpt lat="36.629878" lon="-6.070065">
        <ele>19.7</ele>
        <time>2021-02-02T16:08:23Z</time>
      </trkpt>
      <trkpt lat="36.629978" lon="-6.070073">
        <ele>19.6</ele>
        <time>2021-02-02T16:08:25Z</time>
      </trkpt>
      <trkpt lat="36.630078" lon="-6.070087">
        <ele>19.4</ele>
        <time>2021-02-02T16:08:27Z</time>
      </trkpt>
      <trkpt lat="36.630179" lon="-6.070110">
        <ele>19.3</ele>
        <time>2021-02-02T16:08:29Z</time>
      </trkpt>
      <trkpt lat="36.630280" lon="-6.070140">
        <ele>19.1</ele>
        <time>2021-02-02T16:08:31Z</time>
      </trkpt>
      <trkpt lat="36.630378" lon="-6.070182">
        <ele>18.9</ele>
        <time>2021-02-02T16:08:33Z</time>
      </trkpt>
      <trkpt lat="36.630474" lon="-6.070227">
        <ele>18.5</ele>
        <time>2021-02-02T16:08:35Z</time>
      </trkpt>
      <trkpt lat="36.630571" lon="-6.070280">
        <ele>18.4</ele>
        <time>2021-02-02T16:08:37Z</time>
      </trkpt>
      <trkpt lat="36.630670" lon="-6.070341">
        <ele>18.2</ele>
        <time>2021-02-02T16:08:39Z</time>
      </trkpt>
      <trkpt lat="36.630768" lon="-6.070404">
        <ele>18.0</ele>
        <time>2021-02-02T16:08:41Z</time>
      </trkpt>
      <trkpt lat="36.630864" lon="-6.070464">
        <ele>17.9</ele>
        <time>2021-02-02T16:08:43Z</time>
      </trkpt>
      <trkpt lat="36.630948" lon="-6.070521">
        <ele>17.7</ele>
        <time>2021-02-02T16:08:45Z</time>
      </trkpt>
      <trkpt lat="36.631062" lon="-6.070596">
        <ele>17.3</ele>
        <time>2021-02-02T16:08:48Z</time>
      </trkpt>
      <trkpt lat="36.631143" lon="-6.070647">
        <ele>17.1</ele>
        <time>2021-02-02T16:08:50Z</time>
      </trkpt>
      <trkpt lat="36.631229" lon="-6.070707">
        <ele>16.8</ele>
        <time>2021-02-02T16:08:52Z</time>
      </trkpt>
      <trkpt lat="36.631310" lon="-6.070761">
        <ele>16.7</ele>
        <time>2021-02-02T16:08:54Z</time>
      </trkpt>
      <trkpt lat="36.631414" lon="-6.070831">
        <ele>16.4</ele>
        <time>2021-02-02T16:08:57Z</time>
      </trkpt>
      <trkpt lat="36.631510" lon="-6.070913">
        <ele>16.2</ele>
        <time>2021-02-02T16:09:00Z</time>
      </trkpt>
      <trkpt lat="36.631629" lon="-6.070992">
        <ele>15.9</ele>
        <time>2021-02-02T16:09:03Z</time>
      </trkpt>
      <trkpt lat="36.631725" lon="-6.071047">
        <ele>15.8</ele>
        <time>2021-02-02T16:09:05Z</time>
      </trkpt>
      <trkpt lat="36.631827" lon="-6.071107">
        <ele>15.7</ele>
        <time>2021-02-02T16:09:07Z</time>
      </trkpt>
      <trkpt lat="36.631930" lon="-6.071160">
        <ele>15.7</ele>
        <time>2021-02-02T16:09:09Z</time>
      </trkpt>
      <trkpt lat="36.632039" lon="-6.071219">
        <ele>15.7</ele>
        <time>2021-02-02T16:09:11Z</time>
      </trkpt>
      <trkpt lat="36.632150" lon="-6.071282">
        <ele>15.7</ele>
        <time>2021-02-02T16:09:13Z</time>
      </trkpt>
      <trkpt lat="36.632258" lon="-6.071346">
        <ele>15.5</ele>
        <time>2021-02-02T16:09:15Z</time>
      </trkpt>
      <trkpt lat="36.632364" lon="-6.071408">
        <ele>15.3</ele>
        <time>2021-02-02T16:09:17Z</time>
      </trkpt>
      <trkpt lat="36.632467" lon="-6.071472">
        <ele>15.0</ele>
        <time>2021-02-02T16:09:19Z</time>
      </trkpt>
      <trkpt lat="36.632569" lon="-6.071538">
        <ele>14.9</ele>
        <time>2021-02-02T16:09:21Z</time>
      </trkpt>
      <trkpt lat="36.632670" lon="-6.071601">
        <ele>14.8</ele>
        <time>2021-02-02T16:09:23Z</time>
      </trkpt>
      <trkpt lat="36.632769" lon="-6.071664">
        <ele>14.6</ele>
        <time>2021-02-02T16:09:25Z</time>
      </trkpt>
      <trkpt lat="36.632868" lon="-6.071727">
        <ele>14.4</ele>
        <time>2021-02-02T16:09:27Z</time>
      </trkpt>
      <trkpt lat="36.632966" lon="-6.071790">
        <ele>14.3</ele>
        <time>2021-02-02T16:09:29Z</time>
      </trkpt>
      <trkpt lat="36.633067" lon="-6.071853">
        <ele>14.2</ele>
        <time>2021-02-02T16:09:31Z</time>
      </trkpt>
      <trkpt lat="36.633170" lon="-6.071919">
        <ele>14.2</ele>
        <time>2021-02-02T16:09:33Z</time>
      </trkpt>
      <trkpt lat="36.633271" lon="-6.071987">
        <ele>14.1</ele>
        <time>2021-02-02T16:09:35Z</time>
      </trkpt>
      <trkpt lat="36.633373" lon="-6.072052">
        <ele>14.0</ele>
        <time>2021-02-02T16:09:37Z</time>
      </trkpt>
      <trkpt lat="36.633479" lon="-6.072120">
        <ele>13.9</ele>
        <time>2021-02-02T16:09:39Z</time>
      </trkpt>
      <trkpt lat="36.633587" lon="-6.072187">
        <ele>13.8</ele>
        <time>2021-02-02T16:09:41Z</time>
      </trkpt>
      <trkpt lat="36.633696" lon="-6.072256">
        <ele>13.7</ele>
        <time>2021-02-02T16:09:43Z</time>
      </trkpt>
      <trkpt lat="36.633807" lon="-6.072324">
        <ele>13.7</ele>
        <time>2021-02-02T16:09:45Z</time>
      </trkpt>
      <trkpt lat="36.633917" lon="-6.072393">
        <ele>13.6</ele>
        <time>2021-02-02T16:09:47Z</time>
      </trkpt>
      <trkpt lat="36.634026" lon="-6.072461">
        <ele>13.5</ele>
        <time>2021-02-02T16:09:49Z</time>
      </trkpt>
      <trkpt lat="36.634136" lon="-6.072532">
        <ele>13.3</ele>
        <time>2021-02-02T16:09:51Z</time>
      </trkpt>
      <trkpt lat="36.634241" lon="-6.072603">
        <ele>13.2</ele>
        <time>2021-02-02T16:09:53Z</time>
      </trkpt>
      <trkpt lat="36.634345" lon="-6.072679">
        <ele>13.2</ele>
        <time>2021-02-02T16:09:55Z</time>
      </trkpt>
      <trkpt lat="36.634445" lon="-6.072764">
        <ele>13.1</ele>
        <time>2021-02-02T16:09:57Z</time>
      </trkpt>
      <trkpt lat="36.634538" lon="-6.072861">
        <ele>13.0</ele>
        <time>2021-02-02T16:09:59Z</time>
      </trkpt>
      <trkpt lat="36.634623" lon="-6.072969">
        <ele>12.8</ele>
        <time>2021-02-02T16:10:01Z</time>
      </trkpt>
      <trkpt lat="36.634701" lon="-6.073096">
        <ele>12.8</ele>
        <time>2021-02-02T16:10:03Z</time>
      </trkpt>
      <trkpt lat="36.634772" lon="-6.073226">
        <ele>12.7</ele>
        <time>2021-02-02T16:10:05Z</time>
      </trkpt>
      <trkpt lat="36.634834" lon="-6.073362">
        <ele>12.5</ele>
        <time>2021-02-02T16:10:07Z</time>
      </trkpt>
      <trkpt lat="36.634888" lon="-6.073507">
        <ele>12.4</ele>
        <time>2021-02-02T16:10:09Z</time>
      </trkpt>
      <trkpt lat="36.634936" lon="-6.073657">
        <ele>12.4</ele>
        <time>2021-02-02T16:10:11Z</time>
      </trkpt>
      <trkpt lat="36.634986" lon="-6.073810">
        <ele>12.3</ele>
        <time>2021-02-02T16:10:13Z</time>
      </trkpt>
      <trkpt lat="36.635032" lon="-6.073963">
        <ele>12.0</ele>
        <time>2021-02-02T16:10:15Z</time>
      </trkpt>
      <trkpt lat="36.635080" lon="-6.074112">
        <ele>11.9</ele>
        <time>2021-02-02T16:10:17Z</time>
      </trkpt>
      <trkpt lat="36.635126" lon="-6.074262">
        <ele>11.6</ele>
        <time>2021-02-02T16:10:19Z</time>
      </trkpt>
      <trkpt lat="36.635170" lon="-6.074410">
        <ele>11.5</ele>
        <time>2021-02-02T16:10:21Z</time>
      </trkpt>
      <trkpt lat="36.635215" lon="-6.074554">
        <ele>11.6</ele>
        <time>2021-02-02T16:10:23Z</time>
      </trkpt>
      <trkpt lat="36.635259" lon="-6.074691">
        <ele>11.8</ele>
        <time>2021-02-02T16:10:25Z</time>
      </trkpt>
      <trkpt lat="36.635304" lon="-6.074824">
        <ele>11.8</ele>
        <time>2021-02-02T16:10:27Z</time>
      </trkpt>
      <trkpt lat="36.635362" lon="-6.074953">
        <ele>11.7</ele>
        <time>2021-02-02T16:10:29Z</time>
      </trkpt>
      <trkpt lat="36.635432" lon="-6.075070">
        <ele>11.6</ele>
        <time>2021-02-02T16:10:31Z</time>
      </trkpt>
      <trkpt lat="36.635525" lon="-6.075163">
        <ele>11.7</ele>
        <time>2021-02-02T16:10:33Z</time>
      </trkpt>
      <trkpt lat="36.635630" lon="-6.075235">
        <ele>11.5</ele>
        <time>2021-02-02T16:10:35Z</time>
      </trkpt>
      <trkpt lat="36.635738" lon="-6.075303">
        <ele>11.3</ele>
        <time>2021-02-02T16:10:37Z</time>
      </trkpt>
      <trkpt lat="36.635848" lon="-6.075374">
        <ele>11.3</ele>
        <time>2021-02-02T16:10:39Z</time>
      </trkpt>
      <trkpt lat="36.635957" lon="-6.075443">
        <ele>11.2</ele>
        <time>2021-02-02T16:10:41Z</time>
      </trkpt>
      <trkpt lat="36.636066" lon="-6.075512">
        <ele>11.0</ele>
        <time>2021-02-02T16:10:43Z</time>
      </trkpt>
      <trkpt lat="36.636182" lon="-6.075573">
        <ele>10.9</ele>
        <time>2021-02-02T16:10:45Z</time>
      </trkpt>
      <trkpt lat="36.636308" lon="-6.075640">
        <ele>10.7</ele>
        <time>2021-02-02T16:10:47Z</time>
      </trkpt>
      <trkpt lat="36.636440" lon="-6.075719">
        <ele>10.3</ele>
        <time>2021-02-02T16:10:49Z</time>
      </trkpt>
      <trkpt lat="36.636574" lon="-6.075795">
        <ele>9.9</ele>
        <time>2021-02-02T16:10:51Z</time>
      </trkpt>
      <trkpt lat="36.636709" lon="-6.075867">
        <ele>9.5</ele>
        <time>2021-02-02T16:10:53Z</time>
      </trkpt>
      <trkpt lat="36.636839" lon="-6.075938">
        <ele>9.3</ele>
        <time>2021-02-02T16:10:55Z</time>
      </trkpt>
      <trkpt lat="36.636961" lon="-6.076016">
        <ele>9.1</ele>
        <time>2021-02-02T16:10:57Z</time>
      </trkpt>
      <trkpt lat="36.637079" lon="-6.076088">
        <ele>9.0</ele>
        <time>2021-02-02T16:10:59Z</time>
      </trkpt>
      <trkpt lat="36.637192" lon="-6.076162">
        <ele>9.1</ele>
        <time>2021-02-02T16:11:01Z</time>
      </trkpt>
      <trkpt lat="36.637300" lon="-6.076231">
        <ele>9.1</ele>
        <time>2021-02-02T16:11:03Z</time>
      </trkpt>
      <trkpt lat="36.637405" lon="-6.076300">
        <ele>9.1</ele>
        <time>2021-02-02T16:11:05Z</time>
      </trkpt>
      <trkpt lat="36.637511" lon="-6.076364">
        <ele>9.1</ele>
        <time>2021-02-02T16:11:07Z</time>
      </trkpt>
      <trkpt lat="36.637618" lon="-6.076427">
        <ele>9.2</ele>
        <time>2021-02-02T16:11:09Z</time>
      </trkpt>
      <trkpt lat="36.637727" lon="-6.076491">
        <ele>9.2</ele>
        <time>2021-02-02T16:11:11Z</time>
      </trkpt>
      <trkpt lat="36.637836" lon="-6.076558">
        <ele>9.3</ele>
        <time>2021-02-02T16:11:13Z</time>
      </trkpt>
      <trkpt lat="36.637948" lon="-6.076624">
        <ele>9.3</ele>
        <time>2021-02-02T16:11:15Z</time>
      </trkpt>
      <trkpt lat="36.638058" lon="-6.076687">
        <ele>9.3</ele>
        <time>2021-02-02T16:11:17Z</time>
      </trkpt>
      <trkpt lat="36.638170" lon="-6.076755">
        <ele>9.3</ele>
        <time>2021-02-02T16:11:19Z</time>
      </trkpt>
      <trkpt lat="36.638284" lon="-6.076822">
        <ele>9.1</ele>
        <time>2021-02-02T16:11:21Z</time>
      </trkpt>
      <trkpt lat="36.638395" lon="-6.076888">
        <ele>9.1</ele>
        <time>2021-02-02T16:11:23Z</time>
      </trkpt>
      <trkpt lat="36.638507" lon="-6.076956">
        <ele>9.1</ele>
        <time>2021-02-02T16:11:25Z</time>
      </trkpt>
      <trkpt lat="36.638621" lon="-6.077024">
        <ele>9.0</ele>
        <time>2021-02-02T16:11:27Z</time>
      </trkpt>
      <trkpt lat="36.638734" lon="-6.077094">
        <ele>8.9</ele>
        <time>2021-02-02T16:11:29Z</time>
      </trkpt>
      <trkpt lat="36.638846" lon="-6.077163">
        <ele>8.8</ele>
        <time>2021-02-02T16:11:31Z</time>
      </trkpt>
      <trkpt lat="36.638961" lon="-6.077231">
        <ele>8.8</ele>
        <time>2021-02-02T16:11:33Z</time>
      </trkpt>
      <trkpt lat="36.639075" lon="-6.077302">
        <ele>8.9</ele>
        <time>2021-02-02T16:11:35Z</time>
      </trkpt>
      <trkpt lat="36.639189" lon="-6.077370">
        <ele>9.0</ele>
        <time>2021-02-02T16:11:37Z</time>
      </trkpt>
      <trkpt lat="36.639302" lon="-6.077439">
        <ele>9.1</ele>
        <time>2021-02-02T16:11:39Z</time>
      </trkpt>
      <trkpt lat="36.639414" lon="-6.077508">
        <ele>9.1</ele>
        <time>2021-02-02T16:11:41Z</time>
      </trkpt>
      <trkpt lat="36.639525" lon="-6.077578">
        <ele>9.0</ele>
        <time>2021-02-02T16:11:43Z</time>
      </trkpt>
      <trkpt lat="36.639642" lon="-6.077651">
        <ele>9.0</ele>
        <time>2021-02-02T16:11:45Z</time>
      </trkpt>
      <trkpt lat="36.639756" lon="-6.077726">
        <ele>9.0</ele>
        <time>2021-02-02T16:11:47Z</time>
      </trkpt>
      <trkpt lat="36.639871" lon="-6.077799">
        <ele>9.0</ele>
        <time>2021-02-02T16:11:49Z</time>
      </trkpt>
      <trkpt lat="36.639986" lon="-6.077873">
        <ele>9.1</ele>
        <time>2021-02-02T16:11:51Z</time>
      </trkpt>
      <trkpt lat="36.640101" lon="-6.077944">
        <ele>9.4</ele>
        <time>2021-02-02T16:11:53Z</time>
      </trkpt>
      <trkpt lat="36.640216" lon="-6.078018">
        <ele>9.4</ele>
        <time>2021-02-02T16:11:55Z</time>
      </trkpt>
      <trkpt lat="36.640330" lon="-6.078088">
        <ele>9.2</ele>
        <time>2021-02-02T16:11:57Z</time>
      </trkpt>
      <trkpt lat="36.640446" lon="-6.078155">
        <ele>9.1</ele>
        <time>2021-02-02T16:11:59Z</time>
      </trkpt>
      <trkpt lat="36.640561" lon="-6.078227">
        <ele>9.2</ele>
        <time>2021-02-02T16:12:01Z</time>
      </trkpt>
      <trkpt lat="36.640668" lon="-6.078297">
        <ele>9.1</ele>
        <time>2021-02-02T16:12:03Z</time>
      </trkpt>
      <trkpt lat="36.640775" lon="-6.078369">
        <ele>9.4</ele>
        <time>2021-02-02T16:12:05Z</time>
      </trkpt>
      <trkpt lat="36.640887" lon="-6.078438">
        <ele>9.6</ele>
        <time>2021-02-02T16:12:07Z</time>
      </trkpt>
      <trkpt lat="36.641000" lon="-6.078505">
        <ele>9.4</ele>
        <time>2021-02-02T16:12:09Z</time>
      </trkpt>
      <trkpt lat="36.641112" lon="-6.078571">
        <ele>9.7</ele>
        <time>2021-02-02T16:12:11Z</time>
      </trkpt>
      <trkpt lat="36.641227" lon="-6.078631">
        <ele>9.8</ele>
        <time>2021-02-02T16:12:13Z</time>
      </trkpt>
      <trkpt lat="36.641340" lon="-6.078697">
        <ele>9.9</ele>
        <time>2021-02-02T16:12:15Z</time>
      </trkpt>
      <trkpt lat="36.641450" lon="-6.078768">
        <ele>10.0</ele>
        <time>2021-02-02T16:12:17Z</time>
      </trkpt>
      <trkpt lat="36.641564" lon="-6.078844">
        <ele>10.0</ele>
        <time>2021-02-02T16:12:19Z</time>
      </trkpt>
      <trkpt lat="36.641677" lon="-6.078918">
        <ele>10.0</ele>
        <time>2021-02-02T16:12:21Z</time>
      </trkpt>
      <trkpt lat="36.641793" lon="-6.078992">
        <ele>10.0</ele>
        <time>2021-02-02T16:12:23Z</time>
      </trkpt>
      <trkpt lat="36.641910" lon="-6.079064">
        <ele>9.9</ele>
        <time>2021-02-02T16:12:25Z</time>
      </trkpt>
      <trkpt lat="36.642026" lon="-6.079135">
        <ele>9.9</ele>
        <time>2021-02-02T16:12:27Z</time>
      </trkpt>
      <trkpt lat="36.642141" lon="-6.079204">
        <ele>9.9</ele>
        <time>2021-02-02T16:12:29Z</time>
      </trkpt>
      <trkpt lat="36.642256" lon="-6.079276">
        <ele>9.8</ele>
        <time>2021-02-02T16:12:31Z</time>
      </trkpt>
      <trkpt lat="36.642372" lon="-6.079348">
        <ele>9.7</ele>
        <time>2021-02-02T16:12:33Z</time>
      </trkpt>
      <trkpt lat="36.642491" lon="-6.079419">
        <ele>9.8</ele>
        <time>2021-02-02T16:12:35Z</time>
      </trkpt>
      <trkpt lat="36.642609" lon="-6.079490">
        <ele>9.8</ele>
        <time>2021-02-02T16:12:37Z</time>
      </trkpt>
      <trkpt lat="36.642725" lon="-6.079559">
        <ele>9.7</ele>
        <time>2021-02-02T16:12:39Z</time>
      </trkpt>
      <trkpt lat="36.642839" lon="-6.079627">
        <ele>9.6</ele>
        <time>2021-02-02T16:12:41Z</time>
      </trkpt>
      <trkpt lat="36.642952" lon="-6.079693">
        <ele>9.7</ele>
        <time>2021-02-02T16:12:43Z</time>
      </trkpt>
      <trkpt lat="36.643062" lon="-6.079759">
        <ele>9.7</ele>
        <time>2021-02-02T16:12:45Z</time>
      </trkpt>
      <trkpt lat="36.643173" lon="-6.079822">
        <ele>9.7</ele>
        <time>2021-02-02T16:12:47Z</time>
      </trkpt>
      <trkpt lat="36.643288" lon="-6.079881">
        <ele>9.7</ele>
        <time>2021-02-02T16:12:49Z</time>
      </trkpt>
      <trkpt lat="36.643403" lon="-6.079940">
        <ele>9.8</ele>
        <time>2021-02-02T16:12:51Z</time>
      </trkpt>
      <trkpt lat="36.643518" lon="-6.079998">
        <ele>9.7</ele>
        <time>2021-02-02T16:12:53Z</time>
      </trkpt>
      <trkpt lat="36.643632" lon="-6.080055">
        <ele>9.7</ele>
        <time>2021-02-02T16:12:55Z</time>
      </trkpt>
      <trkpt lat="36.643750" lon="-6.080110">
        <ele>9.6</ele>
        <time>2021-02-02T16:12:57Z</time>
      </trkpt>
      <trkpt lat="36.643868" lon="-6.080164">
        <ele>9.6</ele>
        <time>2021-02-02T16:12:59Z</time>
      </trkpt>
      <trkpt lat="36.643989" lon="-6.080214">
        <ele>9.5</ele>
        <time>2021-02-02T16:13:01Z</time>
      </trkpt>
      <trkpt lat="36.644108" lon="-6.080267">
        <ele>9.4</ele>
        <time>2021-02-02T16:13:03Z</time>
      </trkpt>
      <trkpt lat="36.644230" lon="-6.080312">
        <ele>9.4</ele>
        <time>2021-02-02T16:13:05Z</time>
      </trkpt>
      <trkpt lat="36.644352" lon="-6.080355">
        <ele>9.5</ele>
        <time>2021-02-02T16:13:07Z</time>
      </trkpt>
      <trkpt lat="36.644473" lon="-6.080401">
        <ele>9.5</ele>
        <time>2021-02-02T16:13:09Z</time>
      </trkpt>
      <trkpt lat="36.644592" lon="-6.080443">
        <ele>9.5</ele>
        <time>2021-02-02T16:13:11Z</time>
      </trkpt>
      <trkpt lat="36.644711" lon="-6.080487">
        <ele>9.7</ele>
        <time>2021-02-02T16:13:13Z</time>
      </trkpt>
      <trkpt lat="36.644829" lon="-6.080528">
        <ele>9.7</ele>
        <time>2021-02-02T16:13:15Z</time>
      </trkpt>
      <trkpt lat="36.644947" lon="-6.080570">
        <ele>9.5</ele>
        <time>2021-02-02T16:13:17Z</time>
      </trkpt>
      <trkpt lat="36.645068" lon="-6.080598">
        <ele>9.6</ele>
        <time>2021-02-02T16:13:19Z</time>
      </trkpt>
      <trkpt lat="36.645186" lon="-6.080627">
        <ele>9.5</ele>
        <time>2021-02-02T16:13:21Z</time>
      </trkpt>
      <trkpt lat="36.645299" lon="-6.080671">
        <ele>9.5</ele>
        <time>2021-02-02T16:13:23Z</time>
      </trkpt>
      <trkpt lat="36.645415" lon="-6.080717">
        <ele>9.6</ele>
        <time>2021-02-02T16:13:25Z</time>
      </trkpt>
      <trkpt lat="36.645538" lon="-6.080752">
        <ele>9.6</ele>
        <time>2021-02-02T16:13:27Z</time>
      </trkpt>
      <trkpt lat="36.645665" lon="-6.080783">
        <ele>9.7</ele>
        <time>2021-02-02T16:13:29Z</time>
      </trkpt>
      <trkpt lat="36.645792" lon="-6.080804">
        <ele>9.6</ele>
        <time>2021-02-02T16:13:31Z</time>
      </trkpt>
      <trkpt lat="36.645921" lon="-6.080819">
        <ele>9.5</ele>
        <time>2021-02-02T16:13:33Z</time>
      </trkpt>
      <trkpt lat="36.646051" lon="-6.080829">
        <ele>9.5</ele>
        <time>2021-02-02T16:13:35Z</time>
      </trkpt>
      <trkpt lat="36.646183" lon="-6.080832">
        <ele>9.3</ele>
        <time>2021-02-02T16:13:37Z</time>
      </trkpt>
      <trkpt lat="36.646310" lon="-6.080825">
        <ele>9.2</ele>
        <time>2021-02-02T16:13:39Z</time>
      </trkpt>
      <trkpt lat="36.646432" lon="-6.080817">
        <ele>9.1</ele>
        <time>2021-02-02T16:13:41Z</time>
      </trkpt>
      <trkpt lat="36.646558" lon="-6.080803">
        <ele>9.0</ele>
        <time>2021-02-02T16:13:43Z</time>
      </trkpt>
      <trkpt lat="36.646684" lon="-6.080779">
        <ele>9.0</ele>
        <time>2021-02-02T16:13:45Z</time>
      </trkpt>
      <trkpt lat="36.646810" lon="-6.080749">
        <ele>9.1</ele>
        <time>2021-02-02T16:13:47Z</time>
      </trkpt>
      <trkpt lat="36.646935" lon="-6.080717">
        <ele>9.1</ele>
        <time>2021-02-02T16:13:49Z</time>
      </trkpt>
      <trkpt lat="36.647058" lon="-6.080676">
        <ele>9.2</ele>
        <time>2021-02-02T16:13:51Z</time>
      </trkpt>
      <trkpt lat="36.647181" lon="-6.080628">
        <ele>9.3</ele>
        <time>2021-02-02T16:13:53Z</time>
      </trkpt>
      <trkpt lat="36.647302" lon="-6.080572">
        <ele>9.3</ele>
        <time>2021-02-02T16:13:55Z</time>
      </trkpt>
      <trkpt lat="36.647422" lon="-6.080516">
        <ele>9.4</ele>
        <time>2021-02-02T16:13:57Z</time>
      </trkpt>
      <trkpt lat="36.647542" lon="-6.080460">
        <ele>9.4</ele>
        <time>2021-02-02T16:13:59Z</time>
      </trkpt>
      <trkpt lat="36.647660" lon="-6.080400">
        <ele>9.5</ele>
        <time>2021-02-02T16:14:01Z</time>
      </trkpt>
      <trkpt lat="36.647779" lon="-6.080343">
        <ele>9.5</ele>
        <time>2021-02-02T16:14:03Z</time>
      </trkpt>
      <trkpt lat="36.647890" lon="-6.080291">
        <ele>9.4</ele>
        <time>2021-02-02T16:14:05Z</time>
      </trkpt>
      <trkpt lat="36.648001" lon="-6.080242">
        <ele>9.3</ele>
        <time>2021-02-02T16:14:07Z</time>
      </trkpt>
      <trkpt lat="36.648112" lon="-6.080194">
        <ele>9.3</ele>
        <time>2021-02-02T16:14:09Z</time>
      </trkpt>
      <trkpt lat="36.648226" lon="-6.080158">
        <ele>9.3</ele>
        <time>2021-02-02T16:14:11Z</time>
      </trkpt>
      <trkpt lat="36.648339" lon="-6.080125">
        <ele>9.2</ele>
        <time>2021-02-02T16:14:13Z</time>
      </trkpt>
      <trkpt lat="36.648454" lon="-6.080104">
        <ele>9.3</ele>
        <time>2021-02-02T16:14:15Z</time>
      </trkpt>
      <trkpt lat="36.648567" lon="-6.080094">
        <ele>9.4</ele>
        <time>2021-02-02T16:14:17Z</time>
      </trkpt>
      <trkpt lat="36.648675" lon="-6.080093">
        <ele>9.4</ele>
        <time>2021-02-02T16:14:19Z</time>
      </trkpt>
      <trkpt lat="36.648787" lon="-6.080098">
        <ele>9.4</ele>
        <time>2021-02-02T16:14:21Z</time>
      </trkpt>
      <trkpt lat="36.648897" lon="-6.080110">
        <ele>9.2</ele>
        <time>2021-02-02T16:14:23Z</time>
      </trkpt>
      <trkpt lat="36.649005" lon="-6.080133">
        <ele>9.3</ele>
        <time>2021-02-02T16:14:25Z</time>
      </trkpt>
      <trkpt lat="36.649110" lon="-6.080157">
        <ele>9.4</ele>
        <time>2021-02-02T16:14:27Z</time>
      </trkpt>
      <trkpt lat="36.649214" lon="-6.080187">
        <ele>9.4</ele>
        <time>2021-02-02T16:14:29Z</time>
      </trkpt>
      <trkpt lat="36.649319" lon="-6.080209">
        <ele>9.6</ele>
        <time>2021-02-02T16:14:31Z</time>
      </trkpt>
      <trkpt lat="36.649426" lon="-6.080227">
        <ele>9.8</ele>
        <time>2021-02-02T16:14:33Z</time>
      </trkpt>
      <trkpt lat="36.649523" lon="-6.080265">
        <ele>9.9</ele>
        <time>2021-02-02T16:14:35Z</time>
      </trkpt>
      <trkpt lat="36.649612" lon="-6.080315">
        <ele>10.0</ele>
        <time>2021-02-02T16:14:37Z</time>
      </trkpt>
      <trkpt lat="36.649703" lon="-6.080375">
        <ele>10.1</ele>
        <time>2021-02-02T16:14:39Z</time>
      </trkpt>
      <trkpt lat="36.649778" lon="-6.080468">
        <ele>10.1</ele>
        <time>2021-02-02T16:14:41Z</time>
      </trkpt>
      <trkpt lat="36.649818" lon="-6.080586">
        <ele>10.2</ele>
        <time>2021-02-02T16:14:43Z</time>
      </trkpt>
      <trkpt lat="36.649812" lon="-6.080718">
        <ele>10.2</ele>
        <time>2021-02-02T16:14:45Z</time>
      </trkpt>
      <trkpt lat="36.649781" lon="-6.080850">
        <ele>10.2</ele>
        <time>2021-02-02T16:14:47Z</time>
      </trkpt>
      <trkpt lat="36.649754" lon="-6.080987">
        <ele>10.1</ele>
        <time>2021-02-02T16:14:49Z</time>
      </trkpt>
      <trkpt lat="36.649737" lon="-6.081130">
        <ele>10.1</ele>
        <time>2021-02-02T16:14:51Z</time>
      </trkpt>
      <trkpt lat="36.649724" lon="-6.081276">
        <ele>10.0</ele>
        <time>2021-02-02T16:14:53Z</time>
      </trkpt>
      <trkpt lat="36.649711" lon="-6.081419">
        <ele>10.0</ele>
        <time>2021-02-02T16:14:55Z</time>
      </trkpt>
      <trkpt lat="36.649695" lon="-6.081556">
        <ele>10.0</ele>
        <time>2021-02-02T16:14:57Z</time>
      </trkpt>
      <trkpt lat="36.649664" lon="-6.081690">
        <ele>9.9</ele>
        <time>2021-02-02T16:14:59Z</time>
      </trkpt>
      <trkpt lat="36.649637" lon="-6.081824">
        <ele>10.0</ele>
        <time>2021-02-02T16:15:01Z</time>
      </trkpt>
      <trkpt lat="36.649602" lon="-6.081949">
        <ele>9.8</ele>
        <time>2021-02-02T16:15:03Z</time>
      </trkpt>
      <trkpt lat="36.649582" lon="-6.082082">
        <ele>9.7</ele>
        <time>2021-02-02T16:15:05Z</time>
      </trkpt>
      <trkpt lat="36.649569" lon="-6.082224">
        <ele>9.8</ele>
        <time>2021-02-02T16:15:07Z</time>
      </trkpt>
      <trkpt lat="36.649539" lon="-6.082362">
        <ele>10.0</ele>
        <time>2021-02-02T16:15:09Z</time>
      </trkpt>
      <trkpt lat="36.649505" lon="-6.082493">
        <ele>10.1</ele>
        <time>2021-02-02T16:15:11Z</time>
      </trkpt>
      <trkpt lat="36.649470" lon="-6.082626">
        <ele>10.1</ele>
        <time>2021-02-02T16:15:13Z</time>
      </trkpt>
      <trkpt lat="36.649424" lon="-6.082747">
        <ele>10.3</ele>
        <time>2021-02-02T16:15:15Z</time>
      </trkpt>
      <trkpt lat="36.649364" lon="-6.082855">
        <ele>10.6</ele>
        <time>2021-02-02T16:15:17Z</time>
      </trkpt>
      <trkpt lat="36.649296" lon="-6.082953">
        <ele>10.7</ele>
        <time>2021-02-02T16:15:19Z</time>
      </trkpt>
      <trkpt lat="36.649239" lon="-6.083051">
        <ele>10.9</ele>
        <time>2021-02-02T16:15:21Z</time>
      </trkpt>
      <trkpt lat="36.649202" lon="-6.083160">
        <ele>11.1</ele>
        <time>2021-02-02T16:15:23Z</time>
      </trkpt>
      <trkpt lat="36.649195" lon="-6.083277">
        <ele>11.1</ele>
        <time>2021-02-02T16:15:25Z</time>
      </trkpt>
      <trkpt lat="36.649210" lon="-6.083392">
        <ele>11.2</ele>
        <time>2021-02-02T16:15:27Z</time>
      </trkpt>
      <trkpt lat="36.649274" lon="-6.083481">
        <ele>11.2</ele>
        <time>2021-02-02T16:15:29Z</time>
      </trkpt>
      <trkpt lat="36.649357" lon="-6.083543">
        <ele>11.2</ele>
        <time>2021-02-02T16:15:31Z</time>
      </trkpt>
      <trkpt lat="36.649447" lon="-6.083569">
        <ele>11.4</ele>
        <time>2021-02-02T16:15:33Z</time>
      </trkpt>
      <trkpt lat="36.649575" lon="-6.083601">
        <ele>11.7</ele>
        <time>2021-02-02T16:15:36Z</time>
      </trkpt>
      <trkpt lat="36.649664" lon="-6.083627">
        <ele>12.1</ele>
        <time>2021-02-02T16:15:38Z</time>
      </trkpt>
      <trkpt lat="36.649757" lon="-6.083649">
        <ele>12.5</ele>
        <time>2021-02-02T16:15:40Z</time>
      </trkpt>
      <trkpt lat="36.649853" lon="-6.083669">
        <ele>12.9</ele>
        <time>2021-02-02T16:15:42Z</time>
      </trkpt>
      <trkpt lat="36.649949" lon="-6.083691">
        <ele>13.2</ele>
        <time>2021-02-02T16:15:44Z</time>
      </trkpt>
      <trkpt lat="36.650041" lon="-6.083713">
        <ele>13.6</ele>
        <time>2021-02-02T16:15:46Z</time>
      </trkpt>
      <trkpt lat="36.650132" lon="-6.083733">
        <ele>13.9</ele>
        <time>2021-02-02T16:15:48Z</time>
      </trkpt>
      <trkpt lat="36.650227" lon="-6.083756">
        <ele>14.4</ele>
        <time>2021-02-02T16:15:50Z</time>
      </trkpt>
      <trkpt lat="36.650331" lon="-6.083776">
        <ele>14.4</ele>
        <time>2021-02-02T16:15:52Z</time>
      </trkpt>
      <trkpt lat="36.650445" lon="-6.083800">
        <ele>14.3</ele>
        <time>2021-02-02T16:15:54Z</time>
      </trkpt>
      <trkpt lat="36.650566" lon="-6.083827">
        <ele>14.1</ele>
        <time>2021-02-02T16:15:56Z</time>
      </trkpt>
      <trkpt lat="36.650696" lon="-6.083855">
        <ele>13.9</ele>
        <time>2021-02-02T16:15:58Z</time>
      </trkpt>
      <trkpt lat="36.650831" lon="-6.083885">
        <ele>13.5</ele>
        <time>2021-02-02T16:16:00Z</time>
      </trkpt>
      <trkpt lat="36.650976" lon="-6.083914">
        <ele>12.9</ele>
        <time>2021-02-02T16:16:02Z</time>
      </trkpt>
      <trkpt lat="36.651126" lon="-6.083932">
        <ele>12.3</ele>
        <time>2021-02-02T16:16:04Z</time>
      </trkpt>
      <trkpt lat="36.651267" lon="-6.083926">
        <ele>11.9</ele>
        <time>2021-02-02T16:16:06Z</time>
      </trkpt>
      <trkpt lat="36.651400" lon="-6.083866">
        <ele>11.6</ele>
        <time>2021-02-02T16:16:08Z</time>
      </trkpt>
      <trkpt lat="36.651528" lon="-6.083784">
        <ele>11.4</ele>
        <time>2021-02-02T16:16:10Z</time>
      </trkpt>
      <trkpt lat="36.651658" lon="-6.083731">
        <ele>11.3</ele>
        <time>2021-02-02T16:16:12Z</time>
      </trkpt>
      <trkpt lat="36.651786" lon="-6.083710">
        <ele>11.0</ele>
        <time>2021-02-02T16:16:14Z</time>
      </trkpt>
      <trkpt lat="36.651910" lon="-6.083693">
        <ele>10.9</ele>
        <time>2021-02-02T16:16:16Z</time>
      </trkpt>
      <trkpt lat="36.652036" lon="-6.083677">
        <ele>10.9</ele>
        <time>2021-02-02T16:16:18Z</time>
      </trkpt>
      <trkpt lat="36.652160" lon="-6.083659">
        <ele>10.9</ele>
        <time>2021-02-02T16:16:20Z</time>
      </trkpt>
      <trkpt lat="36.652283" lon="-6.083640">
        <ele>11.0</ele>
        <time>2021-02-02T16:16:22Z</time>
      </trkpt>
      <trkpt lat="36.652402" lon="-6.083621">
        <ele>11.0</ele>
        <time>2021-02-02T16:16:24Z</time>
      </trkpt>
      <trkpt lat="36.652520" lon="-6.083604">
        <ele>11.0</ele>
        <time>2021-02-02T16:16:26Z</time>
      </trkpt>
      <trkpt lat="36.652633" lon="-6.083586">
        <ele>11.0</ele>
        <time>2021-02-02T16:16:28Z</time>
      </trkpt>
      <trkpt lat="36.652742" lon="-6.083564">
        <ele>11.0</ele>
        <time>2021-02-02T16:16:30Z</time>
      </trkpt>
      <trkpt lat="36.652849" lon="-6.083536">
        <ele>10.9</ele>
        <time>2021-02-02T16:16:32Z</time>
      </trkpt>
      <trkpt lat="36.652969" lon="-6.083523">
        <ele>10.9</ele>
        <time>2021-02-02T16:16:34Z</time>
      </trkpt>
      <trkpt lat="36.653047" lon="-6.083437">
        <ele>11.1</ele>
        <time>2021-02-02T16:16:36Z</time>
      </trkpt>
      <trkpt lat="36.653142" lon="-6.083355">
        <ele>11.2</ele>
        <time>2021-02-02T16:16:38Z</time>
      </trkpt>
      <trkpt lat="36.653240" lon="-6.083275">
        <ele>11.4</ele>
        <time>2021-02-02T16:16:40Z</time>
      </trkpt>
      <trkpt lat="36.653338" lon="-6.083195">
        <ele>11.4</ele>
        <time>2021-02-02T16:16:42Z</time>
      </trkpt>
      <trkpt lat="36.653438" lon="-6.083119">
        <ele>11.5</ele>
        <time>2021-02-02T16:16:44Z</time>
      </trkpt>
      <trkpt lat="36.653539" lon="-6.083040">
        <ele>11.7</ele>
        <time>2021-02-02T16:16:46Z</time>
      </trkpt>
      <trkpt lat="36.653632" lon="-6.082961">
        <ele>11.8</ele>
        <time>2021-02-02T16:16:48Z</time>
      </trkpt>
      <trkpt lat="36.653715" lon="-6.082881">
        <ele>11.9</ele>
        <time>2021-02-02T16:16:50Z</time>
      </trkpt>
      <trkpt lat="36.653795" lon="-6.082798">
        <ele>12.0</ele>
        <time>2021-02-02T16:16:52Z</time>
      </trkpt>
      <trkpt lat="36.653865" lon="-6.082716">
        <ele>12.2</ele>
        <time>2021-02-02T16:16:54Z</time>
      </trkpt>
      <trkpt lat="36.653924" lon="-6.082619">
        <ele>12.5</ele>
        <time>2021-02-02T16:16:56Z</time>
      </trkpt>
      <trkpt lat="36.653979" lon="-6.082514">
        <ele>12.8</ele>
        <time>2021-02-02T16:16:58Z</time>
      </trkpt>
      <trkpt lat="36.654029" lon="-6.082411">
        <ele>13.1</ele>
        <time>2021-02-02T16:17:00Z</time>
      </trkpt>
      <trkpt lat="36.654080" lon="-6.082307">
        <ele>13.4</ele>
        <time>2021-02-02T16:17:02Z</time>
      </trkpt>
      <trkpt lat="36.654130" lon="-6.082211">
        <ele>13.8</ele>
        <time>2021-02-02T16:17:04Z</time>
      </trkpt>
      <trkpt lat="36.654180" lon="-6.082114">
        <ele>14.2</ele>
        <time>2021-02-02T16:17:06Z</time>
      </trkpt>
      <trkpt lat="36.654225" lon="-6.082017">
        <ele>14.4</ele>
        <time>2021-02-02T16:17:08Z</time>
      </trkpt>
      <trkpt lat="36.654293" lon="-6.081879">
        <ele>14.9</ele>
        <time>2021-02-02T16:17:11Z</time>
      </trkpt>
      <trkpt lat="36.654362" lon="-6.081747">
        <ele>15.6</ele>
        <time>2021-02-02T16:17:14Z</time>
      </trkpt>
      <trkpt lat="36.654409" lon="-6.081651">
        <ele>16.0</ele>
        <time>2021-02-02T16:17:16Z</time>
      </trkpt>
      <trkpt lat="36.654476" lon="-6.081509">
        <ele>16.3</ele>
        <time>2021-02-02T16:17:19Z</time>
      </trkpt>
      <trkpt lat="36.654542" lon="-6.081368">
        <ele>16.9</ele>
        <time>2021-02-02T16:17:22Z</time>
      </trkpt>
      <trkpt lat="36.654611" lon="-6.081232">
        <ele>17.4</ele>
        <time>2021-02-02T16:17:25Z</time>
      </trkpt>
      <trkpt lat="36.654675" lon="-6.081096">
        <ele>18.1</ele>
        <time>2021-02-02T16:17:28Z</time>
      </trkpt>
      <trkpt lat="36.654740" lon="-6.080960">
        <ele>18.6</ele>
        <time>2021-02-02T16:17:31Z</time>
      </trkpt>
      <trkpt lat="36.654808" lon="-6.080820">
        <ele>19.1</ele>
        <time>2021-02-02T16:17:34Z</time>
      </trkpt>
      <trkpt lat="36.654874" lon="-6.080677">
        <ele>19.5</ele>
        <time>2021-02-02T16:17:37Z</time>
      </trkpt>
      <trkpt lat="36.654947" lon="-6.080542">
        <ele>19.8</ele>
        <time>2021-02-02T16:17:40Z</time>
      </trkpt>
      <trkpt lat="36.654995" lon="-6.080443">
        <ele>20.0</ele>
        <time>2021-02-02T16:17:42Z</time>
      </trkpt>
      <trkpt lat="36.655042" lon="-6.080344">
        <ele>20.1</ele>
        <time>2021-02-02T16:17:44Z</time>
      </trkpt>
      <trkpt lat="36.655092" lon="-6.080246">
        <ele>20.2</ele>
        <time>2021-02-02T16:17:46Z</time>
      </trkpt>
      <trkpt lat="36.655143" lon="-6.080144">
        <ele>20.2</ele>
        <time>2021-02-02T16:17:48Z</time>
      </trkpt>
      <trkpt lat="36.655191" lon="-6.080042">
        <ele>20.4</ele>
        <time>2021-02-02T16:17:50Z</time>
      </trkpt>
      <trkpt lat="36.655237" lon="-6.079936">
        <ele>20.4</ele>
        <time>2021-02-02T16:17:52Z</time>
      </trkpt>
      <trkpt lat="36.655287" lon="-6.079836">
        <ele>20.4</ele>
        <time>2021-02-02T16:17:54Z</time>
      </trkpt>
      <trkpt lat="36.655341" lon="-6.079742">
        <ele>20.6</ele>
        <time>2021-02-02T16:17:56Z</time>
      </trkpt>
      <trkpt lat="36.655391" lon="-6.079644">
        <ele>20.8</ele>
        <time>2021-02-02T16:17:58Z</time>
      </trkpt>
      <trkpt lat="36.655445" lon="-6.079539">
        <ele>20.9</ele>
        <time>2021-02-02T16:18:00Z</time>
      </trkpt>
      <trkpt lat="36.655499" lon="-6.079430">
        <ele>21.5</ele>
        <time>2021-02-02T16:18:02Z</time>
      </trkpt>
      <trkpt lat="36.655550" lon="-6.079326">
        <ele>21.3</ele>
        <time>2021-02-02T16:18:04Z</time>
      </trkpt>
      <trkpt lat="36.655600" lon="-6.079226">
        <ele>21.2</ele>
        <time>2021-02-02T16:18:06Z</time>
      </trkpt>
      <trkpt lat="36.655646" lon="-6.079128">
        <ele>21.2</ele>
        <time>2021-02-02T16:18:08Z</time>
      </trkpt>
      <trkpt lat="36.655707" lon="-6.078992">
        <ele>21.7</ele>
        <time>2021-02-02T16:18:11Z</time>
      </trkpt>
      <trkpt lat="36.655768" lon="-6.078867">
        <ele>22.3</ele>
        <time>2021-02-02T16:18:14Z</time>
      </trkpt>
      <trkpt lat="36.655823" lon="-6.078746">
        <ele>22.9</ele>
        <time>2021-02-02T16:18:17Z</time>
      </trkpt>
      <trkpt lat="36.655875" lon="-6.078634">
        <ele>23.8</ele>
        <time>2021-02-02T16:18:20Z</time>
      </trkpt>
      <trkpt lat="36.655925" lon="-6.078521">
        <ele>24.5</ele>
        <time>2021-02-02T16:18:23Z</time>
      </trkpt>
      <trkpt lat="36.655979" lon="-6.078406">
        <ele>25.2</ele>
        <time>2021-02-02T16:18:26Z</time>
      </trkpt>
      <trkpt lat="36.656030" lon="-6.078295">
        <ele>26.0</ele>
        <time>2021-02-02T16:18:29Z</time>
      </trkpt>
      <trkpt lat="36.656081" lon="-6.078190">
        <ele>26.8</ele>
        <time>2021-02-02T16:18:32Z</time>
      </trkpt>
      <trkpt lat="36.656129" lon="-6.078081">
        <ele>27.6</ele>
        <time>2021-02-02T16:18:35Z</time>
      </trkpt>
      <trkpt lat="36.656182" lon="-6.077973">
        <ele>28.4</ele>
        <time>2021-02-02T16:18:38Z</time>
      </trkpt>
      <trkpt lat="36.656234" lon="-6.077859">
        <ele>29.1</ele>
        <time>2021-02-02T16:18:41Z</time>
      </trkpt>
      <trkpt lat="36.656288" lon="-6.077747">
        <ele>30.0</ele>
        <time>2021-02-02T16:18:44Z</time>
      </trkpt>
      <trkpt lat="36.656342" lon="-6.077633">
        <ele>30.7</ele>
        <time>2021-02-02T16:18:47Z</time>
      </trkpt>
      <trkpt lat="36.656397" lon="-6.077519">
        <ele>31.4</ele>
        <time>2021-02-02T16:18:50Z</time>
      </trkpt>
      <trkpt lat="36.656456" lon="-6.077405">
        <ele>32.0</ele>
        <time>2021-02-02T16:18:53Z</time>
      </trkpt>
      <trkpt lat="36.656516" lon="-6.077288">
        <ele>32.6</ele>
        <time>2021-02-02T16:18:56Z</time>
      </trkpt>
      <trkpt lat="36.656573" lon="-6.077169">
        <ele>33.2</ele>
        <time>2021-02-02T16:18:59Z</time>
      </trkpt>
      <trkpt lat="36.656631" lon="-6.077053">
        <ele>33.7</ele>
        <time>2021-02-02T16:19:02Z</time>
      </trkpt>
      <trkpt lat="36.656689" lon="-6.076939">
        <ele>34.4</ele>
        <time>2021-02-02T16:19:05Z</time>
      </trkpt>
      <trkpt lat="36.656746" lon="-6.076829">
        <ele>34.8</ele>
        <time>2021-02-02T16:19:08Z</time>
      </trkpt>
      <trkpt lat="36.656800" lon="-6.076715">
        <ele>35.3</ele>
        <time>2021-02-02T16:19:11Z</time>
      </trkpt>
      <trkpt lat="36.656852" lon="-6.076599">
        <ele>35.7</ele>
        <time>2021-02-02T16:19:14Z</time>
      </trkpt>
      <trkpt lat="36.656909" lon="-6.076485">
        <ele>36.4</ele>
        <time>2021-02-02T16:19:17Z</time>
      </trkpt>
      <trkpt lat="36.656965" lon="-6.076371">
        <ele>37.0</ele>
        <time>2021-02-02T16:19:20Z</time>
      </trkpt>
      <trkpt lat="36.657017" lon="-6.076258">
        <ele>37.7</ele>
        <time>2021-02-02T16:19:23Z</time>
      </trkpt>
      <trkpt lat="36.657069" lon="-6.076148">
        <ele>38.3</ele>
        <time>2021-02-02T16:19:26Z</time>
      </trkpt>
      <trkpt lat="36.657121" lon="-6.076038">
        <ele>39.1</ele>
        <time>2021-02-02T16:19:29Z</time>
      </trkpt>
      <trkpt lat="36.657168" lon="-6.075939">
        <ele>39.9</ele>
        <time>2021-02-02T16:19:32Z</time>
      </trkpt>
      <trkpt lat="36.657213" lon="-6.075841">
        <ele>40.6</ele>
        <time>2021-02-02T16:19:35Z</time>
      </trkpt>
      <trkpt lat="36.657274" lon="-6.075715">
        <ele>41.6</ele>
        <time>2021-02-02T16:19:39Z</time>
      </trkpt>
      <trkpt lat="36.657329" lon="-6.075589">
        <ele>42.7</ele>
        <time>2021-02-02T16:19:43Z</time>
      </trkpt>
      <trkpt lat="36.657386" lon="-6.075461">
        <ele>43.9</ele>
        <time>2021-02-02T16:19:47Z</time>
      </trkpt>
      <trkpt lat="36.657445" lon="-6.075332">
        <ele>45.1</ele>
        <time>2021-02-02T16:19:51Z</time>
      </trkpt>
      <trkpt lat="36.657490" lon="-6.075234">
        <ele>46.0</ele>
        <time>2021-02-02T16:19:54Z</time>
      </trkpt>
      <trkpt lat="36.657552" lon="-6.075107">
        <ele>47.1</ele>
        <time>2021-02-02T16:19:58Z</time>
      </trkpt>
      <trkpt lat="36.657603" lon="-6.075010">
        <ele>48.1</ele>
        <time>2021-02-02T16:20:01Z</time>
      </trkpt>
      <trkpt lat="36.657659" lon="-6.074916">
        <ele>48.9</ele>
        <time>2021-02-02T16:20:04Z</time>
      </trkpt>
      <trkpt lat="36.657722" lon="-6.074827">
        <ele>49.7</ele>
        <time>2021-02-02T16:20:07Z</time>
      </trkpt>
      <trkpt lat="36.657790" lon="-6.074745">
        <ele>50.4</ele>
        <time>2021-02-02T16:20:10Z</time>
      </trkpt>
      <trkpt lat="36.657867" lon="-6.074680">
        <ele>51.1</ele>
        <time>2021-02-02T16:20:13Z</time>
      </trkpt>
      <trkpt lat="36.657951" lon="-6.074633">
        <ele>51.7</ele>
        <time>2021-02-02T16:20:16Z</time>
      </trkpt>
      <trkpt lat="36.658048" lon="-6.074591">
        <ele>52.3</ele>
        <time>2021-02-02T16:20:19Z</time>
      </trkpt>
      <trkpt lat="36.658157" lon="-6.074545">
        <ele>52.5</ele>
        <time>2021-02-02T16:20:22Z</time>
      </trkpt>
      <trkpt lat="36.658275" lon="-6.074496">
        <ele>52.8</ele>
        <time>2021-02-02T16:20:25Z</time>
      </trkpt>
      <trkpt lat="36.658397" lon="-6.074437">
        <ele>53.0</ele>
        <time>2021-02-02T16:20:28Z</time>
      </trkpt>
      <trkpt lat="36.658510" lon="-6.074359">
        <ele>53.3</ele>
        <time>2021-02-02T16:20:31Z</time>
      </trkpt>
      <trkpt lat="36.658607" lon="-6.074255">
        <ele>53.5</ele>
        <time>2021-02-02T16:20:34Z</time>
      </trkpt>
      <trkpt lat="36.658688" lon="-6.074136">
        <ele>53.8</ele>
        <time>2021-02-02T16:20:37Z</time>
      </trkpt>
      <trkpt lat="36.658764" lon="-6.074016">
        <ele>53.9</ele>
        <time>2021-02-02T16:20:40Z</time>
      </trkpt>
      <trkpt lat="36.658832" lon="-6.073895">
        <ele>54.2</ele>
        <time>2021-02-02T16:20:43Z</time>
      </trkpt>
      <trkpt lat="36.658909" lon="-6.073778">
        <ele>54.1</ele>
        <time>2021-02-02T16:20:46Z</time>
      </trkpt>
      <trkpt lat="36.659004" lon="-6.073669">
        <ele>54.0</ele>
        <time>2021-02-02T16:20:49Z</time>
      </trkpt>
      <trkpt lat="36.659080" lon="-6.073607">
        <ele>54.0</ele>
        <time>2021-02-02T16:20:51Z</time>
      </trkpt>
      <trkpt lat="36.659171" lon="-6.073546">
        <ele>53.9</ele>
        <time>2021-02-02T16:20:53Z</time>
      </trkpt>
      <trkpt lat="36.659281" lon="-6.073483">
        <ele>53.6</ele>
        <time>2021-02-02T16:20:55Z</time>
      </trkpt>
      <trkpt lat="36.659415" lon="-6.073431">
        <ele>53.1</ele>
        <time>2021-02-02T16:20:57Z</time>
      </trkpt>
      <trkpt lat="36.659574" lon="-6.073379">
        <ele>52.5</ele>
        <time>2021-02-02T16:20:59Z</time>
      </trkpt>
      <trkpt lat="36.659662" lon="-6.073353">
        <ele>52.1</ele>
        <time>2021-02-02T16:21:00Z</time>
      </trkpt>
      <trkpt lat="36.659754" lon="-6.073325">
        <ele>51.7</ele>
        <time>2021-02-02T16:21:01Z</time>
      </trkpt>
      <trkpt lat="36.659851" lon="-6.073298">
        <ele>51.2</ele>
        <time>2021-02-02T16:21:02Z</time>
      </trkpt>
      <trkpt lat="36.659951" lon="-6.073269">
        <ele>50.6</ele>
        <time>2021-02-02T16:21:03Z</time>
      </trkpt>
      <trkpt lat="36.660053" lon="-6.073239">
        <ele>49.8</ele>
        <time>2021-02-02T16:21:04Z</time>
      </trkpt>
      <trkpt lat="36.660160" lon="-6.073207">
        <ele>49.1</ele>
        <time>2021-02-02T16:21:05Z</time>
      </trkpt>
      <trkpt lat="36.660270" lon="-6.073176">
        <ele>48.4</ele>
        <time>2021-02-02T16:21:06Z</time>
      </trkpt>
      <trkpt lat="36.660380" lon="-6.073145">
        <ele>47.7</ele>
        <time>2021-02-02T16:21:07Z</time>
      </trkpt>
      <trkpt lat="36.660492" lon="-6.073114">
        <ele>47.1</ele>
        <time>2021-02-02T16:21:08Z</time>
      </trkpt>
      <trkpt lat="36.660603" lon="-6.073081">
        <ele>46.4</ele>
        <time>2021-02-02T16:21:09Z</time>
      </trkpt>
      <trkpt lat="36.660715" lon="-6.073046">
        <ele>45.6</ele>
        <time>2021-02-02T16:21:10Z</time>
      </trkpt>
      <trkpt lat="36.660829" lon="-6.073012">
        <ele>45.0</ele>
        <time>2021-02-02T16:21:11Z</time>
      </trkpt>
      <trkpt lat="36.660946" lon="-6.072979">
        <ele>44.3</ele>
        <time>2021-02-02T16:21:12Z</time>
      </trkpt>
      <trkpt lat="36.661063" lon="-6.072945">
        <ele>43.6</ele>
        <time>2021-02-02T16:21:13Z</time>
      </trkpt>
      <trkpt lat="36.661183" lon="-6.072910">
        <ele>42.9</ele>
        <time>2021-02-02T16:21:14Z</time>
      </trkpt>
      <trkpt lat="36.661303" lon="-6.072874">
        <ele>42.2</ele>
        <time>2021-02-02T16:21:15Z</time>
      </trkpt>
      <trkpt lat="36.661423" lon="-6.072839">
        <ele>41.7</ele>
        <time>2021-02-02T16:21:16Z</time>
      </trkpt>
      <trkpt lat="36.661543" lon="-6.072804">
        <ele>41.2</ele>
        <time>2021-02-02T16:21:17Z</time>
      </trkpt>
      <trkpt lat="36.661662" lon="-6.072769">
        <ele>40.5</ele>
        <time>2021-02-02T16:21:18Z</time>
      </trkpt>
      <trkpt lat="36.661780" lon="-6.072734">
        <ele>40.1</ele>
        <time>2021-02-02T16:21:19Z</time>
      </trkpt>
      <trkpt lat="36.661897" lon="-6.072699">
        <ele>39.5</ele>
        <time>2021-02-02T16:21:20Z</time>
      </trkpt>
      <trkpt lat="36.662014" lon="-6.072665">
        <ele>38.8</ele>
        <time>2021-02-02T16:21:21Z</time>
      </trkpt>
      <trkpt lat="36.662129" lon="-6.072635">
        <ele>38.3</ele>
        <time>2021-02-02T16:21:22Z</time>
      </trkpt>
      <trkpt lat="36.662246" lon="-6.072605">
        <ele>37.8</ele>
        <time>2021-02-02T16:21:23Z</time>
      </trkpt>
      <trkpt lat="36.662364" lon="-6.072572">
        <ele>37.2</ele>
        <time>2021-02-02T16:21:24Z</time>
      </trkpt>
      <trkpt lat="36.662482" lon="-6.072537">
        <ele>36.6</ele>
        <time>2021-02-02T16:21:25Z</time>
      </trkpt>
      <trkpt lat="36.662602" lon="-6.072499">
        <ele>35.8</ele>
        <time>2021-02-02T16:21:26Z</time>
      </trkpt>
      <trkpt lat="36.662720" lon="-6.072461">
        <ele>35.2</ele>
        <time>2021-02-02T16:21:27Z</time>
      </trkpt>
      <trkpt lat="36.662841" lon="-6.072423">
        <ele>34.6</ele>
        <time>2021-02-02T16:21:28Z</time>
      </trkpt>
      <trkpt lat="36.662963" lon="-6.072387">
        <ele>34.1</ele>
        <time>2021-02-02T16:21:29Z</time>
      </trkpt>
      <trkpt lat="36.663087" lon="-6.072350">
        <ele>33.5</ele>
        <time>2021-02-02T16:21:30Z</time>
      </trkpt>
      <trkpt lat="36.663213" lon="-6.072311">
        <ele>32.7</ele>
        <time>2021-02-02T16:21:31Z</time>
      </trkpt>
      <trkpt lat="36.663338" lon="-6.072273">
        <ele>32.0</ele>
        <time>2021-02-02T16:21:32Z</time>
      </trkpt>
      <trkpt lat="36.663465" lon="-6.072235">
        <ele>31.4</ele>
        <time>2021-02-02T16:21:33Z</time>
      </trkpt>
      <trkpt lat="36.663590" lon="-6.072197">
        <ele>30.9</ele>
        <time>2021-02-02T16:21:34Z</time>
      </trkpt>
      <trkpt lat="36.663714" lon="-6.072156">
        <ele>30.3</ele>
        <time>2021-02-02T16:21:35Z</time>
      </trkpt>
      <trkpt lat="36.663836" lon="-6.072114">
        <ele>29.9</ele>
        <time>2021-02-02T16:21:36Z</time>
      </trkpt>
      <trkpt lat="36.663957" lon="-6.072074">
        <ele>29.6</ele>
        <time>2021-02-02T16:21:37Z</time>
      </trkpt>
      <trkpt lat="36.664075" lon="-6.072037">
        <ele>29.3</ele>
        <time>2021-02-02T16:21:38Z</time>
      </trkpt>
      <trkpt lat="36.664191" lon="-6.072001">
        <ele>29.0</ele>
        <time>2021-02-02T16:21:39Z</time>
      </trkpt>
      <trkpt lat="36.664307" lon="-6.071965">
        <ele>28.8</ele>
        <time>2021-02-02T16:21:40Z</time>
      </trkpt>
      <trkpt lat="36.664420" lon="-6.071929">
        <ele>28.6</ele>
        <time>2021-02-02T16:21:41Z</time>
      </trkpt>
      <trkpt lat="36.664533" lon="-6.071895">
        <ele>28.4</ele>
        <time>2021-02-02T16:21:42Z</time>
      </trkpt>
      <trkpt lat="36.664642" lon="-6.071861">
        <ele>28.3</ele>
        <time>2021-02-02T16:21:43Z</time>
      </trkpt>
      <trkpt lat="36.664749" lon="-6.071826">
        <ele>28.2</ele>
        <time>2021-02-02T16:21:44Z</time>
      </trkpt>
      <trkpt lat="36.664853" lon="-6.071795">
        <ele>28.1</ele>
        <time>2021-02-02T16:21:45Z</time>
      </trkpt>
      <trkpt lat="36.664952" lon="-6.071765">
        <ele>28.2</ele>
        <time>2021-02-02T16:21:46Z</time>
      </trkpt>
      <trkpt lat="36.665046" lon="-6.071737">
        <ele>28.2</ele>
        <time>2021-02-02T16:21:47Z</time>
      </trkpt>
      <trkpt lat="36.665135" lon="-6.071710">
        <ele>28.3</ele>
        <time>2021-02-02T16:21:48Z</time>
      </trkpt>
      <trkpt lat="36.665295" lon="-6.071663">
        <ele>28.7</ele>
        <time>2021-02-02T16:21:50Z</time>
      </trkpt>
      <trkpt lat="36.665433" lon="-6.071619">
        <ele>29.3</ele>
        <time>2021-02-02T16:21:52Z</time>
      </trkpt>
      <trkpt lat="36.665556" lon="-6.071585">
        <ele>30.2</ele>
        <time>2021-02-02T16:21:54Z</time>
      </trkpt>
      <trkpt lat="36.665665" lon="-6.071554">
        <ele>30.7</ele>
        <time>2021-02-02T16:21:56Z</time>
      </trkpt>
      <trkpt lat="36.665762" lon="-6.071520">
        <ele>31.5</ele>
        <time>2021-02-02T16:21:58Z</time>
      </trkpt>
      <trkpt lat="36.665853" lon="-6.071493">
        <ele>32.2</ele>
        <time>2021-02-02T16:22:00Z</time>
      </trkpt>
      <trkpt lat="36.665981" lon="-6.071456">
        <ele>33.1</ele>
        <time>2021-02-02T16:22:03Z</time>
      </trkpt>
      <trkpt lat="36.666102" lon="-6.071418">
        <ele>34.0</ele>
        <time>2021-02-02T16:22:06Z</time>
      </trkpt>
      <trkpt lat="36.666212" lon="-6.071382">
        <ele>34.7</ele>
        <time>2021-02-02T16:22:09Z</time>
      </trkpt>
      <trkpt lat="36.666314" lon="-6.071350">
        <ele>35.4</ele>
        <time>2021-02-02T16:22:12Z</time>
      </trkpt>
      <trkpt lat="36.666408" lon="-6.071319">
        <ele>36.0</ele>
        <time>2021-02-02T16:22:15Z</time>
      </trkpt>
      <trkpt lat="36.666503" lon="-6.071290">
        <ele>36.6</ele>
        <time>2021-02-02T16:22:18Z</time>
      </trkpt>
      <trkpt lat="36.666599" lon="-6.071259">
        <ele>37.1</ele>
        <time>2021-02-02T16:22:21Z</time>
      </trkpt>
      <trkpt lat="36.666692" lon="-6.071230">
        <ele>37.7</ele>
        <time>2021-02-02T16:22:24Z</time>
      </trkpt>
      <trkpt lat="36.666784" lon="-6.071203">
        <ele>38.3</ele>
        <time>2021-02-02T16:22:27Z</time>
      </trkpt>
      <trkpt lat="36.666879" lon="-6.071185">
        <ele>39.1</ele>
        <time>2021-02-02T16:22:30Z</time>
      </trkpt>
      <trkpt lat="36.666992" lon="-6.071154">
        <ele>40.0</ele>
        <time>2021-02-02T16:22:34Z</time>
      </trkpt>
      <trkpt lat="36.667106" lon="-6.071136">
        <ele>40.7</ele>
        <time>2021-02-02T16:22:38Z</time>
      </trkpt>
      <trkpt lat="36.667216" lon="-6.071094">
        <ele>42.0</ele>
        <time>2021-02-02T16:22:42Z</time>
      </trkpt>
      <trkpt lat="36.667325" lon="-6.071045">
        <ele>43.0</ele>
        <time>2021-02-02T16:22:46Z</time>
      </trkpt>
      <trkpt lat="36.667437" lon="-6.071011">
        <ele>43.7</ele>
        <time>2021-02-02T16:22:50Z</time>
      </trkpt>
      <trkpt lat="36.667553" lon="-6.070971">
        <ele>44.5</ele>
        <time>2021-02-02T16:22:54Z</time>
      </trkpt>
      <trkpt lat="36.667644" lon="-6.070942">
        <ele>45.3</ele>
        <time>2021-02-02T16:22:57Z</time>
      </trkpt>
      <trkpt lat="36.667731" lon="-6.070914">
        <ele>46.0</ele>
        <time>2021-02-02T16:23:00Z</time>
      </trkpt>
      <trkpt lat="36.667847" lon="-6.070888">
        <ele>46.9</ele>
        <time>2021-02-02T16:23:04Z</time>
      </trkpt>
      <trkpt lat="36.667937" lon="-6.070851">
        <ele>47.4</ele>
        <time>2021-02-02T16:23:07Z</time>
      </trkpt>
      <trkpt lat="36.668029" lon="-6.070822">
        <ele>48.0</ele>
        <time>2021-02-02T16:23:10Z</time>
      </trkpt>
      <trkpt lat="36.668120" lon="-6.070794">
        <ele>48.7</ele>
        <time>2021-02-02T16:23:13Z</time>
      </trkpt>
      <trkpt lat="36.668220" lon="-6.070765">
        <ele>49.2</ele>
        <time>2021-02-02T16:23:16Z</time>
      </trkpt>
      <trkpt lat="36.668315" lon="-6.070742">
        <ele>49.7</ele>
        <time>2021-02-02T16:23:19Z</time>
      </trkpt>
      <trkpt lat="36.668406" lon="-6.070714">
        <ele>50.1</ele>
        <time>2021-02-02T16:23:22Z</time>
      </trkpt>
      <trkpt lat="36.668511" lon="-6.070684">
        <ele>50.5</ele>
        <time>2021-02-02T16:23:25Z</time>
      </trkpt>
      <trkpt lat="36.668609" lon="-6.070651">
        <ele>50.8</ele>
        <time>2021-02-02T16:23:28Z</time>
      </trkpt>
      <trkpt lat="36.668708" lon="-6.070625">
        <ele>51.2</ele>
        <time>2021-02-02T16:23:31Z</time>
      </trkpt>
      <trkpt lat="36.668815" lon="-6.070595">
        <ele>51.5</ele>
        <time>2021-02-02T16:23:34Z</time>
      </trkpt>
      <trkpt lat="36.668927" lon="-6.070567">
        <ele>51.9</ele>
        <time>2021-02-02T16:23:37Z</time>
      </trkpt>
      <trkpt lat="36.669039" lon="-6.070539">
        <ele>52.3</ele>
        <time>2021-02-02T16:23:40Z</time>
      </trkpt>
      <trkpt lat="36.669153" lon="-6.070506">
        <ele>52.8</ele>
        <time>2021-02-02T16:23:43Z</time>
      </trkpt>
      <trkpt lat="36.669265" lon="-6.070471">
        <ele>53.1</ele>
        <time>2021-02-02T16:23:46Z</time>
      </trkpt>
      <trkpt lat="36.669381" lon="-6.070438">
        <ele>53.3</ele>
        <time>2021-02-02T16:23:49Z</time>
      </trkpt>
      <trkpt lat="36.669471" lon="-6.070414">
        <ele>53.4</ele>
        <time>2021-02-02T16:23:51Z</time>
      </trkpt>
      <trkpt lat="36.669559" lon="-6.070390">
        <ele>53.6</ele>
        <time>2021-02-02T16:23:53Z</time>
      </trkpt>
      <trkpt lat="36.669652" lon="-6.070364">
        <ele>53.8</ele>
        <time>2021-02-02T16:23:55Z</time>
      </trkpt>
      <trkpt lat="36.669741" lon="-6.070339">
        <ele>54.1</ele>
        <time>2021-02-02T16:23:57Z</time>
      </trkpt>
      <trkpt lat="36.669866" lon="-6.070303">
        <ele>54.7</ele>
        <time>2021-02-02T16:24:00Z</time>
      </trkpt>
      <trkpt lat="36.669989" lon="-6.070269">
        <ele>54.8</ele>
        <time>2021-02-02T16:24:03Z</time>
      </trkpt>
      <trkpt lat="36.670110" lon="-6.070231">
        <ele>55.2</ele>
        <time>2021-02-02T16:24:06Z</time>
      </trkpt>
      <trkpt lat="36.670229" lon="-6.070198">
        <ele>55.8</ele>
        <time>2021-02-02T16:24:09Z</time>
      </trkpt>
      <trkpt lat="36.670347" lon="-6.070169">
        <ele>56.1</ele>
        <time>2021-02-02T16:24:12Z</time>
      </trkpt>
      <trkpt lat="36.670469" lon="-6.070134">
        <ele>56.4</ele>
        <time>2021-02-02T16:24:15Z</time>
      </trkpt>
      <trkpt lat="36.670593" lon="-6.070100">
        <ele>56.8</ele>
        <time>2021-02-02T16:24:18Z</time>
      </trkpt>
      <trkpt lat="36.670721" lon="-6.070061">
        <ele>57.2</ele>
        <time>2021-02-02T16:24:21Z</time>
      </trkpt>
      <trkpt lat="36.670849" lon="-6.070025">
        <ele>57.7</ele>
        <time>2021-02-02T16:24:24Z</time>
      </trkpt>
      <trkpt lat="36.670977" lon="-6.069990">
        <ele>58.0</ele>
        <time>2021-02-02T16:24:27Z</time>
      </trkpt>
      <trkpt lat="36.671104" lon="-6.069949">
        <ele>58.4</ele>
        <time>2021-02-02T16:24:30Z</time>
      </trkpt>
      <trkpt lat="36.671234" lon="-6.069913">
        <ele>58.6</ele>
        <time>2021-02-02T16:24:33Z</time>
      </trkpt>
      <trkpt lat="36.671362" lon="-6.069876">
        <ele>58.8</ele>
        <time>2021-02-02T16:24:36Z</time>
      </trkpt>
      <trkpt lat="36.671490" lon="-6.069840">
        <ele>59.4</ele>
        <time>2021-02-02T16:24:39Z</time>
      </trkpt>
      <trkpt lat="36.671621" lon="-6.069802">
        <ele>59.8</ele>
        <time>2021-02-02T16:24:42Z</time>
      </trkpt>
      <trkpt lat="36.671751" lon="-6.069765">
        <ele>60.4</ele>
        <time>2021-02-02T16:24:45Z</time>
      </trkpt>
      <trkpt lat="36.671882" lon="-6.069730">
        <ele>60.6</ele>
        <time>2021-02-02T16:24:48Z</time>
      </trkpt>
      <trkpt lat="36.671973" lon="-6.069700">
        <ele>60.5</ele>
        <time>2021-02-02T16:24:50Z</time>
      </trkpt>
      <trkpt lat="36.672067" lon="-6.069674">
        <ele>60.6</ele>
        <time>2021-02-02T16:24:52Z</time>
      </trkpt>
      <trkpt lat="36.672161" lon="-6.069645">
        <ele>60.9</ele>
        <time>2021-02-02T16:24:54Z</time>
      </trkpt>
      <trkpt lat="36.672256" lon="-6.069620">
        <ele>60.9</ele>
        <time>2021-02-02T16:24:56Z</time>
      </trkpt>
      <trkpt lat="36.672354" lon="-6.069593">
        <ele>61.2</ele>
        <time>2021-02-02T16:24:58Z</time>
      </trkpt>
      <trkpt lat="36.672455" lon="-6.069565">
        <ele>61.4</ele>
        <time>2021-02-02T16:25:00Z</time>
      </trkpt>
      <trkpt lat="36.672560" lon="-6.069531">
        <ele>61.6</ele>
        <time>2021-02-02T16:25:02Z</time>
      </trkpt>
      <trkpt lat="36.672668" lon="-6.069494">
        <ele>61.7</ele>
        <time>2021-02-02T16:25:04Z</time>
      </trkpt>
      <trkpt lat="36.672779" lon="-6.069456">
        <ele>61.9</ele>
        <time>2021-02-02T16:25:06Z</time>
      </trkpt>
      <trkpt lat="36.672893" lon="-6.069418">
        <ele>61.9</ele>
        <time>2021-02-02T16:25:08Z</time>
      </trkpt>
      <trkpt lat="36.673007" lon="-6.069380">
        <ele>62.0</ele>
        <time>2021-02-02T16:25:10Z</time>
      </trkpt>
      <trkpt lat="36.673119" lon="-6.069340">
        <ele>61.9</ele>
        <time>2021-02-02T16:25:12Z</time>
      </trkpt>
      <trkpt lat="36.673234" lon="-6.069298">
        <ele>61.8</ele>
        <time>2021-02-02T16:25:14Z</time>
      </trkpt>
      <trkpt lat="36.673356" lon="-6.069253">
        <ele>61.7</ele>
        <time>2021-02-02T16:25:16Z</time>
      </trkpt>
      <trkpt lat="36.673483" lon="-6.069205">
        <ele>61.6</ele>
        <time>2021-02-02T16:25:18Z</time>
      </trkpt>
      <trkpt lat="36.673613" lon="-6.069155">
        <ele>61.6</ele>
        <time>2021-02-02T16:25:20Z</time>
      </trkpt>
      <trkpt lat="36.673748" lon="-6.069101">
        <ele>61.3</ele>
        <time>2021-02-02T16:25:22Z</time>
      </trkpt>
      <trkpt lat="36.673887" lon="-6.069043">
        <ele>60.9</ele>
        <time>2021-02-02T16:25:24Z</time>
      </trkpt>
      <trkpt lat="36.674027" lon="-6.068973">
        <ele>60.4</ele>
        <time>2021-02-02T16:25:26Z</time>
      </trkpt>
      <trkpt lat="36.674169" lon="-6.068898">
        <ele>60.1</ele>
        <time>2021-02-02T16:25:28Z</time>
      </trkpt>
      <trkpt lat="36.674316" lon="-6.068813">
        <ele>59.7</ele>
        <time>2021-02-02T16:25:30Z</time>
      </trkpt>
      <trkpt lat="36.674473" lon="-6.068718">
        <ele>59.2</ele>
        <time>2021-02-02T16:25:32Z</time>
      </trkpt>
      <trkpt lat="36.674555" lon="-6.068668">
        <ele>58.9</ele>
        <time>2021-02-02T16:25:33Z</time>
      </trkpt>
      <trkpt lat="36.674641" lon="-6.068616">
        <ele>58.2</ele>
        <time>2021-02-02T16:25:34Z</time>
      </trkpt>
      <trkpt lat="36.674729" lon="-6.068561">
        <ele>57.7</ele>
        <time>2021-02-02T16:25:35Z</time>
      </trkpt>
      <trkpt lat="36.674817" lon="-6.068504">
        <ele>57.3</ele>
        <time>2021-02-02T16:25:36Z</time>
      </trkpt>
      <trkpt lat="36.674911" lon="-6.068447">
        <ele>56.5</ele>
        <time>2021-02-02T16:25:37Z</time>
      </trkpt>
      <trkpt lat="36.675005" lon="-6.068387">
        <ele>56.2</ele>
        <time>2021-02-02T16:25:38Z</time>
      </trkpt>
      <trkpt lat="36.675101" lon="-6.068328">
        <ele>55.7</ele>
        <time>2021-02-02T16:25:39Z</time>
      </trkpt>
      <trkpt lat="36.675200" lon="-6.068266">
        <ele>55.2</ele>
        <time>2021-02-02T16:25:40Z</time>
      </trkpt>
      <trkpt lat="36.675303" lon="-6.068204">
        <ele>54.9</ele>
        <time>2021-02-02T16:25:41Z</time>
      </trkpt>
      <trkpt lat="36.675407" lon="-6.068140">
        <ele>54.2</ele>
        <time>2021-02-02T16:25:42Z</time>
      </trkpt>
      <trkpt lat="36.675512" lon="-6.068074">
        <ele>53.6</ele>
        <time>2021-02-02T16:25:43Z</time>
      </trkpt>
      <trkpt lat="36.675619" lon="-6.068006">
        <ele>53.1</ele>
        <time>2021-02-02T16:25:44Z</time>
      </trkpt>
      <trkpt lat="36.675727" lon="-6.067938">
        <ele>52.5</ele>
        <time>2021-02-02T16:25:45Z</time>
      </trkpt>
      <trkpt lat="36.675835" lon="-6.067868">
        <ele>51.9</ele>
        <time>2021-02-02T16:25:46Z</time>
      </trkpt>
      <trkpt lat="36.675941" lon="-6.067799">
        <ele>51.4</ele>
        <time>2021-02-02T16:25:47Z</time>
      </trkpt>
      <trkpt lat="36.676048" lon="-6.067730">
        <ele>50.8</ele>
        <time>2021-02-02T16:25:48Z</time>
      </trkpt>
      <trkpt lat="36.676154" lon="-6.067662">
        <ele>50.3</ele>
        <time>2021-02-02T16:25:49Z</time>
      </trkpt>
      <trkpt lat="36.676261" lon="-6.067596">
        <ele>49.7</ele>
        <time>2021-02-02T16:25:50Z</time>
      </trkpt>
      <trkpt lat="36.676369" lon="-6.067536">
        <ele>49.4</ele>
        <time>2021-02-02T16:25:51Z</time>
      </trkpt>
      <trkpt lat="36.676476" lon="-6.067483">
        <ele>48.9</ele>
        <time>2021-02-02T16:25:52Z</time>
      </trkpt>
      <trkpt lat="36.676586" lon="-6.067446">
        <ele>48.6</ele>
        <time>2021-02-02T16:25:53Z</time>
      </trkpt>
      <trkpt lat="36.676699" lon="-6.067429">
        <ele>48.2</ele>
        <time>2021-02-02T16:25:54Z</time>
      </trkpt>
      <trkpt lat="36.676809" lon="-6.067432">
        <ele>48.2</ele>
        <time>2021-02-02T16:25:55Z</time>
      </trkpt>
      <trkpt lat="36.676916" lon="-6.067451">
        <ele>47.8</ele>
        <time>2021-02-02T16:25:56Z</time>
      </trkpt>
      <trkpt lat="36.677019" lon="-6.067477">
        <ele>47.5</ele>
        <time>2021-02-02T16:25:57Z</time>
      </trkpt>
      <trkpt lat="36.677117" lon="-6.067504">
        <ele>47.3</ele>
        <time>2021-02-02T16:25:58Z</time>
      </trkpt>
      <trkpt lat="36.677212" lon="-6.067527">
        <ele>46.2</ele>
        <time>2021-02-02T16:25:59Z</time>
      </trkpt>
      <trkpt lat="36.677305" lon="-6.067546">
        <ele>46.0</ele>
        <time>2021-02-02T16:26:00Z</time>
      </trkpt>
      <trkpt lat="36.677395" lon="-6.067564">
        <ele>45.9</ele>
        <time>2021-02-02T16:26:01Z</time>
      </trkpt>
      <trkpt lat="36.677569" lon="-6.067597">
        <ele>45.8</ele>
        <time>2021-02-02T16:26:03Z</time>
      </trkpt>
      <trkpt lat="36.677738" lon="-6.067635">
        <ele>45.9</ele>
        <time>2021-02-02T16:26:05Z</time>
      </trkpt>
      <trkpt lat="36.677902" lon="-6.067671">
        <ele>46.0</ele>
        <time>2021-02-02T16:26:07Z</time>
      </trkpt>
      <trkpt lat="36.678061" lon="-6.067706">
        <ele>46.2</ele>
        <time>2021-02-02T16:26:09Z</time>
      </trkpt>
      <trkpt lat="36.678216" lon="-6.067750">
        <ele>46.1</ele>
        <time>2021-02-02T16:26:11Z</time>
      </trkpt>
      <trkpt lat="36.678359" lon="-6.067814">
        <ele>46.1</ele>
        <time>2021-02-02T16:26:13Z</time>
      </trkpt>
      <trkpt lat="36.678495" lon="-6.067902">
        <ele>46.1</ele>
        <time>2021-02-02T16:26:15Z</time>
      </trkpt>
      <trkpt lat="36.678625" lon="-6.068025">
        <ele>46.0</ele>
        <time>2021-02-02T16:26:17Z</time>
      </trkpt>
      <trkpt lat="36.678759" lon="-6.068163">
        <ele>45.4</ele>
        <time>2021-02-02T16:26:19Z</time>
      </trkpt>
      <trkpt lat="36.678895" lon="-6.068308">
        <ele>44.7</ele>
        <time>2021-02-02T16:26:21Z</time>
      </trkpt>
      <trkpt lat="36.679027" lon="-6.068461">
        <ele>43.7</ele>
        <time>2021-02-02T16:26:23Z</time>
      </trkpt>
      <trkpt lat="36.679095" lon="-6.068538">
        <ele>43.2</ele>
        <time>2021-02-02T16:26:24Z</time>
      </trkpt>
      <trkpt lat="36.679165" lon="-6.068615">
        <ele>42.9</ele>
        <time>2021-02-02T16:26:25Z</time>
      </trkpt>
      <trkpt lat="36.679237" lon="-6.068695">
        <ele>42.7</ele>
        <time>2021-02-02T16:26:26Z</time>
      </trkpt>
      <trkpt lat="36.679311" lon="-6.068778">
        <ele>42.4</ele>
        <time>2021-02-02T16:26:27Z</time>
      </trkpt>
      <trkpt lat="36.679387" lon="-6.068865">
        <ele>42.1</ele>
        <time>2021-02-02T16:26:28Z</time>
      </trkpt>
      <trkpt lat="36.679466" lon="-6.068954">
        <ele>41.6</ele>
        <time>2021-02-02T16:26:29Z</time>
      </trkpt>
      <trkpt lat="36.679548" lon="-6.069045">
        <ele>40.9</ele>
        <time>2021-02-02T16:26:30Z</time>
      </trkpt>
      <trkpt lat="36.679631" lon="-6.069138">
        <ele>40.3</ele>
        <time>2021-02-02T16:26:31Z</time>
      </trkpt>
      <trkpt lat="36.679716" lon="-6.069232">
        <ele>39.7</ele>
        <time>2021-02-02T16:26:32Z</time>
      </trkpt>
      <trkpt lat="36.679801" lon="-6.069329">
        <ele>39.2</ele>
        <time>2021-02-02T16:26:33Z</time>
      </trkpt>
      <trkpt lat="36.679887" lon="-6.069428">
        <ele>38.3</ele>
        <time>2021-02-02T16:26:34Z</time>
      </trkpt>
      <trkpt lat="36.679974" lon="-6.069526">
        <ele>37.4</ele>
        <time>2021-02-02T16:26:35Z</time>
      </trkpt>
      <trkpt lat="36.680061" lon="-6.069625">
        <ele>36.5</ele>
        <time>2021-02-02T16:26:36Z</time>
      </trkpt>
      <trkpt lat="36.680149" lon="-6.069723">
        <ele>35.5</ele>
        <time>2021-02-02T16:26:37Z</time>
      </trkpt>
      <trkpt lat="36.680236" lon="-6.069819">
        <ele>34.8</ele>
        <time>2021-02-02T16:26:38Z</time>
      </trkpt>
      <trkpt lat="36.680321" lon="-6.069915">
        <ele>34.3</ele>
        <time>2021-02-02T16:26:39Z</time>
      </trkpt>
      <trkpt lat="36.680405" lon="-6.070010">
        <ele>33.5</ele>
        <time>2021-02-02T16:26:40Z</time>
      </trkpt>
      <trkpt lat="36.680488" lon="-6.070102">
        <ele>32.9</ele>
        <time>2021-02-02T16:26:41Z</time>
      </trkpt>
      <trkpt lat="36.680569" lon="-6.070191">
        <ele>32.5</ele>
        <time>2021-02-02T16:26:42Z</time>
      </trkpt>
      <trkpt lat="36.680647" lon="-6.070278">
        <ele>32.1</ele>
        <time>2021-02-02T16:26:43Z</time>
      </trkpt>
      <trkpt lat="36.680721" lon="-6.070362">
        <ele>31.5</ele>
        <time>2021-02-02T16:26:44Z</time>
      </trkpt>
      <trkpt lat="36.680793" lon="-6.070444">
        <ele>31.0</ele>
        <time>2021-02-02T16:26:45Z</time>
      </trkpt>
      <trkpt lat="36.680862" lon="-6.070524">
        <ele>30.4</ele>
        <time>2021-02-02T16:26:46Z</time>
      </trkpt>
      <trkpt lat="36.680929" lon="-6.070600">
        <ele>29.9</ele>
        <time>2021-02-02T16:26:47Z</time>
      </trkpt>
      <trkpt lat="36.681057" lon="-6.070743">
        <ele>29.6</ele>
        <time>2021-02-02T16:26:49Z</time>
      </trkpt>
      <trkpt lat="36.681177" lon="-6.070878">
        <ele>29.3</ele>
        <time>2021-02-02T16:26:51Z</time>
      </trkpt>
      <trkpt lat="36.681294" lon="-6.071004">
        <ele>28.5</ele>
        <time>2021-02-02T16:26:53Z</time>
      </trkpt>
      <trkpt lat="36.681405" lon="-6.071130">
        <ele>28.6</ele>
        <time>2021-02-02T16:26:55Z</time>
      </trkpt>
      <trkpt lat="36.681511" lon="-6.071249">
        <ele>28.7</ele>
        <time>2021-02-02T16:26:57Z</time>
      </trkpt>
      <trkpt lat="36.681610" lon="-6.071362">
        <ele>28.8</ele>
        <time>2021-02-02T16:26:59Z</time>
      </trkpt>
      <trkpt lat="36.681703" lon="-6.071464">
        <ele>28.8</ele>
        <time>2021-02-02T16:27:01Z</time>
      </trkpt>
      <trkpt lat="36.681790" lon="-6.071561">
        <ele>28.7</ele>
        <time>2021-02-02T16:27:03Z</time>
      </trkpt>
      <trkpt lat="36.681871" lon="-6.071650">
        <ele>28.9</ele>
        <time>2021-02-02T16:27:05Z</time>
      </trkpt>
      <trkpt lat="36.681945" lon="-6.071736">
        <ele>29.0</ele>
        <time>2021-02-02T16:27:07Z</time>
      </trkpt>
      <trkpt lat="36.682013" lon="-6.071815">
        <ele>29.1</ele>
        <time>2021-02-02T16:27:09Z</time>
      </trkpt>
      <trkpt lat="36.682113" lon="-6.071928">
        <ele>29.1</ele>
        <time>2021-02-02T16:27:12Z</time>
      </trkpt>
      <trkpt lat="36.682181" lon="-6.072002">
        <ele>29.1</ele>
        <time>2021-02-02T16:27:14Z</time>
      </trkpt>
      <trkpt lat="36.682246" lon="-6.072079">
        <ele>29.2</ele>
        <time>2021-02-02T16:27:16Z</time>
      </trkpt>
      <trkpt lat="36.682313" lon="-6.072157">
        <ele>29.2</ele>
        <time>2021-02-02T16:27:18Z</time>
      </trkpt>
      <trkpt lat="36.682380" lon="-6.072234">
        <ele>29.3</ele>
        <time>2021-02-02T16:27:20Z</time>
      </trkpt>
      <trkpt lat="36.682448" lon="-6.072307">
        <ele>29.4</ele>
        <time>2021-02-02T16:27:22Z</time>
      </trkpt>
      <trkpt lat="36.682517" lon="-6.072383">
        <ele>29.6</ele>
        <time>2021-02-02T16:27:24Z</time>
      </trkpt>
      <trkpt lat="36.682585" lon="-6.072463">
        <ele>29.7</ele>
        <time>2021-02-02T16:27:26Z</time>
      </trkpt>
      <trkpt lat="36.682654" lon="-6.072540">
        <ele>29.7</ele>
        <time>2021-02-02T16:27:28Z</time>
      </trkpt>
      <trkpt lat="36.682756" lon="-6.072645">
        <ele>29.9</ele>
        <time>2021-02-02T16:27:31Z</time>
      </trkpt>
      <trkpt lat="36.682822" lon="-6.072722">
        <ele>29.9</ele>
        <time>2021-02-02T16:27:33Z</time>
      </trkpt>
      <trkpt lat="36.682891" lon="-6.072801">
        <ele>30.0</ele>
        <time>2021-02-02T16:27:35Z</time>
      </trkpt>
      <trkpt lat="36.682958" lon="-6.072887">
        <ele>30.2</ele>
        <time>2021-02-02T16:27:37Z</time>
      </trkpt>
      <trkpt lat="36.683023" lon="-6.072978">
        <ele>30.4</ele>
        <time>2021-02-02T16:27:39Z</time>
      </trkpt>
      <trkpt lat="36.683092" lon="-6.073068">
        <ele>30.5</ele>
        <time>2021-02-02T16:27:41Z</time>
      </trkpt>
      <trkpt lat="36.683155" lon="-6.073171">
        <ele>30.3</ele>
        <time>2021-02-02T16:27:43Z</time>
      </trkpt>
      <trkpt lat="36.683213" lon="-6.073273">
        <ele>30.1</ele>
        <time>2021-02-02T16:27:45Z</time>
      </trkpt>
      <trkpt lat="36.683270" lon="-6.073375">
        <ele>30.1</ele>
        <time>2021-02-02T16:27:47Z</time>
      </trkpt>
      <trkpt lat="36.683327" lon="-6.073480">
        <ele>30.1</ele>
        <time>2021-02-02T16:27:49Z</time>
      </trkpt>
      <trkpt lat="36.683385" lon="-6.073587">
        <ele>30.0</ele>
        <time>2021-02-02T16:27:51Z</time>
      </trkpt>
      <trkpt lat="36.683442" lon="-6.073694">
        <ele>29.9</ele>
        <time>2021-02-02T16:27:53Z</time>
      </trkpt>
      <trkpt lat="36.683499" lon="-6.073800">
        <ele>29.7</ele>
        <time>2021-02-02T16:27:55Z</time>
      </trkpt>
      <trkpt lat="36.683554" lon="-6.073902">
        <ele>29.6</ele>
        <time>2021-02-02T16:27:57Z</time>
      </trkpt>
      <trkpt lat="36.683603" lon="-6.074004">
        <ele>29.3</ele>
        <time>2021-02-02T16:27:59Z</time>
      </trkpt>
      <trkpt lat="36.683649" lon="-6.074111">
        <ele>29.2</ele>
        <time>2021-02-02T16:28:01Z</time>
      </trkpt>
      <trkpt lat="36.683690" lon="-6.074221">
        <ele>29.1</ele>
        <time>2021-02-02T16:28:03Z</time>
      </trkpt>
      <trkpt lat="36.683730" lon="-6.074330">
        <ele>29.0</ele>
        <time>2021-02-02T16:28:05Z</time>
      </trkpt>
      <trkpt lat="36.683769" lon="-6.074445">
        <ele>28.8</ele>
        <time>2021-02-02T16:28:07Z</time>
      </trkpt>
      <trkpt lat="36.683806" lon="-6.074574">
        <ele>28.5</ele>
        <time>2021-02-02T16:28:09Z</time>
      </trkpt>
      <trkpt lat="36.683848" lon="-6.074708">
        <ele>28.2</ele>
        <time>2021-02-02T16:28:11Z</time>
      </trkpt>
      <trkpt lat="36.683892" lon="-6.074851">
        <ele>27.9</ele>
        <time>2021-02-02T16:28:13Z</time>
      </trkpt>
      <trkpt lat="36.683942" lon="-6.074992">
        <ele>27.6</ele>
        <time>2021-02-02T16:28:15Z</time>
      </trkpt>
      <trkpt lat="36.683995" lon="-6.075138">
        <ele>27.4</ele>
        <time>2021-02-02T16:28:17Z</time>
      </trkpt>
      <trkpt lat="36.684046" lon="-6.075286">
        <ele>27.0</ele>
        <time>2021-02-02T16:28:19Z</time>
      </trkpt>
      <trkpt lat="36.684093" lon="-6.075437">
        <ele>26.6</ele>
        <time>2021-02-02T16:28:21Z</time>
      </trkpt>
      <trkpt lat="36.684137" lon="-6.075582">
        <ele>26.1</ele>
        <time>2021-02-02T16:28:23Z</time>
      </trkpt>
      <trkpt lat="36.684179" lon="-6.075723">
        <ele>25.8</ele>
        <time>2021-02-02T16:28:25Z</time>
      </trkpt>
      <trkpt lat="36.684224" lon="-6.075865">
        <ele>25.5</ele>
        <time>2021-02-02T16:28:27Z</time>
      </trkpt>
      <trkpt lat="36.684267" lon="-6.076000">
        <ele>25.3</ele>
        <time>2021-02-02T16:28:29Z</time>
      </trkpt>
      <trkpt lat="36.684309" lon="-6.076133">
        <ele>25.2</ele>
        <time>2021-02-02T16:28:31Z</time>
      </trkpt>
      <trkpt lat="36.684354" lon="-6.076268">
        <ele>25.1</ele>
        <time>2021-02-02T16:28:33Z</time>
      </trkpt>
      <trkpt lat="36.684400" lon="-6.076406">
        <ele>24.9</ele>
        <time>2021-02-02T16:28:35Z</time>
      </trkpt>
      <trkpt lat="36.684446" lon="-6.076545">
        <ele>24.6</ele>
        <time>2021-02-02T16:28:37Z</time>
      </trkpt>
      <trkpt lat="36.684493" lon="-6.076680">
        <ele>24.1</ele>
        <time>2021-02-02T16:28:39Z</time>
      </trkpt>
      <trkpt lat="36.684540" lon="-6.076819">
        <ele>23.7</ele>
        <time>2021-02-02T16:28:41Z</time>
      </trkpt>
      <trkpt lat="36.684590" lon="-6.076978">
        <ele>23.3</ele>
        <time>2021-02-02T16:28:43Z</time>
      </trkpt>
      <trkpt lat="36.684641" lon="-6.077156">
        <ele>23.0</ele>
        <time>2021-02-02T16:28:45Z</time>
      </trkpt>
      <trkpt lat="36.684689" lon="-6.077336">
        <ele>22.4</ele>
        <time>2021-02-02T16:28:47Z</time>
      </trkpt>
      <trkpt lat="36.684741" lon="-6.077517">
        <ele>21.9</ele>
        <time>2021-02-02T16:28:49Z</time>
      </trkpt>
      <trkpt lat="36.684794" lon="-6.077709">
        <ele>21.3</ele>
        <time>2021-02-02T16:28:51Z</time>
      </trkpt>
      <trkpt lat="36.684848" lon="-6.077899">
        <ele>20.8</ele>
        <time>2021-02-02T16:28:53Z</time>
      </trkpt>
      <trkpt lat="36.684904" lon="-6.078097">
        <ele>20.0</ele>
        <time>2021-02-02T16:28:55Z</time>
      </trkpt>
      <trkpt lat="36.684957" lon="-6.078296">
        <ele>19.3</ele>
        <time>2021-02-02T16:28:57Z</time>
      </trkpt>
      <trkpt lat="36.685009" lon="-6.078489">
        <ele>19.0</ele>
        <time>2021-02-02T16:28:59Z</time>
      </trkpt>
      <trkpt lat="36.685063" lon="-6.078678">
        <ele>18.4</ele>
        <time>2021-02-02T16:29:01Z</time>
      </trkpt>
      <trkpt lat="36.685119" lon="-6.078867">
        <ele>17.7</ele>
        <time>2021-02-02T16:29:03Z</time>
      </trkpt>
      <trkpt lat="36.685173" lon="-6.079047">
        <ele>17.1</ele>
        <time>2021-02-02T16:29:05Z</time>
      </trkpt>
      <trkpt lat="36.685232" lon="-6.079221">
        <ele>16.6</ele>
        <time>2021-02-02T16:29:07Z</time>
      </trkpt>
      <trkpt lat="36.685319" lon="-6.079377">
        <ele>16.2</ele>
        <time>2021-02-02T16:29:09Z</time>
      </trkpt>
      <trkpt lat="36.685433" lon="-6.079496">
        <ele>15.7</ele>
        <time>2021-02-02T16:29:11Z</time>
      </trkpt>
      <trkpt lat="36.685564" lon="-6.079574">
        <ele>15.2</ele>
        <time>2021-02-02T16:29:13Z</time>
      </trkpt>
      <trkpt lat="36.685696" lon="-6.079624">
        <ele>14.8</ele>
        <time>2021-02-02T16:29:15Z</time>
      </trkpt>
      <trkpt lat="36.685827" lon="-6.079659">
        <ele>14.4</ele>
        <time>2021-02-02T16:29:17Z</time>
      </trkpt>
      <trkpt lat="36.685948" lon="-6.079684">
        <ele>14.1</ele>
        <time>2021-02-02T16:29:19Z</time>
      </trkpt>
      <trkpt lat="36.686059" lon="-6.079722">
        <ele>13.9</ele>
        <time>2021-02-02T16:29:21Z</time>
      </trkpt>
      <trkpt lat="36.686156" lon="-6.079796">
        <ele>13.8</ele>
        <time>2021-02-02T16:29:23Z</time>
      </trkpt>
      <trkpt lat="36.686189" lon="-6.079916">
        <ele>13.9</ele>
        <time>2021-02-02T16:29:25Z</time>
      </trkpt>
      <trkpt lat="36.686169" lon="-6.080045">
        <ele>14.0</ele>
        <time>2021-02-02T16:29:27Z</time>
      </trkpt>
      <trkpt lat="36.686150" lon="-6.080186">
        <ele>14.0</ele>
        <time>2021-02-02T16:29:29Z</time>
      </trkpt>
      <trkpt lat="36.686136" lon="-6.080312">
        <ele>14.0</ele>
        <time>2021-02-02T16:29:31Z</time>
      </trkpt>
      <trkpt lat="36.686123" lon="-6.080435">
        <ele>13.9</ele>
        <time>2021-02-02T16:29:33Z</time>
      </trkpt>
      <trkpt lat="36.686109" lon="-6.080560">
        <ele>13.9</ele>
        <time>2021-02-02T16:29:35Z</time>
      </trkpt>
      <trkpt lat="36.686095" lon="-6.080682">
        <ele>13.8</ele>
        <time>2021-02-02T16:29:37Z</time>
      </trkpt>
      <trkpt lat="36.686082" lon="-6.080800">
        <ele>13.8</ele>
        <time>2021-02-02T16:29:39Z</time>
      </trkpt>
      <trkpt lat="36.686069" lon="-6.080914">
        <ele>14.1</ele>
        <time>2021-02-02T16:29:41Z</time>
      </trkpt>
      <trkpt lat="36.686054" lon="-6.081052">
        <ele>14.4</ele>
        <time>2021-02-02T16:29:44Z</time>
      </trkpt>
      <trkpt lat="36.686040" lon="-6.081188">
        <ele>15.1</ele>
        <time>2021-02-02T16:29:47Z</time>
      </trkpt>
      <trkpt lat="36.686026" lon="-6.081325">
        <ele>15.6</ele>
        <time>2021-02-02T16:29:50Z</time>
      </trkpt>
      <trkpt lat="36.686006" lon="-6.081456">
        <ele>16.2</ele>
        <time>2021-02-02T16:29:53Z</time>
      </trkpt>
      <trkpt lat="36.685973" lon="-6.081573">
        <ele>16.8</ele>
        <time>2021-02-02T16:29:56Z</time>
      </trkpt>
      <trkpt lat="36.685955" lon="-6.081689">
        <ele>17.6</ele>
        <time>2021-02-02T16:29:59Z</time>
      </trkpt>
      <trkpt lat="36.685947" lon="-6.081832">
        <ele>18.5</ele>
        <time>2021-02-02T16:30:03Z</time>
      </trkpt>
      <trkpt lat="36.685932" lon="-6.081982">
        <ele>18.8</ele>
        <time>2021-02-02T16:30:06Z</time>
      </trkpt>
      <trkpt lat="36.685916" lon="-6.082131">
        <ele>18.9</ele>
        <time>2021-02-02T16:30:09Z</time>
      </trkpt>
      <trkpt lat="36.685901" lon="-6.082287">
        <ele>19.0</ele>
        <time>2021-02-02T16:30:12Z</time>
      </trkpt>
      <trkpt lat="36.685890" lon="-6.082426">
        <ele>18.7</ele>
        <time>2021-02-02T16:30:14Z</time>
      </trkpt>
      <trkpt lat="36.685874" lon="-6.082591">
        <ele>18.3</ele>
        <time>2021-02-02T16:30:16Z</time>
      </trkpt>
      <trkpt lat="36.685859" lon="-6.082768">
        <ele>17.9</ele>
        <time>2021-02-02T16:30:18Z</time>
      </trkpt>
      <trkpt lat="36.685842" lon="-6.082948">
        <ele>17.4</ele>
        <time>2021-02-02T16:30:20Z</time>
      </trkpt>
      <trkpt lat="36.685802" lon="-6.083126">
        <ele>16.8</ele>
        <time>2021-02-02T16:30:22Z</time>
      </trkpt>
      <trkpt lat="36.685742" lon="-6.083284">
        <ele>16.3</ele>
        <time>2021-02-02T16:30:24Z</time>
      </trkpt>
      <trkpt lat="36.685740" lon="-6.083438">
        <ele>15.7</ele>
        <time>2021-02-02T16:30:26Z</time>
      </trkpt>
      <trkpt lat="36.685772" lon="-6.083582">
        <ele>15.5</ele>
        <time>2021-02-02T16:30:28Z</time>
      </trkpt>
      <trkpt lat="36.685782" lon="-6.083705">
        <ele>15.1</ele>
        <time>2021-02-02T16:30:30Z</time>
      </trkpt>
      <trkpt lat="36.685773" lon="-6.083826">
        <ele>14.8</ele>
        <time>2021-02-02T16:30:32Z</time>
      </trkpt>
      <trkpt lat="36.685762" lon="-6.083954">
        <ele>14.6</ele>
        <time>2021-02-02T16:30:34Z</time>
      </trkpt>
      <trkpt lat="36.685750" lon="-6.084081">
        <ele>14.5</ele>
        <time>2021-02-02T16:30:36Z</time>
      </trkpt>
      <trkpt lat="36.685734" lon="-6.084209">
        <ele>14.4</ele>
        <time>2021-02-02T16:30:38Z</time>
      </trkpt>
      <trkpt lat="36.685713" lon="-6.084329">
        <ele>14.4</ele>
        <time>2021-02-02T16:30:40Z</time>
      </trkpt>
      <trkpt lat="36.685692" lon="-6.084443">
        <ele>14.5</ele>
        <time>2021-02-02T16:30:42Z</time>
      </trkpt>
      <trkpt lat="36.685671" lon="-6.084553">
        <ele>14.7</ele>
        <time>2021-02-02T16:30:44Z</time>
      </trkpt>
      <trkpt lat="36.685645" lon="-6.084713">
        <ele>15.0</ele>
        <time>2021-02-02T16:30:47Z</time>
      </trkpt>
      <trkpt lat="36.685618" lon="-6.084860">
        <ele>15.2</ele>
        <time>2021-02-02T16:30:50Z</time>
      </trkpt>
      <trkpt lat="36.685592" lon="-6.084999">
        <ele>15.4</ele>
        <time>2021-02-02T16:30:53Z</time>
      </trkpt>
      <trkpt lat="36.685569" lon="-6.085130">
        <ele>16.0</ele>
        <time>2021-02-02T16:30:56Z</time>
      </trkpt>
      <trkpt lat="36.685545" lon="-6.085262">
        <ele>16.4</ele>
        <time>2021-02-02T16:30:59Z</time>
      </trkpt>
      <trkpt lat="36.685514" lon="-6.085420">
        <ele>17.0</ele>
        <time>2021-02-02T16:31:02Z</time>
      </trkpt>
      <trkpt lat="36.685488" lon="-6.085576">
        <ele>17.5</ele>
        <time>2021-02-02T16:31:05Z</time>
      </trkpt>
      <trkpt lat="36.685462" lon="-6.085716">
        <ele>18.1</ele>
        <time>2021-02-02T16:31:08Z</time>
      </trkpt>
      <trkpt lat="36.685438" lon="-6.085852">
        <ele>18.7</ele>
        <time>2021-02-02T16:31:11Z</time>
      </trkpt>
      <trkpt lat="36.685411" lon="-6.085981">
        <ele>19.3</ele>
        <time>2021-02-02T16:31:14Z</time>
      </trkpt>
      <trkpt lat="36.685378" lon="-6.086136">
        <ele>19.8</ele>
        <time>2021-02-02T16:31:17Z</time>
      </trkpt>
      <trkpt lat="36.685357" lon="-6.086254">
        <ele>20.1</ele>
        <time>2021-02-02T16:31:19Z</time>
      </trkpt>
      <trkpt lat="36.685344" lon="-6.086371">
        <ele>20.6</ele>
        <time>2021-02-02T16:31:21Z</time>
      </trkpt>
      <trkpt lat="36.685324" lon="-6.086485">
        <ele>20.9</ele>
        <time>2021-02-02T16:31:23Z</time>
      </trkpt>
      <trkpt lat="36.685303" lon="-6.086595">
        <ele>21.2</ele>
        <time>2021-02-02T16:31:25Z</time>
      </trkpt>
      <trkpt lat="36.685284" lon="-6.086708">
        <ele>21.3</ele>
        <time>2021-02-02T16:31:27Z</time>
      </trkpt>
      <trkpt lat="36.685264" lon="-6.086822">
        <ele>21.4</ele>
        <time>2021-02-02T16:31:29Z</time>
      </trkpt>
      <trkpt lat="36.685247" lon="-6.086935">
        <ele>21.7</ele>
        <time>2021-02-02T16:31:31Z</time>
      </trkpt>
      <trkpt lat="36.685219" lon="-6.087100">
        <ele>21.9</ele>
        <time>2021-02-02T16:31:34Z</time>
      </trkpt>
      <trkpt lat="36.685201" lon="-6.087215">
        <ele>22.0</ele>
        <time>2021-02-02T16:31:36Z</time>
      </trkpt>
      <trkpt lat="36.685190" lon="-6.087335">
        <ele>22.2</ele>
        <time>2021-02-02T16:31:38Z</time>
      </trkpt>
      <trkpt lat="36.685181" lon="-6.087453">
        <ele>22.5</ele>
        <time>2021-02-02T16:31:40Z</time>
      </trkpt>
      <trkpt lat="36.685169" lon="-6.087568">
        <ele>22.6</ele>
        <time>2021-02-02T16:31:42Z</time>
      </trkpt>
      <trkpt lat="36.685158" lon="-6.087682">
        <ele>22.7</ele>
        <time>2021-02-02T16:31:44Z</time>
      </trkpt>
      <trkpt lat="36.685148" lon="-6.087795">
        <ele>22.8</ele>
        <time>2021-02-02T16:31:46Z</time>
      </trkpt>
      <trkpt lat="36.685140" lon="-6.087913">
        <ele>23.1</ele>
        <time>2021-02-02T16:31:48Z</time>
      </trkpt>
      <trkpt lat="36.685133" lon="-6.088029">
        <ele>23.2</ele>
        <time>2021-02-02T16:31:50Z</time>
      </trkpt>
      <trkpt lat="36.685124" lon="-6.088142">
        <ele>23.3</ele>
        <time>2021-02-02T16:31:52Z</time>
      </trkpt>
      <trkpt lat="36.685116" lon="-6.088304">
        <ele>23.5</ele>
        <time>2021-02-02T16:31:55Z</time>
      </trkpt>
      <trkpt lat="36.685098" lon="-6.088471">
        <ele>23.8</ele>
        <time>2021-02-02T16:31:58Z</time>
      </trkpt>
      <trkpt lat="36.685090" lon="-6.088588">
        <ele>24.0</ele>
        <time>2021-02-02T16:32:00Z</time>
      </trkpt>
      <trkpt lat="36.685091" lon="-6.088705">
        <ele>24.3</ele>
        <time>2021-02-02T16:32:02Z</time>
      </trkpt>
      <trkpt lat="36.685092" lon="-6.088828">
        <ele>24.5</ele>
        <time>2021-02-02T16:32:04Z</time>
      </trkpt>
      <trkpt lat="36.685090" lon="-6.088948">
        <ele>24.6</ele>
        <time>2021-02-02T16:32:06Z</time>
      </trkpt>
      <trkpt lat="36.685082" lon="-6.089066">
        <ele>24.7</ele>
        <time>2021-02-02T16:32:08Z</time>
      </trkpt>
      <trkpt lat="36.685076" lon="-6.089185">
        <ele>24.7</ele>
        <time>2021-02-02T16:32:10Z</time>
      </trkpt>
      <trkpt lat="36.685072" lon="-6.089302">
        <ele>24.8</ele>
        <time>2021-02-02T16:32:12Z</time>
      </trkpt>
      <trkpt lat="36.685064" lon="-6.089419">
        <ele>25.1</ele>
        <time>2021-02-02T16:32:14Z</time>
      </trkpt>
      <trkpt lat="36.685055" lon="-6.089534">
        <ele>25.4</ele>
        <time>2021-02-02T16:32:16Z</time>
      </trkpt>
      <trkpt lat="36.685045" lon="-6.089649">
        <ele>25.5</ele>
        <time>2021-02-02T16:32:18Z</time>
      </trkpt>
      <trkpt lat="36.685039" lon="-6.089764">
        <ele>25.6</ele>
        <time>2021-02-02T16:32:20Z</time>
      </trkpt>
      <trkpt lat="36.685040" lon="-6.089884">
        <ele>25.8</ele>
        <time>2021-02-02T16:32:22Z</time>
      </trkpt>
      <trkpt lat="36.685035" lon="-6.090007">
        <ele>25.8</ele>
        <time>2021-02-02T16:32:24Z</time>
      </trkpt>
      <trkpt lat="36.685028" lon="-6.090129">
        <ele>26.1</ele>
        <time>2021-02-02T16:32:26Z</time>
      </trkpt>
      <trkpt lat="36.685020" lon="-6.090244">
        <ele>26.3</ele>
        <time>2021-02-02T16:32:28Z</time>
      </trkpt>
      <trkpt lat="36.685013" lon="-6.090408">
        <ele>26.6</ele>
        <time>2021-02-02T16:32:31Z</time>
      </trkpt>
      <trkpt lat="36.685008" lon="-6.090573">
        <ele>26.8</ele>
        <time>2021-02-02T16:32:34Z</time>
      </trkpt>
      <trkpt lat="36.685007" lon="-6.090739">
        <ele>27.1</ele>
        <time>2021-02-02T16:32:37Z</time>
      </trkpt>
      <trkpt lat="36.685006" lon="-6.090902">
        <ele>27.5</ele>
        <time>2021-02-02T16:32:40Z</time>
      </trkpt>
      <trkpt lat="36.685008" lon="-6.091014">
        <ele>27.6</ele>
        <time>2021-02-02T16:32:42Z</time>
      </trkpt>
      <trkpt lat="36.685009" lon="-6.091130">
        <ele>27.8</ele>
        <time>2021-02-02T16:32:44Z</time>
      </trkpt>
      <trkpt lat="36.685012" lon="-6.091244">
        <ele>27.9</ele>
        <time>2021-02-02T16:32:46Z</time>
      </trkpt>
      <trkpt lat="36.685022" lon="-6.091407">
        <ele>28.0</ele>
        <time>2021-02-02T16:32:49Z</time>
      </trkpt>
      <trkpt lat="36.685030" lon="-6.091571">
        <ele>28.1</ele>
        <time>2021-02-02T16:32:52Z</time>
      </trkpt>
      <trkpt lat="36.685039" lon="-6.091736">
        <ele>28.2</ele>
        <time>2021-02-02T16:32:55Z</time>
      </trkpt>
      <trkpt lat="36.685044" lon="-6.091896">
        <ele>28.3</ele>
        <time>2021-02-02T16:32:58Z</time>
      </trkpt>
      <trkpt lat="36.685052" lon="-6.092053">
        <ele>28.3</ele>
        <time>2021-02-02T16:33:01Z</time>
      </trkpt>
      <trkpt lat="36.685062" lon="-6.092213">
        <ele>28.5</ele>
        <time>2021-02-02T16:33:04Z</time>
      </trkpt>
      <trkpt lat="36.685074" lon="-6.092331">
        <ele>28.9</ele>
        <time>2021-02-02T16:33:06Z</time>
      </trkpt>
      <trkpt lat="36.685078" lon="-6.092449">
        <ele>29.1</ele>
        <time>2021-02-02T16:33:08Z</time>
      </trkpt>
      <trkpt lat="36.685086" lon="-6.092565">
        <ele>29.2</ele>
        <time>2021-02-02T16:33:10Z</time>
      </trkpt>
      <trkpt lat="36.685091" lon="-6.092677">
        <ele>29.3</ele>
        <time>2021-02-02T16:33:12Z</time>
      </trkpt>
      <trkpt lat="36.685100" lon="-6.092790">
        <ele>29.7</ele>
        <time>2021-02-02T16:33:14Z</time>
      </trkpt>
      <trkpt lat="36.685108" lon="-6.092904">
        <ele>29.9</ele>
        <time>2021-02-02T16:33:16Z</time>
      </trkpt>
      <trkpt lat="36.685119" lon="-6.093017">
        <ele>30.0</ele>
        <time>2021-02-02T16:33:18Z</time>
      </trkpt>
      <trkpt lat="36.685130" lon="-6.093136">
        <ele>30.0</ele>
        <time>2021-02-02T16:33:20Z</time>
      </trkpt>
      <trkpt lat="36.685144" lon="-6.093254">
        <ele>30.1</ele>
        <time>2021-02-02T16:33:22Z</time>
      </trkpt>
      <trkpt lat="36.685162" lon="-6.093375">
        <ele>30.3</ele>
        <time>2021-02-02T16:33:24Z</time>
      </trkpt>
      <trkpt lat="36.685181" lon="-6.093495">
        <ele>30.3</ele>
        <time>2021-02-02T16:33:26Z</time>
      </trkpt>
      <trkpt lat="36.685196" lon="-6.093616">
        <ele>30.4</ele>
        <time>2021-02-02T16:33:28Z</time>
      </trkpt>
      <trkpt lat="36.685212" lon="-6.093734">
        <ele>30.4</ele>
        <time>2021-02-02T16:33:30Z</time>
      </trkpt>
      <trkpt lat="36.685227" lon="-6.093849">
        <ele>30.4</ele>
        <time>2021-02-02T16:33:32Z</time>
      </trkpt>
      <trkpt lat="36.685246" lon="-6.093960">
        <ele>30.5</ele>
        <time>2021-02-02T16:33:34Z</time>
      </trkpt>
      <trkpt lat="36.685262" lon="-6.094071">
        <ele>30.5</ele>
        <time>2021-02-02T16:33:36Z</time>
      </trkpt>
      <trkpt lat="36.685278" lon="-6.094184">
        <ele>30.4</ele>
        <time>2021-02-02T16:33:38Z</time>
      </trkpt>
      <trkpt lat="36.685296" lon="-6.094298">
        <ele>30.5</ele>
        <time>2021-02-02T16:33:40Z</time>
      </trkpt>
      <trkpt lat="36.685311" lon="-6.094412">
        <ele>30.5</ele>
        <time>2021-02-02T16:33:42Z</time>
      </trkpt>
      <trkpt lat="36.685328" lon="-6.094529">
        <ele>30.6</ele>
        <time>2021-02-02T16:33:44Z</time>
      </trkpt>
      <trkpt lat="36.685345" lon="-6.094649">
        <ele>30.7</ele>
        <time>2021-02-02T16:33:46Z</time>
      </trkpt>
      <trkpt lat="36.685361" lon="-6.094764">
        <ele>30.6</ele>
        <time>2021-02-02T16:33:48Z</time>
      </trkpt>
      <trkpt lat="36.685376" lon="-6.094875">
        <ele>30.8</ele>
        <time>2021-02-02T16:33:50Z</time>
      </trkpt>
      <trkpt lat="36.685393" lon="-6.094993">
        <ele>30.8</ele>
        <time>2021-02-02T16:33:52Z</time>
      </trkpt>
      <trkpt lat="36.685410" lon="-6.095113">
        <ele>30.9</ele>
        <time>2021-02-02T16:33:54Z</time>
      </trkpt>
      <trkpt lat="36.685427" lon="-6.095234">
        <ele>30.9</ele>
        <time>2021-02-02T16:33:56Z</time>
      </trkpt>
      <trkpt lat="36.685444" lon="-6.095355">
        <ele>30.9</ele>
        <time>2021-02-02T16:33:58Z</time>
      </trkpt>
      <trkpt lat="36.685460" lon="-6.095470">
        <ele>31.0</ele>
        <time>2021-02-02T16:34:00Z</time>
      </trkpt>
      <trkpt lat="36.685477" lon="-6.095584">
        <ele>31.0</ele>
        <time>2021-02-02T16:34:02Z</time>
      </trkpt>
      <trkpt lat="36.685492" lon="-6.095696">
        <ele>31.0</ele>
        <time>2021-02-02T16:34:04Z</time>
      </trkpt>
      <trkpt lat="36.685517" lon="-6.095858">
        <ele>30.9</ele>
        <time>2021-02-02T16:34:07Z</time>
      </trkpt>
      <trkpt lat="36.685539" lon="-6.096008">
        <ele>31.2</ele>
        <time>2021-02-02T16:34:10Z</time>
      </trkpt>
      <trkpt lat="36.685627" lon="-6.096133">
        <ele>31.4</ele>
        <time>2021-02-02T16:34:13Z</time>
      </trkpt>
      <trkpt lat="36.685718" lon="-6.096205">
        <ele>31.3</ele>
        <time>2021-02-02T16:34:15Z</time>
      </trkpt>
      <trkpt lat="36.685814" lon="-6.096257">
        <ele>31.3</ele>
        <time>2021-02-02T16:34:17Z</time>
      </trkpt>
      <trkpt lat="36.685906" lon="-6.096303">
        <ele>31.4</ele>
        <time>2021-02-02T16:34:19Z</time>
      </trkpt>
      <trkpt lat="36.685982" lon="-6.096387">
        <ele>31.6</ele>
        <time>2021-02-02T16:34:21Z</time>
      </trkpt>
      <trkpt lat="36.686017" lon="-6.096493">
        <ele>31.7</ele>
        <time>2021-02-02T16:34:23Z</time>
      </trkpt>
      <trkpt lat="36.685995" lon="-6.096649">
        <ele>31.8</ele>
        <time>2021-02-02T16:34:26Z</time>
      </trkpt>
      <trkpt lat="36.685922" lon="-6.096781">
        <ele>31.9</ele>
        <time>2021-02-02T16:34:29Z</time>
      </trkpt>
      <trkpt lat="36.685883" lon="-6.096936">
        <ele>31.9</ele>
        <time>2021-02-02T16:34:32Z</time>
      </trkpt>
      <trkpt lat="36.685879" lon="-6.097049">
        <ele>32.0</ele>
        <time>2021-02-02T16:34:34Z</time>
      </trkpt>
      <trkpt lat="36.685881" lon="-6.097163">
        <ele>32.0</ele>
        <time>2021-02-02T16:34:36Z</time>
      </trkpt>
      <trkpt lat="36.685892" lon="-6.097277">
        <ele>32.0</ele>
        <time>2021-02-02T16:34:38Z</time>
      </trkpt>
      <trkpt lat="36.685911" lon="-6.097392">
        <ele>32.0</ele>
        <time>2021-02-02T16:34:40Z</time>
      </trkpt>
      <trkpt lat="36.685939" lon="-6.097504">
        <ele>32.0</ele>
        <time>2021-02-02T16:34:42Z</time>
      </trkpt>
      <trkpt lat="36.685964" lon="-6.097619">
        <ele>32.1</ele>
        <time>2021-02-02T16:34:44Z</time>
      </trkpt>
      <trkpt lat="36.685989" lon="-6.097732">
        <ele>32.1</ele>
        <time>2021-02-02T16:34:46Z</time>
      </trkpt>
      <trkpt lat="36.686012" lon="-6.097842">
        <ele>32.2</ele>
        <time>2021-02-02T16:34:48Z</time>
      </trkpt>
      <trkpt lat="36.686036" lon="-6.097952">
        <ele>32.3</ele>
        <time>2021-02-02T16:34:50Z</time>
      </trkpt>
      <trkpt lat="36.686063" lon="-6.098059">
        <ele>32.4</ele>
        <time>2021-02-02T16:34:52Z</time>
      </trkpt>
      <trkpt lat="36.686094" lon="-6.098222">
        <ele>32.5</ele>
        <time>2021-02-02T16:34:55Z</time>
      </trkpt>
      <trkpt lat="36.686128" lon="-6.098380">
        <ele>32.6</ele>
        <time>2021-02-02T16:34:58Z</time>
      </trkpt>
      <trkpt lat="36.686166" lon="-6.098520">
        <ele>32.8</ele>
        <time>2021-02-02T16:35:01Z</time>
      </trkpt>
      <trkpt lat="36.686247" lon="-6.098634">
        <ele>32.8</ele>
        <time>2021-02-02T16:35:04Z</time>
      </trkpt>
      <trkpt lat="36.686337" lon="-6.098755">
        <ele>32.9</ele>
        <time>2021-02-02T16:35:07Z</time>
      </trkpt>
      <trkpt lat="36.686371" lon="-6.098865">
        <ele>32.9</ele>
        <time>2021-02-02T16:35:09Z</time>
      </trkpt>
      <trkpt lat="36.686353" lon="-6.098981">
        <ele>32.9</ele>
        <time>2021-02-02T16:35:11Z</time>
      </trkpt>
      <trkpt lat="36.686307" lon="-6.099122">
        <ele>33.1</ele>
        <time>2021-02-02T16:35:14Z</time>
      </trkpt>
      <trkpt lat="36.686206" lon="-6.099189">
        <ele>33.2</ele>
        <time>2021-02-02T16:35:17Z</time>
      </trkpt>
      <trkpt lat="36.686090" lon="-6.099170">
        <ele>33.4</ele>
        <time>2021-02-02T16:35:20Z</time>
      </trkpt>
      <trkpt lat="36.685991" lon="-6.099090">
        <ele>33.9</ele>
        <time>2021-02-02T16:35:23Z</time>
      </trkpt>
      <trkpt lat="36.685875" lon="-6.099057">
        <ele>34.0</ele>
        <time>2021-02-02T16:35:26Z</time>
      </trkpt>
      <trkpt lat="36.685747" lon="-6.099067">
        <ele>34.0</ele>
        <time>2021-02-02T16:35:29Z</time>
      </trkpt>
      <trkpt lat="36.685617" lon="-6.099084">
        <ele>34.1</ele>
        <time>2021-02-02T16:35:32Z</time>
      </trkpt>
      <trkpt lat="36.685482" lon="-6.099097">
        <ele>34.3</ele>
        <time>2021-02-02T16:35:35Z</time>
      </trkpt>
      <trkpt lat="36.685385" lon="-6.099107">
        <ele>34.4</ele>
        <time>2021-02-02T16:35:37Z</time>
      </trkpt>
      <trkpt lat="36.685285" lon="-6.099118">
        <ele>34.4</ele>
        <time>2021-02-02T16:35:39Z</time>
      </trkpt>
      <trkpt lat="36.685187" lon="-6.099128">
        <ele>34.2</ele>
        <time>2021-02-02T16:35:41Z</time>
      </trkpt>
      <trkpt lat="36.685091" lon="-6.099153">
        <ele>34.0</ele>
        <time>2021-02-02T16:35:46Z</time>
      </trkpt>
      <trkpt lat="36.684991" lon="-6.099155">
        <ele>33.6</ele>
        <time>2021-02-02T16:35:49Z</time>
      </trkpt>
      <trkpt lat="36.684859" lon="-6.099155">
        <ele>33.7</ele>
        <time>2021-02-02T16:35:52Z</time>
      </trkpt>
      <trkpt lat="36.684765" lon="-6.099169">
        <ele>33.8</ele>
        <time>2021-02-02T16:35:54Z</time>
      </trkpt>
      <trkpt lat="36.684666" lon="-6.099160">
        <ele>33.9</ele>
        <time>2021-02-02T16:35:56Z</time>
      </trkpt>
      <trkpt lat="36.684573" lon="-6.099154">
        <ele>33.8</ele>
        <time>2021-02-02T16:35:58Z</time>
      </trkpt>
      <trkpt lat="36.684466" lon="-6.099144">
        <ele>33.8</ele>
        <time>2021-02-02T16:36:00Z</time>
      </trkpt>
      <trkpt lat="36.684346" lon="-6.099159">
        <ele>33.0</ele>
        <time>2021-02-02T16:36:03Z</time>
      </trkpt>
      <trkpt lat="36.684232" lon="-6.099218">
        <ele>33.7</ele>
        <time>2021-02-02T16:36:06Z</time>
      </trkpt>
      <trkpt lat="36.684132" lon="-6.099228">
        <ele>33.5</ele>
        <time>2021-02-02T16:36:08Z</time>
      </trkpt>
      <trkpt lat="36.684038" lon="-6.099237">
        <ele>33.2</ele>
        <time>2021-02-02T16:36:10Z</time>
      </trkpt>
      <trkpt lat="36.683921" lon="-6.099243">
        <ele>33.1</ele>
        <time>2021-02-02T16:36:12Z</time>
      </trkpt>
      <trkpt lat="36.683819" lon="-6.099256">
        <ele>33.0</ele>
        <time>2021-02-02T16:36:14Z</time>
      </trkpt>
      <trkpt lat="36.683721" lon="-6.099279">
        <ele>32.9</ele>
        <time>2021-02-02T16:36:16Z</time>
      </trkpt>
      <trkpt lat="36.683615" lon="-6.099295">
        <ele>32.7</ele>
        <time>2021-02-02T16:36:18Z</time>
      </trkpt>
      <trkpt lat="36.683509" lon="-6.099323">
        <ele>32.4</ele>
        <time>2021-02-02T16:36:20Z</time>
      </trkpt>
      <trkpt lat="36.683384" lon="-6.099342">
        <ele>31.8</ele>
        <time>2021-02-02T16:36:22Z</time>
      </trkpt>
      <trkpt lat="36.683270" lon="-6.099351">
        <ele>31.3</ele>
        <time>2021-02-02T16:36:24Z</time>
      </trkpt>
      <trkpt lat="36.683155" lon="-6.099364">
        <ele>30.6</ele>
        <time>2021-02-02T16:36:26Z</time>
      </trkpt>
      <trkpt lat="36.683028" lon="-6.099377">
        <ele>30.1</ele>
        <time>2021-02-02T16:36:28Z</time>
      </trkpt>
      <trkpt lat="36.682900" lon="-6.099390">
        <ele>29.4</ele>
        <time>2021-02-02T16:36:30Z</time>
      </trkpt>
      <trkpt lat="36.682764" lon="-6.099409">
        <ele>28.7</ele>
        <time>2021-02-02T16:36:32Z</time>
      </trkpt>
      <trkpt lat="36.682619" lon="-6.099433">
        <ele>28.1</ele>
        <time>2021-02-02T16:36:34Z</time>
      </trkpt>
      <trkpt lat="36.682481" lon="-6.099443">
        <ele>27.6</ele>
        <time>2021-02-02T16:36:36Z</time>
      </trkpt>
      <trkpt lat="36.682342" lon="-6.099461">
        <ele>27.2</ele>
        <time>2021-02-02T16:36:38Z</time>
      </trkpt>
      <trkpt lat="36.682196" lon="-6.099459">
        <ele>26.3</ele>
        <time>2021-02-02T16:36:40Z</time>
      </trkpt>
      <trkpt lat="36.682049" lon="-6.099457">
        <ele>25.4</ele>
        <time>2021-02-02T16:36:42Z</time>
      </trkpt>
      <trkpt lat="36.681891" lon="-6.099469">
        <ele>24.7</ele>
        <time>2021-02-02T16:36:44Z</time>
      </trkpt>
      <trkpt lat="36.681733" lon="-6.099485">
        <ele>23.9</ele>
        <time>2021-02-02T16:36:46Z</time>
      </trkpt>
      <trkpt lat="36.681574" lon="-6.099505">
        <ele>23.4</ele>
        <time>2021-02-02T16:36:48Z</time>
      </trkpt>
      <trkpt lat="36.681417" lon="-6.099523">
        <ele>22.9</ele>
        <time>2021-02-02T16:36:50Z</time>
      </trkpt>
      <trkpt lat="36.681267" lon="-6.099540">
        <ele>22.2</ele>
        <time>2021-02-02T16:36:52Z</time>
      </trkpt>
      <trkpt lat="36.681116" lon="-6.099556">
        <ele>22.0</ele>
        <time>2021-02-02T16:36:54Z</time>
      </trkpt>
      <trkpt lat="36.680968" lon="-6.099575">
        <ele>21.9</ele>
        <time>2021-02-02T16:36:56Z</time>
      </trkpt>
      <trkpt lat="36.680834" lon="-6.099598">
        <ele>21.3</ele>
        <time>2021-02-02T16:36:58Z</time>
      </trkpt>
      <trkpt lat="36.680705" lon="-6.099614">
        <ele>21.1</ele>
        <time>2021-02-02T16:37:00Z</time>
      </trkpt>
      <trkpt lat="36.680591" lon="-6.099635">
        <ele>21.0</ele>
        <time>2021-02-02T16:37:02Z</time>
      </trkpt>
      <trkpt lat="36.680512" lon="-6.099715">
        <ele>21.0</ele>
        <time>2021-02-02T16:37:04Z</time>
      </trkpt>
      <trkpt lat="36.680449" lon="-6.099812">
        <ele>20.9</ele>
        <time>2021-02-02T16:37:06Z</time>
      </trkpt>
      <trkpt lat="36.680354" lon="-6.099864">
        <ele>20.7</ele>
        <time>2021-02-02T16:37:08Z</time>
      </trkpt>
      <trkpt lat="36.680247" lon="-6.099877">
        <ele>20.3</ele>
        <time>2021-02-02T16:37:10Z</time>
      </trkpt>
      <trkpt lat="36.680144" lon="-6.099841">
        <ele>20.2</ele>
        <time>2021-02-02T16:37:12Z</time>
      </trkpt>
      <trkpt lat="36.680038" lon="-6.099814">
        <ele>20.2</ele>
        <time>2021-02-02T16:37:14Z</time>
      </trkpt>
      <trkpt lat="36.679934" lon="-6.099854">
        <ele>20.3</ele>
        <time>2021-02-02T16:37:16Z</time>
      </trkpt>
      <trkpt lat="36.679831" lon="-6.099918">
        <ele>20.3</ele>
        <time>2021-02-02T16:37:18Z</time>
      </trkpt>
      <trkpt lat="36.679735" lon="-6.099983">
        <ele>20.3</ele>
        <time>2021-02-02T16:37:20Z</time>
      </trkpt>
      <trkpt lat="36.679640" lon="-6.100047">
        <ele>20.3</ele>
        <time>2021-02-02T16:37:22Z</time>
      </trkpt>
      <trkpt lat="36.679552" lon="-6.100113">
        <ele>20.3</ele>
        <time>2021-02-02T16:37:24Z</time>
      </trkpt>
      <trkpt lat="36.679464" lon="-6.100182">
        <ele>20.3</ele>
        <time>2021-02-02T16:37:26Z</time>
      </trkpt>
      <trkpt lat="36.679378" lon="-6.100251">
        <ele>20.5</ele>
        <time>2021-02-02T16:37:28Z</time>
      </trkpt>
      <trkpt lat="36.679290" lon="-6.100319">
        <ele>20.6</ele>
        <time>2021-02-02T16:37:30Z</time>
      </trkpt>
      <trkpt lat="36.679208" lon="-6.100396">
        <ele>20.8</ele>
        <time>2021-02-02T16:37:32Z</time>
      </trkpt>
      <trkpt lat="36.679125" lon="-6.100470">
        <ele>20.9</ele>
        <time>2021-02-02T16:37:34Z</time>
      </trkpt>
      <trkpt lat="36.679045" lon="-6.100547">
        <ele>21.0</ele>
        <time>2021-02-02T16:37:36Z</time>
      </trkpt>
      <trkpt lat="36.678965" lon="-6.100632">
        <ele>21.3</ele>
        <time>2021-02-02T16:37:38Z</time>
      </trkpt>
      <trkpt lat="36.678893" lon="-6.100715">
        <ele>21.4</ele>
        <time>2021-02-02T16:37:40Z</time>
      </trkpt>
      <trkpt lat="36.678823" lon="-6.100796">
        <ele>21.7</ele>
        <time>2021-02-02T16:37:42Z</time>
      </trkpt>
      <trkpt lat="36.678754" lon="-6.100872">
        <ele>21.8</ele>
        <time>2021-02-02T16:37:44Z</time>
      </trkpt>
      <trkpt lat="36.678660" lon="-6.100989">
        <ele>22.3</ele>
        <time>2021-02-02T16:37:47Z</time>
      </trkpt>
      <trkpt lat="36.678573" lon="-6.101103">
        <ele>22.7</ele>
        <time>2021-02-02T16:37:50Z</time>
      </trkpt>
      <trkpt lat="36.678485" lon="-6.101222">
        <ele>23.2</ele>
        <time>2021-02-02T16:37:53Z</time>
      </trkpt>
      <trkpt lat="36.678403" lon="-6.101342">
        <ele>23.7</ele>
        <time>2021-02-02T16:37:56Z</time>
      </trkpt>
      <trkpt lat="36.678327" lon="-6.101445">
        <ele>24.1</ele>
        <time>2021-02-02T16:37:59Z</time>
      </trkpt>
      <trkpt lat="36.678260" lon="-6.101564">
        <ele>24.5</ele>
        <time>2021-02-02T16:38:02Z</time>
      </trkpt>
      <trkpt lat="36.678188" lon="-6.101682">
        <ele>25.0</ele>
        <time>2021-02-02T16:38:05Z</time>
      </trkpt>
      <trkpt lat="36.678122" lon="-6.101804">
        <ele>25.2</ele>
        <time>2021-02-02T16:38:08Z</time>
      </trkpt>
      <trkpt lat="36.678055" lon="-6.101932">
        <ele>25.6</ele>
        <time>2021-02-02T16:38:11Z</time>
      </trkpt>
      <trkpt lat="36.677992" lon="-6.102059">
        <ele>26.0</ele>
        <time>2021-02-02T16:38:14Z</time>
      </trkpt>
      <trkpt lat="36.677930" lon="-6.102195">
        <ele>26.5</ele>
        <time>2021-02-02T16:38:17Z</time>
      </trkpt>
      <trkpt lat="36.677869" lon="-6.102329">
        <ele>27.0</ele>
        <time>2021-02-02T16:38:20Z</time>
      </trkpt>
      <trkpt lat="36.677807" lon="-6.102463">
        <ele>27.5</ele>
        <time>2021-02-02T16:38:23Z</time>
      </trkpt>
      <trkpt lat="36.677750" lon="-6.102601">
        <ele>28.0</ele>
        <time>2021-02-02T16:38:26Z</time>
      </trkpt>
      <trkpt lat="36.677693" lon="-6.102741">
        <ele>28.4</ele>
        <time>2021-02-02T16:38:29Z</time>
      </trkpt>
      <trkpt lat="36.677633" lon="-6.102871">
        <ele>28.9</ele>
        <time>2021-02-02T16:38:32Z</time>
      </trkpt>
      <trkpt lat="36.677580" lon="-6.102993">
        <ele>29.3</ele>
        <time>2021-02-02T16:38:35Z</time>
      </trkpt>
      <trkpt lat="36.677525" lon="-6.103118">
        <ele>29.8</ele>
        <time>2021-02-02T16:38:38Z</time>
      </trkpt>
      <trkpt lat="36.677469" lon="-6.103251">
        <ele>30.0</ele>
        <time>2021-02-02T16:38:41Z</time>
      </trkpt>
      <trkpt lat="36.677412" lon="-6.103391">
        <ele>30.1</ele>
        <time>2021-02-02T16:38:44Z</time>
      </trkpt>
      <trkpt lat="36.677354" lon="-6.103524">
        <ele>30.3</ele>
        <time>2021-02-02T16:38:47Z</time>
      </trkpt>
      <trkpt lat="36.677295" lon="-6.103664">
        <ele>30.5</ele>
        <time>2021-02-02T16:38:50Z</time>
      </trkpt>
      <trkpt lat="36.677236" lon="-6.103804">
        <ele>30.7</ele>
        <time>2021-02-02T16:38:53Z</time>
      </trkpt>
      <trkpt lat="36.677180" lon="-6.103933">
        <ele>30.7</ele>
        <time>2021-02-02T16:38:56Z</time>
      </trkpt>
      <trkpt lat="36.677121" lon="-6.104077">
        <ele>31.0</ele>
        <time>2021-02-02T16:38:59Z</time>
      </trkpt>
      <trkpt lat="36.677061" lon="-6.104222">
        <ele>31.1</ele>
        <time>2021-02-02T16:39:02Z</time>
      </trkpt>
      <trkpt lat="36.677002" lon="-6.104361">
        <ele>31.2</ele>
        <time>2021-02-02T16:39:05Z</time>
      </trkpt>
      <trkpt lat="36.676943" lon="-6.104492">
        <ele>31.4</ele>
        <time>2021-02-02T16:39:08Z</time>
      </trkpt>
      <trkpt lat="36.676884" lon="-6.104633">
        <ele>31.7</ele>
        <time>2021-02-02T16:39:11Z</time>
      </trkpt>
      <trkpt lat="36.676822" lon="-6.104766">
        <ele>31.9</ele>
        <time>2021-02-02T16:39:14Z</time>
      </trkpt>
      <trkpt lat="36.676765" lon="-6.104908">
        <ele>32.1</ele>
        <time>2021-02-02T16:39:17Z</time>
      </trkpt>
      <trkpt lat="36.676704" lon="-6.105054">
        <ele>32.3</ele>
        <time>2021-02-02T16:39:20Z</time>
      </trkpt>
      <trkpt lat="36.676641" lon="-6.105197">
        <ele>32.7</ele>
        <time>2021-02-02T16:39:23Z</time>
      </trkpt>
      <trkpt lat="36.676602" lon="-6.105336">
        <ele>33.1</ele>
        <time>2021-02-02T16:39:26Z</time>
      </trkpt>
      <trkpt lat="36.676640" lon="-6.105469">
        <ele>33.3</ele>
        <time>2021-02-02T16:39:29Z</time>
      </trkpt>
      <trkpt lat="36.676643" lon="-6.105617">
        <ele>33.4</ele>
        <time>2021-02-02T16:39:32Z</time>
      </trkpt>
      <trkpt lat="36.676605" lon="-6.105746">
        <ele>33.5</ele>
        <time>2021-02-02T16:39:35Z</time>
      </trkpt>
      <trkpt lat="36.676630" lon="-6.105864">
        <ele>33.8</ele>
        <time>2021-02-02T16:39:38Z</time>
      </trkpt>
      <trkpt lat="36.676707" lon="-6.105978">
        <ele>34.0</ele>
        <time>2021-02-02T16:39:41Z</time>
      </trkpt>
      <trkpt lat="36.676757" lon="-6.106117">
        <ele>34.1</ele>
        <time>2021-02-02T16:39:44Z</time>
      </trkpt>
      <trkpt lat="36.676766" lon="-6.106268">
        <ele>34.3</ele>
        <time>2021-02-02T16:39:47Z</time>
      </trkpt>
      <trkpt lat="36.676746" lon="-6.106427">
        <ele>34.5</ele>
        <time>2021-02-02T16:39:50Z</time>
      </trkpt>
      <trkpt lat="36.676713" lon="-6.106580">
        <ele>34.8</ele>
        <time>2021-02-02T16:39:53Z</time>
      </trkpt>
      <trkpt lat="36.676678" lon="-6.106736">
        <ele>35.0</ele>
        <time>2021-02-02T16:39:56Z</time>
      </trkpt>
      <trkpt lat="36.676649" lon="-6.106900">
        <ele>35.2</ele>
        <time>2021-02-02T16:39:59Z</time>
      </trkpt>
      <trkpt lat="36.676634" lon="-6.107062">
        <ele>35.4</ele>
        <time>2021-02-02T16:40:02Z</time>
      </trkpt>
      <trkpt lat="36.676629" lon="-6.107226">
        <ele>35.7</ele>
        <time>2021-02-02T16:40:05Z</time>
      </trkpt>
      <trkpt lat="36.676635" lon="-6.107391">
        <ele>35.8</ele>
        <time>2021-02-02T16:40:08Z</time>
      </trkpt>
      <trkpt lat="36.676647" lon="-6.107504">
        <ele>35.9</ele>
        <time>2021-02-02T16:40:10Z</time>
      </trkpt>
      <trkpt lat="36.676666" lon="-6.107617">
        <ele>36.0</ele>
        <time>2021-02-02T16:40:12Z</time>
      </trkpt>
      <trkpt lat="36.676691" lon="-6.107780">
        <ele>36.2</ele>
        <time>2021-02-02T16:40:15Z</time>
      </trkpt>
      <trkpt lat="36.676709" lon="-6.107893">
        <ele>36.4</ele>
        <time>2021-02-02T16:40:17Z</time>
      </trkpt>
      <trkpt lat="36.676730" lon="-6.108004">
        <ele>36.5</ele>
        <time>2021-02-02T16:40:19Z</time>
      </trkpt>
      <trkpt lat="36.676751" lon="-6.108118">
        <ele>36.5</ele>
        <time>2021-02-02T16:40:21Z</time>
      </trkpt>
      <trkpt lat="36.676771" lon="-6.108233">
        <ele>36.7</ele>
        <time>2021-02-02T16:40:23Z</time>
      </trkpt>
      <trkpt lat="36.676787" lon="-6.108345">
        <ele>36.6</ele>
        <time>2021-02-02T16:40:25Z</time>
      </trkpt>
      <trkpt lat="36.676805" lon="-6.108458">
        <ele>36.6</ele>
        <time>2021-02-02T16:40:27Z</time>
      </trkpt>
      <trkpt lat="36.676822" lon="-6.108571">
        <ele>36.7</ele>
        <time>2021-02-02T16:40:29Z</time>
      </trkpt>
      <trkpt lat="36.676843" lon="-6.108734">
        <ele>36.9</ele>
        <time>2021-02-02T16:40:32Z</time>
      </trkpt>
      <trkpt lat="36.676861" lon="-6.108901">
        <ele>36.7</ele>
        <time>2021-02-02T16:40:35Z</time>
      </trkpt>
      <trkpt lat="36.676874" lon="-6.109014">
        <ele>36.9</ele>
        <time>2021-02-02T16:40:37Z</time>
      </trkpt>
      <trkpt lat="36.676880" lon="-6.109128">
        <ele>37.0</ele>
        <time>2021-02-02T16:40:39Z</time>
      </trkpt>
      <trkpt lat="36.676892" lon="-6.109291">
        <ele>37.3</ele>
        <time>2021-02-02T16:40:42Z</time>
      </trkpt>
      <trkpt lat="36.676899" lon="-6.109444">
        <ele>37.4</ele>
        <time>2021-02-02T16:40:45Z</time>
      </trkpt>
      <trkpt lat="36.676985" lon="-6.109527">
        <ele>37.4</ele>
        <time>2021-02-02T16:40:49Z</time>
      </trkpt>
      <trkpt lat="36.677101" lon="-6.109523">
        <ele>37.6</ele>
        <time>2021-02-02T16:40:52Z</time>
      </trkpt>
      <trkpt lat="36.677231" lon="-6.109511">
        <ele>37.6</ele>
        <time>2021-02-02T16:40:55Z</time>
      </trkpt>
      <trkpt lat="36.677322" lon="-6.109495">
        <ele>37.6</ele>
        <time>2021-02-02T16:40:57Z</time>
      </trkpt>
      <trkpt lat="36.677418" lon="-6.109477">
        <ele>37.5</ele>
        <time>2021-02-02T16:40:59Z</time>
      </trkpt>
      <trkpt lat="36.677515" lon="-6.109457">
        <ele>37.4</ele>
        <time>2021-02-02T16:41:01Z</time>
      </trkpt>
      <trkpt lat="36.677615" lon="-6.109437">
        <ele>37.4</ele>
        <time>2021-02-02T16:41:03Z</time>
      </trkpt>
      <trkpt lat="36.677717" lon="-6.109414">
        <ele>37.4</ele>
        <time>2021-02-02T16:41:05Z</time>
      </trkpt>
      <trkpt lat="36.677820" lon="-6.109391">
        <ele>37.4</ele>
        <time>2021-02-02T16:41:07Z</time>
      </trkpt>
      <trkpt lat="36.677926" lon="-6.109366">
        <ele>37.2</ele>
        <time>2021-02-02T16:41:09Z</time>
      </trkpt>
      <trkpt lat="36.678030" lon="-6.109340">
        <ele>37.2</ele>
        <time>2021-02-02T16:41:11Z</time>
      </trkpt>
      <trkpt lat="36.678140" lon="-6.109318">
        <ele>37.3</ele>
        <time>2021-02-02T16:41:13Z</time>
      </trkpt>
      <trkpt lat="36.678248" lon="-6.109295">
        <ele>37.0</ele>
        <time>2021-02-02T16:41:15Z</time>
      </trkpt>
      <trkpt lat="36.678350" lon="-6.109268">
        <ele>36.8</ele>
        <time>2021-02-02T16:41:17Z</time>
      </trkpt>
      <trkpt lat="36.678461" lon="-6.109242">
        <ele>36.8</ele>
        <time>2021-02-02T16:41:19Z</time>
      </trkpt>
      <trkpt lat="36.678572" lon="-6.109217">
        <ele>36.9</ele>
        <time>2021-02-02T16:41:21Z</time>
      </trkpt>
      <trkpt lat="36.678678" lon="-6.109194">
        <ele>36.9</ele>
        <time>2021-02-02T16:41:23Z</time>
      </trkpt>
      <trkpt lat="36.678782" lon="-6.109169">
        <ele>36.9</ele>
        <time>2021-02-02T16:41:25Z</time>
      </trkpt>
      <trkpt lat="36.678887" lon="-6.109143">
        <ele>36.7</ele>
        <time>2021-02-02T16:41:27Z</time>
      </trkpt>
      <trkpt lat="36.678994" lon="-6.109104">
        <ele>36.5</ele>
        <time>2021-02-02T16:41:29Z</time>
      </trkpt>
      <trkpt lat="36.679099" lon="-6.109063">
        <ele>36.5</ele>
        <time>2021-02-02T16:41:31Z</time>
      </trkpt>
      <trkpt lat="36.679198" lon="-6.109015">
        <ele>36.4</ele>
        <time>2021-02-02T16:41:33Z</time>
      </trkpt>
      <trkpt lat="36.679296" lon="-6.108954">
        <ele>36.4</ele>
        <time>2021-02-02T16:41:35Z</time>
      </trkpt>
      <trkpt lat="36.679389" lon="-6.108894">
        <ele>36.2</ele>
        <time>2021-02-02T16:41:37Z</time>
      </trkpt>
      <trkpt lat="36.679488" lon="-6.108836">
        <ele>36.1</ele>
        <time>2021-02-02T16:41:39Z</time>
      </trkpt>
      <trkpt lat="36.679580" lon="-6.108776">
        <ele>36.0</ele>
        <time>2021-02-02T16:41:41Z</time>
      </trkpt>
      <trkpt lat="36.679667" lon="-6.108716">
        <ele>36.0</ele>
        <time>2021-02-02T16:41:43Z</time>
      </trkpt>
      <trkpt lat="36.679762" lon="-6.108656">
        <ele>35.9</ele>
        <time>2021-02-02T16:41:45Z</time>
      </trkpt>
      <trkpt lat="36.679859" lon="-6.108593">
        <ele>35.8</ele>
        <time>2021-02-02T16:41:47Z</time>
      </trkpt>
      <trkpt lat="36.679956" lon="-6.108536">
        <ele>35.8</ele>
        <time>2021-02-02T16:41:49Z</time>
      </trkpt>
      <trkpt lat="36.680052" lon="-6.108479">
        <ele>35.7</ele>
        <time>2021-02-02T16:41:51Z</time>
      </trkpt>
      <trkpt lat="36.680147" lon="-6.108424">
        <ele>35.6</ele>
        <time>2021-02-02T16:41:53Z</time>
      </trkpt>
      <trkpt lat="36.680237" lon="-6.108367">
        <ele>35.3</ele>
        <time>2021-02-02T16:41:55Z</time>
      </trkpt>
      <trkpt lat="36.680320" lon="-6.108318">
        <ele>35.2</ele>
        <time>2021-02-02T16:41:57Z</time>
      </trkpt>
      <trkpt lat="36.680421" lon="-6.108270">
        <ele>35.2</ele>
        <time>2021-02-02T16:42:01Z</time>
      </trkpt>
      <trkpt lat="36.680464" lon="-6.108375">
        <ele>35.1</ele>
        <time>2021-02-02T16:42:04Z</time>
      </trkpt>
      <trkpt lat="36.680472" lon="-6.108521">
        <ele>35.2</ele>
        <time>2021-02-02T16:42:07Z</time>
      </trkpt>
      <trkpt lat="36.680483" lon="-6.108679">
        <ele>35.3</ele>
        <time>2021-02-02T16:42:10Z</time>
      </trkpt>
      <trkpt lat="36.680495" lon="-6.108823">
        <ele>35.3</ele>
        <time>2021-02-02T16:42:13Z</time>
      </trkpt>
      <trkpt lat="36.680586" lon="-6.108851">
        <ele>35.2</ele>
        <time>2021-02-02T16:42:18Z</time>
      </trkpt>
      <trkpt lat="36.680678" lon="-6.108803">
        <ele>35.3</ele>
        <time>2021-02-02T16:42:21Z</time>
      </trkpt>
      <trkpt lat="36.680772" lon="-6.108744">
        <ele>35.2</ele>
        <time>2021-02-02T16:42:24Z</time>
      </trkpt>
      <trkpt lat="36.680879" lon="-6.108687">
        <ele>34.9</ele>
        <time>2021-02-02T16:42:27Z</time>
      </trkpt>
      <trkpt lat="36.680996" lon="-6.108637">
        <ele>34.5</ele>
        <time>2021-02-02T16:42:30Z</time>
      </trkpt>
      <trkpt lat="36.681112" lon="-6.108560">
        <ele>34.2</ele>
        <time>2021-02-02T16:42:33Z</time>
      </trkpt>
      <trkpt lat="36.681233" lon="-6.108493">
        <ele>34.0</ele>
        <time>2021-02-02T16:42:36Z</time>
      </trkpt>
      <trkpt lat="36.681351" lon="-6.108433">
        <ele>33.7</ele>
        <time>2021-02-02T16:42:39Z</time>
      </trkpt>
      <trkpt lat="36.681434" lon="-6.108389">
        <ele>33.3</ele>
        <time>2021-02-02T16:42:45Z</time>
      </trkpt>
      <trkpt lat="36.681406" lon="-6.108366">
        <ele>33.0</ele>
        <time>2021-02-02T16:42:53Z</time>
      </trkpt>
    </trkseg>
  </trk>
</gpx>
